<?xml version='1.0' encoding='UTF-8'?><gpx version="1.1" creator="JPX - https://github.com/jenetics/jpx" xmlns="http://www.topografix.com/GPX/1/1"><trk><trkseg><trkpt lat="46.0344163" lon="11.9410137"><ele>306.99999999999994</ele><time>2026-04-18T10:59:14.534Z</time></trkpt><trkpt lat="46.0343773" lon="11.9411021"><ele>307.0</ele><time>2026-04-18T10:59:18.534Z</time></trkpt><trkpt lat="46.034328" lon="11.9411603"><ele>307.0</ele><time>2026-04-18T10:59:20.535Z</time></trkpt><trkpt lat="46.0342663" lon="11.9412062"><ele>307.0</ele><time>2026-04-18T10:59:22.535Z</time></trkpt><trkpt lat="46.0341984" lon="11.9412571"><ele>307.0</ele><time>2026-04-18T10:59:24.534Z</time></trkpt><trkpt lat="46.0341333" lon="11.941321"><ele>306.99999999999994</ele><time>2026-04-18T10:59:26.534Z</time></trkpt><trkpt lat="46.0340686" lon="11.9413742"><ele>307.0</ele><time>2026-04-18T10:59:28.534Z</time></trkpt><trkpt lat="46.0340195" lon="11.9414357"><ele>306.5</ele><time>2026-04-18T10:59:30.535Z</time></trkpt><trkpt lat="46.0339719" lon="11.9415453"><ele>306.0</ele><time>2026-04-18T10:59:33.535Z</time></trkpt><trkpt lat="46.0339455" lon="11.941639"><ele>305.5</ele><time>2026-04-18T10:59:35.535Z</time></trkpt><trkpt lat="46.0339211" lon="11.9417372"><ele>305.0</ele><time>2026-04-18T10:59:37.541Z</time></trkpt><trkpt lat="46.0339074" lon="11.9418382"><ele>304.5</ele><time>2026-04-18T10:59:39.535Z</time></trkpt><trkpt lat="46.0338878" lon="11.9419407"><ele>304.0</ele><time>2026-04-18T10:59:41.535Z</time></trkpt><trkpt lat="46.0338527" lon="11.9420578"><ele>304.0</ele><time>2026-04-18T10:59:43.539Z</time></trkpt><trkpt lat="46.033816" lon="11.9421765"><ele>304.0</ele><time>2026-04-18T10:59:45.536Z</time></trkpt><trkpt lat="46.0337786" lon="11.9422894"><ele>304.0</ele><time>2026-04-18T10:59:47.536Z</time></trkpt><trkpt lat="46.0337443" lon="11.9424011"><ele>304.0</ele><time>2026-04-18T10:59:49.536Z</time></trkpt><trkpt lat="46.0337131" lon="11.9425211"><ele>304.0</ele><time>2026-04-18T10:59:51.537Z</time></trkpt><trkpt lat="46.033679" lon="11.9426491"><ele>304.0</ele><time>2026-04-18T10:59:53.537Z</time></trkpt><trkpt lat="46.0336549" lon="11.942785"><ele>303.8</ele><time>2026-04-18T10:59:55.538Z</time></trkpt><trkpt lat="46.0336285" lon="11.9429209"><ele>303.59999999999997</ele><time>2026-04-18T10:59:57.538Z</time></trkpt><trkpt lat="46.0336038" lon="11.9430587"><ele>303.4</ele><time>2026-04-18T10:59:59.538Z</time></trkpt><trkpt lat="46.0335882" lon="11.9432045"><ele>303.2</ele><time>2026-04-18T11:00:01.537Z</time></trkpt><trkpt lat="46.0335713" lon="11.9433555"><ele>303.0</ele><time>2026-04-18T11:00:03.537Z</time></trkpt><trkpt lat="46.0335549" lon="11.9435058"><ele>303.0</ele><time>2026-04-18T11:00:05.538Z</time></trkpt><trkpt lat="46.0335395" lon="11.943664"><ele>303.0</ele><time>2026-04-18T11:00:07.536Z</time></trkpt><trkpt lat="46.0335255" lon="11.9438292"><ele>303.0</ele><time>2026-04-18T11:00:09.537Z</time></trkpt><trkpt lat="46.0335057" lon="11.9439954"><ele>303.0</ele><time>2026-04-18T11:00:11.535Z</time></trkpt><trkpt lat="46.0334801" lon="11.9441666"><ele>303.4</ele><time>2026-04-18T11:00:13.538Z</time></trkpt><trkpt lat="46.0334501" lon="11.9443388"><ele>303.8</ele><time>2026-04-18T11:00:15.537Z</time></trkpt><trkpt lat="46.0334168" lon="11.9445137"><ele>304.2</ele><time>2026-04-18T11:00:17.536Z</time></trkpt><trkpt lat="46.0333961" lon="11.9446006"><ele>304.6</ele><time>2026-04-18T11:00:18.539Z</time></trkpt><trkpt lat="46.0333372" lon="11.9447547"><ele>305.0</ele><time>2026-04-18T11:00:20.539Z</time></trkpt><trkpt lat="46.0332516" lon="11.9448829"><ele>305.0</ele><time>2026-04-18T11:00:22.536Z</time></trkpt><trkpt lat="46.0331687" lon="11.9450036"><ele>305.0</ele><time>2026-04-18T11:00:24.535Z</time></trkpt><trkpt lat="46.0331015" lon="11.9451253"><ele>305.0</ele><time>2026-04-18T11:00:26.537Z</time></trkpt><trkpt lat="46.0330503" lon="11.9452433"><ele>305.0</ele><time>2026-04-18T11:00:28.54Z</time></trkpt><trkpt lat="46.033035" lon="11.9453688"><ele>305.0</ele><time>2026-04-18T11:00:30.538Z</time></trkpt><trkpt lat="46.0330354" lon="11.945497"><ele>304.8</ele><time>2026-04-18T11:00:32.538Z</time></trkpt><trkpt lat="46.0330214" lon="11.9456449"><ele>304.6</ele><time>2026-04-18T11:00:34.537Z</time></trkpt><trkpt lat="46.0329957" lon="11.945789"><ele>304.4</ele><time>2026-04-18T11:00:36.536Z</time></trkpt><trkpt lat="46.0329691" lon="11.9459314"><ele>304.2</ele><time>2026-04-18T11:00:38.537Z</time></trkpt><trkpt lat="46.0329371" lon="11.9460661"><ele>304.0</ele><time>2026-04-18T11:00:40.538Z</time></trkpt><trkpt lat="46.0329015" lon="11.9461982"><ele>304.0</ele><time>2026-04-18T11:00:42.538Z</time></trkpt><trkpt lat="46.0328548" lon="11.9463234"><ele>304.0</ele><time>2026-04-18T11:00:44.538Z</time></trkpt><trkpt lat="46.0328095" lon="11.946452"><ele>304.0</ele><time>2026-04-18T11:00:46.537Z</time></trkpt><trkpt lat="46.0327765" lon="11.9465832"><ele>304.0</ele><time>2026-04-18T11:00:48.538Z</time></trkpt><trkpt lat="46.032753" lon="11.9467162"><ele>304.0</ele><time>2026-04-18T11:00:50.538Z</time></trkpt><trkpt lat="46.0327367" lon="11.946851"><ele>304.0</ele><time>2026-04-18T11:00:52.536Z</time></trkpt><trkpt lat="46.0327222" lon="11.9469833"><ele>304.0</ele><time>2026-04-18T11:00:54.538Z</time></trkpt><trkpt lat="46.0327297" lon="11.9471134"><ele>304.0</ele><time>2026-04-18T11:00:56.537Z</time></trkpt><trkpt lat="46.0327401" lon="11.947241"><ele>304.0</ele><time>2026-04-18T11:00:58.537Z</time></trkpt><trkpt lat="46.0327602" lon="11.9473698"><ele>304.0</ele><time>2026-04-18T11:01:00.537Z</time></trkpt><trkpt lat="46.0327774" lon="11.9474963"><ele>304.5</ele><time>2026-04-18T11:01:02.538Z</time></trkpt><trkpt lat="46.0327943" lon="11.9476122"><ele>305.0</ele><time>2026-04-18T11:01:04.538Z</time></trkpt><trkpt lat="46.0328149" lon="11.9477253"><ele>305.5</ele><time>2026-04-18T11:01:06.539Z</time></trkpt><trkpt lat="46.032846" lon="11.9478305"><ele>306.0</ele><time>2026-04-18T11:01:08.54Z</time></trkpt><trkpt lat="46.0328748" lon="11.9479302"><ele>306.5</ele><time>2026-04-18T11:01:10.537Z</time></trkpt><trkpt lat="46.0329281" lon="11.9479991"><ele>307.0</ele><time>2026-04-18T11:01:12.538Z</time></trkpt><trkpt lat="46.0329931" lon="11.9480312"><ele>307.0</ele><time>2026-04-18T11:01:14.536Z</time></trkpt><trkpt lat="46.0330736" lon="11.9480163"><ele>307.0</ele><time>2026-04-18T11:01:16.536Z</time></trkpt><trkpt lat="46.0331597" lon="11.9479889"><ele>307.0</ele><time>2026-04-18T11:01:18.537Z</time></trkpt><trkpt lat="46.0332441" lon="11.9479459"><ele>307.0</ele><time>2026-04-18T11:01:20.536Z</time></trkpt><trkpt lat="46.0333451" lon="11.9478961"><ele>307.0</ele><time>2026-04-18T11:01:22.535Z</time></trkpt><trkpt lat="46.0334293" lon="11.9478423"><ele>307.66666666666663</ele><time>2026-04-18T11:01:24.535Z</time></trkpt><trkpt lat="46.0335158" lon="11.9477902"><ele>308.3333333333333</ele><time>2026-04-18T11:01:26.537Z</time></trkpt><trkpt lat="46.0336066" lon="11.9477578"><ele>309.0</ele><time>2026-04-18T11:01:28.534Z</time></trkpt><trkpt lat="46.0336863" lon="11.9477446"><ele>309.6666666666667</ele><time>2026-04-18T11:01:30.536Z</time></trkpt><trkpt lat="46.0337723" lon="11.9477296"><ele>310.33333333333337</ele><time>2026-04-18T11:01:32.537Z</time></trkpt><trkpt lat="46.0338546" lon="11.9477118"><ele>311.0</ele><time>2026-04-18T11:01:34.538Z</time></trkpt><trkpt lat="46.0339383" lon="11.9476957"><ele>311.0</ele><time>2026-04-18T11:01:36.537Z</time></trkpt><trkpt lat="46.0340223" lon="11.9477051"><ele>311.0</ele><time>2026-04-18T11:01:38.537Z</time></trkpt><trkpt lat="46.0340767" lon="11.9477836"><ele>311.0</ele><time>2026-04-18T11:01:40.537Z</time></trkpt><trkpt lat="46.0341027" lon="11.9479083"><ele>311.0</ele><time>2026-04-18T11:01:42.54Z</time></trkpt><trkpt lat="46.0341245" lon="11.9480332"><ele>311.0</ele><time>2026-04-18T11:01:44.539Z</time></trkpt><trkpt lat="46.0341399" lon="11.9481594"><ele>311.0</ele><time>2026-04-18T11:01:46.536Z</time></trkpt><trkpt lat="46.0341614" lon="11.9482856"><ele>310.5</ele><time>2026-04-18T11:01:48.536Z</time></trkpt><trkpt lat="46.0341832" lon="11.948408"><ele>310.0</ele><time>2026-04-18T11:01:50.538Z</time></trkpt><trkpt lat="46.0342059" lon="11.9485274"><ele>309.5</ele><time>2026-04-18T11:01:52.535Z</time></trkpt><trkpt lat="46.0342307" lon="11.9486486"><ele>309.0</ele><time>2026-04-18T11:01:54.539Z</time></trkpt><trkpt lat="46.0342548" lon="11.9487739"><ele>308.5</ele><time>2026-04-18T11:01:56.536Z</time></trkpt><trkpt lat="46.0342775" lon="11.9488976"><ele>308.0</ele><time>2026-04-18T11:01:58.538Z</time></trkpt><trkpt lat="46.0343045" lon="11.9490196"><ele>308.0</ele><time>2026-04-18T11:02:00.537Z</time></trkpt><trkpt lat="46.0343306" lon="11.9491447"><ele>308.0</ele><time>2026-04-18T11:02:02.536Z</time></trkpt><trkpt lat="46.0343587" lon="11.9492716"><ele>308.0</ele><time>2026-04-18T11:02:04.537Z</time></trkpt><trkpt lat="46.0343882" lon="11.9493961"><ele>308.0</ele><time>2026-04-18T11:02:06.537Z</time></trkpt><trkpt lat="46.0344168" lon="11.9495204"><ele>308.0</ele><time>2026-04-18T11:02:08.539Z</time></trkpt><trkpt lat="46.0344434" lon="11.9496452"><ele>308.2</ele><time>2026-04-18T11:02:10.537Z</time></trkpt><trkpt lat="46.0344712" lon="11.9497667"><ele>308.4</ele><time>2026-04-18T11:02:12.536Z</time></trkpt><trkpt lat="46.0345053" lon="11.949883"><ele>308.59999999999997</ele><time>2026-04-18T11:02:14.538Z</time></trkpt><trkpt lat="46.0345393" lon="11.9500047"><ele>308.8</ele><time>2026-04-18T11:02:16.539Z</time></trkpt><trkpt lat="46.0345599" lon="11.9501367"><ele>309.0</ele><time>2026-04-18T11:02:18.535Z</time></trkpt><trkpt lat="46.0345806" lon="11.9502685"><ele>309.0</ele><time>2026-04-18T11:02:20.536Z</time></trkpt><trkpt lat="46.0346036" lon="11.9504022"><ele>309.0</ele><time>2026-04-18T11:02:22.536Z</time></trkpt><trkpt lat="46.034627" lon="11.9505276"><ele>309.0</ele><time>2026-04-18T11:02:24.536Z</time></trkpt><trkpt lat="46.0346537" lon="11.9506572"><ele>309.0</ele><time>2026-04-18T11:02:26.537Z</time></trkpt><trkpt lat="46.0346774" lon="11.9507801"><ele>309.0</ele><time>2026-04-18T11:02:28.536Z</time></trkpt><trkpt lat="46.0347049" lon="11.9509059"><ele>309.0</ele><time>2026-04-18T11:02:30.538Z</time></trkpt><trkpt lat="46.0347283" lon="11.9510342"><ele>309.0</ele><time>2026-04-18T11:02:32.538Z</time></trkpt><trkpt lat="46.0347508" lon="11.9511682"><ele>309.0</ele><time>2026-04-18T11:02:34.539Z</time></trkpt><trkpt lat="46.0347782" lon="11.9513034"><ele>309.0</ele><time>2026-04-18T11:02:36.538Z</time></trkpt><trkpt lat="46.0348022" lon="11.9514407"><ele>309.0</ele><time>2026-04-18T11:02:38.538Z</time></trkpt><trkpt lat="46.0348245" lon="11.9515726"><ele>309.0</ele><time>2026-04-18T11:02:40.537Z</time></trkpt><trkpt lat="46.0348497" lon="11.9517027"><ele>309.0</ele><time>2026-04-18T11:02:42.538Z</time></trkpt><trkpt lat="46.0348762" lon="11.9518347"><ele>309.0</ele><time>2026-04-18T11:02:44.536Z</time></trkpt><trkpt lat="46.0349038" lon="11.9519728"><ele>309.0</ele><time>2026-04-18T11:02:46.537Z</time></trkpt><trkpt lat="46.0349281" lon="11.9521115"><ele>309.0</ele><time>2026-04-18T11:02:48.538Z</time></trkpt><trkpt lat="46.0349507" lon="11.9522511"><ele>309.2</ele><time>2026-04-18T11:02:50.538Z</time></trkpt><trkpt lat="46.034976" lon="11.952394"><ele>309.4</ele><time>2026-04-18T11:02:52.537Z</time></trkpt><trkpt lat="46.0350026" lon="11.9525392"><ele>309.6</ele><time>2026-04-18T11:02:54.537Z</time></trkpt><trkpt lat="46.035028" lon="11.9526836"><ele>309.8</ele><time>2026-04-18T11:02:56.538Z</time></trkpt><trkpt lat="46.0350568" lon="11.9528263"><ele>310.0</ele><time>2026-04-18T11:02:58.537Z</time></trkpt><trkpt lat="46.0350845" lon="11.9529711"><ele>309.6</ele><time>2026-04-18T11:03:00.537Z</time></trkpt><trkpt lat="46.0351098" lon="11.9531135"><ele>309.2</ele><time>2026-04-18T11:03:02.537Z</time></trkpt><trkpt lat="46.0351317" lon="11.9532548"><ele>308.8</ele><time>2026-04-18T11:03:04.536Z</time></trkpt><trkpt lat="46.0351582" lon="11.9533966"><ele>308.4</ele><time>2026-04-18T11:03:06.537Z</time></trkpt><trkpt lat="46.0351813" lon="11.9535311"><ele>308.0</ele><time>2026-04-18T11:03:08.539Z</time></trkpt><trkpt lat="46.0352143" lon="11.9536564"><ele>308.0</ele><time>2026-04-18T11:03:10.536Z</time></trkpt><trkpt lat="46.0352642" lon="11.9537591"><ele>308.0</ele><time>2026-04-18T11:03:12.537Z</time></trkpt><trkpt lat="46.0353307" lon="11.9538406"><ele>308.0</ele><time>2026-04-18T11:03:14.538Z</time></trkpt><trkpt lat="46.0353995" lon="11.9539152"><ele>308.0</ele><time>2026-04-18T11:03:16.536Z</time></trkpt><trkpt lat="46.0354539" lon="11.954007"><ele>308.0</ele><time>2026-04-18T11:03:18.537Z</time></trkpt><trkpt lat="46.0354956" lon="11.9541272"><ele>308.0</ele><time>2026-04-18T11:03:20.537Z</time></trkpt><trkpt lat="46.0355372" lon="11.9542574"><ele>308.2</ele><time>2026-04-18T11:03:22.536Z</time></trkpt><trkpt lat="46.0355752" lon="11.954393"><ele>308.4</ele><time>2026-04-18T11:03:24.537Z</time></trkpt><trkpt lat="46.0356138" lon="11.9545184"><ele>308.59999999999997</ele><time>2026-04-18T11:03:26.538Z</time></trkpt><trkpt lat="46.0356497" lon="11.9546427"><ele>308.8</ele><time>2026-04-18T11:03:28.537Z</time></trkpt><trkpt lat="46.0356749" lon="11.9547788"><ele>309.0</ele><time>2026-04-18T11:03:30.537Z</time></trkpt><trkpt lat="46.0356979" lon="11.9549118"><ele>308.59999999999997</ele><time>2026-04-18T11:03:32.538Z</time></trkpt><trkpt lat="46.0357218" lon="11.9550473"><ele>308.2</ele><time>2026-04-18T11:03:34.537Z</time></trkpt><trkpt lat="46.0357549" lon="11.9551925"><ele>307.79999999999995</ele><time>2026-04-18T11:03:36.537Z</time></trkpt><trkpt lat="46.0357944" lon="11.9553393"><ele>307.4</ele><time>2026-04-18T11:03:38.537Z</time></trkpt><trkpt lat="46.0358364" lon="11.9554777"><ele>307.0</ele><time>2026-04-18T11:03:40.539Z</time></trkpt><trkpt lat="46.0358756" lon="11.9556126"><ele>309.3333333333333</ele><time>2026-04-18T11:03:42.538Z</time></trkpt><trkpt lat="46.0359081" lon="11.9557538"><ele>311.66666666666663</ele><time>2026-04-18T11:03:44.537Z</time></trkpt><trkpt lat="46.0359386" lon="11.9558925"><ele>314.0</ele><time>2026-04-18T11:03:46.537Z</time></trkpt><trkpt lat="46.0359646" lon="11.9560219"><ele>316.3333333333333</ele><time>2026-04-18T11:03:48.538Z</time></trkpt><trkpt lat="46.0359878" lon="11.9561323"><ele>318.6666666666667</ele><time>2026-04-18T11:03:50.537Z</time></trkpt><trkpt lat="46.0360081" lon="11.9562285"><ele>321.0</ele><time>2026-04-18T11:03:52.538Z</time></trkpt><trkpt lat="46.0360397" lon="11.9563504"><ele>321.2857142857143</ele><time>2026-04-18T11:03:55.538Z</time></trkpt><trkpt lat="46.03607" lon="11.9564341"><ele>321.57142857142856</ele><time>2026-04-18T11:03:57.537Z</time></trkpt><trkpt lat="46.0361015" lon="11.9565251"><ele>321.8571428571429</ele><time>2026-04-18T11:03:59.539Z</time></trkpt><trkpt lat="46.0361331" lon="11.9566233"><ele>322.1428571428571</ele><time>2026-04-18T11:04:01.538Z</time></trkpt><trkpt lat="46.0361666" lon="11.9567241"><ele>322.42857142857144</ele><time>2026-04-18T11:04:03.537Z</time></trkpt><trkpt lat="46.036196" lon="11.9568215"><ele>322.7142857142857</ele><time>2026-04-18T11:04:05.537Z</time></trkpt><trkpt lat="46.036225" lon="11.9569272"><ele>323.0</ele><time>2026-04-18T11:04:07.537Z</time></trkpt><trkpt lat="46.0362556" lon="11.9570347"><ele>322.0</ele><time>2026-04-18T11:04:09.537Z</time></trkpt><trkpt lat="46.0362865" lon="11.9571431"><ele>321.0</ele><time>2026-04-18T11:04:11.538Z</time></trkpt><trkpt lat="46.0363216" lon="11.9572489"><ele>320.0</ele><time>2026-04-18T11:04:13.537Z</time></trkpt><trkpt lat="46.0363487" lon="11.9573658"><ele>319.0</ele><time>2026-04-18T11:04:15.539Z</time></trkpt><trkpt lat="46.0363758" lon="11.9574873"><ele>318.0</ele><time>2026-04-18T11:04:17.537Z</time></trkpt><trkpt lat="46.0364112" lon="11.9575981"><ele>317.0</ele><time>2026-04-18T11:04:19.537Z</time></trkpt><trkpt lat="46.0364421" lon="11.9577146"><ele>316.2</ele><time>2026-04-18T11:04:21.538Z</time></trkpt><trkpt lat="46.0364563" lon="11.9578532"><ele>315.4</ele><time>2026-04-18T11:04:23.536Z</time></trkpt><trkpt lat="46.0364825" lon="11.9579773"><ele>314.6</ele><time>2026-04-18T11:04:25.536Z</time></trkpt><trkpt lat="46.0365133" lon="11.9580919"><ele>313.8</ele><time>2026-04-18T11:04:27.535Z</time></trkpt><trkpt lat="46.0365415" lon="11.9582193"><ele>313.0</ele><time>2026-04-18T11:04:29.538Z</time></trkpt><trkpt lat="46.0365699" lon="11.9583529"><ele>313.0</ele><time>2026-04-18T11:04:31.539Z</time></trkpt><trkpt lat="46.0365952" lon="11.9584855"><ele>313.0</ele><time>2026-04-18T11:04:33.536Z</time></trkpt><trkpt lat="46.0366168" lon="11.9585926"><ele>313.0</ele><time>2026-04-18T11:04:35.539Z</time></trkpt><trkpt lat="46.0366371" lon="11.958686"><ele>313.0</ele><time>2026-04-18T11:04:37.538Z</time></trkpt><trkpt lat="46.0366552" lon="11.9588007"><ele>313.0</ele><time>2026-04-18T11:04:39.537Z</time></trkpt><trkpt lat="46.0366729" lon="11.9589325"><ele>313.0</ele><time>2026-04-18T11:04:41.539Z</time></trkpt><trkpt lat="46.0366974" lon="11.9590814"><ele>312.2</ele><time>2026-04-18T11:04:43.538Z</time></trkpt><trkpt lat="46.0367262" lon="11.9592304"><ele>311.4</ele><time>2026-04-18T11:04:45.54Z</time></trkpt><trkpt lat="46.0367506" lon="11.9593758"><ele>310.59999999999997</ele><time>2026-04-18T11:04:47.537Z</time></trkpt><trkpt lat="46.0367802" lon="11.9595102"><ele>309.8</ele><time>2026-04-18T11:04:49.538Z</time></trkpt><trkpt lat="46.0368071" lon="11.9596456"><ele>309.0</ele><time>2026-04-18T11:04:51.539Z</time></trkpt><trkpt lat="46.0368354" lon="11.9597871"><ele>309.0</ele><time>2026-04-18T11:04:53.536Z</time></trkpt><trkpt lat="46.0368642" lon="11.9599329"><ele>309.0</ele><time>2026-04-18T11:04:55.538Z</time></trkpt><trkpt lat="46.0368898" lon="11.9600715"><ele>309.0</ele><time>2026-04-18T11:04:57.537Z</time></trkpt><trkpt lat="46.0369138" lon="11.960211"><ele>309.0</ele><time>2026-04-18T11:04:59.537Z</time></trkpt><trkpt lat="46.0369417" lon="11.9603495"><ele>309.0</ele><time>2026-04-18T11:05:01.537Z</time></trkpt><trkpt lat="46.0369683" lon="11.9604837"><ele>308.59999999999997</ele><time>2026-04-18T11:05:03.538Z</time></trkpt><trkpt lat="46.0369981" lon="11.9606135"><ele>308.2</ele><time>2026-04-18T11:05:05.537Z</time></trkpt><trkpt lat="46.0370248" lon="11.9607366"><ele>307.79999999999995</ele><time>2026-04-18T11:05:07.54Z</time></trkpt><trkpt lat="46.0370494" lon="11.9608632"><ele>307.4</ele><time>2026-04-18T11:05:09.537Z</time></trkpt><trkpt lat="46.0370745" lon="11.9609887"><ele>307.0</ele><time>2026-04-18T11:05:11.539Z</time></trkpt><trkpt lat="46.0371" lon="11.9611106"><ele>307.0</ele><time>2026-04-18T11:05:13.538Z</time></trkpt><trkpt lat="46.0371253" lon="11.9612356"><ele>307.0</ele><time>2026-04-18T11:05:15.537Z</time></trkpt><trkpt lat="46.0371521" lon="11.9613577"><ele>307.0</ele><time>2026-04-18T11:05:17.539Z</time></trkpt><trkpt lat="46.0371777" lon="11.9614777"><ele>307.0</ele><time>2026-04-18T11:05:19.538Z</time></trkpt><trkpt lat="46.0371998" lon="11.9615986"><ele>307.0</ele><time>2026-04-18T11:05:21.536Z</time></trkpt><trkpt lat="46.0372181" lon="11.9617235"><ele>307.0</ele><time>2026-04-18T11:05:23.539Z</time></trkpt><trkpt lat="46.0372363" lon="11.9618553"><ele>306.8333333333333</ele><time>2026-04-18T11:05:25.538Z</time></trkpt><trkpt lat="46.0372559" lon="11.9619885"><ele>306.66666666666663</ele><time>2026-04-18T11:05:27.538Z</time></trkpt><trkpt lat="46.0372802" lon="11.9621142"><ele>306.5</ele><time>2026-04-18T11:05:29.537Z</time></trkpt><trkpt lat="46.0372967" lon="11.9622369"><ele>306.3333333333333</ele><time>2026-04-18T11:05:31.54Z</time></trkpt><trkpt lat="46.0373122" lon="11.9623497"><ele>306.1666666666667</ele><time>2026-04-18T11:05:33.538Z</time></trkpt><trkpt lat="46.0373326" lon="11.9624665"><ele>306.0</ele><time>2026-04-18T11:05:35.539Z</time></trkpt><trkpt lat="46.0373547" lon="11.9625843"><ele>306.0</ele><time>2026-04-18T11:05:37.539Z</time></trkpt><trkpt lat="46.0373806" lon="11.9627116"><ele>306.0</ele><time>2026-04-18T11:05:39.538Z</time></trkpt><trkpt lat="46.0374103" lon="11.9628327"><ele>306.0</ele><time>2026-04-18T11:05:41.535Z</time></trkpt><trkpt lat="46.0374394" lon="11.96294"><ele>306.0</ele><time>2026-04-18T11:05:43.537Z</time></trkpt><trkpt lat="46.0374664" lon="11.9630421"><ele>306.0</ele><time>2026-04-18T11:05:45.537Z</time></trkpt><trkpt lat="46.0374899" lon="11.96315"><ele>306.0</ele><time>2026-04-18T11:05:47.536Z</time></trkpt><trkpt lat="46.0374923" lon="11.9632576"><ele>306.0</ele><time>2026-04-18T11:05:49.534Z</time></trkpt><trkpt lat="46.0374701" lon="11.9633551"><ele>306.0</ele><time>2026-04-18T11:05:51.535Z</time></trkpt><trkpt lat="46.0374417" lon="11.9634587"><ele>306.0</ele><time>2026-04-18T11:05:53.538Z</time></trkpt><trkpt lat="46.0374055" lon="11.9635413"><ele>306.0</ele><time>2026-04-18T11:05:55.538Z</time></trkpt><trkpt lat="46.0373635" lon="11.9636166"><ele>306.0</ele><time>2026-04-18T11:05:57.538Z</time></trkpt><trkpt lat="46.0373062" lon="11.9636973"><ele>306.0</ele><time>2026-04-18T11:05:59.537Z</time></trkpt><trkpt lat="46.0372512" lon="11.9637984"><ele>304.8</ele><time>2026-04-18T11:06:01.538Z</time></trkpt><trkpt lat="46.0371913" lon="11.963914"><ele>303.6</ele><time>2026-04-18T11:06:03.537Z</time></trkpt><trkpt lat="46.0371287" lon="11.964062"><ele>302.4</ele><time>2026-04-18T11:06:05.539Z</time></trkpt><trkpt lat="46.0370638" lon="11.9641734"><ele>301.2</ele><time>2026-04-18T11:06:07.538Z</time></trkpt><trkpt lat="46.0370122" lon="11.9642864"><ele>300.0</ele><time>2026-04-18T11:06:09.535Z</time></trkpt><trkpt lat="46.0369582" lon="11.9644346"><ele>298.8333333333333</ele><time>2026-04-18T11:06:11.539Z</time></trkpt><trkpt lat="46.0369219" lon="11.9645211"><ele>297.6666666666667</ele><time>2026-04-18T11:06:12.537Z</time></trkpt><trkpt lat="46.0368842" lon="11.9646097"><ele>296.5</ele><time>2026-04-18T11:06:13.538Z</time></trkpt><trkpt lat="46.036851" lon="11.9646887"><ele>295.33333333333337</ele><time>2026-04-18T11:06:14.538Z</time></trkpt><trkpt lat="46.0368167" lon="11.964772"><ele>294.1666666666667</ele><time>2026-04-18T11:06:15.538Z</time></trkpt><trkpt lat="46.0367553" lon="11.964926"><ele>293.0</ele><time>2026-04-18T11:06:17.538Z</time></trkpt><trkpt lat="46.0367055" lon="11.965056"><ele>292.0</ele><time>2026-04-18T11:06:19.539Z</time></trkpt><trkpt lat="46.0366652" lon="11.9652047"><ele>291.0</ele><time>2026-04-18T11:06:21.537Z</time></trkpt><trkpt lat="46.0366195" lon="11.9653629"><ele>290.0</ele><time>2026-04-18T11:06:23.538Z</time></trkpt><trkpt lat="46.0365994" lon="11.9654539"><ele>289.0</ele><time>2026-04-18T11:06:24.539Z</time></trkpt><trkpt lat="46.0365865" lon="11.9655432"><ele>288.0</ele><time>2026-04-18T11:06:25.539Z</time></trkpt><trkpt lat="46.0365574" lon="11.9657183"><ele>287.1666666666667</ele><time>2026-04-18T11:06:27.538Z</time></trkpt><trkpt lat="46.0365304" lon="11.9658778"><ele>286.3333333333333</ele><time>2026-04-18T11:06:29.537Z</time></trkpt><trkpt lat="46.0365095" lon="11.9659771"><ele>285.5</ele><time>2026-04-18T11:06:30.537Z</time></trkpt><trkpt lat="46.036482" lon="11.9660729"><ele>284.66666666666663</ele><time>2026-04-18T11:06:31.538Z</time></trkpt><trkpt lat="46.0364461" lon="11.9661658"><ele>283.8333333333333</ele><time>2026-04-18T11:06:32.539Z</time></trkpt><trkpt lat="46.0364023" lon="11.9662493"><ele>283.0</ele><time>2026-04-18T11:06:33.534Z</time></trkpt><trkpt lat="46.0363505" lon="11.9663178"><ele>283.0</ele><time>2026-04-18T11:06:34.538Z</time></trkpt><trkpt lat="46.0362921" lon="11.9663708"><ele>283.0</ele><time>2026-04-18T11:06:35.538Z</time></trkpt><trkpt lat="46.0361783" lon="11.9664106"><ele>283.0</ele><time>2026-04-18T11:06:37.537Z</time></trkpt><trkpt lat="46.0360671" lon="11.9663851"><ele>283.0</ele><time>2026-04-18T11:06:39.537Z</time></trkpt><trkpt lat="46.0359692" lon="11.9664103"><ele>283.0</ele><time>2026-04-18T11:06:41.537Z</time></trkpt><trkpt lat="46.0358908" lon="11.9665133"><ele>283.0</ele><time>2026-04-18T11:06:43.536Z</time></trkpt><trkpt lat="46.0358354" lon="11.9666567"><ele>283.0</ele><time>2026-04-18T11:06:45.538Z</time></trkpt><trkpt lat="46.0357917" lon="11.9667999"><ele>283.0</ele><time>2026-04-18T11:06:47.537Z</time></trkpt><trkpt lat="46.0357624" lon="11.9669464"><ele>283.0</ele><time>2026-04-18T11:06:49.537Z</time></trkpt><trkpt lat="46.0357368" lon="11.967094"><ele>283.0</ele><time>2026-04-18T11:06:51.536Z</time></trkpt><trkpt lat="46.0357175" lon="11.9672413"><ele>281.6</ele><time>2026-04-18T11:06:53.537Z</time></trkpt><trkpt lat="46.0356924" lon="11.9673877"><ele>280.20000000000005</ele><time>2026-04-18T11:06:55.538Z</time></trkpt><trkpt lat="46.0356565" lon="11.9675303"><ele>278.8</ele><time>2026-04-18T11:06:57.537Z</time></trkpt><trkpt lat="46.0356133" lon="11.9676646"><ele>277.40000000000003</ele><time>2026-04-18T11:06:59.54Z</time></trkpt><trkpt lat="46.035551" lon="11.9677736"><ele>276.0</ele><time>2026-04-18T11:07:01.537Z</time></trkpt><trkpt lat="46.0354831" lon="11.967883"><ele>275.2</ele><time>2026-04-18T11:07:03.537Z</time></trkpt><trkpt lat="46.0354091" lon="11.9679858"><ele>274.40000000000003</ele><time>2026-04-18T11:07:05.537Z</time></trkpt><trkpt lat="46.0353332" lon="11.9680912"><ele>273.6</ele><time>2026-04-18T11:07:07.539Z</time></trkpt><trkpt lat="46.0352541" lon="11.96819"><ele>272.8</ele><time>2026-04-18T11:07:09.538Z</time></trkpt><trkpt lat="46.0351754" lon="11.9682896"><ele>272.0</ele><time>2026-04-18T11:07:11.537Z</time></trkpt><trkpt lat="46.0350984" lon="11.9683839"><ele>272.1666666666667</ele><time>2026-04-18T11:07:13.536Z</time></trkpt><trkpt lat="46.0350319" lon="11.9684846"><ele>272.33333333333337</ele><time>2026-04-18T11:07:15.537Z</time></trkpt><trkpt lat="46.0349837" lon="11.9685612"><ele>272.5</ele><time>2026-04-18T11:07:17.535Z</time></trkpt><trkpt lat="46.0349297" lon="11.9686342"><ele>272.6666666666667</ele><time>2026-04-18T11:07:20.535Z</time></trkpt><trkpt lat="46.0348759" lon="11.9687128"><ele>272.8333333333333</ele><time>2026-04-18T11:07:24.537Z</time></trkpt><trkpt lat="46.0349385" lon="11.9686443"><ele>273.0</ele><time>2026-04-18T11:07:36.539Z</time></trkpt><trkpt lat="46.0349944" lon="11.9685606"><ele>272.8333333333333</ele><time>2026-04-18T11:07:39.538Z</time></trkpt><trkpt lat="46.0350602" lon="11.9684615"><ele>272.6666666666667</ele><time>2026-04-18T11:07:42.538Z</time></trkpt><trkpt lat="46.0351108" lon="11.9683897"><ele>272.5</ele><time>2026-04-18T11:07:44.538Z</time></trkpt><trkpt lat="46.0351645" lon="11.9683148"><ele>272.33333333333337</ele><time>2026-04-18T11:07:46.536Z</time></trkpt><trkpt lat="46.0352219" lon="11.9682415"><ele>272.1666666666667</ele><time>2026-04-18T11:07:48.536Z</time></trkpt><trkpt lat="46.0352867" lon="11.968167"><ele>272.0</ele><time>2026-04-18T11:07:50.536Z</time></trkpt><trkpt lat="46.0353474" lon="11.9680949"><ele>271.99999999999994</ele><time>2026-04-18T11:07:52.538Z</time></trkpt><trkpt lat="46.035406" lon="11.968018"><ele>272.0</ele><time>2026-04-18T11:07:54.537Z</time></trkpt><trkpt lat="46.0354604" lon="11.9679401"><ele>272.0</ele><time>2026-04-18T11:07:56.537Z</time></trkpt><trkpt lat="46.0355062" lon="11.9678551"><ele>272.0</ele><time>2026-04-18T11:07:58.537Z</time></trkpt><trkpt lat="46.0355531" lon="11.96778"><ele>272.0</ele><time>2026-04-18T11:08:00.537Z</time></trkpt><trkpt lat="46.035599" lon="11.9677159"><ele>271.99999999999994</ele><time>2026-04-18T11:08:02.538Z</time></trkpt><trkpt lat="46.035679" lon="11.9676855"><ele>272.0</ele><time>2026-04-18T11:08:05.537Z</time></trkpt><trkpt lat="46.0357521" lon="11.9677273"><ele>271.33333333333337</ele><time>2026-04-18T11:08:08.538Z</time></trkpt><trkpt lat="46.0358407" lon="11.9677701"><ele>270.6666666666667</ele><time>2026-04-18T11:08:11.534Z</time></trkpt><trkpt lat="46.0359262" lon="11.9678013"><ele>270.0</ele><time>2026-04-18T11:08:14.537Z</time></trkpt><trkpt lat="46.0360096" lon="11.9677926"><ele>269.3333333333333</ele><time>2026-04-18T11:08:17.536Z</time></trkpt><trkpt lat="46.0360776" lon="11.9677736"><ele>268.66666666666663</ele><time>2026-04-18T11:08:19.537Z</time></trkpt><trkpt lat="46.0361469" lon="11.9677487"><ele>268.0</ele><time>2026-04-18T11:08:21.537Z</time></trkpt><trkpt lat="46.0362151" lon="11.9677457"><ele>268.0</ele><time>2026-04-18T11:08:23.536Z</time></trkpt><trkpt lat="46.0363054" lon="11.9677537"><ele>268.0</ele><time>2026-04-18T11:08:26.537Z</time></trkpt><trkpt lat="46.0363698" lon="11.9677465"><ele>268.0</ele><time>2026-04-18T11:08:28.537Z</time></trkpt><trkpt lat="46.0364321" lon="11.9677315"><ele>268.0</ele><time>2026-04-18T11:08:30.538Z</time></trkpt><trkpt lat="46.0365215" lon="11.9677037"><ele>268.0</ele><time>2026-04-18T11:08:33.538Z</time></trkpt><trkpt lat="46.0365815" lon="11.9676719"><ele>268.0</ele><time>2026-04-18T11:08:35.536Z</time></trkpt><trkpt lat="46.0366417" lon="11.9676233"><ele>268.0</ele><time>2026-04-18T11:08:37.538Z</time></trkpt><trkpt lat="46.0366952" lon="11.9675713"><ele>268.3333333333333</ele><time>2026-04-18T11:08:39.538Z</time></trkpt><trkpt lat="46.036763" lon="11.9674942"><ele>268.66666666666663</ele><time>2026-04-18T11:08:42.536Z</time></trkpt><trkpt lat="46.0368154" lon="11.9674414"><ele>269.0</ele><time>2026-04-18T11:08:45.537Z</time></trkpt><trkpt lat="46.0368938" lon="11.9674149"><ele>269.3333333333333</ele><time>2026-04-18T11:08:48.537Z</time></trkpt><trkpt lat="46.0369603" lon="11.9674441"><ele>269.6666666666667</ele><time>2026-04-18T11:08:51.536Z</time></trkpt><trkpt lat="46.0370164" lon="11.9675295"><ele>270.0</ele><time>2026-04-18T11:08:54.536Z</time></trkpt><trkpt lat="46.0370701" lon="11.9676127"><ele>268.3333333333333</ele><time>2026-04-18T11:08:56.539Z</time></trkpt><trkpt lat="46.0371361" lon="11.9676897"><ele>266.6666666666667</ele><time>2026-04-18T11:08:58.536Z</time></trkpt><trkpt lat="46.0372007" lon="11.9677309"><ele>265.0</ele><time>2026-04-18T11:09:00.536Z</time></trkpt><trkpt lat="46.0372707" lon="11.9677425"><ele>263.33333333333337</ele><time>2026-04-18T11:09:02.537Z</time></trkpt><trkpt lat="46.0373425" lon="11.9677125"><ele>261.6666666666667</ele><time>2026-04-18T11:09:04.535Z</time></trkpt><trkpt lat="46.0374237" lon="11.9676818"><ele>260.0</ele><time>2026-04-18T11:09:06.537Z</time></trkpt><trkpt lat="46.0374972" lon="11.9676516"><ele>259.14285714285717</ele><time>2026-04-18T11:09:08.535Z</time></trkpt><trkpt lat="46.0375692" lon="11.9676271"><ele>258.2857142857143</ele><time>2026-04-18T11:09:10.537Z</time></trkpt><trkpt lat="46.0376411" lon="11.9676143"><ele>257.42857142857144</ele><time>2026-04-18T11:09:12.537Z</time></trkpt><trkpt lat="46.0376973" lon="11.9676602"><ele>256.57142857142856</ele><time>2026-04-18T11:09:15.536Z</time></trkpt><trkpt lat="46.0377161" lon="11.9677524"><ele>255.71428571428572</ele><time>2026-04-18T11:09:19.537Z</time></trkpt><trkpt lat="46.0377126" lon="11.9678545"><ele>254.85714285714286</ele><time>2026-04-18T11:09:24.539Z</time></trkpt><trkpt lat="46.0377095" lon="11.9679645"><ele>254.0</ele><time>2026-04-18T11:09:27.537Z</time></trkpt><trkpt lat="46.0377074" lon="11.9680573"><ele>254.0</ele><time>2026-04-18T11:09:29.538Z</time></trkpt><trkpt lat="46.0377008" lon="11.9681589"><ele>254.0</ele><time>2026-04-18T11:09:31.538Z</time></trkpt><trkpt lat="46.0376968" lon="11.9682667"><ele>254.0</ele><time>2026-04-18T11:09:33.535Z</time></trkpt><trkpt lat="46.0376918" lon="11.9683783"><ele>254.0</ele><time>2026-04-18T11:09:35.538Z</time></trkpt><trkpt lat="46.0376886" lon="11.9684808"><ele>254.0</ele><time>2026-04-18T11:09:37.537Z</time></trkpt><trkpt lat="46.0376825" lon="11.9685782"><ele>254.0</ele><time>2026-04-18T11:09:39.538Z</time></trkpt><trkpt lat="46.0376824" lon="11.9686743"><ele>254.0</ele><time>2026-04-18T11:09:42.535Z</time></trkpt><trkpt lat="46.0376771" lon="11.9687766"><ele>254.66666666666669</ele><time>2026-04-18T11:10:01.538Z</time></trkpt><trkpt lat="46.0376518" lon="11.9688807"><ele>255.33333333333334</ele><time>2026-04-18T11:10:05.536Z</time></trkpt><trkpt lat="46.037622" lon="11.9689955"><ele>256.0</ele><time>2026-04-18T11:10:08.538Z</time></trkpt><trkpt lat="46.0375849" lon="11.9691045"><ele>256.6666666666667</ele><time>2026-04-18T11:10:11.538Z</time></trkpt><trkpt lat="46.0375824" lon="11.969201"><ele>257.3333333333333</ele><time>2026-04-18T11:10:13.537Z</time></trkpt><trkpt lat="46.0375885" lon="11.9693297"><ele>258.0</ele><time>2026-04-18T11:10:16.539Z</time></trkpt><trkpt lat="46.0376545" lon="11.9694265"><ele>258.57142857142856</ele><time>2026-04-18T11:10:19.538Z</time></trkpt><trkpt lat="46.0377029" lon="11.969527"><ele>259.1428571428571</ele><time>2026-04-18T11:10:22.536Z</time></trkpt><trkpt lat="46.0377498" lon="11.9696118"><ele>259.7142857142857</ele><time>2026-04-18T11:10:25.537Z</time></trkpt><trkpt lat="46.0377796" lon="11.9696994"><ele>260.2857142857143</ele><time>2026-04-18T11:10:28.538Z</time></trkpt><trkpt lat="46.0377869" lon="11.9697967"><ele>260.8571428571429</ele><time>2026-04-18T11:10:31.538Z</time></trkpt><trkpt lat="46.0377809" lon="11.9699107"><ele>261.42857142857144</ele><time>2026-04-18T11:10:35.538Z</time></trkpt><trkpt lat="46.0377506" lon="11.9699994"><ele>262.0</ele><time>2026-04-18T11:10:38.537Z</time></trkpt><trkpt lat="46.0377009" lon="11.9700813"><ele>263.0</ele><time>2026-04-18T11:10:41.536Z</time></trkpt><trkpt lat="46.0376657" lon="11.9701657"><ele>264.0</ele><time>2026-04-18T11:10:44.537Z</time></trkpt><trkpt lat="46.0376173" lon="11.9702634"><ele>265.0</ele><time>2026-04-18T11:10:48.536Z</time></trkpt><trkpt lat="46.037583" lon="11.9703486"><ele>266.0</ele><time>2026-04-18T11:10:51.537Z</time></trkpt><trkpt lat="46.0375421" lon="11.9704304"><ele>267.0</ele><time>2026-04-18T11:10:54.536Z</time></trkpt><trkpt lat="46.0375054" lon="11.9705204"><ele>268.0</ele><time>2026-04-18T11:10:57.538Z</time></trkpt><trkpt lat="46.0374721" lon="11.970623"><ele>269.0</ele><time>2026-04-18T11:11:01.538Z</time></trkpt><trkpt lat="46.0374682" lon="11.9707395"><ele>269.8571428571429</ele><time>2026-04-18T11:11:05.537Z</time></trkpt><trkpt lat="46.0375057" lon="11.970838"><ele>270.7142857142857</ele><time>2026-04-18T11:11:09.537Z</time></trkpt><trkpt lat="46.0375574" lon="11.9709131"><ele>271.57142857142856</ele><time>2026-04-18T11:11:13.538Z</time></trkpt><trkpt lat="46.0376106" lon="11.9709662"><ele>272.42857142857144</ele><time>2026-04-18T11:11:16.537Z</time></trkpt><trkpt lat="46.0376611" lon="11.9710205"><ele>273.2857142857143</ele><time>2026-04-18T11:11:19.536Z</time></trkpt><trkpt lat="46.0376203" lon="11.9711023"><ele>274.14285714285717</ele><time>2026-04-18T11:11:24.54Z</time></trkpt><trkpt lat="46.0375469" lon="11.9711261"><ele>275.0</ele><time>2026-04-18T11:11:28.538Z</time></trkpt><trkpt lat="46.0374692" lon="11.9711584"><ele>275.33333333333337</ele><time>2026-04-18T11:11:32.539Z</time></trkpt><trkpt lat="46.0374012" lon="11.9712039"><ele>275.6666666666667</ele><time>2026-04-18T11:11:36.538Z</time></trkpt><trkpt lat="46.0373718" lon="11.9712922"><ele>276.0</ele><time>2026-04-18T11:11:40.539Z</time></trkpt><trkpt lat="46.0373571" lon="11.9713804"><ele>276.3333333333333</ele><time>2026-04-18T11:11:43.536Z</time></trkpt><trkpt lat="46.0373302" lon="11.9714772"><ele>276.66666666666663</ele><time>2026-04-18T11:11:46.537Z</time></trkpt><trkpt lat="46.0372935" lon="11.9715872"><ele>277.0</ele><time>2026-04-18T11:11:49.537Z</time></trkpt><trkpt lat="46.0372766" lon="11.9717181"><ele>277.1428571428571</ele><time>2026-04-18T11:11:52.535Z</time></trkpt><trkpt lat="46.0372679" lon="11.9718199"><ele>277.2857142857143</ele><time>2026-04-18T11:11:54.538Z</time></trkpt><trkpt lat="46.0372679" lon="11.9719264"><ele>277.42857142857144</ele><time>2026-04-18T11:11:56.539Z</time></trkpt><trkpt lat="46.0372666" lon="11.9720326"><ele>277.57142857142856</ele><time>2026-04-18T11:11:58.537Z</time></trkpt><trkpt lat="46.0372617" lon="11.9721344"><ele>277.7142857142857</ele><time>2026-04-18T11:12:00.539Z</time></trkpt><trkpt lat="46.0372542" lon="11.9722388"><ele>277.85714285714283</ele><time>2026-04-18T11:12:02.537Z</time></trkpt><trkpt lat="46.0372486" lon="11.9723472"><ele>278.0</ele><time>2026-04-18T11:12:04.537Z</time></trkpt><trkpt lat="46.0372579" lon="11.9724563"><ele>278.0</ele><time>2026-04-18T11:12:06.537Z</time></trkpt><trkpt lat="46.0372676" lon="11.9725601"><ele>278.0</ele><time>2026-04-18T11:12:08.54Z</time></trkpt><trkpt lat="46.0372645" lon="11.9726569"><ele>278.0</ele><time>2026-04-18T11:12:10.538Z</time></trkpt><trkpt lat="46.0372314" lon="11.9727351"><ele>278.0</ele><time>2026-04-18T11:12:12.536Z</time></trkpt><trkpt lat="46.0371797" lon="11.9728"><ele>278.0</ele><time>2026-04-18T11:12:14.536Z</time></trkpt><trkpt lat="46.0371169" lon="11.9728766"><ele>278.0</ele><time>2026-04-18T11:12:16.539Z</time></trkpt><trkpt lat="46.0370612" lon="11.9729545"><ele>278.0</ele><time>2026-04-18T11:12:18.538Z</time></trkpt><trkpt lat="46.0369964" lon="11.9730336"><ele>278.0</ele><time>2026-04-18T11:12:20.536Z</time></trkpt><trkpt lat="46.0369284" lon="11.9730985"><ele>278.0</ele><time>2026-04-18T11:12:22.537Z</time></trkpt><trkpt lat="46.0368622" lon="11.9731699"><ele>278.0</ele><time>2026-04-18T11:12:24.538Z</time></trkpt><trkpt lat="46.0367953" lon="11.9732405"><ele>278.0</ele><time>2026-04-18T11:12:26.537Z</time></trkpt><trkpt lat="46.0367245" lon="11.9733134"><ele>278.0</ele><time>2026-04-18T11:12:28.537Z</time></trkpt><trkpt lat="46.0366507" lon="11.9733983"><ele>278.0</ele><time>2026-04-18T11:12:30.534Z</time></trkpt><trkpt lat="46.0365752" lon="11.9734829"><ele>276.8</ele><time>2026-04-18T11:12:32.535Z</time></trkpt><trkpt lat="46.0364918" lon="11.9735437"><ele>275.6</ele><time>2026-04-18T11:12:34.535Z</time></trkpt><trkpt lat="46.0363943" lon="11.9735761"><ele>274.4</ele><time>2026-04-18T11:12:36.538Z</time></trkpt><trkpt lat="46.0363027" lon="11.9735842"><ele>273.2</ele><time>2026-04-18T11:12:38.536Z</time></trkpt><trkpt lat="46.0362072" lon="11.9736032"><ele>272.0</ele><time>2026-04-18T11:12:40.534Z</time></trkpt><trkpt lat="46.0361135" lon="11.9736289"><ele>272.0</ele><time>2026-04-18T11:12:42.535Z</time></trkpt><trkpt lat="46.0360191" lon="11.9736323"><ele>272.0</ele><time>2026-04-18T11:12:44.536Z</time></trkpt><trkpt lat="46.0359403" lon="11.9736299"><ele>272.0</ele><time>2026-04-18T11:12:46.536Z</time></trkpt><trkpt lat="46.0358638" lon="11.9736373"><ele>272.0</ele><time>2026-04-18T11:12:48.535Z</time></trkpt><trkpt lat="46.0357722" lon="11.9736372"><ele>272.0</ele><time>2026-04-18T11:12:50.535Z</time></trkpt><trkpt lat="46.0356753" lon="11.9736498"><ele>272.0</ele><time>2026-04-18T11:12:52.536Z</time></trkpt><trkpt lat="46.0355706" lon="11.9736789"><ele>270.83333333333337</ele><time>2026-04-18T11:12:54.535Z</time></trkpt><trkpt lat="46.0354744" lon="11.9736936"><ele>269.6666666666667</ele><time>2026-04-18T11:12:56.535Z</time></trkpt><trkpt lat="46.0353894" lon="11.9737051"><ele>268.5</ele><time>2026-04-18T11:12:58.536Z</time></trkpt><trkpt lat="46.0353244" lon="11.9737285"><ele>267.3333333333333</ele><time>2026-04-18T11:13:00.535Z</time></trkpt><trkpt lat="46.035288" lon="11.9738348"><ele>266.16666666666663</ele><time>2026-04-18T11:13:03.536Z</time></trkpt><trkpt lat="46.035312" lon="11.9739236"><ele>265.0</ele><time>2026-04-18T11:13:05.534Z</time></trkpt><trkpt lat="46.0353592" lon="11.9740021"><ele>265.0</ele><time>2026-04-18T11:13:07.535Z</time></trkpt><trkpt lat="46.0354131" lon="11.9740785"><ele>265.0</ele><time>2026-04-18T11:13:09.535Z</time></trkpt><trkpt lat="46.0354696" lon="11.9741472"><ele>265.0</ele><time>2026-04-18T11:13:11.535Z</time></trkpt><trkpt lat="46.0355237" lon="11.974225"><ele>265.0</ele><time>2026-04-18T11:13:13.535Z</time></trkpt><trkpt lat="46.0355775" lon="11.9743092"><ele>265.0</ele><time>2026-04-18T11:13:15.535Z</time></trkpt><trkpt lat="46.0356322" lon="11.9743858"><ele>265.0</ele><time>2026-04-18T11:13:17.535Z</time></trkpt><trkpt lat="46.0356922" lon="11.9744691"><ele>265.16666666666663</ele><time>2026-04-18T11:13:19.536Z</time></trkpt><trkpt lat="46.0357439" lon="11.9745496"><ele>265.3333333333333</ele><time>2026-04-18T11:13:21.537Z</time></trkpt><trkpt lat="46.0358012" lon="11.9746244"><ele>265.5</ele><time>2026-04-18T11:13:23.536Z</time></trkpt><trkpt lat="46.0358657" lon="11.9747025"><ele>265.6666666666667</ele><time>2026-04-18T11:13:25.539Z</time></trkpt><trkpt lat="46.0359222" lon="11.9747822"><ele>265.83333333333337</ele><time>2026-04-18T11:13:27.538Z</time></trkpt><trkpt lat="46.0359755" lon="11.974857"><ele>266.0</ele><time>2026-04-18T11:13:29.537Z</time></trkpt><trkpt lat="46.0360331" lon="11.9749295"><ele>266.0</ele><time>2026-04-18T11:13:31.539Z</time></trkpt><trkpt lat="46.036085" lon="11.9750168"><ele>266.0</ele><time>2026-04-18T11:13:33.537Z</time></trkpt><trkpt lat="46.0361391" lon="11.9751064"><ele>266.0</ele><time>2026-04-18T11:13:35.539Z</time></trkpt><trkpt lat="46.0361952" lon="11.9752014"><ele>266.0</ele><time>2026-04-18T11:13:37.537Z</time></trkpt><trkpt lat="46.0362592" lon="11.9752839"><ele>266.0</ele><time>2026-04-18T11:13:39.54Z</time></trkpt><trkpt lat="46.0363195" lon="11.9753718"><ele>266.0</ele><time>2026-04-18T11:13:41.534Z</time></trkpt><trkpt lat="46.0363805" lon="11.9754614"><ele>265.2</ele><time>2026-04-18T11:13:43.538Z</time></trkpt><trkpt lat="46.0364439" lon="11.975552"><ele>264.40000000000003</ele><time>2026-04-18T11:13:45.538Z</time></trkpt><trkpt lat="46.0365054" lon="11.9756541"><ele>263.6</ele><time>2026-04-18T11:13:47.536Z</time></trkpt><trkpt lat="46.0365617" lon="11.9757612"><ele>262.8</ele><time>2026-04-18T11:13:49.537Z</time></trkpt><trkpt lat="46.0366217" lon="11.9758626"><ele>262.0</ele><time>2026-04-18T11:13:51.537Z</time></trkpt><trkpt lat="46.0366829" lon="11.9759601"><ele>262.0</ele><time>2026-04-18T11:13:53.539Z</time></trkpt><trkpt lat="46.0367498" lon="11.9760599"><ele>262.0</ele><time>2026-04-18T11:13:55.535Z</time></trkpt><trkpt lat="46.0368078" lon="11.9761805"><ele>262.0</ele><time>2026-04-18T11:13:57.537Z</time></trkpt><trkpt lat="46.0368749" lon="11.9762966"><ele>262.0</ele><time>2026-04-18T11:13:59.536Z</time></trkpt><trkpt lat="46.0369438" lon="11.9764252"><ele>262.0</ele><time>2026-04-18T11:14:01.537Z</time></trkpt><trkpt lat="46.0370134" lon="11.9765527"><ele>262.0</ele><time>2026-04-18T11:14:03.535Z</time></trkpt><trkpt lat="46.0370921" lon="11.9766531"><ele>262.0</ele><time>2026-04-18T11:14:05.538Z</time></trkpt><trkpt lat="46.0371607" lon="11.9766991"><ele>262.0</ele><time>2026-04-18T11:14:07.537Z</time></trkpt><trkpt lat="46.0372236" lon="11.9767372"><ele>262.0</ele><time>2026-04-18T11:14:09.536Z</time></trkpt><trkpt lat="46.0372889" lon="11.9767904"><ele>262.0</ele><time>2026-04-18T11:14:11.539Z</time></trkpt><trkpt lat="46.0373588" lon="11.9768753"><ele>262.0</ele><time>2026-04-18T11:14:13.537Z</time></trkpt><trkpt lat="46.0374269" lon="11.9769631"><ele>261.66666666666663</ele><time>2026-04-18T11:14:15.536Z</time></trkpt><trkpt lat="46.037497" lon="11.977053"><ele>261.3333333333333</ele><time>2026-04-18T11:14:17.535Z</time></trkpt><trkpt lat="46.0375666" lon="11.9771329"><ele>261.0</ele><time>2026-04-18T11:14:19.538Z</time></trkpt><trkpt lat="46.0376309" lon="11.977218"><ele>260.6666666666667</ele><time>2026-04-18T11:14:21.538Z</time></trkpt><trkpt lat="46.0376873" lon="11.9773007"><ele>260.33333333333337</ele><time>2026-04-18T11:14:23.54Z</time></trkpt><trkpt lat="46.0377502" lon="11.9773679"><ele>260.0</ele><time>2026-04-18T11:14:25.537Z</time></trkpt><trkpt lat="46.0378338" lon="11.9774207"><ele>260.0</ele><time>2026-04-18T11:14:27.538Z</time></trkpt><trkpt lat="46.0379201" lon="11.9774691"><ele>260.0</ele><time>2026-04-18T11:14:29.536Z</time></trkpt><trkpt lat="46.0379997" lon="11.9775267"><ele>260.0</ele><time>2026-04-18T11:14:31.539Z</time></trkpt><trkpt lat="46.0380827" lon="11.9775901"><ele>260.0</ele><time>2026-04-18T11:14:33.537Z</time></trkpt><trkpt lat="46.0381629" lon="11.9776484"><ele>260.0</ele><time>2026-04-18T11:14:35.537Z</time></trkpt><trkpt lat="46.0382397" lon="11.9776968"><ele>260.0</ele><time>2026-04-18T11:14:37.538Z</time></trkpt><trkpt lat="46.0383058" lon="11.9777113"><ele>260.1666666666667</ele><time>2026-04-18T11:14:39.538Z</time></trkpt><trkpt lat="46.0383881" lon="11.9776786"><ele>260.33333333333337</ele><time>2026-04-18T11:14:41.538Z</time></trkpt><trkpt lat="46.0384721" lon="11.9776407"><ele>260.5</ele><time>2026-04-18T11:14:43.536Z</time></trkpt><trkpt lat="46.038552" lon="11.9776032"><ele>260.6666666666667</ele><time>2026-04-18T11:14:45.537Z</time></trkpt><trkpt lat="46.0386321" lon="11.9775635"><ele>260.8333333333333</ele><time>2026-04-18T11:14:47.538Z</time></trkpt><trkpt lat="46.0387119" lon="11.977525"><ele>261.0</ele><time>2026-04-18T11:14:49.538Z</time></trkpt><trkpt lat="46.0387849" lon="11.9774828"><ele>260.8333333333333</ele><time>2026-04-18T11:14:51.537Z</time></trkpt><trkpt lat="46.0388562" lon="11.9774305"><ele>260.6666666666667</ele><time>2026-04-18T11:14:53.536Z</time></trkpt><trkpt lat="46.0389256" lon="11.9773747"><ele>260.5</ele><time>2026-04-18T11:14:55.535Z</time></trkpt><trkpt lat="46.0389958" lon="11.977321"><ele>260.33333333333337</ele><time>2026-04-18T11:14:57.537Z</time></trkpt><trkpt lat="46.0390642" lon="11.9772615"><ele>260.1666666666667</ele><time>2026-04-18T11:14:59.538Z</time></trkpt><trkpt lat="46.0391374" lon="11.9772037"><ele>260.0</ele><time>2026-04-18T11:15:01.539Z</time></trkpt><trkpt lat="46.0392192" lon="11.977175"><ele>260.0</ele><time>2026-04-18T11:15:03.537Z</time></trkpt><trkpt lat="46.0392924" lon="11.9771821"><ele>260.0</ele><time>2026-04-18T11:15:05.538Z</time></trkpt><trkpt lat="46.0393544" lon="11.977226"><ele>260.0</ele><time>2026-04-18T11:15:07.537Z</time></trkpt><trkpt lat="46.0394236" lon="11.9772979"><ele>260.0</ele><time>2026-04-18T11:15:09.537Z</time></trkpt><trkpt lat="46.0394933" lon="11.9773662"><ele>260.0</ele><time>2026-04-18T11:15:11.537Z</time></trkpt><trkpt lat="46.0395748" lon="11.9773996"><ele>260.0</ele><time>2026-04-18T11:15:13.537Z</time></trkpt><trkpt lat="46.0396599" lon="11.9773964"><ele>260.0</ele><time>2026-04-18T11:15:15.536Z</time></trkpt><trkpt lat="46.0397385" lon="11.977381"><ele>260.0</ele><time>2026-04-18T11:15:17.538Z</time></trkpt><trkpt lat="46.0398195" lon="11.9773761"><ele>260.0</ele><time>2026-04-18T11:15:19.539Z</time></trkpt><trkpt lat="46.0398967" lon="11.977412"><ele>260.0</ele><time>2026-04-18T11:15:21.538Z</time></trkpt><trkpt lat="46.0399673" lon="11.9774669"><ele>260.0</ele><time>2026-04-18T11:15:23.537Z</time></trkpt><trkpt lat="46.0400331" lon="11.9775272"><ele>260.0</ele><time>2026-04-18T11:15:25.537Z</time></trkpt><trkpt lat="46.0400966" lon="11.9775966"><ele>260.83333333333337</ele><time>2026-04-18T11:15:27.537Z</time></trkpt><trkpt lat="46.0401413" lon="11.9776797"><ele>261.6666666666667</ele><time>2026-04-18T11:15:29.538Z</time></trkpt><trkpt lat="46.0401695" lon="11.9777766"><ele>262.5</ele><time>2026-04-18T11:15:31.538Z</time></trkpt><trkpt lat="46.0401913" lon="11.9778847"><ele>263.3333333333333</ele><time>2026-04-18T11:15:33.537Z</time></trkpt><trkpt lat="46.0402172" lon="11.9779936"><ele>264.16666666666663</ele><time>2026-04-18T11:15:35.538Z</time></trkpt><trkpt lat="46.0402652" lon="11.9780818"><ele>265.0</ele><time>2026-04-18T11:15:37.538Z</time></trkpt><trkpt lat="46.0403258" lon="11.9781583"><ele>265.0</ele><time>2026-04-18T11:15:39.538Z</time></trkpt><trkpt lat="46.0403893" lon="11.9782359"><ele>265.0</ele><time>2026-04-18T11:15:41.54Z</time></trkpt><trkpt lat="46.0404515" lon="11.9783117"><ele>265.0</ele><time>2026-04-18T11:15:43.536Z</time></trkpt><trkpt lat="46.0405195" lon="11.9783764"><ele>265.0</ele><time>2026-04-18T11:15:45.539Z</time></trkpt><trkpt lat="46.0405917" lon="11.9784415"><ele>265.0</ele><time>2026-04-18T11:15:47.538Z</time></trkpt><trkpt lat="46.0406656" lon="11.9785"><ele>265.0</ele><time>2026-04-18T11:15:49.539Z</time></trkpt><trkpt lat="46.0407366" lon="11.9785586"><ele>266.3333333333333</ele><time>2026-04-18T11:15:51.538Z</time></trkpt><trkpt lat="46.0408021" lon="11.978625"><ele>267.66666666666663</ele><time>2026-04-18T11:15:53.538Z</time></trkpt><trkpt lat="46.0408592" lon="11.9786988"><ele>269.0</ele><time>2026-04-18T11:15:55.538Z</time></trkpt><trkpt lat="46.0409087" lon="11.9787806"><ele>270.3333333333333</ele><time>2026-04-18T11:15:57.537Z</time></trkpt><trkpt lat="46.040957" lon="11.978865"><ele>271.6666666666667</ele><time>2026-04-18T11:15:59.537Z</time></trkpt><trkpt lat="46.040996" lon="11.9789543"><ele>273.0</ele><time>2026-04-18T11:16:01.539Z</time></trkpt><trkpt lat="46.0410186" lon="11.9790676"><ele>273.0</ele><time>2026-04-18T11:16:03.535Z</time></trkpt><trkpt lat="46.0410232" lon="11.979163"><ele>273.0</ele><time>2026-04-18T11:16:05.538Z</time></trkpt><trkpt lat="46.0410512" lon="11.9792954"><ele>273.0</ele><time>2026-04-18T11:16:08.538Z</time></trkpt><trkpt lat="46.0410726" lon="11.9793888"><ele>273.0</ele><time>2026-04-18T11:16:10.538Z</time></trkpt><trkpt lat="46.0410948" lon="11.979481"><ele>273.0</ele><time>2026-04-18T11:16:12.537Z</time></trkpt><trkpt lat="46.0411265" lon="11.9795979"><ele>273.0</ele><time>2026-04-18T11:16:15.538Z</time></trkpt><trkpt lat="46.0411261" lon="11.9796956"><ele>271.1666666666667</ele><time>2026-04-18T11:16:19.538Z</time></trkpt><trkpt lat="46.0410745" lon="11.9796234"><ele>269.3333333333333</ele><time>2026-04-18T11:16:22.538Z</time></trkpt><trkpt lat="46.0409983" lon="11.9795491"><ele>267.5</ele><time>2026-04-18T11:16:25.534Z</time></trkpt><trkpt lat="46.0409127" lon="11.9795453"><ele>265.66666666666663</ele><time>2026-04-18T11:16:27.54Z</time></trkpt><trkpt lat="46.0408337" lon="11.979544"><ele>263.8333333333333</ele><time>2026-04-18T11:16:29.539Z</time></trkpt><trkpt lat="46.0407677" lon="11.9795576"><ele>262.0</ele><time>2026-04-18T11:16:31.537Z</time></trkpt><trkpt lat="46.0407294" lon="11.9796296"><ele>262.0</ele><time>2026-04-18T11:16:33.54Z</time></trkpt><trkpt lat="46.0407397" lon="11.9797498"><ele>262.0</ele><time>2026-04-18T11:16:35.535Z</time></trkpt><trkpt lat="46.0407838" lon="11.9798796"><ele>262.0</ele><time>2026-04-18T11:16:37.536Z</time></trkpt><trkpt lat="46.0408556" lon="11.9799948"><ele>262.0</ele><time>2026-04-18T11:16:39.538Z</time></trkpt><trkpt lat="46.0409419" lon="11.9801074"><ele>262.0</ele><time>2026-04-18T11:16:41.537Z</time></trkpt><trkpt lat="46.0410218" lon="11.9802109"><ele>261.0</ele><time>2026-04-18T11:16:43.538Z</time></trkpt><trkpt lat="46.0410968" lon="11.9802977"><ele>260.0</ele><time>2026-04-18T11:16:45.536Z</time></trkpt><trkpt lat="46.0411654" lon="11.9803704"><ele>259.0</ele><time>2026-04-18T11:16:47.538Z</time></trkpt><trkpt lat="46.0412144" lon="11.9804551"><ele>258.0</ele><time>2026-04-18T11:16:49.538Z</time></trkpt><trkpt lat="46.0412216" lon="11.980556"><ele>257.0</ele><time>2026-04-18T11:16:51.537Z</time></trkpt><trkpt lat="46.0412049" lon="11.980655"><ele>256.0</ele><time>2026-04-18T11:16:53.538Z</time></trkpt><trkpt lat="46.0410843" lon="11.9807294"><ele>256.0</ele><time>2026-04-18T11:16:55.538Z</time></trkpt><trkpt lat="46.041021" lon="11.980762"><ele>256.0</ele><time>2026-04-18T11:16:56.537Z</time></trkpt><trkpt lat="46.0409065" lon="11.9807476"><ele>256.0</ele><time>2026-04-18T11:16:58.538Z</time></trkpt><trkpt lat="46.0408042" lon="11.9806673"><ele>256.0</ele><time>2026-04-18T11:17:00.537Z</time></trkpt><trkpt lat="46.0407048" lon="11.9805981"><ele>256.0</ele><time>2026-04-18T11:17:02.537Z</time></trkpt><trkpt lat="46.0406037" lon="11.9805501"><ele>255.4</ele><time>2026-04-18T11:17:04.537Z</time></trkpt><trkpt lat="46.0405029" lon="11.980512"><ele>254.8</ele><time>2026-04-18T11:17:06.538Z</time></trkpt><trkpt lat="46.0404028" lon="11.9804814"><ele>254.20000000000002</ele><time>2026-04-18T11:17:08.538Z</time></trkpt><trkpt lat="46.0403025" lon="11.9804862"><ele>253.60000000000002</ele><time>2026-04-18T11:17:10.539Z</time></trkpt><trkpt lat="46.0402129" lon="11.9805349"><ele>253.0</ele><time>2026-04-18T11:17:12.539Z</time></trkpt><trkpt lat="46.0401295" lon="11.9806136"><ele>253.0</ele><time>2026-04-18T11:17:14.539Z</time></trkpt><trkpt lat="46.0400432" lon="11.9806945"><ele>253.0</ele><time>2026-04-18T11:17:16.536Z</time></trkpt><trkpt lat="46.0399586" lon="11.98078"><ele>253.0</ele><time>2026-04-18T11:17:18.538Z</time></trkpt><trkpt lat="46.0398748" lon="11.9808728"><ele>253.0</ele><time>2026-04-18T11:17:20.536Z</time></trkpt><trkpt lat="46.039793" lon="11.9809634"><ele>253.0</ele><time>2026-04-18T11:17:22.538Z</time></trkpt><trkpt lat="46.0397138" lon="11.9810421"><ele>251.83333333333331</ele><time>2026-04-18T11:17:24.54Z</time></trkpt><trkpt lat="46.039636" lon="11.9811132"><ele>250.66666666666666</ele><time>2026-04-18T11:17:26.537Z</time></trkpt><trkpt lat="46.039568" lon="11.9811822"><ele>249.5</ele><time>2026-04-18T11:17:28.537Z</time></trkpt><trkpt lat="46.0395044" lon="11.9812479"><ele>248.33333333333331</ele><time>2026-04-18T11:17:30.536Z</time></trkpt><trkpt lat="46.0394413" lon="11.9813201"><ele>247.16666666666666</ele><time>2026-04-18T11:17:32.54Z</time></trkpt><trkpt lat="46.0393749" lon="11.9813889"><ele>246.0</ele><time>2026-04-18T11:17:34.536Z</time></trkpt><trkpt lat="46.0393039" lon="11.9814533"><ele>246.0</ele><time>2026-04-18T11:17:36.54Z</time></trkpt><trkpt lat="46.0392341" lon="11.9815282"><ele>246.0</ele><time>2026-04-18T11:17:38.535Z</time></trkpt><trkpt lat="46.0391631" lon="11.9815997"><ele>246.0</ele><time>2026-04-18T11:17:40.537Z</time></trkpt><trkpt lat="46.0390977" lon="11.9816732"><ele>246.0</ele><time>2026-04-18T11:17:42.54Z</time></trkpt><trkpt lat="46.0390312" lon="11.9817449"><ele>246.0</ele><time>2026-04-18T11:17:44.54Z</time></trkpt><trkpt lat="46.038961" lon="11.9818137"><ele>246.0</ele><time>2026-04-18T11:17:46.538Z</time></trkpt><trkpt lat="46.0388983" lon="11.9818914"><ele>245.83333333333334</ele><time>2026-04-18T11:17:48.54Z</time></trkpt><trkpt lat="46.0388364" lon="11.9819792"><ele>245.66666666666669</ele><time>2026-04-18T11:17:50.54Z</time></trkpt><trkpt lat="46.0387617" lon="11.9820711"><ele>245.5</ele><time>2026-04-18T11:17:52.535Z</time></trkpt><trkpt lat="46.0386958" lon="11.9821521"><ele>245.33333333333334</ele><time>2026-04-18T11:17:54.538Z</time></trkpt><trkpt lat="46.0386374" lon="11.9822148"><ele>245.16666666666669</ele><time>2026-04-18T11:17:56.536Z</time></trkpt><trkpt lat="46.0385776" lon="11.9822617"><ele>245.0</ele><time>2026-04-18T11:17:58.537Z</time></trkpt><trkpt lat="46.0385059" lon="11.9822629"><ele>245.00000000000003</ele><time>2026-04-18T11:18:00.537Z</time></trkpt><trkpt lat="46.0384336" lon="11.9822273"><ele>245.0</ele><time>2026-04-18T11:18:02.538Z</time></trkpt><trkpt lat="46.0383628" lon="11.9822188"><ele>245.0</ele><time>2026-04-18T11:18:04.536Z</time></trkpt><trkpt lat="46.0382887" lon="11.982252"><ele>245.0</ele><time>2026-04-18T11:18:06.537Z</time></trkpt><trkpt lat="46.0382335" lon="11.9823335"><ele>245.00000000000003</ele><time>2026-04-18T11:18:08.539Z</time></trkpt><trkpt lat="46.0381945" lon="11.9824411"><ele>245.0</ele><time>2026-04-18T11:18:10.537Z</time></trkpt><trkpt lat="46.0381753" lon="11.982561"><ele>245.8</ele><time>2026-04-18T11:18:12.537Z</time></trkpt><trkpt lat="46.0381757" lon="11.9827037"><ele>246.6</ele><time>2026-04-18T11:18:14.539Z</time></trkpt><trkpt lat="46.0381931" lon="11.9828575"><ele>247.39999999999998</ele><time>2026-04-18T11:18:16.54Z</time></trkpt><trkpt lat="46.0381967" lon="11.9830195"><ele>248.2</ele><time>2026-04-18T11:18:18.537Z</time></trkpt><trkpt lat="46.038198" lon="11.9831736"><ele>249.0</ele><time>2026-04-18T11:18:20.539Z</time></trkpt><trkpt lat="46.0382358" lon="11.9832997"><ele>249.39999999999998</ele><time>2026-04-18T11:18:22.537Z</time></trkpt><trkpt lat="46.0382966" lon="11.9834019"><ele>249.79999999999998</ele><time>2026-04-18T11:18:24.539Z</time></trkpt><trkpt lat="46.0383602" lon="11.9834982"><ele>250.20000000000002</ele><time>2026-04-18T11:18:26.539Z</time></trkpt><trkpt lat="46.0384244" lon="11.9835934"><ele>250.60000000000002</ele><time>2026-04-18T11:18:28.538Z</time></trkpt><trkpt lat="46.0384888" lon="11.983693"><ele>251.0</ele><time>2026-04-18T11:18:30.538Z</time></trkpt><trkpt lat="46.038543" lon="11.9837956"><ele>250.0</ele><time>2026-04-18T11:18:32.537Z</time></trkpt><trkpt lat="46.038592" lon="11.9838994"><ele>249.00000000000003</ele><time>2026-04-18T11:18:34.538Z</time></trkpt><trkpt lat="46.0386289" lon="11.9840121"><ele>248.00000000000003</ele><time>2026-04-18T11:18:36.538Z</time></trkpt><trkpt lat="46.0386269" lon="11.9841399"><ele>247.0</ele><time>2026-04-18T11:18:38.538Z</time></trkpt><trkpt lat="46.0386012" lon="11.9842743"><ele>246.0</ele><time>2026-04-18T11:18:40.534Z</time></trkpt><trkpt lat="46.0385597" lon="11.9844076"><ele>244.5</ele><time>2026-04-18T11:18:42.538Z</time></trkpt><trkpt lat="46.0385056" lon="11.9845445"><ele>243.0</ele><time>2026-04-18T11:18:44.537Z</time></trkpt><trkpt lat="46.0384496" lon="11.984685"><ele>241.5</ele><time>2026-04-18T11:18:46.537Z</time></trkpt><trkpt lat="46.0383962" lon="11.9848311"><ele>240.0</ele><time>2026-04-18T11:18:48.538Z</time></trkpt><trkpt lat="46.0383378" lon="11.9849718"><ele>240.4</ele><time>2026-04-18T11:18:50.538Z</time></trkpt><trkpt lat="46.0382725" lon="11.9851046"><ele>240.8</ele><time>2026-04-18T11:18:52.538Z</time></trkpt><trkpt lat="46.0382039" lon="11.9852249"><ele>241.2</ele><time>2026-04-18T11:18:54.536Z</time></trkpt><trkpt lat="46.038131" lon="11.9853262"><ele>241.6</ele><time>2026-04-18T11:18:56.537Z</time></trkpt><trkpt lat="46.0380483" lon="11.9854202"><ele>242.0</ele><time>2026-04-18T11:18:58.539Z</time></trkpt><trkpt lat="46.0379632" lon="11.9855005"><ele>242.0</ele><time>2026-04-18T11:19:00.538Z</time></trkpt><trkpt lat="46.0378799" lon="11.9855877"><ele>242.0</ele><time>2026-04-18T11:19:02.538Z</time></trkpt><trkpt lat="46.0378076" lon="11.9856864"><ele>242.0</ele><time>2026-04-18T11:19:04.538Z</time></trkpt><trkpt lat="46.0377619" lon="11.9858064"><ele>242.0</ele><time>2026-04-18T11:19:06.536Z</time></trkpt><trkpt lat="46.0377394" lon="11.9859437"><ele>242.0</ele><time>2026-04-18T11:19:08.539Z</time></trkpt><trkpt lat="46.0377227" lon="11.9860947"><ele>240.2</ele><time>2026-04-18T11:19:10.537Z</time></trkpt><trkpt lat="46.0377106" lon="11.9862412"><ele>238.39999999999998</ele><time>2026-04-18T11:19:12.537Z</time></trkpt><trkpt lat="46.0377075" lon="11.9863897"><ele>236.60000000000002</ele><time>2026-04-18T11:19:14.537Z</time></trkpt><trkpt lat="46.0377128" lon="11.9865323"><ele>234.8</ele><time>2026-04-18T11:19:16.539Z</time></trkpt><trkpt lat="46.0377125" lon="11.9866668"><ele>233.0</ele><time>2026-04-18T11:19:18.536Z</time></trkpt><trkpt lat="46.0377102" lon="11.986789"><ele>232.8</ele><time>2026-04-18T11:19:20.538Z</time></trkpt><trkpt lat="46.0377115" lon="11.9869168"><ele>232.60000000000002</ele><time>2026-04-18T11:19:22.538Z</time></trkpt><trkpt lat="46.0377088" lon="11.9870447"><ele>232.39999999999998</ele><time>2026-04-18T11:19:24.54Z</time></trkpt><trkpt lat="46.037696" lon="11.9871737"><ele>232.2</ele><time>2026-04-18T11:19:26.538Z</time></trkpt><trkpt lat="46.0376814" lon="11.987306"><ele>232.0</ele><time>2026-04-18T11:19:28.537Z</time></trkpt><trkpt lat="46.0376756" lon="11.98744"><ele>232.39999999999998</ele><time>2026-04-18T11:19:30.537Z</time></trkpt><trkpt lat="46.0376696" lon="11.987577"><ele>232.79999999999998</ele><time>2026-04-18T11:19:32.538Z</time></trkpt><trkpt lat="46.0376665" lon="11.9877198"><ele>233.2</ele><time>2026-04-18T11:19:34.537Z</time></trkpt><trkpt lat="46.0376603" lon="11.9878609"><ele>233.6</ele><time>2026-04-18T11:19:36.537Z</time></trkpt><trkpt lat="46.0376587" lon="11.988003"><ele>234.0</ele><time>2026-04-18T11:19:38.538Z</time></trkpt><trkpt lat="46.0376548" lon="11.9881454"><ele>234.0</ele><time>2026-04-18T11:19:40.535Z</time></trkpt><trkpt lat="46.0376466" lon="11.9882837"><ele>233.99999999999997</ele><time>2026-04-18T11:19:42.536Z</time></trkpt><trkpt lat="46.0376452" lon="11.9884263"><ele>233.99999999999997</ele><time>2026-04-18T11:19:44.538Z</time></trkpt><trkpt lat="46.0376437" lon="11.9885697"><ele>234.0</ele><time>2026-04-18T11:19:46.537Z</time></trkpt><trkpt lat="46.0376416" lon="11.9887062"><ele>234.0</ele><time>2026-04-18T11:19:48.536Z</time></trkpt><trkpt lat="46.0376378" lon="11.9888465"><ele>234.39999999999998</ele><time>2026-04-18T11:19:50.537Z</time></trkpt><trkpt lat="46.0376323" lon="11.988988"><ele>234.79999999999998</ele><time>2026-04-18T11:19:52.537Z</time></trkpt><trkpt lat="46.0376253" lon="11.9891298"><ele>235.20000000000002</ele><time>2026-04-18T11:19:54.538Z</time></trkpt><trkpt lat="46.0376217" lon="11.9892694"><ele>235.60000000000002</ele><time>2026-04-18T11:19:56.538Z</time></trkpt><trkpt lat="46.0376216" lon="11.9894031"><ele>236.0</ele><time>2026-04-18T11:19:58.538Z</time></trkpt><trkpt lat="46.0376232" lon="11.9895448"><ele>236.60000000000002</ele><time>2026-04-18T11:20:00.537Z</time></trkpt><trkpt lat="46.0376209" lon="11.9896846"><ele>237.20000000000002</ele><time>2026-04-18T11:20:02.538Z</time></trkpt><trkpt lat="46.037642" lon="11.9898249"><ele>237.79999999999998</ele><time>2026-04-18T11:20:04.537Z</time></trkpt><trkpt lat="46.0376815" lon="11.989959"><ele>238.39999999999998</ele><time>2026-04-18T11:20:06.538Z</time></trkpt><trkpt lat="46.0377231" lon="11.9900904"><ele>239.0</ele><time>2026-04-18T11:20:08.538Z</time></trkpt><trkpt lat="46.0377724" lon="11.9902167"><ele>239.2</ele><time>2026-04-18T11:20:10.537Z</time></trkpt><trkpt lat="46.0378205" lon="11.9903327"><ele>239.39999999999998</ele><time>2026-04-18T11:20:12.534Z</time></trkpt><trkpt lat="46.0378645" lon="11.99045"><ele>239.6</ele><time>2026-04-18T11:20:14.537Z</time></trkpt><trkpt lat="46.0379054" lon="11.9905758"><ele>239.8</ele><time>2026-04-18T11:20:16.537Z</time></trkpt><trkpt lat="46.0379459" lon="11.9907022"><ele>240.0</ele><time>2026-04-18T11:20:18.538Z</time></trkpt><trkpt lat="46.0379984" lon="11.9908206"><ele>240.0</ele><time>2026-04-18T11:20:20.54Z</time></trkpt><trkpt lat="46.0380446" lon="11.9909197"><ele>240.0</ele><time>2026-04-18T11:20:22.54Z</time></trkpt><trkpt lat="46.0380838" lon="11.991008"><ele>240.0</ele><time>2026-04-18T11:20:24.539Z</time></trkpt><trkpt lat="46.0381177" lon="11.9911165"><ele>240.0</ele><time>2026-04-18T11:20:27.539Z</time></trkpt><trkpt lat="46.0381272" lon="11.9912085"><ele>240.0</ele><time>2026-04-18T11:20:30.538Z</time></trkpt><trkpt lat="46.0381669" lon="11.9912881"><ele>240.0</ele><time>2026-04-18T11:20:32.539Z</time></trkpt><trkpt lat="46.0382262" lon="11.991366"><ele>240.0</ele><time>2026-04-18T11:20:34.539Z</time></trkpt><trkpt lat="46.038288" lon="11.9914622"><ele>240.0</ele><time>2026-04-18T11:20:36.539Z</time></trkpt><trkpt lat="46.0383529" lon="11.9915503"><ele>240.0</ele><time>2026-04-18T11:20:38.538Z</time></trkpt><trkpt lat="46.0384149" lon="11.9916375"><ele>240.0</ele><time>2026-04-18T11:20:40.538Z</time></trkpt><trkpt lat="46.0384677" lon="11.991738"><ele>240.0</ele><time>2026-04-18T11:20:42.536Z</time></trkpt><trkpt lat="46.0385161" lon="11.9918428"><ele>240.0</ele><time>2026-04-18T11:20:44.537Z</time></trkpt><trkpt lat="46.0385487" lon="11.9919667"><ele>240.0</ele><time>2026-04-18T11:20:46.539Z</time></trkpt><trkpt lat="46.0385837" lon="11.9920874"><ele>240.0</ele><time>2026-04-18T11:20:48.537Z</time></trkpt><trkpt lat="46.0385959" lon="11.9922113"><ele>240.0</ele><time>2026-04-18T11:20:50.538Z</time></trkpt><trkpt lat="46.0386182" lon="11.9923291"><ele>240.0</ele><time>2026-04-18T11:20:52.537Z</time></trkpt><trkpt lat="46.0386527" lon="11.9924497"><ele>240.0</ele><time>2026-04-18T11:20:54.537Z</time></trkpt><trkpt lat="46.038686" lon="11.9925785"><ele>240.0</ele><time>2026-04-18T11:20:56.54Z</time></trkpt><trkpt lat="46.0387223" lon="11.9927008"><ele>240.0</ele><time>2026-04-18T11:20:58.539Z</time></trkpt><trkpt lat="46.0387574" lon="11.9928325"><ele>240.0</ele><time>2026-04-18T11:21:00.536Z</time></trkpt><trkpt lat="46.0387812" lon="11.9929694"><ele>240.0</ele><time>2026-04-18T11:21:02.538Z</time></trkpt><trkpt lat="46.0388192" lon="11.9930793"><ele>240.0</ele><time>2026-04-18T11:21:04.537Z</time></trkpt><trkpt lat="46.0388982" lon="11.9931565"><ele>240.0</ele><time>2026-04-18T11:21:07.537Z</time></trkpt><trkpt lat="46.0390094" lon="11.9931576"><ele>240.0</ele><time>2026-04-18T11:21:09.537Z</time></trkpt><trkpt lat="46.0390748" lon="11.9931592"><ele>240.0</ele><time>2026-04-18T11:21:10.537Z</time></trkpt><trkpt lat="46.0391431" lon="11.9931674"><ele>240.0</ele><time>2026-04-18T11:21:11.538Z</time></trkpt><trkpt lat="46.0392109" lon="11.9931869"><ele>240.0</ele><time>2026-04-18T11:21:12.536Z</time></trkpt><trkpt lat="46.0392774" lon="11.9932171"><ele>240.0</ele><time>2026-04-18T11:21:13.537Z</time></trkpt><trkpt lat="46.0393396" lon="11.9932621"><ele>240.0</ele><time>2026-04-18T11:21:14.538Z</time></trkpt><trkpt lat="46.0393951" lon="11.9933153"><ele>240.0</ele><time>2026-04-18T11:21:15.539Z</time></trkpt><trkpt lat="46.0394463" lon="11.9933702"><ele>239.4</ele><time>2026-04-18T11:21:16.539Z</time></trkpt><trkpt lat="46.0394994" lon="11.993421"><ele>238.8</ele><time>2026-04-18T11:21:17.538Z</time></trkpt><trkpt lat="46.039595" lon="11.9935134"><ele>238.2</ele><time>2026-04-18T11:21:19.54Z</time></trkpt><trkpt lat="46.0396904" lon="11.9935897"><ele>237.6</ele><time>2026-04-18T11:21:21.536Z</time></trkpt><trkpt lat="46.0397783" lon="11.9936561"><ele>237.0</ele><time>2026-04-18T11:21:23.539Z</time></trkpt><trkpt lat="46.0398738" lon="11.9937119"><ele>237.0</ele><time>2026-04-18T11:21:25.536Z</time></trkpt><trkpt lat="46.039963" lon="11.9937741"><ele>237.0</ele><time>2026-04-18T11:21:27.535Z</time></trkpt><trkpt lat="46.040025" lon="11.993877"><ele>237.0</ele><time>2026-04-18T11:21:29.536Z</time></trkpt><trkpt lat="46.0400577" lon="11.9940062"><ele>237.0</ele><time>2026-04-18T11:21:31.538Z</time></trkpt><trkpt lat="46.0401003" lon="11.9941378"><ele>237.0</ele><time>2026-04-18T11:21:33.537Z</time></trkpt><trkpt lat="46.0401621" lon="11.9942502"><ele>236.8</ele><time>2026-04-18T11:21:35.538Z</time></trkpt><trkpt lat="46.0402323" lon="11.9943495"><ele>236.6</ele><time>2026-04-18T11:21:37.54Z</time></trkpt><trkpt lat="46.0403014" lon="11.9944434"><ele>236.40000000000003</ele><time>2026-04-18T11:21:39.537Z</time></trkpt><trkpt lat="46.0403661" lon="11.9945387"><ele>236.20000000000002</ele><time>2026-04-18T11:21:41.538Z</time></trkpt><trkpt lat="46.0404315" lon="11.9946275"><ele>236.0</ele><time>2026-04-18T11:21:43.536Z</time></trkpt><trkpt lat="46.040502" lon="11.9947119"><ele>236.0</ele><time>2026-04-18T11:21:45.537Z</time></trkpt><trkpt lat="46.0405677" lon="11.9948024"><ele>236.00000000000003</ele><time>2026-04-18T11:21:47.539Z</time></trkpt><trkpt lat="46.0406298" lon="11.9948971"><ele>236.00000000000003</ele><time>2026-04-18T11:21:49.536Z</time></trkpt><trkpt lat="46.0406897" lon="11.9949938"><ele>236.0</ele><time>2026-04-18T11:21:51.539Z</time></trkpt><trkpt lat="46.0407454" lon="11.9950972"><ele>236.0</ele><time>2026-04-18T11:21:53.538Z</time></trkpt><trkpt lat="46.0408081" lon="11.9951893"><ele>236.16666666666669</ele><time>2026-04-18T11:21:55.537Z</time></trkpt><trkpt lat="46.0408774" lon="11.9952724"><ele>236.33333333333334</ele><time>2026-04-18T11:21:57.538Z</time></trkpt><trkpt lat="46.0409427" lon="11.9953598"><ele>236.5</ele><time>2026-04-18T11:21:59.538Z</time></trkpt><trkpt lat="46.0410041" lon="11.9954532"><ele>236.66666666666669</ele><time>2026-04-18T11:22:01.537Z</time></trkpt><trkpt lat="46.0410561" lon="11.9955559"><ele>236.83333333333334</ele><time>2026-04-18T11:22:03.537Z</time></trkpt><trkpt lat="46.0410841" lon="11.9956761"><ele>237.0</ele><time>2026-04-18T11:22:05.537Z</time></trkpt><trkpt lat="46.0410994" lon="11.995798"><ele>236.83333333333334</ele><time>2026-04-18T11:22:07.536Z</time></trkpt><trkpt lat="46.0411156" lon="11.9959207"><ele>236.66666666666669</ele><time>2026-04-18T11:22:09.537Z</time></trkpt><trkpt lat="46.0411449" lon="11.996039"><ele>236.5</ele><time>2026-04-18T11:22:11.539Z</time></trkpt><trkpt lat="46.0411756" lon="11.9961582"><ele>236.33333333333334</ele><time>2026-04-18T11:22:13.539Z</time></trkpt><trkpt lat="46.0411583" lon="11.9962744"><ele>236.16666666666669</ele><time>2026-04-18T11:22:15.538Z</time></trkpt><trkpt lat="46.0410937" lon="11.9963633"><ele>236.0</ele><time>2026-04-18T11:22:17.538Z</time></trkpt><trkpt lat="46.0410213" lon="11.9964249"><ele>236.0</ele><time>2026-04-18T11:22:19.538Z</time></trkpt><trkpt lat="46.0409521" lon="11.9965064"><ele>236.00000000000003</ele><time>2026-04-18T11:22:21.539Z</time></trkpt><trkpt lat="46.0408982" lon="11.9966092"><ele>236.00000000000003</ele><time>2026-04-18T11:22:23.536Z</time></trkpt><trkpt lat="46.0408633" lon="11.9967274"><ele>236.0</ele><time>2026-04-18T11:22:25.539Z</time></trkpt><trkpt lat="46.0408413" lon="11.9968581"><ele>236.0</ele><time>2026-04-18T11:22:27.536Z</time></trkpt><trkpt lat="46.0408214" lon="11.9969862"><ele>236.20000000000002</ele><time>2026-04-18T11:22:29.538Z</time></trkpt><trkpt lat="46.0408064" lon="11.9971212"><ele>236.40000000000003</ele><time>2026-04-18T11:22:31.537Z</time></trkpt><trkpt lat="46.0407896" lon="11.9972521"><ele>236.6</ele><time>2026-04-18T11:22:33.539Z</time></trkpt><trkpt lat="46.0407722" lon="11.9973831"><ele>236.8</ele><time>2026-04-18T11:22:35.538Z</time></trkpt><trkpt lat="46.0407518" lon="11.9975129"><ele>237.0</ele><time>2026-04-18T11:22:37.538Z</time></trkpt><trkpt lat="46.0407275" lon="11.9976441"><ele>237.2</ele><time>2026-04-18T11:22:39.54Z</time></trkpt><trkpt lat="46.0406963" lon="11.9977792"><ele>237.39999999999998</ele><time>2026-04-18T11:22:41.538Z</time></trkpt><trkpt lat="46.0406635" lon="11.9979111"><ele>237.60000000000002</ele><time>2026-04-18T11:22:43.537Z</time></trkpt><trkpt lat="46.0406292" lon="11.9980409"><ele>237.8</ele><time>2026-04-18T11:22:45.537Z</time></trkpt><trkpt lat="46.0405682" lon="11.998149"><ele>238.0</ele><time>2026-04-18T11:22:47.537Z</time></trkpt><trkpt lat="46.0404939" lon="11.9982257"><ele>237.99999999999997</ele><time>2026-04-18T11:22:49.538Z</time></trkpt><trkpt lat="46.0404162" lon="11.9982941"><ele>238.0</ele><time>2026-04-18T11:22:51.54Z</time></trkpt><trkpt lat="46.0403561" lon="11.9983784"><ele>238.0</ele><time>2026-04-18T11:22:53.539Z</time></trkpt><trkpt lat="46.0403567" lon="11.9984856"><ele>238.0</ele><time>2026-04-18T11:22:55.539Z</time></trkpt><trkpt lat="46.040411" lon="11.9985697"><ele>237.99999999999997</ele><time>2026-04-18T11:22:57.538Z</time></trkpt><trkpt lat="46.040486" lon="11.9986407"><ele>238.0</ele><time>2026-04-18T11:22:59.539Z</time></trkpt><trkpt lat="46.040558" lon="11.9987042"><ele>237.99999999999997</ele><time>2026-04-18T11:23:01.537Z</time></trkpt><trkpt lat="46.0406286" lon="11.9987636"><ele>238.0</ele><time>2026-04-18T11:23:03.539Z</time></trkpt><trkpt lat="46.0406907" lon="11.9988244"><ele>238.0</ele><time>2026-04-18T11:23:05.538Z</time></trkpt><trkpt lat="46.0407531" lon="11.9988799"><ele>238.0</ele><time>2026-04-18T11:23:07.538Z</time></trkpt><trkpt lat="46.0408128" lon="11.9989551"><ele>237.99999999999997</ele><time>2026-04-18T11:23:09.538Z</time></trkpt><trkpt lat="46.0408659" lon="11.9990479"><ele>238.0</ele><time>2026-04-18T11:23:11.536Z</time></trkpt><trkpt lat="46.0409203" lon="11.9991397"><ele>238.16666666666666</ele><time>2026-04-18T11:23:13.54Z</time></trkpt><trkpt lat="46.0409893" lon="11.9992019"><ele>238.33333333333331</ele><time>2026-04-18T11:23:15.538Z</time></trkpt><trkpt lat="46.0410692" lon="11.9992146"><ele>238.5</ele><time>2026-04-18T11:23:17.536Z</time></trkpt><trkpt lat="46.0411532" lon="11.9992041"><ele>238.66666666666669</ele><time>2026-04-18T11:23:19.537Z</time></trkpt><trkpt lat="46.0412396" lon="11.9992156"><ele>238.83333333333334</ele><time>2026-04-18T11:23:21.537Z</time></trkpt><trkpt lat="46.0413177" lon="11.9992611"><ele>239.0</ele><time>2026-04-18T11:23:23.538Z</time></trkpt><trkpt lat="46.0413856" lon="11.9993395"><ele>239.00000000000003</ele><time>2026-04-18T11:23:25.538Z</time></trkpt><trkpt lat="46.0414482" lon="11.9994309"><ele>239.0</ele><time>2026-04-18T11:23:27.538Z</time></trkpt><trkpt lat="46.0415053" lon="11.9995279"><ele>239.0</ele><time>2026-04-18T11:23:29.538Z</time></trkpt><trkpt lat="46.0415596" lon="11.9996299"><ele>239.0</ele><time>2026-04-18T11:23:31.537Z</time></trkpt><trkpt lat="46.0416133" lon="11.9997283"><ele>239.00000000000003</ele><time>2026-04-18T11:23:33.538Z</time></trkpt><trkpt lat="46.041668" lon="11.9998336"><ele>239.0</ele><time>2026-04-18T11:23:35.539Z</time></trkpt><trkpt lat="46.0417148" lon="11.9999453"><ele>238.50000000000003</ele><time>2026-04-18T11:23:37.538Z</time></trkpt><trkpt lat="46.0417544" lon="12.0000607"><ele>238.0</ele><time>2026-04-18T11:23:39.536Z</time></trkpt><trkpt lat="46.0417878" lon="12.0001761"><ele>237.5</ele><time>2026-04-18T11:23:41.54Z</time></trkpt><trkpt lat="46.0418201" lon="12.0002932"><ele>237.0</ele><time>2026-04-18T11:23:43.538Z</time></trkpt><trkpt lat="46.0418586" lon="12.0004098"><ele>236.50000000000003</ele><time>2026-04-18T11:23:45.538Z</time></trkpt><trkpt lat="46.0419082" lon="12.0005169"><ele>236.0</ele><time>2026-04-18T11:23:47.538Z</time></trkpt><trkpt lat="46.0419658" lon="12.0006149"><ele>236.0</ele><time>2026-04-18T11:23:49.537Z</time></trkpt><trkpt lat="46.0420354" lon="12.0007003"><ele>236.00000000000003</ele><time>2026-04-18T11:23:51.538Z</time></trkpt><trkpt lat="46.0421061" lon="12.0007844"><ele>236.00000000000003</ele><time>2026-04-18T11:23:53.535Z</time></trkpt><trkpt lat="46.0421792" lon="12.000866"><ele>236.0</ele><time>2026-04-18T11:23:55.537Z</time></trkpt><trkpt lat="46.0422481" lon="12.0009533"><ele>236.0</ele><time>2026-04-18T11:23:57.537Z</time></trkpt><trkpt lat="46.0423114" lon="12.0010554"><ele>236.16666666666669</ele><time>2026-04-18T11:23:59.537Z</time></trkpt><trkpt lat="46.0423735" lon="12.0011619"><ele>236.33333333333334</ele><time>2026-04-18T11:24:01.538Z</time></trkpt><trkpt lat="46.0424328" lon="12.0012622"><ele>236.5</ele><time>2026-04-18T11:24:03.537Z</time></trkpt><trkpt lat="46.042493" lon="12.001348"><ele>236.66666666666669</ele><time>2026-04-18T11:24:05.538Z</time></trkpt><trkpt lat="46.0425506" lon="12.0014339"><ele>236.83333333333334</ele><time>2026-04-18T11:24:07.538Z</time></trkpt><trkpt lat="46.0426168" lon="12.0015173"><ele>237.0</ele><time>2026-04-18T11:24:09.537Z</time></trkpt><trkpt lat="46.0426858" lon="12.001601"><ele>237.2</ele><time>2026-04-18T11:24:11.538Z</time></trkpt><trkpt lat="46.0427508" lon="12.0016895"><ele>237.39999999999998</ele><time>2026-04-18T11:24:13.538Z</time></trkpt><trkpt lat="46.0428146" lon="12.0017775"><ele>237.60000000000002</ele><time>2026-04-18T11:24:15.538Z</time></trkpt><trkpt lat="46.0428778" lon="12.0018731"><ele>237.8</ele><time>2026-04-18T11:24:17.539Z</time></trkpt><trkpt lat="46.0429427" lon="12.0019687"><ele>238.0</ele><time>2026-04-18T11:24:19.538Z</time></trkpt><trkpt lat="46.043005" lon="12.0020645"><ele>238.0</ele><time>2026-04-18T11:24:21.536Z</time></trkpt><trkpt lat="46.0430726" lon="12.0021597"><ele>238.0</ele><time>2026-04-18T11:24:23.539Z</time></trkpt><trkpt lat="46.0431381" lon="12.0022531"><ele>238.0</ele><time>2026-04-18T11:24:25.538Z</time></trkpt><trkpt lat="46.0432077" lon="12.0023395"><ele>238.0</ele><time>2026-04-18T11:24:27.536Z</time></trkpt><trkpt lat="46.0432759" lon="12.0024254"><ele>238.0</ele><time>2026-04-18T11:24:29.539Z</time></trkpt><trkpt lat="46.043353" lon="12.0025001"><ele>237.99999999999997</ele><time>2026-04-18T11:24:31.537Z</time></trkpt><trkpt lat="46.0434373" lon="12.0025577"><ele>238.0</ele><time>2026-04-18T11:24:33.538Z</time></trkpt><trkpt lat="46.0435124" lon="12.0026033"><ele>238.0</ele><time>2026-04-18T11:24:35.536Z</time></trkpt><trkpt lat="46.043591" lon="12.0026413"><ele>238.0</ele><time>2026-04-18T11:24:37.54Z</time></trkpt><trkpt lat="46.0436732" lon="12.0026856"><ele>237.99999999999997</ele><time>2026-04-18T11:24:39.54Z</time></trkpt><trkpt lat="46.043757" lon="12.0027381"><ele>238.0</ele><time>2026-04-18T11:24:41.539Z</time></trkpt><trkpt lat="46.0438284" lon="12.002814"><ele>237.99999999999997</ele><time>2026-04-18T11:24:43.537Z</time></trkpt><trkpt lat="46.0438918" lon="12.0028971"><ele>238.0</ele><time>2026-04-18T11:24:45.537Z</time></trkpt><trkpt lat="46.0439541" lon="12.0029895"><ele>238.0</ele><time>2026-04-18T11:24:47.539Z</time></trkpt><trkpt lat="46.0440156" lon="12.0030863"><ele>238.0</ele><time>2026-04-18T11:24:49.535Z</time></trkpt><trkpt lat="46.0440792" lon="12.0031796"><ele>237.99999999999997</ele><time>2026-04-18T11:24:51.537Z</time></trkpt><trkpt lat="46.0441396" lon="12.0032701"><ele>238.0</ele><time>2026-04-18T11:24:53.536Z</time></trkpt><trkpt lat="46.0441958" lon="12.0033658"><ele>237.99999999999997</ele><time>2026-04-18T11:24:55.537Z</time></trkpt><trkpt lat="46.0442527" lon="12.0034577"><ele>238.0</ele><time>2026-04-18T11:24:57.538Z</time></trkpt><trkpt lat="46.0443151" lon="12.0035403"><ele>238.0</ele><time>2026-04-18T11:24:59.538Z</time></trkpt><trkpt lat="46.0443826" lon="12.0036114"><ele>238.0</ele><time>2026-04-18T11:25:01.538Z</time></trkpt><trkpt lat="46.0444544" lon="12.0036739"><ele>237.99999999999997</ele><time>2026-04-18T11:25:03.536Z</time></trkpt><trkpt lat="46.0445284" lon="12.0037258"><ele>238.0</ele><time>2026-04-18T11:25:05.536Z</time></trkpt><trkpt lat="46.0446003" lon="12.003785"><ele>237.99999999999997</ele><time>2026-04-18T11:25:07.537Z</time></trkpt><trkpt lat="46.0446588" lon="12.0038694"><ele>238.0</ele><time>2026-04-18T11:25:09.54Z</time></trkpt><trkpt lat="46.0446957" lon="12.0039808"><ele>238.0</ele><time>2026-04-18T11:25:11.537Z</time></trkpt><trkpt lat="46.044712" lon="12.0041069"><ele>238.0</ele><time>2026-04-18T11:25:13.54Z</time></trkpt><trkpt lat="46.0447264" lon="12.0042367"><ele>237.99999999999997</ele><time>2026-04-18T11:25:15.536Z</time></trkpt><trkpt lat="46.0447482" lon="12.0043705"><ele>238.0</ele><time>2026-04-18T11:25:17.536Z</time></trkpt><trkpt lat="46.0447769" lon="12.0045006"><ele>238.2</ele><time>2026-04-18T11:25:19.538Z</time></trkpt><trkpt lat="46.0448043" lon="12.0046292"><ele>238.4</ele><time>2026-04-18T11:25:21.537Z</time></trkpt><trkpt lat="46.0448413" lon="12.0047511"><ele>238.59999999999997</ele><time>2026-04-18T11:25:23.538Z</time></trkpt><trkpt lat="46.0448838" lon="12.0048716"><ele>238.79999999999998</ele><time>2026-04-18T11:25:25.54Z</time></trkpt><trkpt lat="46.0449365" lon="12.0049849"><ele>239.0</ele><time>2026-04-18T11:25:27.54Z</time></trkpt><trkpt lat="46.0449789" lon="12.0050854"><ele>239.16666666666669</ele><time>2026-04-18T11:25:29.54Z</time></trkpt><trkpt lat="46.0450273" lon="12.0051847"><ele>239.33333333333334</ele><time>2026-04-18T11:25:31.536Z</time></trkpt><trkpt lat="46.0450787" lon="12.0052896"><ele>239.5</ele><time>2026-04-18T11:25:33.537Z</time></trkpt><trkpt lat="46.0451298" lon="12.0053946"><ele>239.66666666666669</ele><time>2026-04-18T11:25:35.537Z</time></trkpt><trkpt lat="46.0451817" lon="12.0054936"><ele>239.83333333333334</ele><time>2026-04-18T11:25:37.539Z</time></trkpt><trkpt lat="46.0452334" lon="12.0055895"><ele>240.0</ele><time>2026-04-18T11:25:39.536Z</time></trkpt><trkpt lat="46.0452714" lon="12.0056934"><ele>240.0</ele><time>2026-04-18T11:25:41.54Z</time></trkpt><trkpt lat="46.0452717" lon="12.0058015"><ele>240.0</ele><time>2026-04-18T11:25:43.537Z</time></trkpt><trkpt lat="46.045213" lon="12.0058718"><ele>240.0</ele><time>2026-04-18T11:25:45.537Z</time></trkpt><trkpt lat="46.0451373" lon="12.0059136"><ele>240.0</ele><time>2026-04-18T11:25:47.537Z</time></trkpt><trkpt lat="46.0450783" lon="12.0059784"><ele>240.0</ele><time>2026-04-18T11:25:49.539Z</time></trkpt><trkpt lat="46.0450763" lon="12.0060695"><ele>240.0</ele><time>2026-04-18T11:25:51.538Z</time></trkpt><trkpt lat="46.0451209" lon="12.0061576"><ele>240.0</ele><time>2026-04-18T11:25:53.537Z</time></trkpt><trkpt lat="46.0451691" lon="12.0062551"><ele>240.16666666666666</ele><time>2026-04-18T11:25:55.535Z</time></trkpt><trkpt lat="46.0452161" lon="12.0063572"><ele>240.33333333333331</ele><time>2026-04-18T11:25:57.538Z</time></trkpt><trkpt lat="46.0452618" lon="12.0064592"><ele>240.5</ele><time>2026-04-18T11:25:59.537Z</time></trkpt><trkpt lat="46.0453073" lon="12.0065665"><ele>240.66666666666666</ele><time>2026-04-18T11:26:01.538Z</time></trkpt><trkpt lat="46.0453586" lon="12.00667"><ele>240.83333333333331</ele><time>2026-04-18T11:26:03.54Z</time></trkpt><trkpt lat="46.0454171" lon="12.0067668"><ele>241.0</ele><time>2026-04-18T11:26:05.538Z</time></trkpt><trkpt lat="46.0454711" lon="12.0068633"><ele>241.16666666666666</ele><time>2026-04-18T11:26:07.538Z</time></trkpt><trkpt lat="46.0455336" lon="12.0069583"><ele>241.33333333333331</ele><time>2026-04-18T11:26:09.537Z</time></trkpt><trkpt lat="46.0456015" lon="12.0070416"><ele>241.5</ele><time>2026-04-18T11:26:11.539Z</time></trkpt><trkpt lat="46.04567" lon="12.0071174"><ele>241.66666666666669</ele><time>2026-04-18T11:26:13.538Z</time></trkpt><trkpt lat="46.0457461" lon="12.0071902"><ele>241.83333333333334</ele><time>2026-04-18T11:26:15.539Z</time></trkpt><trkpt lat="46.0458155" lon="12.0072753"><ele>242.0</ele><time>2026-04-18T11:26:17.538Z</time></trkpt><trkpt lat="46.0458764" lon="12.0073816"><ele>242.00000000000003</ele><time>2026-04-18T11:26:19.538Z</time></trkpt><trkpt lat="46.0459205" lon="12.0074946"><ele>242.0</ele><time>2026-04-18T11:26:21.538Z</time></trkpt><trkpt lat="46.0459492" lon="12.0076137"><ele>242.0</ele><time>2026-04-18T11:26:23.537Z</time></trkpt><trkpt lat="46.0459619" lon="12.0077313"><ele>242.0</ele><time>2026-04-18T11:26:25.538Z</time></trkpt><trkpt lat="46.0459879" lon="12.0078537"><ele>242.00000000000003</ele><time>2026-04-18T11:26:27.539Z</time></trkpt><trkpt lat="46.0460135" lon="12.0079798"><ele>242.0</ele><time>2026-04-18T11:26:29.538Z</time></trkpt><trkpt lat="46.0460531" lon="12.0081067"><ele>242.0</ele><time>2026-04-18T11:26:31.538Z</time></trkpt><trkpt lat="46.0460881" lon="12.0082232"><ele>242.0</ele><time>2026-04-18T11:26:33.538Z</time></trkpt><trkpt lat="46.0461262" lon="12.0083404"><ele>242.0</ele><time>2026-04-18T11:26:35.537Z</time></trkpt><trkpt lat="46.0461684" lon="12.008451"><ele>242.0</ele><time>2026-04-18T11:26:37.537Z</time></trkpt><trkpt lat="46.0462222" lon="12.008568"><ele>242.0</ele><time>2026-04-18T11:26:39.537Z</time></trkpt><trkpt lat="46.0462708" lon="12.0086746"><ele>242.00000000000003</ele><time>2026-04-18T11:26:41.537Z</time></trkpt><trkpt lat="46.046315" lon="12.0087739"><ele>242.0</ele><time>2026-04-18T11:26:43.535Z</time></trkpt><trkpt lat="46.0463725" lon="12.0088738"><ele>242.0</ele><time>2026-04-18T11:26:45.536Z</time></trkpt><trkpt lat="46.0464281" lon="12.0089842"><ele>242.0</ele><time>2026-04-18T11:26:47.538Z</time></trkpt><trkpt lat="46.0464733" lon="12.0090932"><ele>242.00000000000003</ele><time>2026-04-18T11:26:49.537Z</time></trkpt><trkpt lat="46.0465145" lon="12.0092083"><ele>242.0</ele><time>2026-04-18T11:26:51.537Z</time></trkpt><trkpt lat="46.0465493" lon="12.0093311"><ele>242.00000000000003</ele><time>2026-04-18T11:26:53.538Z</time></trkpt><trkpt lat="46.0465916" lon="12.00945"><ele>242.0</ele><time>2026-04-18T11:26:55.537Z</time></trkpt><trkpt lat="46.0466332" lon="12.0095653"><ele>242.0</ele><time>2026-04-18T11:26:57.54Z</time></trkpt><trkpt lat="46.0466581" lon="12.0096675"><ele>242.0</ele><time>2026-04-18T11:26:59.537Z</time></trkpt><trkpt lat="46.0466443" lon="12.0097855"><ele>242.00000000000003</ele><time>2026-04-18T11:27:01.539Z</time></trkpt><trkpt lat="46.046614" lon="12.0099092"><ele>242.0</ele><time>2026-04-18T11:27:03.54Z</time></trkpt><trkpt lat="46.046584" lon="12.0100342"><ele>241.8</ele><time>2026-04-18T11:27:05.54Z</time></trkpt><trkpt lat="46.046553" lon="12.010159"><ele>241.6</ele><time>2026-04-18T11:27:07.539Z</time></trkpt><trkpt lat="46.0465228" lon="12.0102894"><ele>241.40000000000003</ele><time>2026-04-18T11:27:09.538Z</time></trkpt><trkpt lat="46.0464967" lon="12.0104265"><ele>241.20000000000002</ele><time>2026-04-18T11:27:11.537Z</time></trkpt><trkpt lat="46.0464742" lon="12.0105772"><ele>241.0</ele><time>2026-04-18T11:27:13.537Z</time></trkpt><trkpt lat="46.0464599" lon="12.0107483"><ele>241.4</ele><time>2026-04-18T11:27:15.538Z</time></trkpt><trkpt lat="46.0464696" lon="12.010923"><ele>241.8</ele><time>2026-04-18T11:27:17.538Z</time></trkpt><trkpt lat="46.0464941" lon="12.0110589"><ele>242.20000000000002</ele><time>2026-04-18T11:27:19.536Z</time></trkpt><trkpt lat="46.0465313" lon="12.0111744"><ele>242.60000000000002</ele><time>2026-04-18T11:27:21.538Z</time></trkpt><trkpt lat="46.0465751" lon="12.0112805"><ele>243.0</ele><time>2026-04-18T11:27:23.538Z</time></trkpt><trkpt lat="46.0466227" lon="12.0113956"><ele>243.0</ele><time>2026-04-18T11:27:25.538Z</time></trkpt><trkpt lat="46.0466748" lon="12.0115133"><ele>243.0</ele><time>2026-04-18T11:27:27.536Z</time></trkpt><trkpt lat="46.0467244" lon="12.0116332"><ele>243.0</ele><time>2026-04-18T11:27:29.538Z</time></trkpt><trkpt lat="46.0467773" lon="12.0117526"><ele>243.0</ele><time>2026-04-18T11:27:31.539Z</time></trkpt><trkpt lat="46.0468286" lon="12.0118736"><ele>243.0</ele><time>2026-04-18T11:27:33.537Z</time></trkpt><trkpt lat="46.0468799" lon="12.0119988"><ele>243.0</ele><time>2026-04-18T11:27:35.54Z</time></trkpt><trkpt lat="46.0469324" lon="12.0121201"><ele>243.0</ele><time>2026-04-18T11:27:37.536Z</time></trkpt><trkpt lat="46.0469852" lon="12.0122519"><ele>243.0</ele><time>2026-04-18T11:27:39.537Z</time></trkpt><trkpt lat="46.0470401" lon="12.0123838"><ele>243.0</ele><time>2026-04-18T11:27:41.54Z</time></trkpt><trkpt lat="46.047093" lon="12.0125159"><ele>243.0</ele><time>2026-04-18T11:27:43.537Z</time></trkpt><trkpt lat="46.0471451" lon="12.012642"><ele>243.2</ele><time>2026-04-18T11:27:45.535Z</time></trkpt><trkpt lat="46.0471942" lon="12.0127671"><ele>243.4</ele><time>2026-04-18T11:27:47.538Z</time></trkpt><trkpt lat="46.0472436" lon="12.0128915"><ele>243.59999999999997</ele><time>2026-04-18T11:27:49.537Z</time></trkpt><trkpt lat="46.0472982" lon="12.0130084"><ele>243.79999999999998</ele><time>2026-04-18T11:27:51.537Z</time></trkpt><trkpt lat="46.0473541" lon="12.013126"><ele>244.0</ele><time>2026-04-18T11:27:53.538Z</time></trkpt><trkpt lat="46.0473997" lon="12.0132465"><ele>243.6</ele><time>2026-04-18T11:27:55.54Z</time></trkpt><trkpt lat="46.0474525" lon="12.0133684"><ele>243.2</ele><time>2026-04-18T11:27:57.538Z</time></trkpt><trkpt lat="46.0474975" lon="12.0134949"><ele>242.79999999999998</ele><time>2026-04-18T11:27:59.54Z</time></trkpt><trkpt lat="46.0475453" lon="12.013616"><ele>242.39999999999998</ele><time>2026-04-18T11:28:01.537Z</time></trkpt><trkpt lat="46.0475955" lon="12.0137339"><ele>242.0</ele><time>2026-04-18T11:28:03.537Z</time></trkpt><trkpt lat="46.0476433" lon="12.0138505"><ele>242.0</ele><time>2026-04-18T11:28:05.539Z</time></trkpt><trkpt lat="46.047696" lon="12.0139634"><ele>242.0</ele><time>2026-04-18T11:28:07.539Z</time></trkpt><trkpt lat="46.0477443" lon="12.0140837"><ele>242.0</ele><time>2026-04-18T11:28:09.538Z</time></trkpt><trkpt lat="46.0477958" lon="12.0142051"><ele>242.0</ele><time>2026-04-18T11:28:11.537Z</time></trkpt><trkpt lat="46.0478454" lon="12.0143226"><ele>242.0</ele><time>2026-04-18T11:28:13.537Z</time></trkpt><trkpt lat="46.047898" lon="12.0144365"><ele>242.8</ele><time>2026-04-18T11:28:15.538Z</time></trkpt><trkpt lat="46.0479468" lon="12.0145596"><ele>243.6</ele><time>2026-04-18T11:28:17.538Z</time></trkpt><trkpt lat="46.0479965" lon="12.0146847"><ele>244.40000000000003</ele><time>2026-04-18T11:28:19.538Z</time></trkpt><trkpt lat="46.0480442" lon="12.0148033"><ele>245.20000000000002</ele><time>2026-04-18T11:28:21.539Z</time></trkpt><trkpt lat="46.0480957" lon="12.0149212"><ele>246.0</ele><time>2026-04-18T11:28:23.538Z</time></trkpt><trkpt lat="46.0481471" lon="12.0150422"><ele>245.8</ele><time>2026-04-18T11:28:25.539Z</time></trkpt><trkpt lat="46.0482012" lon="12.0151608"><ele>245.60000000000002</ele><time>2026-04-18T11:28:27.537Z</time></trkpt><trkpt lat="46.0482585" lon="12.0152695"><ele>245.4</ele><time>2026-04-18T11:28:29.538Z</time></trkpt><trkpt lat="46.0483259" lon="12.0153751"><ele>245.2</ele><time>2026-04-18T11:28:31.538Z</time></trkpt><trkpt lat="46.0484019" lon="12.0155123"><ele>245.0</ele><time>2026-04-18T11:28:33.54Z</time></trkpt><trkpt lat="46.0484349" lon="12.0155942"><ele>245.00000000000003</ele><time>2026-04-18T11:28:34.538Z</time></trkpt><trkpt lat="46.0484675" lon="12.0156749"><ele>245.0</ele><time>2026-04-18T11:28:35.537Z</time></trkpt><trkpt lat="46.048518" lon="12.0158145"><ele>245.0</ele><time>2026-04-18T11:28:37.537Z</time></trkpt><trkpt lat="46.0485514" lon="12.0159352"><ele>245.0</ele><time>2026-04-18T11:28:39.54Z</time></trkpt><trkpt lat="46.0485849" lon="12.016048"><ele>245.00000000000003</ele><time>2026-04-18T11:28:41.538Z</time></trkpt><trkpt lat="46.0486278" lon="12.0161653"><ele>245.0</ele><time>2026-04-18T11:28:43.537Z</time></trkpt><trkpt lat="46.0486727" lon="12.0162845"><ele>244.6</ele><time>2026-04-18T11:28:45.537Z</time></trkpt><trkpt lat="46.0487219" lon="12.0164038"><ele>244.2</ele><time>2026-04-18T11:28:47.537Z</time></trkpt><trkpt lat="46.0487696" lon="12.0165235"><ele>243.8</ele><time>2026-04-18T11:28:49.54Z</time></trkpt><trkpt lat="46.0488209" lon="12.0166455"><ele>243.4</ele><time>2026-04-18T11:28:51.536Z</time></trkpt><trkpt lat="46.0488719" lon="12.0167723"><ele>243.0</ele><time>2026-04-18T11:28:53.537Z</time></trkpt><trkpt lat="46.0489236" lon="12.0168964"><ele>243.60000000000002</ele><time>2026-04-18T11:28:55.538Z</time></trkpt><trkpt lat="46.048974" lon="12.0170197"><ele>244.20000000000002</ele><time>2026-04-18T11:28:57.54Z</time></trkpt><trkpt lat="46.0490191" lon="12.0171486"><ele>244.8</ele><time>2026-04-18T11:28:59.537Z</time></trkpt><trkpt lat="46.0490643" lon="12.0172788"><ele>245.4</ele><time>2026-04-18T11:29:01.538Z</time></trkpt><trkpt lat="46.0491051" lon="12.0174084"><ele>246.0</ele><time>2026-04-18T11:29:03.539Z</time></trkpt><trkpt lat="46.0491456" lon="12.0175366"><ele>246.0</ele><time>2026-04-18T11:29:05.536Z</time></trkpt><trkpt lat="46.049182" lon="12.0176665"><ele>246.00000000000003</ele><time>2026-04-18T11:29:07.54Z</time></trkpt><trkpt lat="46.0492151" lon="12.0177996"><ele>246.00000000000003</ele><time>2026-04-18T11:29:09.538Z</time></trkpt><trkpt lat="46.0492483" lon="12.0179298"><ele>246.0</ele><time>2026-04-18T11:29:11.538Z</time></trkpt><trkpt lat="46.0492818" lon="12.0180633"><ele>246.0</ele><time>2026-04-18T11:29:13.539Z</time></trkpt><trkpt lat="46.0493117" lon="12.0181955"><ele>246.0</ele><time>2026-04-18T11:29:15.536Z</time></trkpt><trkpt lat="46.049342" lon="12.018315"><ele>246.0</ele><time>2026-04-18T11:29:17.536Z</time></trkpt><trkpt lat="46.0493703" lon="12.0184255"><ele>246.0</ele><time>2026-04-18T11:29:19.537Z</time></trkpt><trkpt lat="46.0494045" lon="12.0185388"><ele>246.0</ele><time>2026-04-18T11:29:21.537Z</time></trkpt><trkpt lat="46.0494396" lon="12.0186585"><ele>246.0</ele><time>2026-04-18T11:29:23.537Z</time></trkpt><trkpt lat="46.0494683" lon="12.0187842"><ele>246.0</ele><time>2026-04-18T11:29:25.539Z</time></trkpt><trkpt lat="46.0494935" lon="12.0189138"><ele>246.20000000000002</ele><time>2026-04-18T11:29:27.537Z</time></trkpt><trkpt lat="46.0495148" lon="12.0190447"><ele>246.40000000000003</ele><time>2026-04-18T11:29:29.537Z</time></trkpt><trkpt lat="46.0495369" lon="12.0191737"><ele>246.6</ele><time>2026-04-18T11:29:31.537Z</time></trkpt><trkpt lat="46.0495536" lon="12.0193053"><ele>246.8</ele><time>2026-04-18T11:29:33.536Z</time></trkpt><trkpt lat="46.0495656" lon="12.0194368"><ele>247.0</ele><time>2026-04-18T11:29:35.536Z</time></trkpt><trkpt lat="46.0495774" lon="12.0195672"><ele>246.99999999999997</ele><time>2026-04-18T11:29:37.536Z</time></trkpt><trkpt lat="46.0495912" lon="12.0196944"><ele>247.0</ele><time>2026-04-18T11:29:39.536Z</time></trkpt><trkpt lat="46.0496044" lon="12.0198213"><ele>247.0</ele><time>2026-04-18T11:29:41.536Z</time></trkpt><trkpt lat="46.0496161" lon="12.0199512"><ele>247.0</ele><time>2026-04-18T11:29:43.537Z</time></trkpt><trkpt lat="46.0496288" lon="12.020073"><ele>246.99999999999997</ele><time>2026-04-18T11:29:45.537Z</time></trkpt><trkpt lat="46.0496407" lon="12.0201772"><ele>247.0</ele><time>2026-04-18T11:29:47.537Z</time></trkpt><trkpt lat="46.049641" lon="12.0202774"><ele>247.66666666666666</ele><time>2026-04-18T11:29:49.536Z</time></trkpt><trkpt lat="46.0496431" lon="12.0203926"><ele>248.33333333333331</ele><time>2026-04-18T11:29:51.536Z</time></trkpt><trkpt lat="46.0496359" lon="12.020535"><ele>249.0</ele><time>2026-04-18T11:29:53.536Z</time></trkpt><trkpt lat="46.0496257" lon="12.0206715"><ele>249.66666666666669</ele><time>2026-04-18T11:29:55.536Z</time></trkpt><trkpt lat="46.0496213" lon="12.0207971"><ele>250.33333333333334</ele><time>2026-04-18T11:29:57.536Z</time></trkpt><trkpt lat="46.0496172" lon="12.0209149"><ele>251.0</ele><time>2026-04-18T11:29:59.536Z</time></trkpt><trkpt lat="46.0496188" lon="12.0210383"><ele>251.16666666666669</ele><time>2026-04-18T11:30:01.536Z</time></trkpt><trkpt lat="46.04962" lon="12.0211574"><ele>251.33333333333334</ele><time>2026-04-18T11:30:03.537Z</time></trkpt><trkpt lat="46.0496243" lon="12.0212696"><ele>251.5</ele><time>2026-04-18T11:30:05.535Z</time></trkpt><trkpt lat="46.049627" lon="12.0213915"><ele>251.66666666666669</ele><time>2026-04-18T11:30:07.536Z</time></trkpt><trkpt lat="46.0496248" lon="12.0215161"><ele>251.83333333333334</ele><time>2026-04-18T11:30:09.535Z</time></trkpt><trkpt lat="46.0496288" lon="12.0216486"><ele>252.0</ele><time>2026-04-18T11:30:11.535Z</time></trkpt><trkpt lat="46.049628" lon="12.0217781"><ele>252.6</ele><time>2026-04-18T11:30:13.536Z</time></trkpt><trkpt lat="46.0496294" lon="12.0219077"><ele>253.2</ele><time>2026-04-18T11:30:15.537Z</time></trkpt><trkpt lat="46.0496293" lon="12.0220416"><ele>253.8</ele><time>2026-04-18T11:30:17.536Z</time></trkpt><trkpt lat="46.0496284" lon="12.0221804"><ele>254.4</ele><time>2026-04-18T11:30:19.538Z</time></trkpt><trkpt lat="46.0496272" lon="12.0223158"><ele>255.0</ele><time>2026-04-18T11:30:21.537Z</time></trkpt><trkpt lat="46.0496187" lon="12.0224489"><ele>255.2</ele><time>2026-04-18T11:30:23.537Z</time></trkpt><trkpt lat="46.0496039" lon="12.0225781"><ele>255.4</ele><time>2026-04-18T11:30:25.538Z</time></trkpt><trkpt lat="46.0495965" lon="12.0227041"><ele>255.60000000000002</ele><time>2026-04-18T11:30:27.536Z</time></trkpt><trkpt lat="46.0495893" lon="12.0228362"><ele>255.8</ele><time>2026-04-18T11:30:29.536Z</time></trkpt><trkpt lat="46.0495868" lon="12.0229686"><ele>256.0</ele><time>2026-04-18T11:30:31.538Z</time></trkpt><trkpt lat="46.0495828" lon="12.0231033"><ele>256.0</ele><time>2026-04-18T11:30:33.538Z</time></trkpt><trkpt lat="46.0495807" lon="12.0232373"><ele>256.0</ele><time>2026-04-18T11:30:35.535Z</time></trkpt><trkpt lat="46.0495777" lon="12.023371"><ele>256.0</ele><time>2026-04-18T11:30:37.536Z</time></trkpt><trkpt lat="46.049575" lon="12.0235013"><ele>256.0</ele><time>2026-04-18T11:30:39.539Z</time></trkpt><trkpt lat="46.0495684" lon="12.0236311"><ele>256.0</ele><time>2026-04-18T11:30:41.537Z</time></trkpt><trkpt lat="46.0495636" lon="12.0237639"><ele>255.99999999999997</ele><time>2026-04-18T11:30:43.537Z</time></trkpt><trkpt lat="46.0495604" lon="12.0238968"><ele>256.0</ele><time>2026-04-18T11:30:45.537Z</time></trkpt><trkpt lat="46.0495574" lon="12.0240261"><ele>256.0</ele><time>2026-04-18T11:30:47.537Z</time></trkpt><trkpt lat="46.0495484" lon="12.0241549"><ele>256.0</ele><time>2026-04-18T11:30:49.537Z</time></trkpt><trkpt lat="46.0495439" lon="12.0242825"><ele>255.99999999999997</ele><time>2026-04-18T11:30:51.537Z</time></trkpt><trkpt lat="46.0495509" lon="12.0244079"><ele>256.0</ele><time>2026-04-18T11:30:53.538Z</time></trkpt><trkpt lat="46.049555" lon="12.02452"><ele>255.66666666666666</ele><time>2026-04-18T11:30:55.533Z</time></trkpt><trkpt lat="46.0495579" lon="12.0246353"><ele>255.33333333333331</ele><time>2026-04-18T11:30:57.535Z</time></trkpt><trkpt lat="46.0495392" lon="12.0247589"><ele>255.0</ele><time>2026-04-18T11:30:59.535Z</time></trkpt><trkpt lat="46.0494755" lon="12.0248445"><ele>254.66666666666669</ele><time>2026-04-18T11:31:01.535Z</time></trkpt><trkpt lat="46.0493878" lon="12.0248614"><ele>254.33333333333334</ele><time>2026-04-18T11:31:03.536Z</time></trkpt><trkpt lat="46.0493108" lon="12.024885"><ele>254.0</ele><time>2026-04-18T11:31:05.535Z</time></trkpt><trkpt lat="46.0492375" lon="12.0249415"><ele>254.33333333333334</ele><time>2026-04-18T11:31:07.536Z</time></trkpt><trkpt lat="46.0491696" lon="12.0250043"><ele>254.66666666666669</ele><time>2026-04-18T11:31:09.535Z</time></trkpt><trkpt lat="46.049108" lon="12.025056"><ele>255.0</ele><time>2026-04-18T11:31:11.535Z</time></trkpt><trkpt lat="46.0490365" lon="12.0250978"><ele>255.33333333333331</ele><time>2026-04-18T11:31:13.535Z</time></trkpt><trkpt lat="46.0489549" lon="12.0251372"><ele>255.66666666666666</ele><time>2026-04-18T11:31:15.537Z</time></trkpt><trkpt lat="46.0488657" lon="12.0251745"><ele>256.0</ele><time>2026-04-18T11:31:17.536Z</time></trkpt><trkpt lat="46.048776" lon="12.025208"><ele>256.0</ele><time>2026-04-18T11:31:19.537Z</time></trkpt><trkpt lat="46.0486825" lon="12.0252463"><ele>256.0</ele><time>2026-04-18T11:31:21.536Z</time></trkpt><trkpt lat="46.0485931" lon="12.0252834"><ele>256.0</ele><time>2026-04-18T11:31:23.536Z</time></trkpt><trkpt lat="46.0485036" lon="12.0253225"><ele>256.0</ele><time>2026-04-18T11:31:25.538Z</time></trkpt><trkpt lat="46.0484138" lon="12.0253557"><ele>256.0</ele><time>2026-04-18T11:31:27.537Z</time></trkpt><trkpt lat="46.0483235" lon="12.025386"><ele>256.3333333333333</ele><time>2026-04-18T11:31:29.537Z</time></trkpt><trkpt lat="46.0482334" lon="12.0254212"><ele>256.66666666666663</ele><time>2026-04-18T11:31:31.538Z</time></trkpt><trkpt lat="46.0481427" lon="12.0254518"><ele>257.0</ele><time>2026-04-18T11:31:33.537Z</time></trkpt><trkpt lat="46.048052" lon="12.025489"><ele>257.3333333333333</ele><time>2026-04-18T11:31:35.537Z</time></trkpt><trkpt lat="46.0479687" lon="12.0255231"><ele>257.6666666666667</ele><time>2026-04-18T11:31:37.537Z</time></trkpt><trkpt lat="46.0478925" lon="12.0255487"><ele>258.0</ele><time>2026-04-18T11:31:39.538Z</time></trkpt><trkpt lat="46.0478158" lon="12.025574"><ele>258.0</ele><time>2026-04-18T11:31:41.538Z</time></trkpt><trkpt lat="46.0477382" lon="12.0256035"><ele>258.0</ele><time>2026-04-18T11:31:43.537Z</time></trkpt><trkpt lat="46.0476565" lon="12.0256336"><ele>258.0</ele><time>2026-04-18T11:31:45.536Z</time></trkpt><trkpt lat="46.0475733" lon="12.0256572"><ele>258.0</ele><time>2026-04-18T11:31:47.536Z</time></trkpt><trkpt lat="46.0474876" lon="12.0256877"><ele>258.0</ele><time>2026-04-18T11:31:49.537Z</time></trkpt><trkpt lat="46.0474028" lon="12.025726"><ele>258.0</ele><time>2026-04-18T11:31:51.535Z</time></trkpt><trkpt lat="46.0473177" lon="12.0257587"><ele>258.4</ele><time>2026-04-18T11:31:53.536Z</time></trkpt><trkpt lat="46.0472331" lon="12.0257942"><ele>258.8</ele><time>2026-04-18T11:31:55.537Z</time></trkpt><trkpt lat="46.0471431" lon="12.025829"><ele>259.2</ele><time>2026-04-18T11:31:57.537Z</time></trkpt><trkpt lat="46.0470535" lon="12.0258693"><ele>259.6</ele><time>2026-04-18T11:31:59.535Z</time></trkpt><trkpt lat="46.046966" lon="12.0259117"><ele>260.0</ele><time>2026-04-18T11:32:01.537Z</time></trkpt><trkpt lat="46.0468793" lon="12.0259573"><ele>260.0</ele><time>2026-04-18T11:32:03.538Z</time></trkpt><trkpt lat="46.0467919" lon="12.0259986"><ele>260.0</ele><time>2026-04-18T11:32:05.536Z</time></trkpt><trkpt lat="46.0467089" lon="12.0260394"><ele>260.0</ele><time>2026-04-18T11:32:07.538Z</time></trkpt><trkpt lat="46.0466249" lon="12.0260593"><ele>260.0</ele><time>2026-04-18T11:32:09.539Z</time></trkpt><trkpt lat="46.0465389" lon="12.0260893"><ele>260.0</ele><time>2026-04-18T11:32:11.537Z</time></trkpt><trkpt lat="46.0464519" lon="12.0261136"><ele>260.0</ele><time>2026-04-18T11:32:13.536Z</time></trkpt><trkpt lat="46.0463633" lon="12.0261402"><ele>260.4</ele><time>2026-04-18T11:32:15.537Z</time></trkpt><trkpt lat="46.0462766" lon="12.0261723"><ele>260.8</ele><time>2026-04-18T11:32:17.535Z</time></trkpt><trkpt lat="46.0461905" lon="12.0262078"><ele>261.2</ele><time>2026-04-18T11:32:19.537Z</time></trkpt><trkpt lat="46.0461052" lon="12.0262446"><ele>261.6</ele><time>2026-04-18T11:32:21.535Z</time></trkpt><trkpt lat="46.0460192" lon="12.0262908"><ele>262.0</ele><time>2026-04-18T11:32:23.538Z</time></trkpt><trkpt lat="46.045934" lon="12.0263334"><ele>262.0</ele><time>2026-04-18T11:32:25.537Z</time></trkpt><trkpt lat="46.0458561" lon="12.0263664"><ele>262.0</ele><time>2026-04-18T11:32:27.539Z</time></trkpt><trkpt lat="46.0457679" lon="12.026412"><ele>262.0</ele><time>2026-04-18T11:32:29.536Z</time></trkpt><trkpt lat="46.0456813" lon="12.0264566"><ele>262.0</ele><time>2026-04-18T11:32:31.537Z</time></trkpt><trkpt lat="46.0455975" lon="12.0265108"><ele>262.0</ele><time>2026-04-18T11:32:33.537Z</time></trkpt><trkpt lat="46.0455168" lon="12.0265694"><ele>262.0</ele><time>2026-04-18T11:32:35.536Z</time></trkpt><trkpt lat="46.0454406" lon="12.0266287"><ele>262.2857142857143</ele><time>2026-04-18T11:32:37.537Z</time></trkpt><trkpt lat="46.0453712" lon="12.0266902"><ele>262.5714285714286</ele><time>2026-04-18T11:32:39.537Z</time></trkpt><trkpt lat="46.045323" lon="12.0267516"><ele>262.8571428571429</ele><time>2026-04-18T11:32:41.536Z</time></trkpt><trkpt lat="46.0452678" lon="12.0268431"><ele>263.14285714285717</ele><time>2026-04-18T11:32:44.538Z</time></trkpt><trkpt lat="46.0452163" lon="12.0269494"><ele>263.42857142857144</ele><time>2026-04-18T11:32:47.537Z</time></trkpt><trkpt lat="46.0452098" lon="12.0270431"><ele>263.7142857142857</ele><time>2026-04-18T11:32:49.537Z</time></trkpt><trkpt lat="46.0452166" lon="12.0271334"><ele>264.0</ele><time>2026-04-18T11:32:51.538Z</time></trkpt><trkpt lat="46.0452358" lon="12.0272279"><ele>264.0</ele><time>2026-04-18T11:32:53.537Z</time></trkpt><trkpt lat="46.0452578" lon="12.0273289"><ele>264.0</ele><time>2026-04-18T11:32:55.537Z</time></trkpt><trkpt lat="46.045279" lon="12.027427"><ele>264.0</ele><time>2026-04-18T11:32:57.535Z</time></trkpt><trkpt lat="46.0452983" lon="12.0275209"><ele>264.0</ele><time>2026-04-18T11:32:59.539Z</time></trkpt><trkpt lat="46.0453182" lon="12.0276076"><ele>264.0</ele><time>2026-04-18T11:33:01.538Z</time></trkpt><trkpt lat="46.0453521" lon="12.0276901"><ele>264.0</ele><time>2026-04-18T11:33:03.537Z</time></trkpt><trkpt lat="46.0454021" lon="12.0277897"><ele>264.0</ele><time>2026-04-18T11:33:05.537Z</time></trkpt><trkpt lat="46.0454809" lon="12.027886"><ele>264.0</ele><time>2026-04-18T11:33:07.535Z</time></trkpt><trkpt lat="46.0455887" lon="12.027929"><ele>264.0</ele><time>2026-04-18T11:33:09.537Z</time></trkpt><trkpt lat="46.0456888" lon="12.0279949"><ele>264.0</ele><time>2026-04-18T11:33:11.537Z</time></trkpt><trkpt lat="46.0457347" lon="12.0281305"><ele>264.0</ele><time>2026-04-18T11:33:13.537Z</time></trkpt><trkpt lat="46.0457549" lon="12.0282712"><ele>264.0</ele><time>2026-04-18T11:33:15.537Z</time></trkpt><trkpt lat="46.0457485" lon="12.0284032"><ele>264.0</ele><time>2026-04-18T11:33:17.54Z</time></trkpt><trkpt lat="46.045743" lon="12.0285377"><ele>264.0</ele><time>2026-04-18T11:33:19.536Z</time></trkpt><trkpt lat="46.0457302" lon="12.0286632"><ele>264.0</ele><time>2026-04-18T11:33:21.537Z</time></trkpt><trkpt lat="46.0457069" lon="12.0287811"><ele>264.0</ele><time>2026-04-18T11:33:23.537Z</time></trkpt><trkpt lat="46.0456587" lon="12.0288784"><ele>264.0</ele><time>2026-04-18T11:33:25.535Z</time></trkpt><trkpt lat="46.0456041" lon="12.028978"><ele>264.0</ele><time>2026-04-18T11:33:27.536Z</time></trkpt><trkpt lat="46.0455412" lon="12.0290807"><ele>264.1666666666667</ele><time>2026-04-18T11:33:29.535Z</time></trkpt><trkpt lat="46.0454794" lon="12.029182"><ele>264.3333333333333</ele><time>2026-04-18T11:33:31.536Z</time></trkpt><trkpt lat="46.0454343" lon="12.0292817"><ele>264.5</ele><time>2026-04-18T11:33:33.535Z</time></trkpt><trkpt lat="46.0453855" lon="12.0293738"><ele>264.66666666666663</ele><time>2026-04-18T11:33:35.535Z</time></trkpt><trkpt lat="46.0453413" lon="12.029456"><ele>264.8333333333333</ele><time>2026-04-18T11:33:37.536Z</time></trkpt><trkpt lat="46.0453111" lon="12.0295558"><ele>265.0</ele><time>2026-04-18T11:33:39.537Z</time></trkpt><trkpt lat="46.0453172" lon="12.029677"><ele>265.0</ele><time>2026-04-18T11:33:41.537Z</time></trkpt><trkpt lat="46.045356" lon="12.0297877"><ele>265.0</ele><time>2026-04-18T11:33:43.537Z</time></trkpt><trkpt lat="46.0454" lon="12.029895"><ele>265.0</ele><time>2026-04-18T11:33:45.536Z</time></trkpt><trkpt lat="46.0454433" lon="12.0300075"><ele>265.0</ele><time>2026-04-18T11:33:47.537Z</time></trkpt><trkpt lat="46.0454792" lon="12.0301162"><ele>265.0</ele><time>2026-04-18T11:33:49.536Z</time></trkpt><trkpt lat="46.0455026" lon="12.030253"><ele>265.0</ele><time>2026-04-18T11:33:51.537Z</time></trkpt><trkpt lat="46.0455088" lon="12.0304015"><ele>265.5</ele><time>2026-04-18T11:33:53.536Z</time></trkpt><trkpt lat="46.0454687" lon="12.0304732"><ele>266.0</ele><time>2026-04-18T11:33:54.535Z</time></trkpt><trkpt lat="46.0454155" lon="12.0305883"><ele>266.5</ele><time>2026-04-18T11:33:56.537Z</time></trkpt><trkpt lat="46.0453938" lon="12.0306984"><ele>267.0</ele><time>2026-04-18T11:33:58.537Z</time></trkpt><trkpt lat="46.0454639" lon="12.0307547"><ele>267.5</ele><time>2026-04-18T11:34:00.536Z</time></trkpt><trkpt lat="46.0455566" lon="12.0307148"><ele>268.0</ele><time>2026-04-18T11:34:02.537Z</time></trkpt><trkpt lat="46.045653" lon="12.0306498"><ele>268.0</ele><time>2026-04-18T11:34:04.535Z</time></trkpt><trkpt lat="46.0457486" lon="12.0305837"><ele>268.0</ele><time>2026-04-18T11:34:06.537Z</time></trkpt><trkpt lat="46.0458413" lon="12.0305253"><ele>268.0</ele><time>2026-04-18T11:34:08.537Z</time></trkpt><trkpt lat="46.0459239" lon="12.0304676"><ele>268.0</ele><time>2026-04-18T11:34:10.537Z</time></trkpt><trkpt lat="46.0460003" lon="12.0304119"><ele>268.0</ele><time>2026-04-18T11:34:12.536Z</time></trkpt><trkpt lat="46.0460737" lon="12.0303604"><ele>268.5</ele><time>2026-04-18T11:34:14.537Z</time></trkpt><trkpt lat="46.0461406" lon="12.0303085"><ele>269.0</ele><time>2026-04-18T11:34:16.534Z</time></trkpt><trkpt lat="46.0462148" lon="12.0303079"><ele>269.5</ele><time>2026-04-18T11:34:18.537Z</time></trkpt><trkpt lat="46.0462751" lon="12.0303855"><ele>270.0</ele><time>2026-04-18T11:34:20.537Z</time></trkpt><trkpt lat="46.046306" lon="12.0305011"><ele>270.5</ele><time>2026-04-18T11:34:22.539Z</time></trkpt><trkpt lat="46.0463135" lon="12.0306283"><ele>271.0</ele><time>2026-04-18T11:34:24.538Z</time></trkpt><trkpt lat="46.0463234" lon="12.0307445"><ele>271.66666666666663</ele><time>2026-04-18T11:34:26.537Z</time></trkpt><trkpt lat="46.0463255" lon="12.0308649"><ele>272.3333333333333</ele><time>2026-04-18T11:34:28.537Z</time></trkpt><trkpt lat="46.0462977" lon="12.030983"><ele>273.0</ele><time>2026-04-18T11:34:30.536Z</time></trkpt><trkpt lat="46.0462548" lon="12.0310871"><ele>273.6666666666667</ele><time>2026-04-18T11:34:32.539Z</time></trkpt><trkpt lat="46.046214" lon="12.0311905"><ele>274.33333333333337</ele><time>2026-04-18T11:34:34.536Z</time></trkpt><trkpt lat="46.046181" lon="12.0312909"><ele>275.0</ele><time>2026-04-18T11:34:36.536Z</time></trkpt><trkpt lat="46.0461453" lon="12.0314013"><ele>275.0</ele><time>2026-04-18T11:34:39.537Z</time></trkpt><trkpt lat="46.0461078" lon="12.0315075"><ele>275.0</ele><time>2026-04-18T11:34:43.537Z</time></trkpt><trkpt lat="46.0460333" lon="12.0315315"><ele>275.0</ele><time>2026-04-18T11:34:46.537Z</time></trkpt><trkpt lat="46.0459667" lon="12.0315223"><ele>275.0</ele><time>2026-04-18T11:34:48.537Z</time></trkpt><trkpt lat="46.0459028" lon="12.031511"><ele>275.0</ele><time>2026-04-18T11:34:50.535Z</time></trkpt><trkpt lat="46.0458178" lon="12.0315058"><ele>275.0</ele><time>2026-04-18T11:34:53.536Z</time></trkpt><trkpt lat="46.0457405" lon="12.0315546"><ele>275.0</ele><time>2026-04-18T11:34:56.539Z</time></trkpt><trkpt lat="46.0456785" lon="12.0316185"><ele>275.0</ele><time>2026-04-18T11:34:59.536Z</time></trkpt><trkpt lat="46.0456143" lon="12.031682"><ele>275.0</ele><time>2026-04-18T11:35:03.536Z</time></trkpt><trkpt lat="46.0455411" lon="12.031732"><ele>275.0</ele><time>2026-04-18T11:35:06.537Z</time></trkpt><trkpt lat="46.0454681" lon="12.0318013"><ele>275.0</ele><time>2026-04-18T11:35:09.537Z</time></trkpt><trkpt lat="46.0453993" lon="12.0318908"><ele>275.0</ele><time>2026-04-18T11:35:12.536Z</time></trkpt><trkpt lat="46.0453567" lon="12.0319624"><ele>275.0</ele><time>2026-04-18T11:35:14.537Z</time></trkpt><trkpt lat="46.0453101" lon="12.0320364"><ele>275.0</ele><time>2026-04-18T11:35:16.537Z</time></trkpt><trkpt lat="46.0452768" lon="12.0321224"><ele>275.0</ele><time>2026-04-18T11:35:18.536Z</time></trkpt><trkpt lat="46.0452446" lon="12.0322123"><ele>275.0</ele><time>2026-04-18T11:35:20.537Z</time></trkpt><trkpt lat="46.0452138" lon="12.0323057"><ele>275.0</ele><time>2026-04-18T11:35:22.535Z</time></trkpt><trkpt lat="46.0451936" lon="12.0323937"><ele>275.0</ele><time>2026-04-18T11:35:24.536Z</time></trkpt><trkpt lat="46.0451791" lon="12.0324883"><ele>275.0</ele><time>2026-04-18T11:35:26.537Z</time></trkpt><trkpt lat="46.0451655" lon="12.0325789"><ele>276.5</ele><time>2026-04-18T11:35:28.536Z</time></trkpt><trkpt lat="46.0451571" lon="12.0326781"><ele>278.0</ele><time>2026-04-18T11:35:30.537Z</time></trkpt><trkpt lat="46.0451592" lon="12.0327819"><ele>279.5</ele><time>2026-04-18T11:35:32.536Z</time></trkpt><trkpt lat="46.04517" lon="12.0328977"><ele>281.0</ele><time>2026-04-18T11:35:34.536Z</time></trkpt><trkpt lat="46.045186" lon="12.0330264"><ele>282.5</ele><time>2026-04-18T11:35:36.535Z</time></trkpt><trkpt lat="46.0452028" lon="12.0331499"><ele>284.0</ele><time>2026-04-18T11:35:38.537Z</time></trkpt><trkpt lat="46.0452267" lon="12.0332643"><ele>285.0</ele><time>2026-04-18T11:35:40.537Z</time></trkpt><trkpt lat="46.0452553" lon="12.0333756"><ele>286.0</ele><time>2026-04-18T11:35:42.537Z</time></trkpt><trkpt lat="46.0452847" lon="12.0334784"><ele>287.0</ele><time>2026-04-18T11:35:44.538Z</time></trkpt><trkpt lat="46.0453073" lon="12.0335791"><ele>288.0</ele><time>2026-04-18T11:35:46.537Z</time></trkpt><trkpt lat="46.0453182" lon="12.0336786"><ele>289.0</ele><time>2026-04-18T11:35:48.537Z</time></trkpt><trkpt lat="46.0453241" lon="12.0337808"><ele>290.0</ele><time>2026-04-18T11:35:50.537Z</time></trkpt><trkpt lat="46.0453262" lon="12.0338815"><ele>291.0</ele><time>2026-04-18T11:35:52.536Z</time></trkpt><trkpt lat="46.0453337" lon="12.0339804"><ele>291.0</ele><time>2026-04-18T11:35:54.539Z</time></trkpt><trkpt lat="46.0453437" lon="12.0340738"><ele>291.0</ele><time>2026-04-18T11:35:56.539Z</time></trkpt><trkpt lat="46.0453492" lon="12.0341717"><ele>291.0</ele><time>2026-04-18T11:35:58.537Z</time></trkpt><trkpt lat="46.0453526" lon="12.0342646"><ele>291.0</ele><time>2026-04-18T11:36:00.537Z</time></trkpt><trkpt lat="46.0453626" lon="12.0343611"><ele>291.0</ele><time>2026-04-18T11:36:02.537Z</time></trkpt><trkpt lat="46.0453813" lon="12.0344577"><ele>291.0</ele><time>2026-04-18T11:36:04.538Z</time></trkpt><trkpt lat="46.0454014" lon="12.0345477"><ele>291.0</ele><time>2026-04-18T11:36:06.538Z</time></trkpt><trkpt lat="46.0454233" lon="12.0346387"><ele>292.7142857142857</ele><time>2026-04-18T11:36:08.537Z</time></trkpt><trkpt lat="46.0454492" lon="12.0347239"><ele>294.4285714285714</ele><time>2026-04-18T11:36:10.534Z</time></trkpt><trkpt lat="46.0454777" lon="12.0348075"><ele>296.1428571428571</ele><time>2026-04-18T11:36:12.537Z</time></trkpt><trkpt lat="46.0455117" lon="12.0348918"><ele>297.85714285714283</ele><time>2026-04-18T11:36:14.536Z</time></trkpt><trkpt lat="46.0455495" lon="12.0349738"><ele>299.57142857142856</ele><time>2026-04-18T11:36:16.536Z</time></trkpt><trkpt lat="46.045593" lon="12.0350546"><ele>301.2857142857143</ele><time>2026-04-18T11:36:18.536Z</time></trkpt><trkpt lat="46.0456386" lon="12.0351269"><ele>303.0</ele><time>2026-04-18T11:36:20.536Z</time></trkpt><trkpt lat="46.0456892" lon="12.0351934"><ele>303.42857142857144</ele><time>2026-04-18T11:36:22.536Z</time></trkpt><trkpt lat="46.0457377" lon="12.0352672"><ele>303.85714285714283</ele><time>2026-04-18T11:36:24.535Z</time></trkpt><trkpt lat="46.0457911" lon="12.0353471"><ele>304.2857142857143</ele><time>2026-04-18T11:36:26.536Z</time></trkpt><trkpt lat="46.0458449" lon="12.0354232"><ele>304.7142857142857</ele><time>2026-04-18T11:36:28.535Z</time></trkpt><trkpt lat="46.0458932" lon="12.0354941"><ele>305.14285714285717</ele><time>2026-04-18T11:36:30.536Z</time></trkpt><trkpt lat="46.0459394" lon="12.0355675"><ele>305.57142857142856</ele><time>2026-04-18T11:36:32.537Z</time></trkpt><trkpt lat="46.0459767" lon="12.0356481"><ele>306.0</ele><time>2026-04-18T11:36:34.537Z</time></trkpt><trkpt lat="46.0460192" lon="12.0357636"><ele>306.8333333333333</ele><time>2026-04-18T11:36:37.538Z</time></trkpt><trkpt lat="46.0460431" lon="12.0358543"><ele>307.6666666666667</ele><time>2026-04-18T11:36:39.535Z</time></trkpt><trkpt lat="46.0460635" lon="12.0359582"><ele>308.5</ele><time>2026-04-18T11:36:41.538Z</time></trkpt><trkpt lat="46.0460783" lon="12.0360733"><ele>309.33333333333337</ele><time>2026-04-18T11:36:43.537Z</time></trkpt><trkpt lat="46.0460893" lon="12.0361959"><ele>310.1666666666667</ele><time>2026-04-18T11:36:45.537Z</time></trkpt><trkpt lat="46.0460973" lon="12.0363186"><ele>311.0</ele><time>2026-04-18T11:36:47.539Z</time></trkpt><trkpt lat="46.0461119" lon="12.0364359"><ele>311.0</ele><time>2026-04-18T11:36:49.536Z</time></trkpt><trkpt lat="46.0461393" lon="12.0365496"><ele>311.0</ele><time>2026-04-18T11:36:51.537Z</time></trkpt><trkpt lat="46.0461725" lon="12.0366612"><ele>311.0</ele><time>2026-04-18T11:36:53.536Z</time></trkpt><trkpt lat="46.0462064" lon="12.03677"><ele>311.0</ele><time>2026-04-18T11:36:55.537Z</time></trkpt><trkpt lat="46.0462537" lon="12.0368675"><ele>311.0</ele><time>2026-04-18T11:36:57.536Z</time></trkpt><trkpt lat="46.0463121" lon="12.0369517"><ele>311.0</ele><time>2026-04-18T11:36:59.537Z</time></trkpt><trkpt lat="46.0463721" lon="12.0370319"><ele>311.1666666666667</ele><time>2026-04-18T11:37:01.537Z</time></trkpt><trkpt lat="46.0464328" lon="12.0371142"><ele>311.33333333333337</ele><time>2026-04-18T11:37:03.535Z</time></trkpt><trkpt lat="46.0464776" lon="12.0372165"><ele>311.5</ele><time>2026-04-18T11:37:05.535Z</time></trkpt><trkpt lat="46.0464972" lon="12.0373325"><ele>311.6666666666667</ele><time>2026-04-18T11:37:07.536Z</time></trkpt><trkpt lat="46.0464817" lon="12.0374526"><ele>311.8333333333333</ele><time>2026-04-18T11:37:09.535Z</time></trkpt><trkpt lat="46.0464509" lon="12.0375628"><ele>312.0</ele><time>2026-04-18T11:37:11.536Z</time></trkpt><trkpt lat="46.0464157" lon="12.0376676"><ele>312.0</ele><time>2026-04-18T11:37:13.537Z</time></trkpt><trkpt lat="46.0463742" lon="12.0377673"><ele>312.0</ele><time>2026-04-18T11:37:15.536Z</time></trkpt><trkpt lat="46.0463355" lon="12.0378615"><ele>312.0</ele><time>2026-04-18T11:37:17.537Z</time></trkpt><trkpt lat="46.0462964" lon="12.0379563"><ele>312.0</ele><time>2026-04-18T11:37:19.534Z</time></trkpt><trkpt lat="46.0462499" lon="12.038044"><ele>312.0</ele><time>2026-04-18T11:37:21.537Z</time></trkpt><trkpt lat="46.0462029" lon="12.0381286"><ele>312.0</ele><time>2026-04-18T11:37:23.535Z</time></trkpt><trkpt lat="46.0461485" lon="12.0382005"><ele>312.0</ele><time>2026-04-18T11:37:25.538Z</time></trkpt><trkpt lat="46.0460944" lon="12.0382718"><ele>312.0</ele><time>2026-04-18T11:37:27.538Z</time></trkpt><trkpt lat="46.0460418" lon="12.0383472"><ele>312.0</ele><time>2026-04-18T11:37:29.536Z</time></trkpt><trkpt lat="46.0459974" lon="12.0384242"><ele>312.0</ele><time>2026-04-18T11:37:31.539Z</time></trkpt><trkpt lat="46.0459549" lon="12.0385173"><ele>312.0</ele><time>2026-04-18T11:37:33.537Z</time></trkpt><trkpt lat="46.0459248" lon="12.038613"><ele>312.0</ele><time>2026-04-18T11:37:35.537Z</time></trkpt><trkpt lat="46.0459045" lon="12.0387215"><ele>312.0</ele><time>2026-04-18T11:37:37.536Z</time></trkpt><trkpt lat="46.0458947" lon="12.038838"><ele>312.3333333333333</ele><time>2026-04-18T11:37:39.537Z</time></trkpt><trkpt lat="46.0458908" lon="12.0389512"><ele>312.6666666666667</ele><time>2026-04-18T11:37:41.538Z</time></trkpt><trkpt lat="46.045888" lon="12.0390529"><ele>313.0</ele><time>2026-04-18T11:37:43.537Z</time></trkpt><trkpt lat="46.0458882" lon="12.0391565"><ele>313.33333333333337</ele><time>2026-04-18T11:37:45.538Z</time></trkpt><trkpt lat="46.0458871" lon="12.0392704"><ele>313.6666666666667</ele><time>2026-04-18T11:37:47.537Z</time></trkpt><trkpt lat="46.0458905" lon="12.0393896"><ele>314.0</ele><time>2026-04-18T11:37:49.536Z</time></trkpt><trkpt lat="46.0458864" lon="12.0395135"><ele>314.5</ele><time>2026-04-18T11:37:51.539Z</time></trkpt><trkpt lat="46.0458848" lon="12.0396416"><ele>315.0</ele><time>2026-04-18T11:37:53.535Z</time></trkpt><trkpt lat="46.0458808" lon="12.0397634"><ele>315.5</ele><time>2026-04-18T11:37:55.537Z</time></trkpt><trkpt lat="46.0458702" lon="12.0398726"><ele>316.0</ele><time>2026-04-18T11:37:57.537Z</time></trkpt><trkpt lat="46.0458593" lon="12.0399644"><ele>316.5</ele><time>2026-04-18T11:37:59.536Z</time></trkpt><trkpt lat="46.0458531" lon="12.0400849"><ele>317.0</ele><time>2026-04-18T11:38:02.537Z</time></trkpt><trkpt lat="46.0458518" lon="12.0401781"><ele>317.2857142857143</ele><time>2026-04-18T11:38:04.538Z</time></trkpt><trkpt lat="46.0458568" lon="12.0402714"><ele>317.57142857142856</ele><time>2026-04-18T11:38:06.539Z</time></trkpt><trkpt lat="46.0458608" lon="12.0404038"><ele>317.8571428571429</ele><time>2026-04-18T11:38:09.537Z</time></trkpt><trkpt lat="46.045859" lon="12.0405354"><ele>318.1428571428571</ele><time>2026-04-18T11:38:12.538Z</time></trkpt><trkpt lat="46.0458585" lon="12.0406266"><ele>318.4285714285714</ele><time>2026-04-18T11:38:14.538Z</time></trkpt><trkpt lat="46.0458648" lon="12.0407224"><ele>318.7142857142857</ele><time>2026-04-18T11:38:16.538Z</time></trkpt><trkpt lat="46.0458686" lon="12.0408175"><ele>319.0</ele><time>2026-04-18T11:38:18.537Z</time></trkpt><trkpt lat="46.0458739" lon="12.0409158"><ele>319.0</ele><time>2026-04-18T11:38:20.539Z</time></trkpt><trkpt lat="46.0458748" lon="12.0410119"><ele>319.0</ele><time>2026-04-18T11:38:22.536Z</time></trkpt><trkpt lat="46.0458702" lon="12.0411095"><ele>319.0</ele><time>2026-04-18T11:38:24.538Z</time></trkpt><trkpt lat="46.045862" lon="12.0412053"><ele>319.0</ele><time>2026-04-18T11:38:26.538Z</time></trkpt><trkpt lat="46.045848" lon="12.0413003"><ele>319.0</ele><time>2026-04-18T11:38:28.538Z</time></trkpt><trkpt lat="46.0458326" lon="12.0413972"><ele>319.0</ele><time>2026-04-18T11:38:30.538Z</time></trkpt><trkpt lat="46.0458057" lon="12.0414847"><ele>319.0</ele><time>2026-04-18T11:38:32.539Z</time></trkpt><trkpt lat="46.0457639" lon="12.0415542"><ele>319.14285714285717</ele><time>2026-04-18T11:38:34.536Z</time></trkpt><trkpt lat="46.0457092" lon="12.0416049"><ele>319.2857142857143</ele><time>2026-04-18T11:38:36.537Z</time></trkpt><trkpt lat="46.0456464" lon="12.0416408"><ele>319.42857142857144</ele><time>2026-04-18T11:38:38.538Z</time></trkpt><trkpt lat="46.0455844" lon="12.0416774"><ele>319.57142857142856</ele><time>2026-04-18T11:38:40.539Z</time></trkpt><trkpt lat="46.0455187" lon="12.0417262"><ele>319.7142857142857</ele><time>2026-04-18T11:38:42.538Z</time></trkpt><trkpt lat="46.0454576" lon="12.0417858"><ele>319.85714285714283</ele><time>2026-04-18T11:38:44.54Z</time></trkpt><trkpt lat="46.0454056" lon="12.0418693"><ele>320.0</ele><time>2026-04-18T11:38:46.534Z</time></trkpt><trkpt lat="46.0453639" lon="12.0419538"><ele>320.33333333333337</ele><time>2026-04-18T11:38:48.538Z</time></trkpt><trkpt lat="46.0453284" lon="12.0420421"><ele>320.6666666666667</ele><time>2026-04-18T11:38:50.54Z</time></trkpt><trkpt lat="46.0452883" lon="12.0421247"><ele>321.0</ele><time>2026-04-18T11:38:52.535Z</time></trkpt><trkpt lat="46.0452178" lon="12.0421557"><ele>321.3333333333333</ele><time>2026-04-18T11:38:54.537Z</time></trkpt><trkpt lat="46.0451246" lon="12.0421322"><ele>321.66666666666663</ele><time>2026-04-18T11:38:56.538Z</time></trkpt><trkpt lat="46.0450275" lon="12.0421237"><ele>322.0</ele><time>2026-04-18T11:38:58.539Z</time></trkpt><trkpt lat="46.0449251" lon="12.0421097"><ele>322.40000000000003</ele><time>2026-04-18T11:39:00.539Z</time></trkpt><trkpt lat="46.0448316" lon="12.0420921"><ele>322.8</ele><time>2026-04-18T11:39:02.537Z</time></trkpt><trkpt lat="46.0447275" lon="12.0420691"><ele>323.2</ele><time>2026-04-18T11:39:04.536Z</time></trkpt><trkpt lat="46.04462" lon="12.0420281"><ele>323.6</ele><time>2026-04-18T11:39:06.537Z</time></trkpt><trkpt lat="46.0445271" lon="12.0419658"><ele>324.0</ele><time>2026-04-18T11:39:08.538Z</time></trkpt><trkpt lat="46.0444528" lon="12.0418866"><ele>324.0</ele><time>2026-04-18T11:39:10.536Z</time></trkpt><trkpt lat="46.044384" lon="12.0417912"><ele>324.0</ele><time>2026-04-18T11:39:12.54Z</time></trkpt><trkpt lat="46.0443248" lon="12.0416894"><ele>324.0</ele><time>2026-04-18T11:39:14.54Z</time></trkpt><trkpt lat="46.0442712" lon="12.0415832"><ele>324.0</ele><time>2026-04-18T11:39:16.54Z</time></trkpt><trkpt lat="46.044217" lon="12.041489"><ele>324.0</ele><time>2026-04-18T11:39:18.541Z</time></trkpt><trkpt lat="46.0441665" lon="12.0413963"><ele>324.0</ele><time>2026-04-18T11:39:20.538Z</time></trkpt><trkpt lat="46.0441182" lon="12.0413064"><ele>325.42857142857144</ele><time>2026-04-18T11:39:22.538Z</time></trkpt><trkpt lat="46.0440751" lon="12.0412221"><ele>326.85714285714283</ele><time>2026-04-18T11:39:24.538Z</time></trkpt><trkpt lat="46.0440375" lon="12.0411409"><ele>328.2857142857143</ele><time>2026-04-18T11:39:26.538Z</time></trkpt><trkpt lat="46.0439973" lon="12.0410608"><ele>329.7142857142857</ele><time>2026-04-18T11:39:28.54Z</time></trkpt><trkpt lat="46.0439568" lon="12.0409886"><ele>331.14285714285717</ele><time>2026-04-18T11:39:30.538Z</time></trkpt><trkpt lat="46.0439124" lon="12.0409227"><ele>332.57142857142856</ele><time>2026-04-18T11:39:32.54Z</time></trkpt><trkpt lat="46.043842" lon="12.040845"><ele>334.0</ele><time>2026-04-18T11:39:35.537Z</time></trkpt><trkpt lat="46.0437484" lon="12.0408178"><ele>334.0</ele><time>2026-04-18T11:39:38.538Z</time></trkpt><trkpt lat="46.0436581" lon="12.0408224"><ele>334.0</ele><time>2026-04-18T11:39:41.539Z</time></trkpt><trkpt lat="46.0435713" lon="12.0408339"><ele>334.0</ele><time>2026-04-18T11:39:44.539Z</time></trkpt><trkpt lat="46.0434786" lon="12.0408403"><ele>334.0</ele><time>2026-04-18T11:39:47.539Z</time></trkpt><trkpt lat="46.0434109" lon="12.0408445"><ele>334.0</ele><time>2026-04-18T11:39:49.537Z</time></trkpt><trkpt lat="46.0433402" lon="12.0408705"><ele>334.0</ele><time>2026-04-18T11:39:51.54Z</time></trkpt><trkpt lat="46.0432716" lon="12.0408995"><ele>332.4</ele><time>2026-04-18T11:39:53.537Z</time></trkpt><trkpt lat="46.043188" lon="12.0409334"><ele>330.79999999999995</ele><time>2026-04-18T11:39:55.537Z</time></trkpt><trkpt lat="46.0430975" lon="12.0409779"><ele>329.20000000000005</ele><time>2026-04-18T11:39:57.539Z</time></trkpt><trkpt lat="46.0430126" lon="12.0410624"><ele>327.6</ele><time>2026-04-18T11:39:59.539Z</time></trkpt><trkpt lat="46.0429293" lon="12.0411813"><ele>326.0</ele><time>2026-04-18T11:40:01.537Z</time></trkpt><trkpt lat="46.042846" lon="12.0412956"><ele>326.0</ele><time>2026-04-18T11:40:03.536Z</time></trkpt><trkpt lat="46.0427668" lon="12.0414214"><ele>326.0</ele><time>2026-04-18T11:40:05.539Z</time></trkpt><trkpt lat="46.0426871" lon="12.0415495"><ele>326.0</ele><time>2026-04-18T11:40:07.538Z</time></trkpt><trkpt lat="46.0426103" lon="12.0416577"><ele>326.0</ele><time>2026-04-18T11:40:09.538Z</time></trkpt><trkpt lat="46.0425264" lon="12.0417264"><ele>326.0</ele><time>2026-04-18T11:40:11.538Z</time></trkpt><trkpt lat="46.042446" lon="12.0417452"><ele>325.5714285714286</ele><time>2026-04-18T11:40:13.539Z</time></trkpt><trkpt lat="46.0423678" lon="12.0417082"><ele>325.1428571428571</ele><time>2026-04-18T11:40:15.536Z</time></trkpt><trkpt lat="46.0423139" lon="12.0416344"><ele>324.7142857142857</ele><time>2026-04-18T11:40:17.539Z</time></trkpt><trkpt lat="46.0422757" lon="12.0415516"><ele>324.28571428571433</ele><time>2026-04-18T11:40:19.538Z</time></trkpt><trkpt lat="46.0422372" lon="12.0414725"><ele>323.8571428571429</ele><time>2026-04-18T11:40:21.538Z</time></trkpt><trkpt lat="46.0421885" lon="12.0413969"><ele>323.42857142857144</ele><time>2026-04-18T11:40:23.539Z</time></trkpt><trkpt lat="46.0421313" lon="12.0413505"><ele>323.0</ele><time>2026-04-18T11:40:25.539Z</time></trkpt><trkpt lat="46.0420547" lon="12.0413422"><ele>323.0</ele><time>2026-04-18T11:40:27.539Z</time></trkpt><trkpt lat="46.0419633" lon="12.0413589"><ele>323.0</ele><time>2026-04-18T11:40:29.538Z</time></trkpt><trkpt lat="46.0418707" lon="12.0413995"><ele>323.0</ele><time>2026-04-18T11:40:31.537Z</time></trkpt><trkpt lat="46.0417777" lon="12.0414631"><ele>323.0</ele><time>2026-04-18T11:40:33.538Z</time></trkpt><trkpt lat="46.0416949" lon="12.0415059"><ele>323.0</ele><time>2026-04-18T11:40:35.537Z</time></trkpt><trkpt lat="46.0416154" lon="12.0415414"><ele>323.83333333333337</ele><time>2026-04-18T11:40:37.538Z</time></trkpt><trkpt lat="46.0415354" lon="12.0415816"><ele>324.6666666666667</ele><time>2026-04-18T11:40:39.537Z</time></trkpt><trkpt lat="46.0414636" lon="12.0416408"><ele>325.5</ele><time>2026-04-18T11:40:41.539Z</time></trkpt><trkpt lat="46.041408" lon="12.0417276"><ele>326.3333333333333</ele><time>2026-04-18T11:40:43.54Z</time></trkpt><trkpt lat="46.0413609" lon="12.0418162"><ele>327.16666666666663</ele><time>2026-04-18T11:40:45.54Z</time></trkpt><trkpt lat="46.0413027" lon="12.0418915"><ele>328.0</ele><time>2026-04-18T11:40:47.537Z</time></trkpt><trkpt lat="46.0412369" lon="12.0419568"><ele>327.99999999999994</ele><time>2026-04-18T11:40:49.536Z</time></trkpt><trkpt lat="46.0411683" lon="12.0420161"><ele>328.0</ele><time>2026-04-18T11:40:51.537Z</time></trkpt><trkpt lat="46.0410948" lon="12.042059"><ele>328.0</ele><time>2026-04-18T11:40:53.538Z</time></trkpt><trkpt lat="46.0410311" lon="12.0420954"><ele>328.0</ele><time>2026-04-18T11:40:55.539Z</time></trkpt><trkpt lat="46.04097" lon="12.0421272"><ele>328.0</ele><time>2026-04-18T11:40:57.537Z</time></trkpt><trkpt lat="46.0408983" lon="12.0421567"><ele>327.99999999999994</ele><time>2026-04-18T11:40:59.537Z</time></trkpt><trkpt lat="46.0408242" lon="12.0421797"><ele>328.0</ele><time>2026-04-18T11:41:01.538Z</time></trkpt><trkpt lat="46.0407515" lon="12.0422247"><ele>328.2857142857143</ele><time>2026-04-18T11:41:03.538Z</time></trkpt><trkpt lat="46.0406758" lon="12.0422626"><ele>328.57142857142856</ele><time>2026-04-18T11:41:05.538Z</time></trkpt><trkpt lat="46.0406081" lon="12.0423024"><ele>328.8571428571429</ele><time>2026-04-18T11:41:07.54Z</time></trkpt><trkpt lat="46.0405459" lon="12.0423307"><ele>329.1428571428571</ele><time>2026-04-18T11:41:09.539Z</time></trkpt><trkpt lat="46.0404718" lon="12.042385"><ele>329.42857142857144</ele><time>2026-04-18T11:41:12.539Z</time></trkpt><trkpt lat="46.04044" lon="12.0424706"><ele>329.7142857142857</ele><time>2026-04-18T11:41:14.539Z</time></trkpt><trkpt lat="46.0404151" lon="12.0425604"><ele>330.0</ele><time>2026-04-18T11:41:16.54Z</time></trkpt><trkpt lat="46.0403951" lon="12.042662"><ele>330.0</ele><time>2026-04-18T11:41:18.538Z</time></trkpt><trkpt lat="46.0403858" lon="12.0427716"><ele>330.0</ele><time>2026-04-18T11:41:20.537Z</time></trkpt><trkpt lat="46.0403581" lon="12.0428788"><ele>330.0</ele><time>2026-04-18T11:41:22.537Z</time></trkpt><trkpt lat="46.0403088" lon="12.0429627"><ele>330.0</ele><time>2026-04-18T11:41:24.537Z</time></trkpt><trkpt lat="46.0402537" lon="12.0430372"><ele>330.0</ele><time>2026-04-18T11:41:26.54Z</time></trkpt><trkpt lat="46.0401925" lon="12.0431001"><ele>330.0</ele><time>2026-04-18T11:41:28.539Z</time></trkpt><trkpt lat="46.0401298" lon="12.0431497"><ele>330.0</ele><time>2026-04-18T11:41:30.538Z</time></trkpt><trkpt lat="46.040072" lon="12.0431977"><ele>330.0</ele><time>2026-04-18T11:41:32.538Z</time></trkpt><trkpt lat="46.0400169" lon="12.0432495"><ele>330.0</ele><time>2026-04-18T11:41:34.537Z</time></trkpt><trkpt lat="46.0399476" lon="12.0432834"><ele>330.0</ele><time>2026-04-18T11:41:36.537Z</time></trkpt><trkpt lat="46.0398537" lon="12.043327"><ele>330.0</ele><time>2026-04-18T11:41:39.534Z</time></trkpt><trkpt lat="46.0397651" lon="12.0433767"><ele>330.0</ele><time>2026-04-18T11:41:42.537Z</time></trkpt><trkpt lat="46.0397043" lon="12.0434132"><ele>330.5714285714286</ele><time>2026-04-18T11:41:44.537Z</time></trkpt><trkpt lat="46.039637" lon="12.0434457"><ele>331.14285714285717</ele><time>2026-04-18T11:41:46.538Z</time></trkpt><trkpt lat="46.0395742" lon="12.0434903"><ele>331.7142857142857</ele><time>2026-04-18T11:41:48.537Z</time></trkpt><trkpt lat="46.0395162" lon="12.0435329"><ele>332.28571428571433</ele><time>2026-04-18T11:41:50.536Z</time></trkpt><trkpt lat="46.0394604" lon="12.0435879"><ele>332.8571428571429</ele><time>2026-04-18T11:41:52.537Z</time></trkpt><trkpt lat="46.0394056" lon="12.0436424"><ele>333.42857142857144</ele><time>2026-04-18T11:41:54.536Z</time></trkpt><trkpt lat="46.0393521" lon="12.0437015"><ele>334.0</ele><time>2026-04-18T11:41:56.54Z</time></trkpt><trkpt lat="46.0392961" lon="12.0437673"><ele>334.0</ele><time>2026-04-18T11:41:58.537Z</time></trkpt><trkpt lat="46.0392438" lon="12.0438346"><ele>334.0</ele><time>2026-04-18T11:42:00.538Z</time></trkpt><trkpt lat="46.0391968" lon="12.0439"><ele>334.0</ele><time>2026-04-18T11:42:02.538Z</time></trkpt><trkpt lat="46.0391477" lon="12.0439764"><ele>334.0</ele><time>2026-04-18T11:42:04.538Z</time></trkpt><trkpt lat="46.0390972" lon="12.0440546"><ele>334.0</ele><time>2026-04-18T11:42:06.539Z</time></trkpt><trkpt lat="46.0390424" lon="12.0441249"><ele>334.0</ele><time>2026-04-18T11:42:08.539Z</time></trkpt><trkpt lat="46.0389908" lon="12.044191"><ele>334.0</ele><time>2026-04-18T11:42:10.538Z</time></trkpt><trkpt lat="46.0389231" lon="12.044272"><ele>335.85714285714283</ele><time>2026-04-18T11:42:13.54Z</time></trkpt><trkpt lat="46.0388686" lon="12.0443299"><ele>337.7142857142857</ele><time>2026-04-18T11:42:15.537Z</time></trkpt><trkpt lat="46.038811" lon="12.044384"><ele>339.57142857142856</ele><time>2026-04-18T11:42:17.537Z</time></trkpt><trkpt lat="46.038754" lon="12.0444324"><ele>341.42857142857144</ele><time>2026-04-18T11:42:19.54Z</time></trkpt><trkpt lat="46.038695" lon="12.0444821"><ele>343.2857142857143</ele><time>2026-04-18T11:42:21.538Z</time></trkpt><trkpt lat="46.0386332" lon="12.0445315"><ele>345.14285714285717</ele><time>2026-04-18T11:42:23.537Z</time></trkpt><trkpt lat="46.0385711" lon="12.0445759"><ele>347.0</ele><time>2026-04-18T11:42:25.538Z</time></trkpt><trkpt lat="46.0385094" lon="12.0446108"><ele>347.0</ele><time>2026-04-18T11:42:27.536Z</time></trkpt><trkpt lat="46.0384438" lon="12.0446377"><ele>347.0</ele><time>2026-04-18T11:42:29.538Z</time></trkpt><trkpt lat="46.038368" lon="12.0446746"><ele>347.0</ele><time>2026-04-18T11:42:31.535Z</time></trkpt><trkpt lat="46.038291" lon="12.0447082"><ele>347.0</ele><time>2026-04-18T11:42:33.537Z</time></trkpt><trkpt lat="46.0382159" lon="12.0447358"><ele>347.0</ele><time>2026-04-18T11:42:35.54Z</time></trkpt><trkpt lat="46.0381478" lon="12.0447544"><ele>347.0</ele><time>2026-04-18T11:42:37.538Z</time></trkpt><trkpt lat="46.0380732" lon="12.0447768"><ele>348.0</ele><time>2026-04-18T11:42:39.538Z</time></trkpt><trkpt lat="46.0379986" lon="12.0447985"><ele>349.0</ele><time>2026-04-18T11:42:41.538Z</time></trkpt><trkpt lat="46.037923" lon="12.0448338"><ele>350.0</ele><time>2026-04-18T11:42:43.536Z</time></trkpt><trkpt lat="46.0378468" lon="12.0448659"><ele>351.0</ele><time>2026-04-18T11:42:45.538Z</time></trkpt><trkpt lat="46.0377706" lon="12.0449155"><ele>352.0</ele><time>2026-04-18T11:42:47.539Z</time></trkpt><trkpt lat="46.0377006" lon="12.0449706"><ele>353.0</ele><time>2026-04-18T11:42:49.539Z</time></trkpt><trkpt lat="46.0376372" lon="12.0450269"><ele>353.0</ele><time>2026-04-18T11:42:51.537Z</time></trkpt><trkpt lat="46.0375807" lon="12.045081"><ele>353.0</ele><time>2026-04-18T11:42:53.536Z</time></trkpt><trkpt lat="46.0375303" lon="12.0451408"><ele>353.0</ele><time>2026-04-18T11:42:55.536Z</time></trkpt><trkpt lat="46.0374901" lon="12.0452152"><ele>353.0</ele><time>2026-04-18T11:42:57.539Z</time></trkpt><trkpt lat="46.0374446" lon="12.0453082"><ele>353.0</ele><time>2026-04-18T11:42:59.539Z</time></trkpt><trkpt lat="46.0373969" lon="12.0454316"><ele>353.0</ele><time>2026-04-18T11:43:01.538Z</time></trkpt><trkpt lat="46.0373417" lon="12.0455478"><ele>352.2</ele><time>2026-04-18T11:43:03.537Z</time></trkpt><trkpt lat="46.0372922" lon="12.0456792"><ele>351.4</ele><time>2026-04-18T11:43:05.536Z</time></trkpt><trkpt lat="46.0372457" lon="12.0458125"><ele>350.59999999999997</ele><time>2026-04-18T11:43:07.537Z</time></trkpt><trkpt lat="46.0371703" lon="12.0459235"><ele>349.79999999999995</ele><time>2026-04-18T11:43:09.536Z</time></trkpt><trkpt lat="46.0370727" lon="12.0459715"><ele>349.0</ele><time>2026-04-18T11:43:11.538Z</time></trkpt><trkpt lat="46.0369854" lon="12.0460497"><ele>349.0</ele><time>2026-04-18T11:43:13.537Z</time></trkpt><trkpt lat="46.0369137" lon="12.0461814"><ele>349.0</ele><time>2026-04-18T11:43:15.539Z</time></trkpt><trkpt lat="46.0368589" lon="12.0463102"><ele>349.0</ele><time>2026-04-18T11:43:17.536Z</time></trkpt><trkpt lat="46.0367762" lon="12.0463882"><ele>349.0</ele><time>2026-04-18T11:43:19.539Z</time></trkpt><trkpt lat="46.0366599" lon="12.0463892"><ele>349.0</ele><time>2026-04-18T11:43:21.537Z</time></trkpt><trkpt lat="46.0365491" lon="12.0464148"><ele>350.0</ele><time>2026-04-18T11:43:23.536Z</time></trkpt><trkpt lat="46.0364909" lon="12.0464585"><ele>351.0</ele><time>2026-04-18T11:43:24.537Z</time></trkpt><trkpt lat="46.0364326" lon="12.046515"><ele>352.0</ele><time>2026-04-18T11:43:25.537Z</time></trkpt><trkpt lat="46.0363359" lon="12.0466239"><ele>353.0</ele><time>2026-04-18T11:43:27.537Z</time></trkpt><trkpt lat="46.0362476" lon="12.0467285"><ele>354.0</ele><time>2026-04-18T11:43:29.536Z</time></trkpt><trkpt lat="46.036175" lon="12.0468657"><ele>354.0</ele><time>2026-04-18T11:43:31.538Z</time></trkpt><trkpt lat="46.0361457" lon="12.0469491"><ele>354.0</ele><time>2026-04-18T11:43:32.538Z</time></trkpt><trkpt lat="46.0361261" lon="12.0470391"><ele>354.0</ele><time>2026-04-18T11:43:33.537Z</time></trkpt><trkpt lat="46.0361104" lon="12.0471321"><ele>354.0</ele><time>2026-04-18T11:43:34.535Z</time></trkpt><trkpt lat="46.0360911" lon="12.0472195"><ele>354.0</ele><time>2026-04-18T11:43:35.538Z</time></trkpt><trkpt lat="46.0360257" lon="12.0473537"><ele>354.0</ele><time>2026-04-18T11:43:37.537Z</time></trkpt><trkpt lat="46.0359484" lon="12.0474404"><ele>356.1666666666667</ele><time>2026-04-18T11:43:39.537Z</time></trkpt><trkpt lat="46.0358562" lon="12.0474995"><ele>358.3333333333333</ele><time>2026-04-18T11:43:41.539Z</time></trkpt><trkpt lat="46.0357839" lon="12.0475693"><ele>360.5</ele><time>2026-04-18T11:43:43.538Z</time></trkpt><trkpt lat="46.035716" lon="12.0476532"><ele>362.66666666666663</ele><time>2026-04-18T11:43:45.538Z</time></trkpt><trkpt lat="46.0356386" lon="12.0476781"><ele>364.8333333333333</ele><time>2026-04-18T11:43:47.536Z</time></trkpt><trkpt lat="46.0355656" lon="12.0476417"><ele>367.0</ele><time>2026-04-18T11:43:49.537Z</time></trkpt><trkpt lat="46.0355409" lon="12.0475384"><ele>368.1428571428571</ele><time>2026-04-18T11:43:51.538Z</time></trkpt><trkpt lat="46.0355256" lon="12.0474485"><ele>369.28571428571433</ele><time>2026-04-18T11:43:53.536Z</time></trkpt><trkpt lat="46.0355308" lon="12.0473442"><ele>370.42857142857144</ele><time>2026-04-18T11:43:55.539Z</time></trkpt><trkpt lat="46.035517" lon="12.0472484"><ele>371.57142857142856</ele><time>2026-04-18T11:43:57.538Z</time></trkpt><trkpt lat="46.0354742" lon="12.0471619"><ele>372.71428571428567</ele><time>2026-04-18T11:43:59.537Z</time></trkpt><trkpt lat="46.035436" lon="12.0470877"><ele>373.8571428571429</ele><time>2026-04-18T11:44:01.539Z</time></trkpt><trkpt lat="46.0354042" lon="12.047008"><ele>375.0</ele><time>2026-04-18T11:44:03.536Z</time></trkpt><trkpt lat="46.0353748" lon="12.0468766"><ele>375.0</ele><time>2026-04-18T11:44:06.536Z</time></trkpt><trkpt lat="46.0353593" lon="12.0467466"><ele>375.0</ele><time>2026-04-18T11:44:09.536Z</time></trkpt><trkpt lat="46.0353324" lon="12.0466191"><ele>375.0</ele><time>2026-04-18T11:44:12.535Z</time></trkpt><trkpt lat="46.0353166" lon="12.0465246"><ele>375.0</ele><time>2026-04-18T11:44:14.538Z</time></trkpt><trkpt lat="46.0352944" lon="12.046432"><ele>375.0</ele><time>2026-04-18T11:44:16.538Z</time></trkpt><trkpt lat="46.035258" lon="12.0463423"><ele>375.0</ele><time>2026-04-18T11:44:18.537Z</time></trkpt><trkpt lat="46.0351774" lon="12.046281"><ele>372.5</ele><time>2026-04-18T11:44:21.537Z</time></trkpt><trkpt lat="46.0351145" lon="12.0462866"><ele>370.0</ele><time>2026-04-18T11:44:23.539Z</time></trkpt><trkpt lat="46.0350287" lon="12.0463167"><ele>367.5</ele><time>2026-04-18T11:44:25.539Z</time></trkpt><trkpt lat="46.0349079" lon="12.0463438"><ele>365.0</ele><time>2026-04-18T11:44:27.537Z</time></trkpt><trkpt lat="46.0348418" lon="12.0463462"><ele>362.5</ele><time>2026-04-18T11:44:28.537Z</time></trkpt><trkpt lat="46.0347758" lon="12.0463471"><ele>360.0</ele><time>2026-04-18T11:44:29.54Z</time></trkpt><trkpt lat="46.0347056" lon="12.0463433"><ele>358.1666666666667</ele><time>2026-04-18T11:44:30.536Z</time></trkpt><trkpt lat="46.0345927" lon="12.0462847"><ele>356.3333333333333</ele><time>2026-04-18T11:44:32.536Z</time></trkpt><trkpt lat="46.034535" lon="12.0462429"><ele>354.5</ele><time>2026-04-18T11:44:33.537Z</time></trkpt><trkpt lat="46.0344757" lon="12.0462004"><ele>352.66666666666663</ele><time>2026-04-18T11:44:34.536Z</time></trkpt><trkpt lat="46.0344201" lon="12.0461547"><ele>350.8333333333333</ele><time>2026-04-18T11:44:35.536Z</time></trkpt><trkpt lat="46.0343177" lon="12.0460738"><ele>349.0</ele><time>2026-04-18T11:44:37.537Z</time></trkpt><trkpt lat="46.0342253" lon="12.0460347"><ele>345.0</ele><time>2026-04-18T11:44:39.537Z</time></trkpt><trkpt lat="46.034137" lon="12.0460381"><ele>341.0</ele><time>2026-04-18T11:44:41.537Z</time></trkpt><trkpt lat="46.034045" lon="12.0460914"><ele>337.0</ele><time>2026-04-18T11:44:43.538Z</time></trkpt><trkpt lat="46.0339548" lon="12.0461782"><ele>333.0</ele><time>2026-04-18T11:44:45.536Z</time></trkpt><trkpt lat="46.0338691" lon="12.0462771"><ele>329.0</ele><time>2026-04-18T11:44:47.537Z</time></trkpt><trkpt lat="46.0337797" lon="12.0463903"><ele>329.0</ele><time>2026-04-18T11:44:49.537Z</time></trkpt><trkpt lat="46.033692" lon="12.0465149"><ele>329.0</ele><time>2026-04-18T11:44:51.539Z</time></trkpt><trkpt lat="46.0336468" lon="12.0465821"><ele>329.0</ele><time>2026-04-18T11:44:52.538Z</time></trkpt><trkpt lat="46.0336031" lon="12.0466514"><ele>329.0</ele><time>2026-04-18T11:44:53.538Z</time></trkpt><trkpt lat="46.0335585" lon="12.04672"><ele>329.0</ele><time>2026-04-18T11:44:54.537Z</time></trkpt><trkpt lat="46.0335131" lon="12.0467862"><ele>329.0</ele><time>2026-04-18T11:44:55.539Z</time></trkpt><trkpt lat="46.0334282" lon="12.0469032"><ele>330.2</ele><time>2026-04-18T11:44:57.537Z</time></trkpt><trkpt lat="46.0333453" lon="12.0470139"><ele>331.4</ele><time>2026-04-18T11:44:59.537Z</time></trkpt><trkpt lat="46.0332615" lon="12.0470828"><ele>332.6</ele><time>2026-04-18T11:45:01.537Z</time></trkpt><trkpt lat="46.0331769" lon="12.0470991"><ele>333.8</ele><time>2026-04-18T11:45:03.537Z</time></trkpt><trkpt lat="46.033095" lon="12.0470963"><ele>335.0</ele><time>2026-04-18T11:45:05.538Z</time></trkpt><trkpt lat="46.0330168" lon="12.0470816"><ele>335.0</ele><time>2026-04-18T11:45:07.538Z</time></trkpt><trkpt lat="46.0329403" lon="12.0470667"><ele>335.0</ele><time>2026-04-18T11:45:09.538Z</time></trkpt><trkpt lat="46.0328666" lon="12.0470615"><ele>335.0</ele><time>2026-04-18T11:45:11.538Z</time></trkpt><trkpt lat="46.0327874" lon="12.0470638"><ele>335.0</ele><time>2026-04-18T11:45:13.538Z</time></trkpt><trkpt lat="46.0327119" lon="12.0470677"><ele>335.0</ele><time>2026-04-18T11:45:15.536Z</time></trkpt><trkpt lat="46.0326316" lon="12.0470885"><ele>335.0</ele><time>2026-04-18T11:45:17.535Z</time></trkpt><trkpt lat="46.0325383" lon="12.0471349"><ele>332.6</ele><time>2026-04-18T11:45:19.538Z</time></trkpt><trkpt lat="46.0324317" lon="12.04718"><ele>330.2</ele><time>2026-04-18T11:45:21.536Z</time></trkpt><trkpt lat="46.0323225" lon="12.0472303"><ele>327.79999999999995</ele><time>2026-04-18T11:45:23.537Z</time></trkpt><trkpt lat="46.0322212" lon="12.0472739"><ele>325.4</ele><time>2026-04-18T11:45:25.538Z</time></trkpt><trkpt lat="46.0321262" lon="12.0473246"><ele>323.0</ele><time>2026-04-18T11:45:27.536Z</time></trkpt><trkpt lat="46.0320479" lon="12.0473665"><ele>323.0</ele><time>2026-04-18T11:45:29.539Z</time></trkpt><trkpt lat="46.0319835" lon="12.0474179"><ele>323.0</ele><time>2026-04-18T11:45:31.536Z</time></trkpt><trkpt lat="46.0319235" lon="12.0475188"><ele>323.0</ele><time>2026-04-18T11:45:34.537Z</time></trkpt><trkpt lat="46.0318925" lon="12.0476244"><ele>323.0</ele><time>2026-04-18T11:45:36.538Z</time></trkpt><trkpt lat="46.0318974" lon="12.0477667"><ele>323.0</ele><time>2026-04-18T11:45:38.537Z</time></trkpt><trkpt lat="46.0319229" lon="12.0479092"><ele>323.0</ele><time>2026-04-18T11:45:40.539Z</time></trkpt><trkpt lat="46.0319328" lon="12.0480516"><ele>326.59999999999997</ele><time>2026-04-18T11:45:42.537Z</time></trkpt><trkpt lat="46.0319261" lon="12.0481747"><ele>330.2</ele><time>2026-04-18T11:45:44.538Z</time></trkpt><trkpt lat="46.0318952" lon="12.0482993"><ele>333.8</ele><time>2026-04-18T11:45:46.539Z</time></trkpt><trkpt lat="46.0318714" lon="12.0484368"><ele>337.4</ele><time>2026-04-18T11:45:48.539Z</time></trkpt><trkpt lat="46.0318212" lon="12.0485737"><ele>341.0</ele><time>2026-04-18T11:45:50.537Z</time></trkpt><trkpt lat="46.031778" lon="12.0487183"><ele>340.6</ele><time>2026-04-18T11:45:52.537Z</time></trkpt><trkpt lat="46.0317495" lon="12.0488859"><ele>340.20000000000005</ele><time>2026-04-18T11:45:54.537Z</time></trkpt><trkpt lat="46.0317337" lon="12.0490487"><ele>339.79999999999995</ele><time>2026-04-18T11:45:56.537Z</time></trkpt><trkpt lat="46.0316945" lon="12.0491981"><ele>339.4</ele><time>2026-04-18T11:45:58.537Z</time></trkpt><trkpt lat="46.0316116" lon="12.0492825"><ele>339.0</ele><time>2026-04-18T11:46:00.537Z</time></trkpt><trkpt lat="46.0315229" lon="12.0492967"><ele>339.0</ele><time>2026-04-18T11:46:02.536Z</time></trkpt><trkpt lat="46.0314377" lon="12.0492727"><ele>339.0</ele><time>2026-04-18T11:46:05.538Z</time></trkpt><trkpt lat="46.0313605" lon="12.0492789"><ele>339.0</ele><time>2026-04-18T11:46:07.539Z</time></trkpt><trkpt lat="46.031289" lon="12.0493059"><ele>339.0</ele><time>2026-04-18T11:46:09.537Z</time></trkpt><trkpt lat="46.0312093" lon="12.0493367"><ele>339.0</ele><time>2026-04-18T11:46:11.538Z</time></trkpt><trkpt lat="46.0311282" lon="12.0494018"><ele>339.0</ele><time>2026-04-18T11:46:13.537Z</time></trkpt><trkpt lat="46.031073" lon="12.0495231"><ele>339.0</ele><time>2026-04-18T11:46:15.539Z</time></trkpt><trkpt lat="46.031061" lon="12.0496585"><ele>339.0</ele><time>2026-04-18T11:46:17.538Z</time></trkpt><trkpt lat="46.0310536" lon="12.0497943"><ele>339.0</ele><time>2026-04-18T11:46:19.536Z</time></trkpt><trkpt lat="46.0310057" lon="12.0498996"><ele>339.0</ele><time>2026-04-18T11:46:21.536Z</time></trkpt><trkpt lat="46.0309318" lon="12.0499159"><ele>339.0</ele><time>2026-04-18T11:46:23.536Z</time></trkpt><trkpt lat="46.0308592" lon="12.0498732"><ele>339.0</ele><time>2026-04-18T11:46:25.539Z</time></trkpt><trkpt lat="46.0307832" lon="12.0498117"><ele>339.5</ele><time>2026-04-18T11:46:27.536Z</time></trkpt><trkpt lat="46.0307192" lon="12.0497376"><ele>340.0</ele><time>2026-04-18T11:46:29.537Z</time></trkpt><trkpt lat="46.0306517" lon="12.0496623"><ele>340.5</ele><time>2026-04-18T11:46:31.539Z</time></trkpt><trkpt lat="46.0305745" lon="12.0495926"><ele>341.0</ele><time>2026-04-18T11:46:33.539Z</time></trkpt><trkpt lat="46.0304906" lon="12.0495392"><ele>341.5</ele><time>2026-04-18T11:46:35.536Z</time></trkpt><trkpt lat="46.0304059" lon="12.0495009"><ele>342.0</ele><time>2026-04-18T11:46:37.537Z</time></trkpt><trkpt lat="46.030319" lon="12.0494682"><ele>342.0</ele><time>2026-04-18T11:46:39.538Z</time></trkpt><trkpt lat="46.0302326" lon="12.0494404"><ele>342.0</ele><time>2026-04-18T11:46:41.537Z</time></trkpt><trkpt lat="46.0301532" lon="12.0494061"><ele>342.0</ele><time>2026-04-18T11:46:43.534Z</time></trkpt><trkpt lat="46.0300638" lon="12.049383"><ele>342.0</ele><time>2026-04-18T11:46:45.535Z</time></trkpt><trkpt lat="46.0299944" lon="12.0493292"><ele>342.0</ele><time>2026-04-18T11:46:47.534Z</time></trkpt><trkpt lat="46.0299096" lon="12.0492822"><ele>342.0</ele><time>2026-04-18T11:46:49.534Z</time></trkpt><trkpt lat="46.0298156" lon="12.0492499"><ele>343.0</ele><time>2026-04-18T11:46:51.535Z</time></trkpt><trkpt lat="46.0297192" lon="12.0492302"><ele>344.0</ele><time>2026-04-18T11:46:53.534Z</time></trkpt><trkpt lat="46.0296212" lon="12.0492107"><ele>345.0</ele><time>2026-04-18T11:46:55.535Z</time></trkpt><trkpt lat="46.0295227" lon="12.0491891"><ele>346.0</ele><time>2026-04-18T11:46:57.536Z</time></trkpt><trkpt lat="46.0294315" lon="12.0491711"><ele>347.0</ele><time>2026-04-18T11:46:59.538Z</time></trkpt><trkpt lat="46.0293477" lon="12.0491554"><ele>347.0</ele><time>2026-04-18T11:47:01.536Z</time></trkpt><trkpt lat="46.0292529" lon="12.0491435"><ele>347.0</ele><time>2026-04-18T11:47:03.541Z</time></trkpt><trkpt lat="46.0291628" lon="12.0491569"><ele>347.0</ele><time>2026-04-18T11:47:05.541Z</time></trkpt><trkpt lat="46.0290765" lon="12.049175"><ele>347.0</ele><time>2026-04-18T11:47:07.538Z</time></trkpt><trkpt lat="46.0290076" lon="12.0492094"><ele>347.0</ele><time>2026-04-18T11:47:09.537Z</time></trkpt><trkpt lat="46.0289064" lon="12.0492749"><ele>347.20000000000005</ele><time>2026-04-18T11:47:12.537Z</time></trkpt><trkpt lat="46.0288392" lon="12.0493579"><ele>347.4</ele><time>2026-04-18T11:47:14.537Z</time></trkpt><trkpt lat="46.0287666" lon="12.0494446"><ele>347.6</ele><time>2026-04-18T11:47:16.537Z</time></trkpt><trkpt lat="46.0287011" lon="12.0495417"><ele>347.79999999999995</ele><time>2026-04-18T11:47:18.537Z</time></trkpt><trkpt lat="46.028654" lon="12.04965"><ele>348.0</ele><time>2026-04-18T11:47:20.537Z</time></trkpt><trkpt lat="46.0286133" lon="12.049763"><ele>348.0</ele><time>2026-04-18T11:47:22.537Z</time></trkpt><trkpt lat="46.0285895" lon="12.0498854"><ele>348.0</ele><time>2026-04-18T11:47:24.537Z</time></trkpt><trkpt lat="46.0285832" lon="12.0500438"><ele>348.0</ele><time>2026-04-18T11:47:26.538Z</time></trkpt><trkpt lat="46.0285533" lon="12.050209"><ele>348.0</ele><time>2026-04-18T11:47:28.537Z</time></trkpt><trkpt lat="46.0285156" lon="12.0503658"><ele>348.0</ele><time>2026-04-18T11:47:30.537Z</time></trkpt><trkpt lat="46.0284625" lon="12.0504958"><ele>349.8333333333333</ele><time>2026-04-18T11:47:32.537Z</time></trkpt><trkpt lat="46.0283763" lon="12.0505339"><ele>351.6666666666667</ele><time>2026-04-18T11:47:34.538Z</time></trkpt><trkpt lat="46.02831" lon="12.0504865"><ele>353.5</ele><time>2026-04-18T11:47:36.536Z</time></trkpt><trkpt lat="46.0282804" lon="12.0503935"><ele>355.33333333333337</ele><time>2026-04-18T11:47:39.537Z</time></trkpt><trkpt lat="46.0282542" lon="12.0502931"><ele>357.1666666666667</ele><time>2026-04-18T11:47:42.536Z</time></trkpt><trkpt lat="46.0282051" lon="12.0502117"><ele>359.0</ele><time>2026-04-18T11:47:45.539Z</time></trkpt><trkpt lat="46.0281661" lon="12.0500969"><ele>360.33333333333337</ele><time>2026-04-18T11:47:48.536Z</time></trkpt><trkpt lat="46.028164" lon="12.0499794"><ele>361.6666666666667</ele><time>2026-04-18T11:47:51.539Z</time></trkpt><trkpt lat="46.0281726" lon="12.0498604"><ele>363.0</ele><time>2026-04-18T11:47:54.537Z</time></trkpt><trkpt lat="46.0281265" lon="12.0497484"><ele>364.3333333333333</ele><time>2026-04-18T11:47:57.537Z</time></trkpt><trkpt lat="46.0280694" lon="12.0496911"><ele>365.66666666666663</ele><time>2026-04-18T11:47:59.536Z</time></trkpt><trkpt lat="46.0280058" lon="12.0496279"><ele>367.0</ele><time>2026-04-18T11:48:01.537Z</time></trkpt><trkpt lat="46.0279409" lon="12.0495612"><ele>367.0</ele><time>2026-04-18T11:48:03.536Z</time></trkpt><trkpt lat="46.0278856" lon="12.0494983"><ele>367.0</ele><time>2026-04-18T11:48:05.535Z</time></trkpt><trkpt lat="46.0278335" lon="12.0494421"><ele>367.0</ele><time>2026-04-18T11:48:07.536Z</time></trkpt><trkpt lat="46.0277637" lon="12.0494037"><ele>367.0</ele><time>2026-04-18T11:48:09.535Z</time></trkpt><trkpt lat="46.0276863" lon="12.0493796"><ele>367.0</ele><time>2026-04-18T11:48:11.538Z</time></trkpt><trkpt lat="46.0276156" lon="12.049376"><ele>367.0</ele><time>2026-04-18T11:48:13.538Z</time></trkpt><trkpt lat="46.0275382" lon="12.0493679"><ele>367.0</ele><time>2026-04-18T11:48:16.536Z</time></trkpt><trkpt lat="46.0274715" lon="12.0493635"><ele>367.57142857142856</ele><time>2026-04-18T11:48:19.536Z</time></trkpt><trkpt lat="46.0274086" lon="12.0493541"><ele>368.14285714285717</ele><time>2026-04-18T11:49:09.538Z</time></trkpt><trkpt lat="46.0273461" lon="12.0493676"><ele>368.7142857142857</ele><time>2026-04-18T11:49:12.538Z</time></trkpt><trkpt lat="46.0272807" lon="12.0493902"><ele>369.2857142857143</ele><time>2026-04-18T11:49:15.539Z</time></trkpt><trkpt lat="46.0271974" lon="12.049408"><ele>369.8571428571429</ele><time>2026-04-18T11:49:19.538Z</time></trkpt><trkpt lat="46.0271257" lon="12.0494168"><ele>370.42857142857144</ele><time>2026-04-18T11:49:22.537Z</time></trkpt><trkpt lat="46.0270501" lon="12.0494337"><ele>371.0</ele><time>2026-04-18T11:49:25.537Z</time></trkpt><trkpt lat="46.0269811" lon="12.049464"><ele>371.0</ele><time>2026-04-18T11:49:28.536Z</time></trkpt><trkpt lat="46.0269099" lon="12.0494956"><ele>371.0</ele><time>2026-04-18T11:49:31.535Z</time></trkpt><trkpt lat="46.0268467" lon="12.0495384"><ele>371.0</ele><time>2026-04-18T11:49:34.536Z</time></trkpt><trkpt lat="46.0267882" lon="12.0495825"><ele>371.0</ele><time>2026-04-18T11:49:37.538Z</time></trkpt><trkpt lat="46.0267397" lon="12.0496425"><ele>371.0</ele><time>2026-04-18T11:49:40.537Z</time></trkpt><trkpt lat="46.0266825" lon="12.0497084"><ele>371.0</ele><time>2026-04-18T11:49:44.537Z</time></trkpt><trkpt lat="46.0266257" lon="12.0497629"><ele>371.0</ele><time>2026-04-18T11:49:47.536Z</time></trkpt><trkpt lat="46.0265674" lon="12.0498004"><ele>371.14285714285717</ele><time>2026-04-18T11:49:50.536Z</time></trkpt><trkpt lat="46.0265131" lon="12.0498528"><ele>371.2857142857143</ele><time>2026-04-18T11:49:53.538Z</time></trkpt><trkpt lat="46.0264881" lon="12.0499486"><ele>371.42857142857144</ele><time>2026-04-18T11:49:57.537Z</time></trkpt><trkpt lat="46.0264758" lon="12.0500539"><ele>371.57142857142856</ele><time>2026-04-18T11:50:00.539Z</time></trkpt><trkpt lat="46.0264822" lon="12.050179"><ele>371.7142857142857</ele><time>2026-04-18T11:50:03.54Z</time></trkpt><trkpt lat="46.0264911" lon="12.0502746"><ele>371.8571428571429</ele><time>2026-04-18T11:50:05.541Z</time></trkpt><trkpt lat="46.0265055" lon="12.0503768"><ele>372.0</ele><time>2026-04-18T11:50:07.538Z</time></trkpt><trkpt lat="46.0265199" lon="12.0505055"><ele>368.3333333333333</ele><time>2026-04-18T11:50:10.536Z</time></trkpt><trkpt lat="46.026522" lon="12.0506361"><ele>364.6666666666667</ele><time>2026-04-18T11:50:13.536Z</time></trkpt><trkpt lat="46.0264897" lon="12.050768"><ele>361.0</ele><time>2026-04-18T11:50:16.536Z</time></trkpt><trkpt lat="46.0264622" lon="12.0508636"><ele>357.33333333333337</ele><time>2026-04-18T11:50:18.535Z</time></trkpt><trkpt lat="46.0264435" lon="12.0509541"><ele>353.6666666666667</ele><time>2026-04-18T11:50:20.536Z</time></trkpt><trkpt lat="46.0264332" lon="12.0510454"><ele>350.0</ele><time>2026-04-18T11:50:22.536Z</time></trkpt><trkpt lat="46.0264266" lon="12.0511639"><ele>349.5</ele><time>2026-04-18T11:50:25.537Z</time></trkpt><trkpt lat="46.0263957" lon="12.0512454"><ele>349.0</ele><time>2026-04-18T11:50:27.537Z</time></trkpt><trkpt lat="46.0263507" lon="12.0513144"><ele>348.5</ele><time>2026-04-18T11:50:29.538Z</time></trkpt><trkpt lat="46.02628" lon="12.0513944"><ele>348.0</ele><time>2026-04-18T11:50:32.534Z</time></trkpt><trkpt lat="46.0262363" lon="12.0514853"><ele>347.5</ele><time>2026-04-18T11:50:34.536Z</time></trkpt><trkpt lat="46.0261952" lon="12.0515712"><ele>347.0</ele><time>2026-04-18T11:50:36.539Z</time></trkpt><trkpt lat="46.026151" lon="12.0516881"><ele>349.5</ele><time>2026-04-18T11:50:39.537Z</time></trkpt><trkpt lat="46.0261218" lon="12.05181"><ele>352.0</ele><time>2026-04-18T11:50:42.537Z</time></trkpt><trkpt lat="46.0261166" lon="12.0519412"><ele>354.5</ele><time>2026-04-18T11:50:45.536Z</time></trkpt><trkpt lat="46.0260469" lon="12.0520178"><ele>357.0</ele><time>2026-04-18T11:50:48.537Z</time></trkpt><trkpt lat="46.0259796" lon="12.0520262"><ele>359.5</ele><time>2026-04-18T11:50:50.536Z</time></trkpt><trkpt lat="46.0259055" lon="12.0520039"><ele>362.0</ele><time>2026-04-18T11:50:52.537Z</time></trkpt><trkpt lat="46.025847" lon="12.0519612"><ele>358.33333333333337</ele><time>2026-04-18T11:50:54.537Z</time></trkpt><trkpt lat="46.0257957" lon="12.0519057"><ele>354.6666666666667</ele><time>2026-04-18T11:50:56.537Z</time></trkpt><trkpt lat="46.0257203" lon="12.0518535"><ele>351.0</ele><time>2026-04-18T11:50:59.537Z</time></trkpt><trkpt lat="46.025635" lon="12.0518485"><ele>347.3333333333333</ele><time>2026-04-18T11:51:02.537Z</time></trkpt><trkpt lat="46.0255505" lon="12.051879"><ele>343.66666666666663</ele><time>2026-04-18T11:51:05.536Z</time></trkpt><trkpt lat="46.0254803" lon="12.0519441"><ele>340.0</ele><time>2026-04-18T11:51:08.537Z</time></trkpt><trkpt lat="46.025416" lon="12.0520135"><ele>340.0</ele><time>2026-04-18T11:51:10.536Z</time></trkpt><trkpt lat="46.0253383" lon="12.0521028"><ele>340.0</ele><time>2026-04-18T11:51:12.536Z</time></trkpt><trkpt lat="46.0252542" lon="12.05216"><ele>340.0</ele><time>2026-04-18T11:51:14.537Z</time></trkpt><trkpt lat="46.0251713" lon="12.0522128"><ele>340.0</ele><time>2026-04-18T11:51:16.539Z</time></trkpt><trkpt lat="46.0251002" lon="12.0522373"><ele>340.0</ele><time>2026-04-18T11:51:18.535Z</time></trkpt><trkpt lat="46.025019" lon="12.0522474"><ele>340.0</ele><time>2026-04-18T11:51:21.537Z</time></trkpt><trkpt lat="46.0249455" lon="12.0522299"><ele>340.8333333333333</ele><time>2026-04-18T11:51:23.537Z</time></trkpt><trkpt lat="46.0248648" lon="12.0522294"><ele>341.66666666666663</ele><time>2026-04-18T11:51:25.537Z</time></trkpt><trkpt lat="46.0247801" lon="12.0522625"><ele>342.5</ele><time>2026-04-18T11:51:27.536Z</time></trkpt><trkpt lat="46.0247015" lon="12.0523406"><ele>343.3333333333333</ele><time>2026-04-18T11:51:29.536Z</time></trkpt><trkpt lat="46.024632" lon="12.0524367"><ele>344.1666666666667</ele><time>2026-04-18T11:51:31.537Z</time></trkpt><trkpt lat="46.024557" lon="12.0524925"><ele>345.0</ele><time>2026-04-18T11:51:33.536Z</time></trkpt><trkpt lat="46.0244862" lon="12.052487"><ele>345.0</ele><time>2026-04-18T11:51:35.537Z</time></trkpt><trkpt lat="46.0244143" lon="12.0524502"><ele>345.0</ele><time>2026-04-18T11:51:37.537Z</time></trkpt><trkpt lat="46.0243252" lon="12.0523836"><ele>345.0</ele><time>2026-04-18T11:51:39.535Z</time></trkpt><trkpt lat="46.0242156" lon="12.0523281"><ele>345.0</ele><time>2026-04-18T11:51:41.537Z</time></trkpt><trkpt lat="46.0241123" lon="12.0522355"><ele>345.0</ele><time>2026-04-18T11:51:43.536Z</time></trkpt><trkpt lat="46.0240573" lon="12.0521821"><ele>345.6</ele><time>2026-04-18T11:51:44.537Z</time></trkpt><trkpt lat="46.0240024" lon="12.0521351"><ele>346.2</ele><time>2026-04-18T11:51:45.538Z</time></trkpt><trkpt lat="46.0238957" lon="12.0520517"><ele>346.79999999999995</ele><time>2026-04-18T11:51:47.536Z</time></trkpt><trkpt lat="46.0237896" lon="12.0519788"><ele>347.4</ele><time>2026-04-18T11:51:49.537Z</time></trkpt><trkpt lat="46.0236881" lon="12.0519183"><ele>348.0</ele><time>2026-04-18T11:51:51.537Z</time></trkpt><trkpt lat="46.0235907" lon="12.0518597"><ele>348.0</ele><time>2026-04-18T11:51:53.538Z</time></trkpt><trkpt lat="46.0234943" lon="12.0518001"><ele>348.0</ele><time>2026-04-18T11:51:55.538Z</time></trkpt><trkpt lat="46.0234385" lon="12.0517543"><ele>348.0</ele><time>2026-04-18T11:51:57.538Z</time></trkpt><trkpt lat="46.0233633" lon="12.0517062"><ele>348.0</ele><time>2026-04-18T11:52:00.536Z</time></trkpt><trkpt lat="46.0232869" lon="12.0517053"><ele>348.0</ele><time>2026-04-18T11:52:03.538Z</time></trkpt><trkpt lat="46.0232063" lon="12.0517112"><ele>348.0</ele><time>2026-04-18T11:52:06.537Z</time></trkpt><trkpt lat="46.0231271" lon="12.0516989"><ele>349.1666666666667</ele><time>2026-04-18T11:52:09.537Z</time></trkpt><trkpt lat="46.0230577" lon="12.0516969"><ele>350.3333333333333</ele><time>2026-04-18T11:52:12.537Z</time></trkpt><trkpt lat="46.0229761" lon="12.0517123"><ele>351.5</ele><time>2026-04-18T11:52:15.536Z</time></trkpt><trkpt lat="46.0228882" lon="12.0517247"><ele>352.66666666666663</ele><time>2026-04-18T11:52:18.535Z</time></trkpt><trkpt lat="46.0228024" lon="12.0517237"><ele>353.8333333333333</ele><time>2026-04-18T11:52:21.535Z</time></trkpt><trkpt lat="46.0227396" lon="12.0517032"><ele>355.0</ele><time>2026-04-18T11:52:23.537Z</time></trkpt><trkpt lat="46.0226594" lon="12.0517181"><ele>355.0</ele><time>2026-04-18T11:52:26.535Z</time></trkpt><trkpt lat="46.0225829" lon="12.0517571"><ele>355.0</ele><time>2026-04-18T11:52:29.537Z</time></trkpt><trkpt lat="46.0225022" lon="12.0518275"><ele>355.0</ele><time>2026-04-18T11:52:32.537Z</time></trkpt><trkpt lat="46.0224512" lon="12.0518862"><ele>355.0</ele><time>2026-04-18T11:52:34.537Z</time></trkpt><trkpt lat="46.0223785" lon="12.0519587"><ele>355.0</ele><time>2026-04-18T11:52:37.539Z</time></trkpt><trkpt lat="46.0223134" lon="12.0520195"><ele>355.0</ele><time>2026-04-18T11:52:40.537Z</time></trkpt><trkpt lat="46.0222496" lon="12.052062"><ele>359.8333333333333</ele><time>2026-04-18T11:52:43.537Z</time></trkpt><trkpt lat="46.0221751" lon="12.0521113"><ele>364.66666666666663</ele><time>2026-04-18T11:52:47.537Z</time></trkpt><trkpt lat="46.0221006" lon="12.052092"><ele>369.5</ele><time>2026-04-18T11:52:52.537Z</time></trkpt><trkpt lat="46.0220779" lon="12.0519789"><ele>374.3333333333333</ele><time>2026-04-18T11:52:56.534Z</time></trkpt><trkpt lat="46.0221021" lon="12.0518773"><ele>379.1666666666667</ele><time>2026-04-18T11:52:59.537Z</time></trkpt><trkpt lat="46.02212" lon="12.0517709"><ele>384.0</ele><time>2026-04-18T11:53:02.535Z</time></trkpt><trkpt lat="46.0220802" lon="12.0516807"><ele>382.1666666666667</ele><time>2026-04-18T11:53:05.535Z</time></trkpt><trkpt lat="46.0220242" lon="12.0515907"><ele>380.3333333333333</ele><time>2026-04-18T11:53:08.536Z</time></trkpt><trkpt lat="46.0219704" lon="12.0515258"><ele>378.5</ele><time>2026-04-18T11:53:11.535Z</time></trkpt><trkpt lat="46.0218863" lon="12.0514812"><ele>376.66666666666663</ele><time>2026-04-18T11:53:14.535Z</time></trkpt><trkpt lat="46.0218231" lon="12.0514487"><ele>374.8333333333333</ele><time>2026-04-18T11:53:16.534Z</time></trkpt><trkpt lat="46.021756" lon="12.0513976"><ele>373.0</ele><time>2026-04-18T11:53:18.536Z</time></trkpt><trkpt lat="46.0217207" lon="12.0512917"><ele>373.0</ele><time>2026-04-18T11:53:21.537Z</time></trkpt><trkpt lat="46.021705" lon="12.0511703"><ele>373.0</ele><time>2026-04-18T11:53:24.538Z</time></trkpt><trkpt lat="46.0217059" lon="12.0510421"><ele>373.0</ele><time>2026-04-18T11:53:27.536Z</time></trkpt><trkpt lat="46.021728" lon="12.050951"><ele>373.0</ele><time>2026-04-18T11:53:30.536Z</time></trkpt><trkpt lat="46.0217098" lon="12.0508325"><ele>373.0</ele><time>2026-04-18T11:53:33.538Z</time></trkpt><trkpt lat="46.0216995" lon="12.0507141"><ele>373.0</ele><time>2026-04-18T11:53:36.538Z</time></trkpt><trkpt lat="46.02168" lon="12.0506264"><ele>370.8333333333333</ele><time>2026-04-18T11:53:38.537Z</time></trkpt><trkpt lat="46.021608" lon="12.0505474"><ele>368.66666666666663</ele><time>2026-04-18T11:53:41.535Z</time></trkpt><trkpt lat="46.0215592" lon="12.0504848"><ele>366.5</ele><time>2026-04-18T11:53:43.537Z</time></trkpt><trkpt lat="46.0214971" lon="12.0504417"><ele>364.3333333333333</ele><time>2026-04-18T11:53:45.536Z</time></trkpt><trkpt lat="46.0214325" lon="12.0504244"><ele>362.1666666666667</ele><time>2026-04-18T11:53:47.537Z</time></trkpt><trkpt lat="46.0213449" lon="12.0503844"><ele>360.0</ele><time>2026-04-18T11:53:50.534Z</time></trkpt><trkpt lat="46.0212726" lon="12.0503678"><ele>360.0</ele><time>2026-04-18T11:53:52.538Z</time></trkpt><trkpt lat="46.0211882" lon="12.0503589"><ele>360.0</ele><time>2026-04-18T11:53:54.535Z</time></trkpt><trkpt lat="46.0211051" lon="12.0503585"><ele>360.0</ele><time>2026-04-18T11:53:56.536Z</time></trkpt><trkpt lat="46.0210263" lon="12.0503719"><ele>360.0</ele><time>2026-04-18T11:53:58.537Z</time></trkpt><trkpt lat="46.0209392" lon="12.0503802"><ele>360.0</ele><time>2026-04-18T11:54:00.538Z</time></trkpt><trkpt lat="46.0208538" lon="12.0503781"><ele>360.0</ele><time>2026-04-18T11:54:02.535Z</time></trkpt><trkpt lat="46.0207724" lon="12.0503432"><ele>357.8333333333333</ele><time>2026-04-18T11:54:04.534Z</time></trkpt><trkpt lat="46.0206908" lon="12.0503055"><ele>355.6666666666667</ele><time>2026-04-18T11:54:06.536Z</time></trkpt><trkpt lat="46.0206256" lon="12.0502634"><ele>353.5</ele><time>2026-04-18T11:54:08.539Z</time></trkpt><trkpt lat="46.0205523" lon="12.0501973"><ele>351.33333333333337</ele><time>2026-04-18T11:54:11.537Z</time></trkpt><trkpt lat="46.0204755" lon="12.0501363"><ele>349.1666666666667</ele><time>2026-04-18T11:54:14.537Z</time></trkpt><trkpt lat="46.0203945" lon="12.0501357"><ele>347.0</ele><time>2026-04-18T11:54:16.537Z</time></trkpt><trkpt lat="46.020297" lon="12.0501824"><ele>347.0</ele><time>2026-04-18T11:54:18.536Z</time></trkpt><trkpt lat="46.0202071" lon="12.0502742"><ele>347.0</ele><time>2026-04-18T11:54:20.537Z</time></trkpt><trkpt lat="46.0201241" lon="12.0503986"><ele>347.0</ele><time>2026-04-18T11:54:22.535Z</time></trkpt><trkpt lat="46.020044" lon="12.050525"><ele>347.0</ele><time>2026-04-18T11:54:24.536Z</time></trkpt><trkpt lat="46.0199619" lon="12.0506514"><ele>350.8</ele><time>2026-04-18T11:54:26.537Z</time></trkpt><trkpt lat="46.0198769" lon="12.0507775"><ele>354.6</ele><time>2026-04-18T11:54:28.537Z</time></trkpt><trkpt lat="46.0197903" lon="12.0508991"><ele>358.40000000000003</ele><time>2026-04-18T11:54:30.535Z</time></trkpt><trkpt lat="46.0197" lon="12.0510117"><ele>362.20000000000005</ele><time>2026-04-18T11:54:32.537Z</time></trkpt><trkpt lat="46.0196498" lon="12.0510704"><ele>366.0</ele><time>2026-04-18T11:54:33.537Z</time></trkpt><trkpt lat="46.0195991" lon="12.0511309"><ele>366.2857142857143</ele><time>2026-04-18T11:54:34.537Z</time></trkpt><trkpt lat="46.0195507" lon="12.0512012"><ele>366.57142857142856</ele><time>2026-04-18T11:54:35.537Z</time></trkpt><trkpt lat="46.0195054" lon="12.0512777"><ele>366.8571428571429</ele><time>2026-04-18T11:54:36.536Z</time></trkpt><trkpt lat="46.019464" lon="12.0513594"><ele>367.1428571428571</ele><time>2026-04-18T11:54:37.535Z</time></trkpt><trkpt lat="46.0194198" lon="12.0514353"><ele>367.4285714285714</ele><time>2026-04-18T11:54:38.536Z</time></trkpt><trkpt lat="46.019375" lon="12.0515088"><ele>367.7142857142857</ele><time>2026-04-18T11:54:39.536Z</time></trkpt><trkpt lat="46.0193273" lon="12.0515771"><ele>368.0</ele><time>2026-04-18T11:54:40.538Z</time></trkpt><trkpt lat="46.0192804" lon="12.0516441"><ele>368.0</ele><time>2026-04-18T11:54:41.537Z</time></trkpt><trkpt lat="46.0192398" lon="12.0517153"><ele>368.0</ele><time>2026-04-18T11:54:42.535Z</time></trkpt><trkpt lat="46.0191571" lon="12.0518489"><ele>368.0</ele><time>2026-04-18T11:54:44.535Z</time></trkpt><trkpt lat="46.0190777" lon="12.0519609"><ele>368.0</ele><time>2026-04-18T11:54:46.536Z</time></trkpt><trkpt lat="46.0189738" lon="12.0519901"><ele>368.0</ele><time>2026-04-18T11:54:48.537Z</time></trkpt><trkpt lat="46.0188874" lon="12.0519206"><ele>369.14285714285717</ele><time>2026-04-18T11:54:50.535Z</time></trkpt><trkpt lat="46.0188388" lon="12.0518372"><ele>370.2857142857143</ele><time>2026-04-18T11:54:52.537Z</time></trkpt><trkpt lat="46.0187956" lon="12.0517557"><ele>371.42857142857144</ele><time>2026-04-18T11:54:54.534Z</time></trkpt><trkpt lat="46.0187545" lon="12.0516839"><ele>372.57142857142856</ele><time>2026-04-18T11:54:56.536Z</time></trkpt><trkpt lat="46.0187111" lon="12.0516168"><ele>373.71428571428567</ele><time>2026-04-18T11:54:58.539Z</time></trkpt><trkpt lat="46.0186689" lon="12.0515431"><ele>374.85714285714283</ele><time>2026-04-18T11:55:00.538Z</time></trkpt><trkpt lat="46.0186062" lon="12.0514719"><ele>376.0</ele><time>2026-04-18T11:55:03.539Z</time></trkpt><trkpt lat="46.0185352" lon="12.0514302"><ele>379.5</ele><time>2026-04-18T11:55:06.537Z</time></trkpt><trkpt lat="46.0184667" lon="12.05142"><ele>383.0</ele><time>2026-04-18T11:55:09.54Z</time></trkpt><trkpt lat="46.0183871" lon="12.0514384"><ele>386.5</ele><time>2026-04-18T11:55:13.54Z</time></trkpt><trkpt lat="46.0183231" lon="12.0514629"><ele>390.0</ele><time>2026-04-18T11:55:16.54Z</time></trkpt><trkpt lat="46.0182473" lon="12.0514979"><ele>393.50000000000006</ele><time>2026-04-18T11:55:20.539Z</time></trkpt><trkpt lat="46.0181706" lon="12.0515458"><ele>397.0</ele><time>2026-04-18T11:55:24.537Z</time></trkpt><trkpt lat="46.0181026" lon="12.0515925"><ele>396.1428571428571</ele><time>2026-04-18T11:55:27.537Z</time></trkpt><trkpt lat="46.0180367" lon="12.0516399"><ele>395.2857142857143</ele><time>2026-04-18T11:55:30.538Z</time></trkpt><trkpt lat="46.0179817" lon="12.0516887"><ele>394.42857142857144</ele><time>2026-04-18T11:55:33.538Z</time></trkpt><trkpt lat="46.0179278" lon="12.051748"><ele>393.57142857142856</ele><time>2026-04-18T11:55:36.537Z</time></trkpt><trkpt lat="46.0178666" lon="12.0518018"><ele>392.7142857142857</ele><time>2026-04-18T11:55:39.538Z</time></trkpt><trkpt lat="46.0178104" lon="12.0518633"><ele>391.85714285714283</ele><time>2026-04-18T11:55:42.538Z</time></trkpt><trkpt lat="46.0177578" lon="12.0519271"><ele>391.0</ele><time>2026-04-18T11:55:45.54Z</time></trkpt><trkpt lat="46.0177052" lon="12.0519984"><ele>390.99999999999994</ele><time>2026-04-18T11:55:48.538Z</time></trkpt><trkpt lat="46.0176506" lon="12.0520681"><ele>391.0</ele><time>2026-04-18T11:55:51.538Z</time></trkpt><trkpt lat="46.0175969" lon="12.052138"><ele>391.0</ele><time>2026-04-18T11:55:54.536Z</time></trkpt><trkpt lat="46.0175454" lon="12.0521924"><ele>391.0</ele><time>2026-04-18T11:55:57.538Z</time></trkpt><trkpt lat="46.0174908" lon="12.0522385"><ele>391.0</ele><time>2026-04-18T11:56:00.537Z</time></trkpt><trkpt lat="46.0174095" lon="12.0522437"><ele>390.99999999999994</ele><time>2026-04-18T11:56:04.536Z</time></trkpt><trkpt lat="46.0173385" lon="12.0522223"><ele>391.0</ele><time>2026-04-18T11:56:08.538Z</time></trkpt><trkpt lat="46.0172788" lon="12.0521801"><ele>394.57142857142856</ele><time>2026-04-18T11:56:12.54Z</time></trkpt><trkpt lat="46.017205" lon="12.0521487"><ele>398.1428571428571</ele><time>2026-04-18T11:56:16.538Z</time></trkpt><trkpt lat="46.0171388" lon="12.0521347"><ele>401.71428571428567</ele><time>2026-04-18T11:56:19.54Z</time></trkpt><trkpt lat="46.0170587" lon="12.05213"><ele>405.2857142857143</ele><time>2026-04-18T11:56:23.537Z</time></trkpt><trkpt lat="46.0169934" lon="12.0521527"><ele>408.8571428571429</ele><time>2026-04-18T11:56:27.54Z</time></trkpt><trkpt lat="46.0169344" lon="12.0521901"><ele>412.4285714285714</ele><time>2026-04-18T11:56:30.537Z</time></trkpt><trkpt lat="46.016875" lon="12.0522521"><ele>416.0</ele><time>2026-04-18T11:56:33.539Z</time></trkpt><trkpt lat="46.0168167" lon="12.0523147"><ele>415.99999999999994</ele><time>2026-04-18T11:56:36.537Z</time></trkpt><trkpt lat="46.0167477" lon="12.0523379"><ele>416.0</ele><time>2026-04-18T11:56:39.539Z</time></trkpt><trkpt lat="46.0166844" lon="12.052281"><ele>416.0</ele><time>2026-04-18T11:56:43.543Z</time></trkpt><trkpt lat="46.0167101" lon="12.0521738"><ele>416.0</ele><time>2026-04-18T11:56:47.541Z</time></trkpt><trkpt lat="46.0167698" lon="12.0520895"><ele>415.99999999999994</ele><time>2026-04-18T11:56:51.537Z</time></trkpt><trkpt lat="46.016813" lon="12.0520231"><ele>416.0</ele><time>2026-04-18T11:56:54.54Z</time></trkpt><trkpt lat="46.0168681" lon="12.0519347"><ele>416.0</ele><time>2026-04-18T11:56:58.539Z</time></trkpt><trkpt lat="46.0169109" lon="12.0518581"><ele>416.0</ele><time>2026-04-18T11:57:01.538Z</time></trkpt><trkpt lat="46.0169498" lon="12.0517771"><ele>416.0</ele><time>2026-04-18T11:57:04.537Z</time></trkpt><trkpt lat="46.0169919" lon="12.0516925"><ele>416.0</ele><time>2026-04-18T11:57:07.538Z</time></trkpt><trkpt lat="46.0170345" lon="12.0516234"><ele>416.0</ele><time>2026-04-18T11:57:10.536Z</time></trkpt><trkpt lat="46.0170784" lon="12.0515562"><ele>416.0</ele><time>2026-04-18T11:57:13.539Z</time></trkpt><trkpt lat="46.0171348" lon="12.0515109"><ele>416.0</ele><time>2026-04-18T11:57:16.538Z</time></trkpt><trkpt lat="46.0171918" lon="12.0514601"><ele>415.7142857142857</ele><time>2026-04-18T11:57:19.538Z</time></trkpt><trkpt lat="46.0172434" lon="12.0514001"><ele>415.42857142857144</ele><time>2026-04-18T11:57:22.536Z</time></trkpt><trkpt lat="46.0173028" lon="12.0513432"><ele>415.14285714285717</ele><time>2026-04-18T11:57:25.538Z</time></trkpt><trkpt lat="46.0173668" lon="12.0512897"><ele>414.8571428571429</ele><time>2026-04-18T11:57:28.537Z</time></trkpt><trkpt lat="46.0174278" lon="12.0512382"><ele>414.57142857142856</ele><time>2026-04-18T11:57:31.538Z</time></trkpt><trkpt lat="46.0174802" lon="12.0511763"><ele>414.28571428571433</ele><time>2026-04-18T11:57:34.537Z</time></trkpt><trkpt lat="46.0175276" lon="12.0511161"><ele>414.0</ele><time>2026-04-18T11:57:37.537Z</time></trkpt><trkpt lat="46.0175742" lon="12.0510494"><ele>414.00000000000006</ele><time>2026-04-18T11:57:40.537Z</time></trkpt><trkpt lat="46.0176141" lon="12.0509764"><ele>414.0</ele><time>2026-04-18T11:57:43.54Z</time></trkpt><trkpt lat="46.0176565" lon="12.0509024"><ele>414.0</ele><time>2026-04-18T11:57:46.536Z</time></trkpt><trkpt lat="46.0176918" lon="12.0508172"><ele>414.0</ele><time>2026-04-18T11:57:49.537Z</time></trkpt><trkpt lat="46.0176544" lon="12.0507203"><ele>414.0</ele><time>2026-04-18T11:57:53.539Z</time></trkpt><trkpt lat="46.0175839" lon="12.0507301"><ele>414.00000000000006</ele><time>2026-04-18T11:57:56.538Z</time></trkpt><trkpt lat="46.0175195" lon="12.0507762"><ele>414.0</ele><time>2026-04-18T11:57:59.537Z</time></trkpt><trkpt lat="46.0174559" lon="12.0508243"><ele>417.42857142857144</ele><time>2026-04-18T11:58:02.536Z</time></trkpt><trkpt lat="46.0173787" lon="12.0508324"><ele>420.8571428571429</ele><time>2026-04-18T11:58:05.538Z</time></trkpt><trkpt lat="46.0173021" lon="12.0508314"><ele>424.28571428571433</ele><time>2026-04-18T11:58:08.539Z</time></trkpt><trkpt lat="46.0172276" lon="12.0508381"><ele>427.7142857142857</ele><time>2026-04-18T11:58:11.538Z</time></trkpt><trkpt lat="46.0171578" lon="12.0508543"><ele>431.1428571428571</ele><time>2026-04-18T11:58:14.536Z</time></trkpt><trkpt lat="46.0170864" lon="12.0508784"><ele>434.5714285714286</ele><time>2026-04-18T11:58:17.539Z</time></trkpt><trkpt lat="46.0170179" lon="12.0508973"><ele>438.0</ele><time>2026-04-18T11:58:20.537Z</time></trkpt><trkpt lat="46.0169467" lon="12.0509193"><ele>438.0</ele><time>2026-04-18T11:58:23.537Z</time></trkpt><trkpt lat="46.0168807" lon="12.0509537"><ele>438.0</ele><time>2026-04-18T11:58:26.537Z</time></trkpt><trkpt lat="46.0168236" lon="12.0509999"><ele>438.0</ele><time>2026-04-18T11:58:29.539Z</time></trkpt><trkpt lat="46.0167659" lon="12.0510513"><ele>438.0</ele><time>2026-04-18T11:58:32.539Z</time></trkpt><trkpt lat="46.0167058" lon="12.0511086"><ele>438.0</ele><time>2026-04-18T11:58:35.538Z</time></trkpt><trkpt lat="46.0166493" lon="12.0511585"><ele>438.0</ele><time>2026-04-18T11:58:38.537Z</time></trkpt><trkpt lat="46.0165926" lon="12.0512089"><ele>438.0</ele><time>2026-04-18T11:58:41.538Z</time></trkpt><trkpt lat="46.0165297" lon="12.0512363"><ele>440.14285714285717</ele><time>2026-04-18T11:58:44.538Z</time></trkpt><trkpt lat="46.0164513" lon="12.0512502"><ele>442.2857142857142</ele><time>2026-04-18T11:58:48.536Z</time></trkpt><trkpt lat="46.016383" lon="12.0512279"><ele>444.4285714285714</ele><time>2026-04-18T11:58:51.537Z</time></trkpt><trkpt lat="46.0163164" lon="12.0511973"><ele>446.57142857142856</ele><time>2026-04-18T11:58:54.535Z</time></trkpt><trkpt lat="46.0162431" lon="12.0511587"><ele>448.71428571428567</ele><time>2026-04-18T11:58:57.537Z</time></trkpt><trkpt lat="46.0161746" lon="12.0511201"><ele>450.8571428571428</ele><time>2026-04-18T11:59:00.539Z</time></trkpt><trkpt lat="46.0161109" lon="12.0510805"><ele>452.99999999999994</ele><time>2026-04-18T11:59:03.536Z</time></trkpt><trkpt lat="46.0160313" lon="12.0510469"><ele>452.99999999999994</ele><time>2026-04-18T11:59:06.538Z</time></trkpt><trkpt lat="46.0159567" lon="12.0510176"><ele>453.0</ele><time>2026-04-18T11:59:09.538Z</time></trkpt><trkpt lat="46.015888" lon="12.0509971"><ele>452.99999999999994</ele><time>2026-04-18T11:59:12.539Z</time></trkpt><trkpt lat="46.0158182" lon="12.0509926"><ele>452.99999999999994</ele><time>2026-04-18T11:59:15.539Z</time></trkpt><trkpt lat="46.0157524" lon="12.0509921"><ele>453.0</ele><time>2026-04-18T11:59:18.536Z</time></trkpt><trkpt lat="46.0156794" lon="12.0509828"><ele>452.99999999999994</ele><time>2026-04-18T11:59:21.537Z</time></trkpt><trkpt lat="46.0156228" lon="12.0509194"><ele>452.99999999999994</ele><time>2026-04-18T11:59:24.537Z</time></trkpt><trkpt lat="46.0155715" lon="12.0508369"><ele>454.8333333333333</ele><time>2026-04-18T11:59:27.539Z</time></trkpt><trkpt lat="46.015522" lon="12.0507591"><ele>456.66666666666663</ele><time>2026-04-18T11:59:30.537Z</time></trkpt><trkpt lat="46.0154758" lon="12.0506695"><ele>458.5</ele><time>2026-04-18T11:59:33.537Z</time></trkpt><trkpt lat="46.0154244" lon="12.0505771"><ele>460.3333333333333</ele><time>2026-04-18T11:59:36.536Z</time></trkpt><trkpt lat="46.015359" lon="12.0505048"><ele>462.16666666666663</ele><time>2026-04-18T11:59:39.537Z</time></trkpt><trkpt lat="46.0153017" lon="12.0504257"><ele>464.0</ele><time>2026-04-18T11:59:42.536Z</time></trkpt><trkpt lat="46.015261" lon="12.050356"><ele>464.00000000000006</ele><time>2026-04-18T11:59:44.539Z</time></trkpt><trkpt lat="46.0152009" lon="12.0502955"><ele>464.0</ele><time>2026-04-18T11:59:46.537Z</time></trkpt><trkpt lat="46.0151427" lon="12.0502501"><ele>464.00000000000006</ele><time>2026-04-18T11:59:48.537Z</time></trkpt><trkpt lat="46.0150814" lon="12.0502163"><ele>464.00000000000006</ele><time>2026-04-18T11:59:50.538Z</time></trkpt><trkpt lat="46.0150174" lon="12.0502102"><ele>464.0</ele><time>2026-04-18T11:59:52.539Z</time></trkpt><trkpt lat="46.0149314" lon="12.0502373"><ele>464.00000000000006</ele><time>2026-04-18T11:59:55.536Z</time></trkpt><trkpt lat="46.0148513" lon="12.0502901"><ele>464.00000000000006</ele><time>2026-04-18T11:59:58.536Z</time></trkpt><trkpt lat="46.014791" lon="12.050337"><ele>465.3333333333333</ele><time>2026-04-18T12:00:00.538Z</time></trkpt><trkpt lat="46.0147211" lon="12.0504069"><ele>466.66666666666663</ele><time>2026-04-18T12:00:03.537Z</time></trkpt><trkpt lat="46.0146563" lon="12.0504868"><ele>468.0</ele><time>2026-04-18T12:00:06.538Z</time></trkpt><trkpt lat="46.0145919" lon="12.050557"><ele>469.33333333333337</ele><time>2026-04-18T12:00:09.536Z</time></trkpt><trkpt lat="46.0145289" lon="12.0506457"><ele>470.6666666666667</ele><time>2026-04-18T12:00:12.537Z</time></trkpt><trkpt lat="46.0144521" lon="12.0507174"><ele>472.0</ele><time>2026-04-18T12:00:15.537Z</time></trkpt><trkpt lat="46.0143687" lon="12.0507393"><ele>472.00000000000006</ele><time>2026-04-18T12:00:18.535Z</time></trkpt><trkpt lat="46.0142871" lon="12.0507427"><ele>472.0</ele><time>2026-04-18T12:00:21.538Z</time></trkpt><trkpt lat="46.0142073" lon="12.0507363"><ele>472.0</ele><time>2026-04-18T12:00:24.538Z</time></trkpt><trkpt lat="46.0141328" lon="12.0507054"><ele>472.0</ele><time>2026-04-18T12:00:27.536Z</time></trkpt><trkpt lat="46.0140572" lon="12.0506847"><ele>472.00000000000006</ele><time>2026-04-18T12:00:30.537Z</time></trkpt><trkpt lat="46.0139802" lon="12.0506626"><ele>472.0</ele><time>2026-04-18T12:00:33.538Z</time></trkpt><trkpt lat="46.0139077" lon="12.0506608"><ele>473.57142857142856</ele><time>2026-04-18T12:00:36.538Z</time></trkpt><trkpt lat="46.0138373" lon="12.05065"><ele>475.14285714285717</ele><time>2026-04-18T12:00:39.537Z</time></trkpt><trkpt lat="46.0137654" lon="12.0506523"><ele>476.7142857142857</ele><time>2026-04-18T12:00:42.537Z</time></trkpt><trkpt lat="46.0136895" lon="12.0506574"><ele>478.2857142857143</ele><time>2026-04-18T12:00:45.537Z</time></trkpt><trkpt lat="46.0136168" lon="12.0506651"><ele>479.8571428571429</ele><time>2026-04-18T12:00:48.539Z</time></trkpt><trkpt lat="46.0135465" lon="12.0506741"><ele>481.42857142857144</ele><time>2026-04-18T12:00:51.538Z</time></trkpt><trkpt lat="46.0134655" lon="12.0506713"><ele>483.0</ele><time>2026-04-18T12:00:54.536Z</time></trkpt><trkpt lat="46.0133867" lon="12.0506507"><ele>483.6666666666667</ele><time>2026-04-18T12:00:57.536Z</time></trkpt><trkpt lat="46.0133154" lon="12.0506112"><ele>484.33333333333337</ele><time>2026-04-18T12:01:00.54Z</time></trkpt><trkpt lat="46.013233" lon="12.0505771"><ele>485.0</ele><time>2026-04-18T12:01:03.537Z</time></trkpt><trkpt lat="46.0131536" lon="12.050548"><ele>485.6666666666667</ele><time>2026-04-18T12:01:06.537Z</time></trkpt><trkpt lat="46.0130764" lon="12.0505349"><ele>486.33333333333337</ele><time>2026-04-18T12:01:09.539Z</time></trkpt><trkpt lat="46.0129901" lon="12.0505211"><ele>487.0</ele><time>2026-04-18T12:01:13.534Z</time></trkpt><trkpt lat="46.0129067" lon="12.0505051"><ele>487.00000000000006</ele><time>2026-04-18T12:01:16.536Z</time></trkpt><trkpt lat="46.0128296" lon="12.0504873"><ele>487.0</ele><time>2026-04-18T12:01:19.535Z</time></trkpt><trkpt lat="46.0127556" lon="12.0504791"><ele>487.0</ele><time>2026-04-18T12:01:22.537Z</time></trkpt><trkpt lat="46.0126767" lon="12.0504687"><ele>487.0</ele><time>2026-04-18T12:01:25.537Z</time></trkpt><trkpt lat="46.012602" lon="12.0504512"><ele>487.00000000000006</ele><time>2026-04-18T12:01:28.537Z</time></trkpt><trkpt lat="46.0125268" lon="12.0504473"><ele>487.0</ele><time>2026-04-18T12:01:31.536Z</time></trkpt><trkpt lat="46.012458" lon="12.050468"><ele>486.50000000000006</ele><time>2026-04-18T12:01:34.539Z</time></trkpt><trkpt lat="46.0123934" lon="12.0504929"><ele>486.0</ele><time>2026-04-18T12:01:37.538Z</time></trkpt><trkpt lat="46.0123147" lon="12.0505216"><ele>485.5</ele><time>2026-04-18T12:01:41.537Z</time></trkpt><trkpt lat="46.0122332" lon="12.0505416"><ele>485.0</ele><time>2026-04-18T12:01:45.537Z</time></trkpt><trkpt lat="46.0121675" lon="12.0505512"><ele>484.50000000000006</ele><time>2026-04-18T12:01:48.537Z</time></trkpt><trkpt lat="46.0120922" lon="12.0505411"><ele>484.0</ele><time>2026-04-18T12:01:52.537Z</time></trkpt><trkpt lat="46.0120115" lon="12.0505335"><ele>484.00000000000006</ele><time>2026-04-18T12:01:56.539Z</time></trkpt><trkpt lat="46.0119321" lon="12.0505069"><ele>484.0</ele><time>2026-04-18T12:02:00.539Z</time></trkpt><trkpt lat="46.0118625" lon="12.0504857"><ele>484.0</ele><time>2026-04-18T12:02:03.54Z</time></trkpt><trkpt lat="46.0117894" lon="12.0504763"><ele>484.0</ele><time>2026-04-18T12:02:06.537Z</time></trkpt><trkpt lat="46.0117173" lon="12.0504597"><ele>484.00000000000006</ele><time>2026-04-18T12:02:09.537Z</time></trkpt><trkpt lat="46.0116416" lon="12.0504553"><ele>484.0</ele><time>2026-04-18T12:02:12.537Z</time></trkpt><trkpt lat="46.0115627" lon="12.0504376"><ele>486.1428571428571</ele><time>2026-04-18T12:02:15.536Z</time></trkpt><trkpt lat="46.0114937" lon="12.0503902"><ele>488.2857142857142</ele><time>2026-04-18T12:02:18.536Z</time></trkpt><trkpt lat="46.0114378" lon="12.0503315"><ele>490.42857142857144</ele><time>2026-04-18T12:02:21.537Z</time></trkpt><trkpt lat="46.0113809" lon="12.0502828"><ele>492.57142857142856</ele><time>2026-04-18T12:02:24.538Z</time></trkpt><trkpt lat="46.0113191" lon="12.0503404"><ele>494.7142857142857</ele><time>2026-04-18T12:02:28.536Z</time></trkpt><trkpt lat="46.0113603" lon="12.0504166"><ele>496.8571428571429</ele><time>2026-04-18T12:02:31.534Z</time></trkpt><trkpt lat="46.0114174" lon="12.0504748"><ele>499.00000000000006</ele><time>2026-04-18T12:02:34.537Z</time></trkpt><trkpt lat="46.011481" lon="12.0505399"><ele>499.00000000000006</ele><time>2026-04-18T12:02:37.537Z</time></trkpt><trkpt lat="46.0115452" lon="12.050602"><ele>499.0</ele><time>2026-04-18T12:02:40.535Z</time></trkpt><trkpt lat="46.0116077" lon="12.0506551"><ele>499.00000000000006</ele><time>2026-04-18T12:02:43.537Z</time></trkpt><trkpt lat="46.0116675" lon="12.0507078"><ele>499.00000000000006</ele><time>2026-04-18T12:02:46.537Z</time></trkpt><trkpt lat="46.0117273" lon="12.0507503"><ele>499.0</ele><time>2026-04-18T12:02:49.538Z</time></trkpt><trkpt lat="46.0117861" lon="12.0507996"><ele>499.00000000000006</ele><time>2026-04-18T12:02:52.537Z</time></trkpt><trkpt lat="46.011828" lon="12.0508836"><ele>499.00000000000006</ele><time>2026-04-18T12:02:56.537Z</time></trkpt><trkpt lat="46.0118515" lon="12.0509677"><ele>499.50000000000006</ele><time>2026-04-18T12:03:00.536Z</time></trkpt><trkpt lat="46.0117832" lon="12.0509312"><ele>500.0</ele><time>2026-04-18T12:04:57.538Z</time></trkpt><trkpt lat="46.0117168" lon="12.0508947"><ele>500.5</ele><time>2026-04-18T12:05:00.536Z</time></trkpt><trkpt lat="46.0116504" lon="12.0508822"><ele>501.0</ele><time>2026-04-18T12:05:03.537Z</time></trkpt><trkpt lat="46.0115708" lon="12.0508773"><ele>501.50000000000006</ele><time>2026-04-18T12:05:07.535Z</time></trkpt><trkpt lat="46.0114949" lon="12.0508666"><ele>502.0</ele><time>2026-04-18T12:05:11.539Z</time></trkpt><trkpt lat="46.0114096" lon="12.0508552"><ele>501.50000000000006</ele><time>2026-04-18T12:05:15.539Z</time></trkpt><trkpt lat="46.0113265" lon="12.0508369"><ele>501.0</ele><time>2026-04-18T12:05:19.538Z</time></trkpt><trkpt lat="46.0112597" lon="12.0508303"><ele>500.5</ele><time>2026-04-18T12:05:22.537Z</time></trkpt><trkpt lat="46.0111757" lon="12.0508154"><ele>500.0</ele><time>2026-04-18T12:05:26.535Z</time></trkpt><trkpt lat="46.0111085" lon="12.0508139"><ele>499.50000000000006</ele><time>2026-04-18T12:05:29.538Z</time></trkpt><trkpt lat="46.0110222" lon="12.0508061"><ele>499.0</ele><time>2026-04-18T12:05:32.538Z</time></trkpt><trkpt lat="46.010945" lon="12.0507715"><ele>499.00000000000006</ele><time>2026-04-18T12:05:35.539Z</time></trkpt><trkpt lat="46.0108818" lon="12.0507403"><ele>499.0</ele><time>2026-04-18T12:05:38.534Z</time></trkpt><trkpt lat="46.0108129" lon="12.050715"><ele>499.00000000000006</ele><time>2026-04-18T12:05:41.536Z</time></trkpt><trkpt lat="46.010741" lon="12.0506824"><ele>499.00000000000006</ele><time>2026-04-18T12:05:44.536Z</time></trkpt><trkpt lat="46.0106689" lon="12.0506587"><ele>499.0</ele><time>2026-04-18T12:05:47.535Z</time></trkpt><trkpt lat="46.0105897" lon="12.0506289"><ele>499.00000000000006</ele><time>2026-04-18T12:05:50.536Z</time></trkpt><trkpt lat="46.0105203" lon="12.0505966"><ele>499.00000000000006</ele><time>2026-04-18T12:05:53.537Z</time></trkpt><trkpt lat="46.0104485" lon="12.0505628"><ele>502.33333333333337</ele><time>2026-04-18T12:05:56.537Z</time></trkpt><trkpt lat="46.0103782" lon="12.0505235"><ele>505.6666666666667</ele><time>2026-04-18T12:05:59.538Z</time></trkpt><trkpt lat="46.0103063" lon="12.0504788"><ele>509.0</ele><time>2026-04-18T12:06:02.538Z</time></trkpt><trkpt lat="46.0102338" lon="12.0504228"><ele>512.3333333333334</ele><time>2026-04-18T12:06:05.536Z</time></trkpt><trkpt lat="46.0101643" lon="12.0503706"><ele>515.6666666666666</ele><time>2026-04-18T12:06:08.537Z</time></trkpt><trkpt lat="46.0101051" lon="12.0503068"><ele>519.0</ele><time>2026-04-18T12:06:11.537Z</time></trkpt><trkpt lat="46.0100408" lon="12.0502344"><ele>522.3333333333334</ele><time>2026-04-18T12:06:14.536Z</time></trkpt><trkpt lat="46.0099691" lon="12.0501761"><ele>525.6666666666666</ele><time>2026-04-18T12:06:17.537Z</time></trkpt><trkpt lat="46.0099153" lon="12.0500962"><ele>529.0</ele><time>2026-04-18T12:06:20.537Z</time></trkpt><trkpt lat="46.0098705" lon="12.0500099"><ele>532.3333333333333</ele><time>2026-04-18T12:06:23.536Z</time></trkpt><trkpt lat="46.0098003" lon="12.0499403"><ele>535.6666666666666</ele><time>2026-04-18T12:06:26.536Z</time></trkpt><trkpt lat="46.00975" lon="12.0498658"><ele>539.0</ele><time>2026-04-18T12:06:29.537Z</time></trkpt><trkpt lat="46.0096868" lon="12.0497952"><ele>539.0</ele><time>2026-04-18T12:06:32.536Z</time></trkpt><trkpt lat="46.0096198" lon="12.0497257"><ele>539.0</ele><time>2026-04-18T12:06:35.537Z</time></trkpt><trkpt lat="46.0095564" lon="12.0496554"><ele>539.0</ele><time>2026-04-18T12:06:38.538Z</time></trkpt><trkpt lat="46.0095026" lon="12.0495937"><ele>539.0</ele><time>2026-04-18T12:06:41.537Z</time></trkpt><trkpt lat="46.0094373" lon="12.0495244"><ele>539.0</ele><time>2026-04-18T12:06:44.539Z</time></trkpt><trkpt lat="46.0093791" lon="12.0494583"><ele>539.0</ele><time>2026-04-18T12:06:47.537Z</time></trkpt><trkpt lat="46.0093284" lon="12.0493878"><ele>539.0</ele><time>2026-04-18T12:06:50.537Z</time></trkpt><trkpt lat="46.0092765" lon="12.0493072"><ele>539.0</ele><time>2026-04-18T12:06:53.535Z</time></trkpt><trkpt lat="46.0092265" lon="12.049221"><ele>539.0</ele><time>2026-04-18T12:06:56.537Z</time></trkpt><trkpt lat="46.0091801" lon="12.0491368"><ele>539.0</ele><time>2026-04-18T12:06:59.536Z</time></trkpt><trkpt lat="46.0091456" lon="12.0490492"><ele>539.0</ele><time>2026-04-18T12:07:02.536Z</time></trkpt><trkpt lat="46.0091239" lon="12.0489445"><ele>539.0</ele><time>2026-04-18T12:07:06.537Z</time></trkpt><trkpt lat="46.0091336" lon="12.0488487"><ele>539.0</ele><time>2026-04-18T12:07:09.536Z</time></trkpt><trkpt lat="46.0091495" lon="12.0487288"><ele>538.0</ele><time>2026-04-18T12:07:12.535Z</time></trkpt><trkpt lat="46.0091544" lon="12.0485995"><ele>537.0</ele><time>2026-04-18T12:07:15.536Z</time></trkpt><trkpt lat="46.0091451" lon="12.048469"><ele>536.0</ele><time>2026-04-18T12:07:18.537Z</time></trkpt><trkpt lat="46.0091216" lon="12.0483465"><ele>535.0</ele><time>2026-04-18T12:07:21.537Z</time></trkpt><trkpt lat="46.0090996" lon="12.0482524"><ele>534.0</ele><time>2026-04-18T12:07:23.536Z</time></trkpt><trkpt lat="46.0090743" lon="12.0481505"><ele>533.0</ele><time>2026-04-18T12:07:25.534Z</time></trkpt><trkpt lat="46.0090378" lon="12.0480443"><ele>533.0</ele><time>2026-04-18T12:07:27.536Z</time></trkpt><trkpt lat="46.0089968" lon="12.0479417"><ele>533.0</ele><time>2026-04-18T12:07:29.535Z</time></trkpt><trkpt lat="46.0089553" lon="12.0478455"><ele>533.0</ele><time>2026-04-18T12:07:31.534Z</time></trkpt><trkpt lat="46.0089113" lon="12.0477554"><ele>533.0</ele><time>2026-04-18T12:07:33.537Z</time></trkpt><trkpt lat="46.0088681" lon="12.0476809"><ele>533.0</ele><time>2026-04-18T12:07:35.536Z</time></trkpt><trkpt lat="46.0088189" lon="12.0476236"><ele>533.0</ele><time>2026-04-18T12:07:37.535Z</time></trkpt><trkpt lat="46.0087587" lon="12.047585"><ele>533.0</ele><time>2026-04-18T12:07:39.537Z</time></trkpt><trkpt lat="46.0086878" lon="12.0475538"><ele>533.0</ele><time>2026-04-18T12:07:41.537Z</time></trkpt><trkpt lat="46.0086201" lon="12.0475274"><ele>533.0</ele><time>2026-04-18T12:07:43.536Z</time></trkpt><trkpt lat="46.0085492" lon="12.0475063"><ele>533.0</ele><time>2026-04-18T12:07:45.536Z</time></trkpt><trkpt lat="46.008482" lon="12.0474878"><ele>533.0</ele><time>2026-04-18T12:07:47.537Z</time></trkpt><trkpt lat="46.0084168" lon="12.0474649"><ele>533.0</ele><time>2026-04-18T12:07:49.537Z</time></trkpt><trkpt lat="46.0083208" lon="12.047458"><ele>533.0</ele><time>2026-04-18T12:07:52.536Z</time></trkpt><trkpt lat="46.0082565" lon="12.0474523"><ele>533.0</ele><time>2026-04-18T12:07:54.535Z</time></trkpt><trkpt lat="46.008187" lon="12.0474449"><ele>537.7142857142857</ele><time>2026-04-18T12:07:56.537Z</time></trkpt><trkpt lat="46.0081232" lon="12.0474303"><ele>542.4285714285713</ele><time>2026-04-18T12:07:58.537Z</time></trkpt><trkpt lat="46.008061" lon="12.0474142"><ele>547.1428571428571</ele><time>2026-04-18T12:08:00.536Z</time></trkpt><trkpt lat="46.00801" lon="12.047353"><ele>551.8571428571429</ele><time>2026-04-18T12:08:02.536Z</time></trkpt><trkpt lat="46.0079864" lon="12.0472562"><ele>556.5714285714287</ele><time>2026-04-18T12:08:04.537Z</time></trkpt><trkpt lat="46.0080021" lon="12.047166"><ele>561.2857142857143</ele><time>2026-04-18T12:08:06.536Z</time></trkpt><trkpt lat="46.0080617" lon="12.0470561"><ele>566.0</ele><time>2026-04-18T12:08:09.537Z</time></trkpt><trkpt lat="46.0080989" lon="12.0469789"><ele>566.0</ele><time>2026-04-18T12:08:11.537Z</time></trkpt><trkpt lat="46.00812" lon="12.0468903"><ele>566.0</ele><time>2026-04-18T12:08:13.536Z</time></trkpt><trkpt lat="46.0081508" lon="12.0467615"><ele>566.0</ele><time>2026-04-18T12:08:16.536Z</time></trkpt><trkpt lat="46.008165" lon="12.0466591"><ele>566.0</ele><time>2026-04-18T12:08:18.537Z</time></trkpt><trkpt lat="46.0081784" lon="12.0465631"><ele>566.0</ele><time>2026-04-18T12:08:20.537Z</time></trkpt><trkpt lat="46.0081775" lon="12.0464667"><ele>566.0</ele><time>2026-04-18T12:08:22.537Z</time></trkpt><trkpt lat="46.0081692" lon="12.0463364"><ele>564.5</ele><time>2026-04-18T12:08:25.536Z</time></trkpt><trkpt lat="46.0081693" lon="12.046211"><ele>563.0</ele><time>2026-04-18T12:08:28.536Z</time></trkpt><trkpt lat="46.0081741" lon="12.0460953"><ele>561.5</ele><time>2026-04-18T12:08:31.539Z</time></trkpt><trkpt lat="46.0081877" lon="12.0459865"><ele>560.0</ele><time>2026-04-18T12:08:34.536Z</time></trkpt><trkpt lat="46.0081753" lon="12.0458922"><ele>558.5</ele><time>2026-04-18T12:08:37.536Z</time></trkpt><trkpt lat="46.0081415" lon="12.0457975"><ele>557.0</ele><time>2026-04-18T12:08:40.536Z</time></trkpt><trkpt lat="46.0080988" lon="12.0456851"><ele>555.6666666666666</ele><time>2026-04-18T12:08:43.535Z</time></trkpt><trkpt lat="46.0080463" lon="12.0455916"><ele>554.3333333333333</ele><time>2026-04-18T12:08:46.537Z</time></trkpt><trkpt lat="46.0079879" lon="12.0454983"><ele>553.0</ele><time>2026-04-18T12:08:49.536Z</time></trkpt><trkpt lat="46.0079364" lon="12.0454293"><ele>551.6666666666666</ele><time>2026-04-18T12:08:51.54Z</time></trkpt><trkpt lat="46.0078829" lon="12.0453513"><ele>550.3333333333334</ele><time>2026-04-18T12:08:53.538Z</time></trkpt><trkpt lat="46.007823" lon="12.0452606"><ele>549.0</ele><time>2026-04-18T12:08:55.538Z</time></trkpt><trkpt lat="46.0077623" lon="12.0451574"><ele>549.0</ele><time>2026-04-18T12:08:57.537Z</time></trkpt><trkpt lat="46.0077146" lon="12.0450378"><ele>549.0</ele><time>2026-04-18T12:08:59.538Z</time></trkpt><trkpt lat="46.0077137" lon="12.0449087"><ele>549.0</ele><time>2026-04-18T12:09:01.539Z</time></trkpt><trkpt lat="46.0077353" lon="12.0448013"><ele>549.0</ele><time>2026-04-18T12:09:03.538Z</time></trkpt><trkpt lat="46.0077636" lon="12.0446992"><ele>549.0</ele><time>2026-04-18T12:09:05.54Z</time></trkpt><trkpt lat="46.0078004" lon="12.0445954"><ele>549.0</ele><time>2026-04-18T12:09:08.54Z</time></trkpt><trkpt lat="46.0078212" lon="12.0445087"><ele>547.8</ele><time>2026-04-18T12:09:10.538Z</time></trkpt><trkpt lat="46.0078368" lon="12.044388"><ele>546.5999999999999</ele><time>2026-04-18T12:09:13.537Z</time></trkpt><trkpt lat="46.0078129" lon="12.0442672"><ele>545.4</ele><time>2026-04-18T12:09:15.539Z</time></trkpt><trkpt lat="46.0077867" lon="12.0441353"><ele>544.1999999999999</ele><time>2026-04-18T12:09:17.537Z</time></trkpt><trkpt lat="46.0077522" lon="12.0440003"><ele>543.0</ele><time>2026-04-18T12:09:19.539Z</time></trkpt><trkpt lat="46.0077087" lon="12.0438844"><ele>541.0</ele><time>2026-04-18T12:09:21.539Z</time></trkpt><trkpt lat="46.0076598" lon="12.043772"><ele>539.0</ele><time>2026-04-18T12:09:23.536Z</time></trkpt><trkpt lat="46.007626" lon="12.0436562"><ele>537.0</ele><time>2026-04-18T12:09:25.536Z</time></trkpt><trkpt lat="46.0075905" lon="12.043563"><ele>535.0</ele><time>2026-04-18T12:09:27.538Z</time></trkpt><trkpt lat="46.007555" lon="12.0434794"><ele>533.0</ele><time>2026-04-18T12:09:29.54Z</time></trkpt><trkpt lat="46.007512" lon="12.0433977"><ele>531.0</ele><time>2026-04-18T12:09:31.539Z</time></trkpt><trkpt lat="46.0074466" lon="12.043327"><ele>534.1666666666666</ele><time>2026-04-18T12:09:34.537Z</time></trkpt><trkpt lat="46.0073853" lon="12.0432959"><ele>537.3333333333334</ele><time>2026-04-18T12:09:36.538Z</time></trkpt><trkpt lat="46.0073109" lon="12.0432118"><ele>540.5</ele><time>2026-04-18T12:09:39.54Z</time></trkpt><trkpt lat="46.0072969" lon="12.0430852"><ele>543.6666666666667</ele><time>2026-04-18T12:09:42.536Z</time></trkpt><trkpt lat="46.0073014" lon="12.0429877"><ele>546.8333333333334</ele><time>2026-04-18T12:09:44.536Z</time></trkpt><trkpt lat="46.0073118" lon="12.0428921"><ele>550.0</ele><time>2026-04-18T12:09:46.535Z</time></trkpt><trkpt lat="46.0073168" lon="12.0427898"><ele>550.0</ele><time>2026-04-18T12:09:48.535Z</time></trkpt><trkpt lat="46.0073292" lon="12.0426637"><ele>550.0</ele><time>2026-04-18T12:09:51.537Z</time></trkpt><trkpt lat="46.0073259" lon="12.0425367"><ele>550.0</ele><time>2026-04-18T12:09:54.536Z</time></trkpt><trkpt lat="46.0072906" lon="12.042422"><ele>550.0</ele><time>2026-04-18T12:09:57.536Z</time></trkpt><trkpt lat="46.0072466" lon="12.0423479"><ele>550.0</ele><time>2026-04-18T12:09:59.537Z</time></trkpt><trkpt lat="46.007193" lon="12.0422819"><ele>550.0</ele><time>2026-04-18T12:10:01.538Z</time></trkpt><trkpt lat="46.0071333" lon="12.0422197"><ele>547.4285714285714</ele><time>2026-04-18T12:10:03.538Z</time></trkpt><trkpt lat="46.0070821" lon="12.0421643"><ele>544.8571428571429</ele><time>2026-04-18T12:10:05.538Z</time></trkpt><trkpt lat="46.0070295" lon="12.0420973"><ele>542.2857142857142</ele><time>2026-04-18T12:10:07.537Z</time></trkpt><trkpt lat="46.0069741" lon="12.0420307"><ele>539.7142857142858</ele><time>2026-04-18T12:10:09.537Z</time></trkpt><trkpt lat="46.006921" lon="12.0419571"><ele>537.1428571428571</ele><time>2026-04-18T12:10:11.538Z</time></trkpt><trkpt lat="46.0068578" lon="12.0418959"><ele>534.5714285714286</ele><time>2026-04-18T12:10:13.537Z</time></trkpt><trkpt lat="46.0067896" lon="12.0418413"><ele>532.0</ele><time>2026-04-18T12:10:15.537Z</time></trkpt><trkpt lat="46.0067231" lon="12.041792"><ele>532.0</ele><time>2026-04-18T12:10:17.538Z</time></trkpt><trkpt lat="46.0066623" lon="12.0417451"><ele>532.0</ele><time>2026-04-18T12:10:19.536Z</time></trkpt><trkpt lat="46.0066037" lon="12.0417082"><ele>532.0</ele><time>2026-04-18T12:10:21.537Z</time></trkpt><trkpt lat="46.0065155" lon="12.0416648"><ele>532.0</ele><time>2026-04-18T12:10:24.536Z</time></trkpt><trkpt lat="46.0064282" lon="12.0416273"><ele>532.0</ele><time>2026-04-18T12:10:27.539Z</time></trkpt><trkpt lat="46.0063374" lon="12.0416051"><ele>532.0</ele><time>2026-04-18T12:10:30.538Z</time></trkpt><trkpt lat="46.0062719" lon="12.0416022"><ele>533.5</ele><time>2026-04-18T12:10:32.54Z</time></trkpt><trkpt lat="46.0061993" lon="12.0416139"><ele>535.0</ele><time>2026-04-18T12:10:34.538Z</time></trkpt><trkpt lat="46.0061223" lon="12.0416296"><ele>536.5</ele><time>2026-04-18T12:10:36.539Z</time></trkpt><trkpt lat="46.0060381" lon="12.041644"><ele>538.0</ele><time>2026-04-18T12:10:38.537Z</time></trkpt><trkpt lat="46.0059453" lon="12.0416636"><ele>539.5</ele><time>2026-04-18T12:10:40.537Z</time></trkpt><trkpt lat="46.0058571" lon="12.0416686"><ele>541.0</ele><time>2026-04-18T12:10:42.538Z</time></trkpt><trkpt lat="46.0057739" lon="12.0416729"><ele>544.0</ele><time>2026-04-18T12:10:44.54Z</time></trkpt><trkpt lat="46.0056915" lon="12.0416841"><ele>547.0</ele><time>2026-04-18T12:10:46.539Z</time></trkpt><trkpt lat="46.0056041" lon="12.0416959"><ele>550.0</ele><time>2026-04-18T12:10:48.536Z</time></trkpt><trkpt lat="46.0055172" lon="12.041717"><ele>553.0</ele><time>2026-04-18T12:10:50.538Z</time></trkpt><trkpt lat="46.0054403" lon="12.0417369"><ele>556.0</ele><time>2026-04-18T12:10:52.538Z</time></trkpt><trkpt lat="46.0053571" lon="12.0417545"><ele>559.0</ele><time>2026-04-18T12:10:54.538Z</time></trkpt><trkpt lat="46.0052889" lon="12.0417679"><ele>559.0</ele><time>2026-04-18T12:10:56.538Z</time></trkpt><trkpt lat="46.0052263" lon="12.0417951"><ele>559.0</ele><time>2026-04-18T12:10:58.536Z</time></trkpt><trkpt lat="46.0051619" lon="12.0418322"><ele>559.0</ele><time>2026-04-18T12:11:00.538Z</time></trkpt><trkpt lat="46.0050933" lon="12.0417946"><ele>559.0</ele><time>2026-04-18T12:11:03.54Z</time></trkpt><trkpt lat="46.005132" lon="12.0416761"><ele>559.0</ele><time>2026-04-18T12:11:06.537Z</time></trkpt><trkpt lat="46.0051647" lon="12.0415754"><ele>559.0</ele><time>2026-04-18T12:11:08.538Z</time></trkpt><trkpt lat="46.0051787" lon="12.0414627"><ele>554.3333333333334</ele><time>2026-04-18T12:11:10.536Z</time></trkpt><trkpt lat="46.0051972" lon="12.0413515"><ele>549.6666666666667</ele><time>2026-04-18T12:11:12.534Z</time></trkpt><trkpt lat="46.0052222" lon="12.0412406"><ele>545.0</ele><time>2026-04-18T12:11:14.534Z</time></trkpt><trkpt lat="46.0052251" lon="12.041123"><ele>540.3333333333334</ele><time>2026-04-18T12:11:16.535Z</time></trkpt><trkpt lat="46.0052212" lon="12.0410051"><ele>535.6666666666666</ele><time>2026-04-18T12:11:18.536Z</time></trkpt><trkpt lat="46.0052149" lon="12.040899"><ele>531.0</ele><time>2026-04-18T12:11:20.538Z</time></trkpt><trkpt lat="46.0051775" lon="12.0408027"><ele>527.1666666666666</ele><time>2026-04-18T12:11:22.537Z</time></trkpt><trkpt lat="46.0051134" lon="12.0407134"><ele>523.3333333333334</ele><time>2026-04-18T12:11:24.535Z</time></trkpt><trkpt lat="46.0050493" lon="12.0406517"><ele>519.5</ele><time>2026-04-18T12:11:26.535Z</time></trkpt><trkpt lat="46.0049793" lon="12.040602"><ele>515.6666666666667</ele><time>2026-04-18T12:11:28.534Z</time></trkpt><trkpt lat="46.0049141" lon="12.040557"><ele>511.83333333333337</ele><time>2026-04-18T12:11:30.536Z</time></trkpt><trkpt lat="46.0048393" lon="12.0405197"><ele>508.0</ele><time>2026-04-18T12:11:32.536Z</time></trkpt><trkpt lat="46.0047641" lon="12.0404959"><ele>508.00000000000006</ele><time>2026-04-18T12:11:34.537Z</time></trkpt><trkpt lat="46.0046843" lon="12.0404891"><ele>508.0</ele><time>2026-04-18T12:11:36.536Z</time></trkpt><trkpt lat="46.0046094" lon="12.0404836"><ele>508.0</ele><time>2026-04-18T12:11:38.54Z</time></trkpt><trkpt lat="46.0045353" lon="12.0404835"><ele>508.0</ele><time>2026-04-18T12:11:40.535Z</time></trkpt><trkpt lat="46.0044583" lon="12.040481"><ele>508.00000000000006</ele><time>2026-04-18T12:11:42.535Z</time></trkpt><trkpt lat="46.0043655" lon="12.0404952"><ele>508.0</ele><time>2026-04-18T12:11:45.537Z</time></trkpt><trkpt lat="46.0042691" lon="12.040505"><ele>508.0</ele><time>2026-04-18T12:11:47.538Z</time></trkpt><trkpt lat="46.0041748" lon="12.0404748"><ele>507.99999999999994</ele><time>2026-04-18T12:11:49.535Z</time></trkpt><trkpt lat="46.0040869" lon="12.0404334"><ele>507.99999999999994</ele><time>2026-04-18T12:11:51.536Z</time></trkpt><trkpt lat="46.0039989" lon="12.0403915"><ele>508.0</ele><time>2026-04-18T12:11:53.535Z</time></trkpt><trkpt lat="46.0039091" lon="12.0403541"><ele>508.0</ele><time>2026-04-18T12:11:55.535Z</time></trkpt><trkpt lat="46.0038174" lon="12.0403117"><ele>512.6</ele><time>2026-04-18T12:11:57.536Z</time></trkpt><trkpt lat="46.0037338" lon="12.0402663"><ele>517.1999999999999</ele><time>2026-04-18T12:11:59.54Z</time></trkpt><trkpt lat="46.0036583" lon="12.0402077"><ele>521.8</ele><time>2026-04-18T12:12:01.538Z</time></trkpt><trkpt lat="46.0035782" lon="12.0401497"><ele>526.4</ele><time>2026-04-18T12:12:03.538Z</time></trkpt><trkpt lat="46.0034866" lon="12.0400881"><ele>531.0</ele><time>2026-04-18T12:12:05.537Z</time></trkpt><trkpt lat="46.003403" lon="12.040017"><ele>525.6</ele><time>2026-04-18T12:12:07.537Z</time></trkpt><trkpt lat="46.0033309" lon="12.0399445"><ele>520.2</ele><time>2026-04-18T12:12:09.538Z</time></trkpt><trkpt lat="46.0032546" lon="12.0398722"><ele>514.8</ele><time>2026-04-18T12:12:11.536Z</time></trkpt><trkpt lat="46.0031776" lon="12.0397996"><ele>509.4</ele><time>2026-04-18T12:12:13.538Z</time></trkpt><trkpt lat="46.0031013" lon="12.0397164"><ele>504.0</ele><time>2026-04-18T12:12:15.536Z</time></trkpt><trkpt lat="46.0030266" lon="12.0396357"><ele>504.0</ele><time>2026-04-18T12:12:17.537Z</time></trkpt><trkpt lat="46.0029516" lon="12.039574"><ele>504.0</ele><time>2026-04-18T12:12:19.537Z</time></trkpt><trkpt lat="46.0028861" lon="12.0395393"><ele>504.0</ele><time>2026-04-18T12:12:21.54Z</time></trkpt><trkpt lat="46.0027928" lon="12.0395151"><ele>504.0</ele><time>2026-04-18T12:12:24.538Z</time></trkpt><trkpt lat="46.0027055" lon="12.0395033"><ele>504.0</ele><time>2026-04-18T12:12:26.536Z</time></trkpt><trkpt lat="46.002624" lon="12.0395005"><ele>504.0</ele><time>2026-04-18T12:12:28.536Z</time></trkpt><trkpt lat="46.0025417" lon="12.0395093"><ele>505.0</ele><time>2026-04-18T12:12:30.536Z</time></trkpt><trkpt lat="46.0024571" lon="12.0395123"><ele>506.0</ele><time>2026-04-18T12:12:32.539Z</time></trkpt><trkpt lat="46.0023618" lon="12.0395238"><ele>507.0</ele><time>2026-04-18T12:12:34.537Z</time></trkpt><trkpt lat="46.0022754" lon="12.0395573"><ele>508.0</ele><time>2026-04-18T12:12:36.536Z</time></trkpt><trkpt lat="46.0021887" lon="12.0395964"><ele>509.0</ele><time>2026-04-18T12:12:38.539Z</time></trkpt><trkpt lat="46.002097" lon="12.0396148"><ele>508.99999999999994</ele><time>2026-04-18T12:12:40.538Z</time></trkpt><trkpt lat="46.0020021" lon="12.0395966"><ele>509.0</ele><time>2026-04-18T12:12:42.535Z</time></trkpt><trkpt lat="46.001948" lon="12.0395097"><ele>509.0</ele><time>2026-04-18T12:12:44.538Z</time></trkpt><trkpt lat="46.0019248" lon="12.0393823"><ele>509.0</ele><time>2026-04-18T12:12:46.537Z</time></trkpt><trkpt lat="46.0018951" lon="12.0392779"><ele>508.99999999999994</ele><time>2026-04-18T12:12:48.538Z</time></trkpt><trkpt lat="46.0018537" lon="12.0391992"><ele>509.0</ele><time>2026-04-18T12:12:50.536Z</time></trkpt><trkpt lat="46.0017763" lon="12.0391214"><ele>509.99999999999994</ele><time>2026-04-18T12:12:52.536Z</time></trkpt><trkpt lat="46.0016986" lon="12.0390522"><ele>511.0</ele><time>2026-04-18T12:12:54.536Z</time></trkpt><trkpt lat="46.0016307" lon="12.039028"><ele>512.0</ele><time>2026-04-18T12:12:56.536Z</time></trkpt><trkpt lat="46.0015578" lon="12.0390576"><ele>513.0</ele><time>2026-04-18T12:12:58.536Z</time></trkpt><trkpt lat="46.0014771" lon="12.0391167"><ele>514.0</ele><time>2026-04-18T12:13:00.539Z</time></trkpt><trkpt lat="46.0013951" lon="12.0391653"><ele>515.0</ele><time>2026-04-18T12:13:02.537Z</time></trkpt><trkpt lat="46.0013027" lon="12.0391543"><ele>509.3333333333333</ele><time>2026-04-18T12:13:04.539Z</time></trkpt><trkpt lat="46.0012243" lon="12.0390828"><ele>503.66666666666663</ele><time>2026-04-18T12:13:06.538Z</time></trkpt><trkpt lat="46.0011517" lon="12.0390513"><ele>498.0</ele><time>2026-04-18T12:13:08.538Z</time></trkpt><trkpt lat="46.0010728" lon="12.0390639"><ele>492.33333333333337</ele><time>2026-04-18T12:13:10.537Z</time></trkpt><trkpt lat="46.0009883" lon="12.0390868"><ele>486.6666666666667</ele><time>2026-04-18T12:13:12.537Z</time></trkpt><trkpt lat="46.0008967" lon="12.0390782"><ele>481.0</ele><time>2026-04-18T12:13:14.538Z</time></trkpt><trkpt lat="46.0008208" lon="12.0390062"><ele>481.00000000000006</ele><time>2026-04-18T12:13:16.536Z</time></trkpt><trkpt lat="46.0007751" lon="12.0388963"><ele>481.0</ele><time>2026-04-18T12:13:18.537Z</time></trkpt><trkpt lat="46.0007521" lon="12.0387753"><ele>481.0</ele><time>2026-04-18T12:13:20.538Z</time></trkpt><trkpt lat="46.0007045" lon="12.0386748"><ele>481.0</ele><time>2026-04-18T12:13:22.535Z</time></trkpt><trkpt lat="46.0006396" lon="12.0385816"><ele>481.00000000000006</ele><time>2026-04-18T12:13:24.537Z</time></trkpt><trkpt lat="46.0005703" lon="12.0385361"><ele>481.0</ele><time>2026-04-18T12:13:26.536Z</time></trkpt><trkpt lat="46.000507" lon="12.0385603"><ele>481.00000000000006</ele><time>2026-04-18T12:13:28.537Z</time></trkpt><trkpt lat="46.0004373" lon="12.0386182"><ele>481.0</ele><time>2026-04-18T12:13:30.536Z</time></trkpt><trkpt lat="46.0003672" lon="12.0386715"><ele>481.0</ele><time>2026-04-18T12:13:32.539Z</time></trkpt><trkpt lat="46.000299" lon="12.0386989"><ele>481.0</ele><time>2026-04-18T12:13:34.537Z</time></trkpt><trkpt lat="46.0002206" lon="12.0387254"><ele>481.00000000000006</ele><time>2026-04-18T12:13:36.538Z</time></trkpt><trkpt lat="46.0001425" lon="12.0387576"><ele>481.0</ele><time>2026-04-18T12:13:38.538Z</time></trkpt><trkpt lat="46.0000679" lon="12.0388013"><ele>481.00000000000006</ele><time>2026-04-18T12:13:40.538Z</time></trkpt><trkpt lat="45.9999872" lon="12.0388606"><ele>481.0</ele><time>2026-04-18T12:13:42.537Z</time></trkpt><trkpt lat="45.9999102" lon="12.0389292"><ele>481.0</ele><time>2026-04-18T12:13:44.54Z</time></trkpt><trkpt lat="45.9998169" lon="12.0389634"><ele>481.0</ele><time>2026-04-18T12:13:46.537Z</time></trkpt><trkpt lat="45.9997558" lon="12.0389143"><ele>481.00000000000006</ele><time>2026-04-18T12:13:48.537Z</time></trkpt><trkpt lat="45.9997427" lon="12.0388177"><ele>481.0</ele><time>2026-04-18T12:13:50.535Z</time></trkpt><trkpt lat="45.9997407" lon="12.0387072"><ele>481.00000000000006</ele><time>2026-04-18T12:13:52.535Z</time></trkpt><trkpt lat="45.9997348" lon="12.0385958"><ele>481.0</ele><time>2026-04-18T12:13:54.533Z</time></trkpt><trkpt lat="45.9996881" lon="12.0385005"><ele>481.0</ele><time>2026-04-18T12:13:56.536Z</time></trkpt><trkpt lat="45.9996153" lon="12.0384602"><ele>481.0</ele><time>2026-04-18T12:13:58.536Z</time></trkpt><trkpt lat="45.9995391" lon="12.0384658"><ele>481.00000000000006</ele><time>2026-04-18T12:14:00.538Z</time></trkpt><trkpt lat="45.9994619" lon="12.0384654"><ele>481.0</ele><time>2026-04-18T12:14:02.538Z</time></trkpt><trkpt lat="45.9993767" lon="12.0384836"><ele>481.00000000000006</ele><time>2026-04-18T12:14:04.536Z</time></trkpt><trkpt lat="45.999287" lon="12.0385034"><ele>481.0</ele><time>2026-04-18T12:14:06.537Z</time></trkpt><trkpt lat="45.9991992" lon="12.038497"><ele>481.0</ele><time>2026-04-18T12:14:08.538Z</time></trkpt><trkpt lat="45.9991161" lon="12.0384621"><ele>481.0</ele><time>2026-04-18T12:14:10.537Z</time></trkpt><trkpt lat="45.9990428" lon="12.0384194"><ele>481.00000000000006</ele><time>2026-04-18T12:14:12.54Z</time></trkpt><trkpt lat="45.9989661" lon="12.0384015"><ele>481.0</ele><time>2026-04-18T12:14:14.538Z</time></trkpt><trkpt lat="45.9988922" lon="12.0384251"><ele>482.1666666666667</ele><time>2026-04-18T12:14:16.536Z</time></trkpt><trkpt lat="45.9988161" lon="12.0384718"><ele>483.33333333333337</ele><time>2026-04-18T12:14:18.538Z</time></trkpt><trkpt lat="45.9987419" lon="12.0385213"><ele>484.5</ele><time>2026-04-18T12:14:20.537Z</time></trkpt><trkpt lat="45.9986562" lon="12.0385717"><ele>485.66666666666663</ele><time>2026-04-18T12:14:22.538Z</time></trkpt><trkpt lat="45.9985696" lon="12.0386284"><ele>486.8333333333333</ele><time>2026-04-18T12:14:24.537Z</time></trkpt><trkpt lat="45.9984883" lon="12.0386887"><ele>488.0</ele><time>2026-04-18T12:14:26.537Z</time></trkpt><trkpt lat="45.9984034" lon="12.0387468"><ele>487.66666666666663</ele><time>2026-04-18T12:14:28.537Z</time></trkpt><trkpt lat="45.9983302" lon="12.0388099"><ele>487.3333333333333</ele><time>2026-04-18T12:14:30.537Z</time></trkpt><trkpt lat="45.9982538" lon="12.0388623"><ele>487.0</ele><time>2026-04-18T12:14:32.536Z</time></trkpt><trkpt lat="45.9981753" lon="12.0389003"><ele>486.66666666666663</ele><time>2026-04-18T12:14:34.534Z</time></trkpt><trkpt lat="45.9980801" lon="12.0389184"><ele>486.3333333333333</ele><time>2026-04-18T12:14:36.538Z</time></trkpt><trkpt lat="45.9979889" lon="12.0389211"><ele>486.0</ele><time>2026-04-18T12:14:38.54Z</time></trkpt><trkpt lat="45.9978869" lon="12.0389181"><ele>486.0</ele><time>2026-04-18T12:14:40.537Z</time></trkpt><trkpt lat="45.9977795" lon="12.0389188"><ele>486.0</ele><time>2026-04-18T12:14:42.539Z</time></trkpt><trkpt lat="45.9976732" lon="12.038911"><ele>486.0</ele><time>2026-04-18T12:14:44.538Z</time></trkpt><trkpt lat="45.9975842" lon="12.0389021"><ele>486.0</ele><time>2026-04-18T12:14:46.538Z</time></trkpt><trkpt lat="45.997516" lon="12.0389081"><ele>486.0</ele><time>2026-04-18T12:14:48.538Z</time></trkpt><trkpt lat="45.9974385" lon="12.0389659"><ele>488.42857142857144</ele><time>2026-04-18T12:14:51.539Z</time></trkpt><trkpt lat="45.9973926" lon="12.0390318"><ele>490.8571428571429</ele><time>2026-04-18T12:14:53.538Z</time></trkpt><trkpt lat="45.9973419" lon="12.0390945"><ele>493.28571428571433</ele><time>2026-04-18T12:14:55.537Z</time></trkpt><trkpt lat="45.9972899" lon="12.0391574"><ele>495.7142857142857</ele><time>2026-04-18T12:14:57.536Z</time></trkpt><trkpt lat="45.9972318" lon="12.0391989"><ele>498.1428571428572</ele><time>2026-04-18T12:14:59.539Z</time></trkpt><trkpt lat="45.9971535" lon="12.0392362"><ele>500.5714285714286</ele><time>2026-04-18T12:15:02.536Z</time></trkpt><trkpt lat="45.9970769" lon="12.0392475"><ele>503.0</ele><time>2026-04-18T12:15:05.536Z</time></trkpt><trkpt lat="45.9969876" lon="12.0392739"><ele>502.99999999999994</ele><time>2026-04-18T12:15:09.538Z</time></trkpt><trkpt lat="45.9969227" lon="12.0392956"><ele>503.0</ele><time>2026-04-18T12:15:11.537Z</time></trkpt><trkpt lat="45.996839" lon="12.0393476"><ele>503.0</ele><time>2026-04-18T12:15:14.538Z</time></trkpt><trkpt lat="45.9967812" lon="12.039405"><ele>503.0</ele><time>2026-04-18T12:15:17.538Z</time></trkpt><trkpt lat="45.9967026" lon="12.0394765"><ele>502.99999999999994</ele><time>2026-04-18T12:15:20.54Z</time></trkpt><trkpt lat="45.9966469" lon="12.0395323"><ele>503.0</ele><time>2026-04-18T12:15:22.537Z</time></trkpt><trkpt lat="45.996588" lon="12.0396271"><ele>503.16666666666663</ele><time>2026-04-18T12:15:25.537Z</time></trkpt><trkpt lat="45.9965314" lon="12.0397321"><ele>503.3333333333333</ele><time>2026-04-18T12:15:28.537Z</time></trkpt><trkpt lat="45.9964908" lon="12.039803"><ele>503.5</ele><time>2026-04-18T12:15:30.536Z</time></trkpt><trkpt lat="45.9964436" lon="12.0398896"><ele>503.66666666666663</ele><time>2026-04-18T12:15:33.537Z</time></trkpt><trkpt lat="45.996394" lon="12.0399957"><ele>503.8333333333333</ele><time>2026-04-18T12:15:36.542Z</time></trkpt><trkpt lat="45.9963418" lon="12.0400798"><ele>504.0</ele><time>2026-04-18T12:15:39.536Z</time></trkpt><trkpt lat="45.9962641" lon="12.0401226"><ele>505.0</ele><time>2026-04-18T12:15:42.537Z</time></trkpt><trkpt lat="45.9961912" lon="12.0401301"><ele>506.0</ele><time>2026-04-18T12:15:44.537Z</time></trkpt><trkpt lat="45.9961226" lon="12.0401526"><ele>507.0</ele><time>2026-04-18T12:15:46.538Z</time></trkpt><trkpt lat="45.9960621" lon="12.0401951"><ele>508.0</ele><time>2026-04-18T12:15:48.537Z</time></trkpt><trkpt lat="45.9959941" lon="12.0402771"><ele>509.0</ele><time>2026-04-18T12:15:51.536Z</time></trkpt><trkpt lat="45.9959309" lon="12.0403262"><ele>510.0</ele><time>2026-04-18T12:15:54.536Z</time></trkpt><trkpt lat="45.9958592" lon="12.0403439"><ele>511.0</ele><time>2026-04-18T12:15:57.537Z</time></trkpt><trkpt lat="45.9958332" lon="12.0402461"><ele>511.0</ele><time>2026-04-18T12:17:58.536Z</time></trkpt><trkpt lat="45.9958728" lon="12.0401602"><ele>511.0</ele><time>2026-04-18T12:18:02.535Z</time></trkpt><trkpt lat="45.9959197" lon="12.0400912"><ele>511.0</ele><time>2026-04-18T12:18:07.535Z</time></trkpt><trkpt lat="45.9959388" lon="12.0399932"><ele>511.0</ele><time>2026-04-18T12:18:11.536Z</time></trkpt><trkpt lat="45.9959504" lon="12.0398882"><ele>511.0</ele><time>2026-04-18T12:18:15.538Z</time></trkpt><trkpt lat="45.9959442" lon="12.0397739"><ele>511.0</ele><time>2026-04-18T12:18:19.538Z</time></trkpt><trkpt lat="45.9959815" lon="12.0396752"><ele>511.0</ele><time>2026-04-18T12:18:23.538Z</time></trkpt><trkpt lat="45.9960379" lon="12.039596"><ele>510.0</ele><time>2026-04-18T12:18:27.538Z</time></trkpt><trkpt lat="45.9960624" lon="12.0394984"><ele>509.0</ele><time>2026-04-18T12:18:31.539Z</time></trkpt><trkpt lat="45.9960983" lon="12.039412"><ele>508.0</ele><time>2026-04-18T12:18:35.539Z</time></trkpt><trkpt lat="45.9961057" lon="12.0393202"><ele>507.0</ele><time>2026-04-18T12:18:39.537Z</time></trkpt><trkpt lat="45.9961417" lon="12.0392311"><ele>506.0</ele><time>2026-04-18T12:18:44.538Z</time></trkpt><trkpt lat="45.996198" lon="12.0391703"><ele>505.0</ele><time>2026-04-18T12:18:49.54Z</time></trkpt><trkpt lat="45.9962548" lon="12.0390962"><ele>504.0</ele><time>2026-04-18T12:18:53.539Z</time></trkpt><trkpt lat="45.9962731" lon="12.0390061"><ele>507.42857142857144</ele><time>2026-04-18T12:18:57.537Z</time></trkpt><trkpt lat="45.9962869" lon="12.0388994"><ele>510.8571428571429</ele><time>2026-04-18T12:19:01.538Z</time></trkpt><trkpt lat="45.9962947" lon="12.0388069"><ele>514.2857142857142</ele><time>2026-04-18T12:19:05.539Z</time></trkpt><trkpt lat="45.996315" lon="12.0387102"><ele>517.7142857142858</ele><time>2026-04-18T12:19:09.54Z</time></trkpt><trkpt lat="45.9963534" lon="12.038635"><ele>521.1428571428571</ele><time>2026-04-18T12:19:13.539Z</time></trkpt><trkpt lat="45.996413" lon="12.038569"><ele>524.5714285714286</ele><time>2026-04-18T12:19:18.54Z</time></trkpt><trkpt lat="45.9964664" lon="12.0384961"><ele>528.0</ele><time>2026-04-18T12:19:22.538Z</time></trkpt><trkpt lat="45.996495" lon="12.0383996"><ele>528.0</ele><time>2026-04-18T12:19:26.539Z</time></trkpt><trkpt lat="45.9964665" lon="12.0383062"><ele>528.0</ele><time>2026-04-18T12:19:30.54Z</time></trkpt><trkpt lat="45.9964411" lon="12.0382061"><ele>528.0</ele><time>2026-04-18T12:19:34.538Z</time></trkpt><trkpt lat="45.9964417" lon="12.0381135"><ele>528.0</ele><time>2026-04-18T12:19:38.541Z</time></trkpt><trkpt lat="45.9964714" lon="12.0380275"><ele>528.0</ele><time>2026-04-18T12:19:42.538Z</time></trkpt><trkpt lat="45.9965196" lon="12.0379546"><ele>528.0</ele><time>2026-04-18T12:19:46.538Z</time></trkpt><trkpt lat="45.996585" lon="12.0379464"><ele>528.0</ele><time>2026-04-18T12:19:50.54Z</time></trkpt><trkpt lat="45.9966551" lon="12.0379431"><ele>530.0</ele><time>2026-04-18T12:19:54.538Z</time></trkpt><trkpt lat="45.9967301" lon="12.0379236"><ele>532.0</ele><time>2026-04-18T12:19:59.539Z</time></trkpt><trkpt lat="45.9967782" lon="12.0378412"><ele>534.0</ele><time>2026-04-18T12:20:04.539Z</time></trkpt><trkpt lat="45.9967425" lon="12.037761"><ele>536.0</ele><time>2026-04-18T12:20:08.536Z</time></trkpt><trkpt lat="45.9967051" lon="12.0376797"><ele>538.0</ele><time>2026-04-18T12:20:11.535Z</time></trkpt><trkpt lat="45.9967033" lon="12.0375854"><ele>540.0</ele><time>2026-04-18T12:20:15.537Z</time></trkpt><trkpt lat="45.9966676" lon="12.0374815"><ele>542.0</ele><time>2026-04-18T12:20:19.536Z</time></trkpt><trkpt lat="45.9966228" lon="12.0373919"><ele>543.7142857142857</ele><time>2026-04-18T12:20:23.537Z</time></trkpt><trkpt lat="45.9965859" lon="12.0373056"><ele>545.4285714285714</ele><time>2026-04-18T12:20:27.538Z</time></trkpt><trkpt lat="45.9965465" lon="12.0372283"><ele>547.1428571428571</ele><time>2026-04-18T12:20:30.536Z</time></trkpt><trkpt lat="45.9965303" lon="12.0371363"><ele>548.8571428571429</ele><time>2026-04-18T12:20:34.536Z</time></trkpt><trkpt lat="45.9965291" lon="12.0370259"><ele>550.5714285714286</ele><time>2026-04-18T12:20:38.537Z</time></trkpt><trkpt lat="45.9965291" lon="12.0369209"><ele>552.2857142857142</ele><time>2026-04-18T12:20:42.536Z</time></trkpt><trkpt lat="45.9965337" lon="12.0368165"><ele>554.0</ele><time>2026-04-18T12:20:46.536Z</time></trkpt><trkpt lat="45.9964872" lon="12.0367337"><ele>554.0</ele><time>2026-04-18T12:20:49.536Z</time></trkpt><trkpt lat="45.996426" lon="12.0366634"><ele>554.0</ele><time>2026-04-18T12:20:52.537Z</time></trkpt><trkpt lat="45.9963809" lon="12.0365619"><ele>554.0</ele><time>2026-04-18T12:20:56.537Z</time></trkpt><trkpt lat="45.9963445" lon="12.0364635"><ele>554.0</ele><time>2026-04-18T12:20:59.536Z</time></trkpt><trkpt lat="45.9963021" lon="12.0363669"><ele>554.0</ele><time>2026-04-18T12:21:02.536Z</time></trkpt><trkpt lat="45.9962661" lon="12.0362622"><ele>554.0</ele><time>2026-04-18T12:21:05.539Z</time></trkpt><trkpt lat="45.9962549" lon="12.0361567"><ele>552.3333333333333</ele><time>2026-04-18T12:21:08.537Z</time></trkpt><trkpt lat="45.9962222" lon="12.036046"><ele>550.6666666666666</ele><time>2026-04-18T12:21:11.537Z</time></trkpt><trkpt lat="45.9961985" lon="12.0359415"><ele>549.0</ele><time>2026-04-18T12:21:14.536Z</time></trkpt><trkpt lat="45.9961817" lon="12.0358421"><ele>547.3333333333334</ele><time>2026-04-18T12:21:17.537Z</time></trkpt><trkpt lat="45.9961576" lon="12.0357189"><ele>545.6666666666667</ele><time>2026-04-18T12:21:20.537Z</time></trkpt><trkpt lat="45.9961296" lon="12.0356105"><ele>544.0</ele><time>2026-04-18T12:21:23.537Z</time></trkpt><trkpt lat="45.9961232" lon="12.0354948"><ele>541.0</ele><time>2026-04-18T12:21:26.536Z</time></trkpt><trkpt lat="45.9961327" lon="12.0353715"><ele>538.0</ele><time>2026-04-18T12:21:29.536Z</time></trkpt><trkpt lat="45.9961576" lon="12.035275"><ele>535.0</ele><time>2026-04-18T12:21:32.537Z</time></trkpt><trkpt lat="45.9961329" lon="12.0351694"><ele>532.0</ele><time>2026-04-18T12:21:35.536Z</time></trkpt><trkpt lat="45.996078" lon="12.0351026"><ele>529.0</ele><time>2026-04-18T12:21:38.537Z</time></trkpt><trkpt lat="45.9960156" lon="12.0350521"><ele>526.0</ele><time>2026-04-18T12:21:41.537Z</time></trkpt><trkpt lat="45.9959405" lon="12.0350054"><ele>528.1428571428571</ele><time>2026-04-18T12:21:44.538Z</time></trkpt><trkpt lat="45.9958801" lon="12.0349573"><ele>530.2857142857142</ele><time>2026-04-18T12:21:47.537Z</time></trkpt><trkpt lat="45.9958295" lon="12.034898"><ele>532.4285714285714</ele><time>2026-04-18T12:21:50.537Z</time></trkpt><trkpt lat="45.9957782" lon="12.0348321"><ele>534.5714285714286</ele><time>2026-04-18T12:21:53.535Z</time></trkpt><trkpt lat="45.9957287" lon="12.0347533"><ele>536.7142857142858</ele><time>2026-04-18T12:21:57.538Z</time></trkpt><trkpt lat="45.9956752" lon="12.0347026"><ele>538.8571428571429</ele><time>2026-04-18T12:22:00.537Z</time></trkpt><trkpt lat="45.9956148" lon="12.0346515"><ele>541.0</ele><time>2026-04-18T12:22:03.536Z</time></trkpt><trkpt lat="45.9955474" lon="12.0346139"><ele>541.0</ele><time>2026-04-18T12:22:06.536Z</time></trkpt><trkpt lat="45.9954838" lon="12.0345979"><ele>541.0</ele><time>2026-04-18T12:22:09.537Z</time></trkpt><trkpt lat="45.9954141" lon="12.0345828"><ele>541.0</ele><time>2026-04-18T12:22:13.537Z</time></trkpt><trkpt lat="45.9953409" lon="12.0345796"><ele>541.0</ele><time>2026-04-18T12:22:17.537Z</time></trkpt><trkpt lat="45.995256" lon="12.034585"><ele>541.0</ele><time>2026-04-18T12:22:21.537Z</time></trkpt><trkpt lat="45.9951711" lon="12.0345451"><ele>541.0</ele><time>2026-04-18T12:22:25.538Z</time></trkpt><trkpt lat="45.9950952" lon="12.0344979"><ele>541.0000000000001</ele><time>2026-04-18T12:22:28.537Z</time></trkpt><trkpt lat="45.9950309" lon="12.0344762"><ele>541.0</ele><time>2026-04-18T12:22:31.534Z</time></trkpt><trkpt lat="45.9949591" lon="12.0344328"><ele>541.0</ele><time>2026-04-18T12:22:35.537Z</time></trkpt><trkpt lat="45.994888" lon="12.0343771"><ele>541.0</ele><time>2026-04-18T12:22:39.536Z</time></trkpt><trkpt lat="45.9948417" lon="12.0343135"><ele>541.0</ele><time>2026-04-18T12:22:42.537Z</time></trkpt><trkpt lat="45.9947878" lon="12.0342529"><ele>541.0000000000001</ele><time>2026-04-18T12:22:46.536Z</time></trkpt><trkpt lat="45.9947301" lon="12.0341988"><ele>541.0</ele><time>2026-04-18T12:22:50.535Z</time></trkpt><trkpt lat="45.9946832" lon="12.0341348"><ele>541.0</ele><time>2026-04-18T12:22:54.535Z</time></trkpt><trkpt lat="45.9946129" lon="12.0340715"><ele>541.0</ele><time>2026-04-18T12:22:57.537Z</time></trkpt><trkpt lat="45.9945556" lon="12.0339997"><ele>541.0</ele><time>2026-04-18T12:23:01.536Z</time></trkpt><trkpt lat="45.9945251" lon="12.0338954"><ele>541.0</ele><time>2026-04-18T12:23:05.54Z</time></trkpt><trkpt lat="45.9945084" lon="12.0337938"><ele>541.0</ele><time>2026-04-18T12:23:09.536Z</time></trkpt><trkpt lat="45.9944905" lon="12.0336764"><ele>541.0</ele><time>2026-04-18T12:23:13.534Z</time></trkpt><trkpt lat="45.9944727" lon="12.0335777"><ele>541.0</ele><time>2026-04-18T12:23:16.536Z</time></trkpt><trkpt lat="45.9944617" lon="12.0334661"><ele>541.0</ele><time>2026-04-18T12:23:20.537Z</time></trkpt><trkpt lat="45.9944492" lon="12.0333742"><ele>541.0</ele><time>2026-04-18T12:23:23.535Z</time></trkpt><trkpt lat="45.994412" lon="12.0332592"><ele>541.0</ele><time>2026-04-18T12:23:27.536Z</time></trkpt><trkpt lat="45.9943636" lon="12.0331669"><ele>541.0</ele><time>2026-04-18T12:23:30.535Z</time></trkpt><trkpt lat="45.9943024" lon="12.0330941"><ele>541.0</ele><time>2026-04-18T12:23:34.54Z</time></trkpt><trkpt lat="45.9942398" lon="12.0330436"><ele>536.2857142857143</ele><time>2026-04-18T12:23:37.54Z</time></trkpt><trkpt lat="45.9941831" lon="12.032967"><ele>531.5714285714286</ele><time>2026-04-18T12:23:42.536Z</time></trkpt><trkpt lat="45.994118" lon="12.0329328"><ele>526.8571428571429</ele><time>2026-04-18T12:23:46.538Z</time></trkpt><trkpt lat="45.9940449" lon="12.0329427"><ele>522.1428571428571</ele><time>2026-04-18T12:23:49.538Z</time></trkpt><trkpt lat="45.993977" lon="12.0329542"><ele>517.4285714285714</ele><time>2026-04-18T12:23:53.539Z</time></trkpt><trkpt lat="45.9939066" lon="12.0329614"><ele>512.7142857142858</ele><time>2026-04-18T12:23:56.537Z</time></trkpt><trkpt lat="45.9938422" lon="12.032951"><ele>508.0</ele><time>2026-04-18T12:23:59.537Z</time></trkpt><trkpt lat="45.9937795" lon="12.0329415"><ele>518.2857142857143</ele><time>2026-04-18T12:24:02.54Z</time></trkpt><trkpt lat="45.9937015" lon="12.0329258"><ele>528.5714285714286</ele><time>2026-04-18T12:24:06.537Z</time></trkpt><trkpt lat="45.9936386" lon="12.0329171"><ele>538.8571428571429</ele><time>2026-04-18T12:24:09.537Z</time></trkpt><trkpt lat="45.9935569" lon="12.0329258"><ele>549.1428571428571</ele><time>2026-04-18T12:24:13.538Z</time></trkpt><trkpt lat="45.9934846" lon="12.0329252"><ele>559.4285714285714</ele><time>2026-04-18T12:24:17.536Z</time></trkpt><trkpt lat="45.993402" lon="12.0329176"><ele>569.7142857142858</ele><time>2026-04-18T12:24:21.537Z</time></trkpt><trkpt lat="45.993338" lon="12.0329096"><ele>580.0</ele><time>2026-04-18T12:24:24.538Z</time></trkpt><trkpt lat="45.9932674" lon="12.0329037"><ele>583.5714285714286</ele><time>2026-04-18T12:24:27.54Z</time></trkpt><trkpt lat="45.9931961" lon="12.0329048"><ele>587.1428571428572</ele><time>2026-04-18T12:24:31.538Z</time></trkpt><trkpt lat="45.9931154" lon="12.0329145"><ele>590.7142857142858</ele><time>2026-04-18T12:24:35.539Z</time></trkpt><trkpt lat="45.9930483" lon="12.0329167"><ele>594.2857142857143</ele><time>2026-04-18T12:24:39.536Z</time></trkpt><trkpt lat="45.9929802" lon="12.0329199"><ele>597.8571428571429</ele><time>2026-04-18T12:26:06.535Z</time></trkpt><trkpt lat="45.9929082" lon="12.0329008"><ele>601.4285714285714</ele><time>2026-04-18T12:26:09.536Z</time></trkpt><trkpt lat="45.9928364" lon="12.0328705"><ele>605.0</ele><time>2026-04-18T12:26:12.537Z</time></trkpt><trkpt lat="45.9927605" lon="12.032845"><ele>605.0</ele><time>2026-04-18T12:26:14.539Z</time></trkpt><trkpt lat="45.9926813" lon="12.0328265"><ele>605.0</ele><time>2026-04-18T12:26:16.538Z</time></trkpt><trkpt lat="45.9926162" lon="12.0328195"><ele>605.0</ele><time>2026-04-18T12:26:18.537Z</time></trkpt><trkpt lat="45.9925427" lon="12.0328244"><ele>605.0</ele><time>2026-04-18T12:26:21.536Z</time></trkpt><trkpt lat="45.9924595" lon="12.0328304"><ele>605.0</ele><time>2026-04-18T12:26:24.535Z</time></trkpt><trkpt lat="45.992377" lon="12.0328352"><ele>605.0</ele><time>2026-04-18T12:26:27.537Z</time></trkpt><trkpt lat="45.9922958" lon="12.0328297"><ele>606.3333333333333</ele><time>2026-04-18T12:26:30.535Z</time></trkpt><trkpt lat="45.9922119" lon="12.0328214"><ele>607.6666666666666</ele><time>2026-04-18T12:26:33.537Z</time></trkpt><trkpt lat="45.9921234" lon="12.0328034"><ele>609.0</ele><time>2026-04-18T12:26:36.536Z</time></trkpt><trkpt lat="45.9920347" lon="12.0327883"><ele>610.3333333333334</ele><time>2026-04-18T12:26:39.538Z</time></trkpt><trkpt lat="45.9919467" lon="12.0327802"><ele>611.6666666666667</ele><time>2026-04-18T12:26:42.535Z</time></trkpt><trkpt lat="45.9918621" lon="12.0327463"><ele>613.0</ele><time>2026-04-18T12:26:45.536Z</time></trkpt><trkpt lat="45.9917817" lon="12.0327262"><ele>613.0</ele><time>2026-04-18T12:26:48.538Z</time></trkpt><trkpt lat="45.9917098" lon="12.0327192"><ele>613.0</ele><time>2026-04-18T12:26:51.534Z</time></trkpt><trkpt lat="45.9916241" lon="12.0327078"><ele>613.0</ele><time>2026-04-18T12:26:54.538Z</time></trkpt><trkpt lat="45.9915382" lon="12.0327137"><ele>613.0</ele><time>2026-04-18T12:26:57.538Z</time></trkpt><trkpt lat="45.9914735" lon="12.0327208"><ele>613.0</ele><time>2026-04-18T12:27:00.535Z</time></trkpt><trkpt lat="45.9913959" lon="12.0327382"><ele>613.0</ele><time>2026-04-18T12:27:03.537Z</time></trkpt><trkpt lat="45.991331" lon="12.0327412"><ele>613.6666666666667</ele><time>2026-04-18T12:27:05.537Z</time></trkpt><trkpt lat="45.9912534" lon="12.0327375"><ele>614.3333333333334</ele><time>2026-04-18T12:27:08.536Z</time></trkpt><trkpt lat="45.9911689" lon="12.0327305"><ele>615.0</ele><time>2026-04-18T12:27:11.536Z</time></trkpt><trkpt lat="45.9910943" lon="12.0327027"><ele>615.6666666666666</ele><time>2026-04-18T12:27:14.537Z</time></trkpt><trkpt lat="45.9910258" lon="12.0326665"><ele>616.3333333333333</ele><time>2026-04-18T12:27:17.537Z</time></trkpt><trkpt lat="45.9909556" lon="12.0326516"><ele>617.0</ele><time>2026-04-18T12:27:20.537Z</time></trkpt><trkpt lat="45.9908726" lon="12.0326665"><ele>618.2857142857143</ele><time>2026-04-18T12:27:23.54Z</time></trkpt><trkpt lat="45.9908087" lon="12.032681"><ele>619.5714285714286</ele><time>2026-04-18T12:27:26.537Z</time></trkpt><trkpt lat="45.9907397" lon="12.0327083"><ele>620.8571428571429</ele><time>2026-04-18T12:27:29.539Z</time></trkpt><trkpt lat="45.9906659" lon="12.0327243"><ele>622.1428571428571</ele><time>2026-04-18T12:27:32.536Z</time></trkpt><trkpt lat="45.9905932" lon="12.0327259"><ele>623.4285714285714</ele><time>2026-04-18T12:27:35.539Z</time></trkpt><trkpt lat="45.9905168" lon="12.0327399"><ele>624.7142857142857</ele><time>2026-04-18T12:27:38.536Z</time></trkpt><trkpt lat="45.9904292" lon="12.0327532"><ele>626.0</ele><time>2026-04-18T12:27:41.538Z</time></trkpt><trkpt lat="45.9903546" lon="12.0327607"><ele>626.0</ele><time>2026-04-18T12:27:44.535Z</time></trkpt><trkpt lat="45.9902785" lon="12.0327495"><ele>626.0</ele><time>2026-04-18T12:27:47.539Z</time></trkpt><trkpt lat="45.9901997" lon="12.0327445"><ele>626.0</ele><time>2026-04-18T12:27:50.54Z</time></trkpt><trkpt lat="45.9901177" lon="12.0327358"><ele>626.0</ele><time>2026-04-18T12:27:53.536Z</time></trkpt><trkpt lat="45.9900362" lon="12.0327423"><ele>626.0</ele><time>2026-04-18T12:27:56.538Z</time></trkpt><trkpt lat="45.9899554" lon="12.032742"><ele>626.0</ele><time>2026-04-18T12:27:59.536Z</time></trkpt><trkpt lat="45.9898834" lon="12.0327298"><ele>627.3333333333333</ele><time>2026-04-18T12:28:02.537Z</time></trkpt><trkpt lat="45.9898079" lon="12.0327089"><ele>628.6666666666666</ele><time>2026-04-18T12:28:05.539Z</time></trkpt><trkpt lat="45.9897395" lon="12.0326817"><ele>630.0</ele><time>2026-04-18T12:28:08.536Z</time></trkpt><trkpt lat="45.9896617" lon="12.0326588"><ele>631.3333333333334</ele><time>2026-04-18T12:28:11.537Z</time></trkpt><trkpt lat="45.9895812" lon="12.0326112"><ele>632.6666666666667</ele><time>2026-04-18T12:28:14.536Z</time></trkpt><trkpt lat="45.9895183" lon="12.0325852"><ele>634.0</ele><time>2026-04-18T12:28:16.537Z</time></trkpt><trkpt lat="45.9894452" lon="12.0325439"><ele>632.1666666666667</ele><time>2026-04-18T12:28:19.537Z</time></trkpt><trkpt lat="45.9893775" lon="12.0324702"><ele>630.3333333333334</ele><time>2026-04-18T12:28:22.536Z</time></trkpt><trkpt lat="45.9893002" lon="12.0323878"><ele>628.5</ele><time>2026-04-18T12:28:25.537Z</time></trkpt><trkpt lat="45.9892452" lon="12.0323368"><ele>626.6666666666666</ele><time>2026-04-18T12:28:27.537Z</time></trkpt><trkpt lat="45.9891616" lon="12.0322816"><ele>624.8333333333333</ele><time>2026-04-18T12:28:30.537Z</time></trkpt><trkpt lat="45.9890792" lon="12.0322402"><ele>623.0</ele><time>2026-04-18T12:28:33.538Z</time></trkpt><trkpt lat="45.9890208" lon="12.0321919"><ele>623.0</ele><time>2026-04-18T12:28:35.537Z</time></trkpt><trkpt lat="45.9889485" lon="12.0321415"><ele>623.0</ele><time>2026-04-18T12:28:37.537Z</time></trkpt><trkpt lat="45.9888716" lon="12.0320918"><ele>623.0</ele><time>2026-04-18T12:28:39.537Z</time></trkpt><trkpt lat="45.9888077" lon="12.0320599"><ele>623.0</ele><time>2026-04-18T12:28:41.535Z</time></trkpt><trkpt lat="45.9887384" lon="12.032051"><ele>623.0</ele><time>2026-04-18T12:28:43.539Z</time></trkpt><trkpt lat="45.9886618" lon="12.0320504"><ele>623.0</ele><time>2026-04-18T12:28:45.536Z</time></trkpt><trkpt lat="45.9885927" lon="12.0320611"><ele>623.0</ele><time>2026-04-18T12:28:47.536Z</time></trkpt><trkpt lat="45.9885011" lon="12.032072"><ele>623.0</ele><time>2026-04-18T12:28:50.537Z</time></trkpt><trkpt lat="45.9884319" lon="12.0320766"><ele>623.0</ele><time>2026-04-18T12:28:52.539Z</time></trkpt><trkpt lat="45.9883662" lon="12.0320682"><ele>623.0</ele><time>2026-04-18T12:28:54.536Z</time></trkpt><trkpt lat="45.9882935" lon="12.0320346"><ele>623.0</ele><time>2026-04-18T12:28:56.537Z</time></trkpt><trkpt lat="45.9882221" lon="12.031995"><ele>623.0</ele><time>2026-04-18T12:28:58.536Z</time></trkpt><trkpt lat="45.9881566" lon="12.0319533"><ele>623.0</ele><time>2026-04-18T12:29:00.538Z</time></trkpt><trkpt lat="45.9880815" lon="12.0319109"><ele>623.0</ele><time>2026-04-18T12:29:02.536Z</time></trkpt><trkpt lat="45.9879945" lon="12.0318568"><ele>624.1999999999999</ele><time>2026-04-18T12:29:04.537Z</time></trkpt><trkpt lat="45.9879126" lon="12.0317943"><ele>625.4</ele><time>2026-04-18T12:29:06.538Z</time></trkpt><trkpt lat="45.9878263" lon="12.0317259"><ele>626.5999999999999</ele><time>2026-04-18T12:29:08.539Z</time></trkpt><trkpt lat="45.9877351" lon="12.0316661"><ele>627.8</ele><time>2026-04-18T12:29:10.537Z</time></trkpt><trkpt lat="45.9876522" lon="12.0316268"><ele>629.0</ele><time>2026-04-18T12:29:12.539Z</time></trkpt><trkpt lat="45.9875727" lon="12.0316221"><ele>630.0</ele><time>2026-04-18T12:29:14.538Z</time></trkpt><trkpt lat="45.9874955" lon="12.031642"><ele>631.0</ele><time>2026-04-18T12:29:16.538Z</time></trkpt><trkpt lat="45.9874111" lon="12.0316632"><ele>632.0</ele><time>2026-04-18T12:29:18.535Z</time></trkpt><trkpt lat="45.9873236" lon="12.0316751"><ele>633.0</ele><time>2026-04-18T12:29:20.536Z</time></trkpt><trkpt lat="45.9872307" lon="12.0316885"><ele>634.0</ele><time>2026-04-18T12:29:22.538Z</time></trkpt><trkpt lat="45.9871406" lon="12.0317106"><ele>635.0</ele><time>2026-04-18T12:29:24.537Z</time></trkpt><trkpt lat="45.9870539" lon="12.0317382"><ele>634.9999999999999</ele><time>2026-04-18T12:29:26.539Z</time></trkpt><trkpt lat="45.9869808" lon="12.0317547"><ele>635.0</ele><time>2026-04-18T12:29:28.537Z</time></trkpt><trkpt lat="45.986913" lon="12.0317787"><ele>635.0</ele><time>2026-04-18T12:29:30.538Z</time></trkpt><trkpt lat="45.9868496" lon="12.0318016"><ele>635.0</ele><time>2026-04-18T12:29:32.54Z</time></trkpt><trkpt lat="45.9867806" lon="12.0318213"><ele>635.0</ele><time>2026-04-18T12:29:34.537Z</time></trkpt><trkpt lat="45.9867182" lon="12.031844"><ele>634.9999999999999</ele><time>2026-04-18T12:29:36.536Z</time></trkpt><trkpt lat="45.98663" lon="12.0318578"><ele>635.0</ele><time>2026-04-18T12:29:39.537Z</time></trkpt><trkpt lat="45.9865635" lon="12.0318597"><ele>634.8333333333333</ele><time>2026-04-18T12:29:41.537Z</time></trkpt><trkpt lat="45.9864981" lon="12.0318633"><ele>634.6666666666666</ele><time>2026-04-18T12:29:43.537Z</time></trkpt><trkpt lat="45.9864041" lon="12.031883"><ele>634.5</ele><time>2026-04-18T12:29:46.535Z</time></trkpt><trkpt lat="45.98633" lon="12.0319018"><ele>634.3333333333334</ele><time>2026-04-18T12:29:48.538Z</time></trkpt><trkpt lat="45.9862598" lon="12.0319075"><ele>634.1666666666667</ele><time>2026-04-18T12:29:50.538Z</time></trkpt><trkpt lat="45.9861926" lon="12.0319191"><ele>634.0</ele><time>2026-04-18T12:29:52.538Z</time></trkpt><trkpt lat="45.9861011" lon="12.0319283"><ele>634.0</ele><time>2026-04-18T12:29:55.537Z</time></trkpt><trkpt lat="45.9860087" lon="12.0319326"><ele>634.0</ele><time>2026-04-18T12:29:58.535Z</time></trkpt><trkpt lat="45.9859251" lon="12.0319339"><ele>634.0</ele><time>2026-04-18T12:30:01.537Z</time></trkpt><trkpt lat="45.9858416" lon="12.0319402"><ele>634.0</ele><time>2026-04-18T12:30:04.537Z</time></trkpt><trkpt lat="45.9857604" lon="12.031959"><ele>634.0</ele><time>2026-04-18T12:30:07.539Z</time></trkpt><trkpt lat="45.9856724" lon="12.0319788"><ele>634.0</ele><time>2026-04-18T12:30:10.537Z</time></trkpt><trkpt lat="45.9856083" lon="12.0319908"><ele>633.4285714285714</ele><time>2026-04-18T12:30:12.537Z</time></trkpt><trkpt lat="45.9855409" lon="12.0320061"><ele>632.8571428571429</ele><time>2026-04-18T12:30:14.536Z</time></trkpt><trkpt lat="45.9854723" lon="12.0320202"><ele>632.2857142857142</ele><time>2026-04-18T12:30:16.536Z</time></trkpt><trkpt lat="45.9853978" lon="12.0320307"><ele>631.7142857142858</ele><time>2026-04-18T12:30:18.536Z</time></trkpt><trkpt lat="45.9853237" lon="12.0320432"><ele>631.1428571428571</ele><time>2026-04-18T12:30:20.537Z</time></trkpt><trkpt lat="45.9852495" lon="12.0320486"><ele>630.5714285714286</ele><time>2026-04-18T12:30:22.537Z</time></trkpt><trkpt lat="45.9851805" lon="12.0320397"><ele>630.0</ele><time>2026-04-18T12:30:24.538Z</time></trkpt><trkpt lat="45.9850907" lon="12.032013"><ele>630.0</ele><time>2026-04-18T12:30:27.539Z</time></trkpt><trkpt lat="45.9850252" lon="12.0319852"><ele>630.0</ele><time>2026-04-18T12:30:29.536Z</time></trkpt><trkpt lat="45.9849568" lon="12.0319534"><ele>630.0</ele><time>2026-04-18T12:30:31.538Z</time></trkpt><trkpt lat="45.9848934" lon="12.0319396"><ele>630.0</ele><time>2026-04-18T12:30:33.537Z</time></trkpt><trkpt lat="45.9848052" lon="12.0319454"><ele>630.0</ele><time>2026-04-18T12:30:36.538Z</time></trkpt><trkpt lat="45.9847349" lon="12.0319645"><ele>630.0</ele><time>2026-04-18T12:30:38.538Z</time></trkpt><trkpt lat="45.9846702" lon="12.0319886"><ele>630.0</ele><time>2026-04-18T12:30:40.539Z</time></trkpt><trkpt lat="45.9846083" lon="12.0320068"><ele>631.0</ele><time>2026-04-18T12:30:42.536Z</time></trkpt><trkpt lat="45.984519" lon="12.032045"><ele>632.0</ele><time>2026-04-18T12:30:45.538Z</time></trkpt><trkpt lat="45.98445" lon="12.0320826"><ele>633.0</ele><time>2026-04-18T12:30:48.538Z</time></trkpt><trkpt lat="45.9843705" lon="12.0321272"><ele>634.0</ele><time>2026-04-18T12:30:51.536Z</time></trkpt><trkpt lat="45.9843007" lon="12.0321752"><ele>635.0</ele><time>2026-04-18T12:30:53.537Z</time></trkpt><trkpt lat="45.9842394" lon="12.0322056"><ele>636.0</ele><time>2026-04-18T12:30:55.537Z</time></trkpt><trkpt lat="45.9841829" lon="12.03226"><ele>635.1428571428571</ele><time>2026-04-18T12:30:57.535Z</time></trkpt><trkpt lat="45.9841159" lon="12.0322992"><ele>634.2857142857143</ele><time>2026-04-18T12:30:59.538Z</time></trkpt><trkpt lat="45.9840494" lon="12.0323397"><ele>633.4285714285714</ele><time>2026-04-18T12:31:01.538Z</time></trkpt><trkpt lat="45.9839893" lon="12.0323778"><ele>632.5714285714286</ele><time>2026-04-18T12:31:03.536Z</time></trkpt><trkpt lat="45.9839283" lon="12.0324075"><ele>631.7142857142858</ele><time>2026-04-18T12:31:05.536Z</time></trkpt><trkpt lat="45.9838702" lon="12.032452"><ele>630.8571428571429</ele><time>2026-04-18T12:31:07.537Z</time></trkpt><trkpt lat="45.9837966" lon="12.0325247"><ele>630.0</ele><time>2026-04-18T12:31:10.535Z</time></trkpt><trkpt lat="45.9837403" lon="12.0325764"><ele>630.0</ele><time>2026-04-18T12:31:12.536Z</time></trkpt><trkpt lat="45.9836844" lon="12.0326284"><ele>630.0</ele><time>2026-04-18T12:31:14.536Z</time></trkpt><trkpt lat="45.9836283" lon="12.0326755"><ele>630.0</ele><time>2026-04-18T12:31:16.534Z</time></trkpt><trkpt lat="45.9835694" lon="12.032723"><ele>630.0</ele><time>2026-04-18T12:31:18.537Z</time></trkpt><trkpt lat="45.9835186" lon="12.0327853"><ele>630.0</ele><time>2026-04-18T12:31:20.536Z</time></trkpt><trkpt lat="45.9834682" lon="12.0328405"><ele>630.0</ele><time>2026-04-18T12:31:22.533Z</time></trkpt><trkpt lat="45.9833923" lon="12.0329183"><ele>630.0</ele><time>2026-04-18T12:31:25.539Z</time></trkpt><trkpt lat="45.983339" lon="12.0329737"><ele>630.0</ele><time>2026-04-18T12:31:27.538Z</time></trkpt><trkpt lat="45.9832724" lon="12.0330196"><ele>630.0</ele><time>2026-04-18T12:31:29.539Z</time></trkpt><trkpt lat="45.9832133" lon="12.0330591"><ele>630.0</ele><time>2026-04-18T12:31:31.534Z</time></trkpt><trkpt lat="45.9831245" lon="12.0331244"><ele>630.0</ele><time>2026-04-18T12:31:34.538Z</time></trkpt><trkpt lat="45.9830561" lon="12.0331431"><ele>630.0</ele><time>2026-04-18T12:31:36.541Z</time></trkpt><trkpt lat="45.9829675" lon="12.0331844"><ele>630.0</ele><time>2026-04-18T12:31:39.54Z</time></trkpt><trkpt lat="45.9828932" lon="12.0332266"><ele>630.0</ele><time>2026-04-18T12:31:41.538Z</time></trkpt><trkpt lat="45.9828126" lon="12.0332702"><ele>630.0</ele><time>2026-04-18T12:31:43.539Z</time></trkpt><trkpt lat="45.9827198" lon="12.0333046"><ele>630.0</ele><time>2026-04-18T12:31:45.537Z</time></trkpt><trkpt lat="45.9826178" lon="12.0333268"><ele>630.0</ele><time>2026-04-18T12:31:47.535Z</time></trkpt><trkpt lat="45.982533" lon="12.0333753"><ele>630.0</ele><time>2026-04-18T12:31:49.539Z</time></trkpt><trkpt lat="45.9824673" lon="12.0334343"><ele>630.6666666666666</ele><time>2026-04-18T12:31:51.536Z</time></trkpt><trkpt lat="45.9823968" lon="12.0334904"><ele>631.3333333333334</ele><time>2026-04-18T12:31:53.536Z</time></trkpt><trkpt lat="45.9823267" lon="12.0335405"><ele>632.0</ele><time>2026-04-18T12:31:55.536Z</time></trkpt><trkpt lat="45.9822494" lon="12.0335966"><ele>632.6666666666667</ele><time>2026-04-18T12:31:58.537Z</time></trkpt><trkpt lat="45.9821665" lon="12.0336235"><ele>633.3333333333334</ele><time>2026-04-18T12:32:02.538Z</time></trkpt><trkpt lat="45.9821081" lon="12.033662"><ele>634.0</ele><time>2026-04-18T12:32:05.538Z</time></trkpt><trkpt lat="45.9820239" lon="12.0337034"><ele>634.0</ele><time>2026-04-18T12:32:09.538Z</time></trkpt><trkpt lat="45.9819438" lon="12.0337303"><ele>634.0</ele><time>2026-04-18T12:32:12.537Z</time></trkpt><trkpt lat="45.9818715" lon="12.0337717"><ele>634.0</ele><time>2026-04-18T12:32:15.535Z</time></trkpt><trkpt lat="45.9817993" lon="12.0338152"><ele>634.0</ele><time>2026-04-18T12:32:18.537Z</time></trkpt><trkpt lat="45.981726" lon="12.033861"><ele>634.0</ele><time>2026-04-18T12:32:21.537Z</time></trkpt><trkpt lat="45.9816639" lon="12.0339135"><ele>634.0</ele><time>2026-04-18T12:32:24.537Z</time></trkpt><trkpt lat="45.9815965" lon="12.0339572"><ele>636.8333333333334</ele><time>2026-04-18T12:32:27.538Z</time></trkpt><trkpt lat="45.9815125" lon="12.0340077"><ele>639.6666666666667</ele><time>2026-04-18T12:32:30.538Z</time></trkpt><trkpt lat="45.9814582" lon="12.0340766"><ele>642.5</ele><time>2026-04-18T12:32:33.538Z</time></trkpt><trkpt lat="45.981391" lon="12.0341578"><ele>645.3333333333334</ele><time>2026-04-18T12:32:36.538Z</time></trkpt><trkpt lat="45.9813205" lon="12.0342057"><ele>648.1666666666666</ele><time>2026-04-18T12:32:39.535Z</time></trkpt><trkpt lat="45.9812435" lon="12.0342525"><ele>651.0</ele><time>2026-04-18T12:32:42.535Z</time></trkpt><trkpt lat="45.9811575" lon="12.0343155"><ele>651.0</ele><time>2026-04-18T12:32:45.535Z</time></trkpt><trkpt lat="45.9811129" lon="12.0343802"><ele>651.0</ele><time>2026-04-18T12:32:47.535Z</time></trkpt><trkpt lat="45.9810715" lon="12.0344532"><ele>651.0</ele><time>2026-04-18T12:32:49.538Z</time></trkpt><trkpt lat="45.9810127" lon="12.0345398"><ele>651.0</ele><time>2026-04-18T12:32:52.536Z</time></trkpt><trkpt lat="45.9809492" lon="12.0346086"><ele>651.0</ele><time>2026-04-18T12:32:55.537Z</time></trkpt><trkpt lat="45.9808756" lon="12.0346725"><ele>651.0</ele><time>2026-04-18T12:32:58.536Z</time></trkpt><trkpt lat="45.9808239" lon="12.0347304"><ele>651.0</ele><time>2026-04-18T12:33:00.537Z</time></trkpt><trkpt lat="45.9807648" lon="12.034786"><ele>651.6666666666666</ele><time>2026-04-18T12:33:02.537Z</time></trkpt><trkpt lat="45.9806877" lon="12.0348676"><ele>652.3333333333334</ele><time>2026-04-18T12:33:05.537Z</time></trkpt><trkpt lat="45.9806267" lon="12.0349138"><ele>653.0</ele><time>2026-04-18T12:33:07.537Z</time></trkpt><trkpt lat="45.9805628" lon="12.0349475"><ele>653.6666666666667</ele><time>2026-04-18T12:33:09.537Z</time></trkpt><trkpt lat="45.9804901" lon="12.0350152"><ele>654.3333333333334</ele><time>2026-04-18T12:33:12.539Z</time></trkpt><trkpt lat="45.9804188" lon="12.0350863"><ele>655.0</ele><time>2026-04-18T12:33:15.539Z</time></trkpt><trkpt lat="45.9803525" lon="12.0351546"><ele>655.0</ele><time>2026-04-18T12:33:18.537Z</time></trkpt><trkpt lat="45.9802834" lon="12.0352143"><ele>655.0</ele><time>2026-04-18T12:33:21.537Z</time></trkpt><trkpt lat="45.9802107" lon="12.0352703"><ele>655.0</ele><time>2026-04-18T12:33:24.534Z</time></trkpt><trkpt lat="45.9801368" lon="12.0353162"><ele>655.0</ele><time>2026-04-18T12:33:27.535Z</time></trkpt><trkpt lat="45.9800596" lon="12.0353494"><ele>655.0</ele><time>2026-04-18T12:33:30.537Z</time></trkpt><trkpt lat="45.9800135" lon="12.0354119"><ele>655.0</ele><time>2026-04-18T12:33:33.538Z</time></trkpt><trkpt lat="45.9799637" lon="12.0354725"><ele>658.3333333333334</ele><time>2026-04-18T12:33:36.537Z</time></trkpt><trkpt lat="45.9799129" lon="12.0355362"><ele>661.6666666666667</ele><time>2026-04-18T12:33:39.537Z</time></trkpt><trkpt lat="45.979846" lon="12.035605"><ele>665.0</ele><time>2026-04-18T12:33:42.538Z</time></trkpt><trkpt lat="45.9797889" lon="12.0356881"><ele>668.3333333333334</ele><time>2026-04-18T12:33:45.536Z</time></trkpt><trkpt lat="45.9797259" lon="12.0357651"><ele>671.6666666666666</ele><time>2026-04-18T12:33:48.537Z</time></trkpt><trkpt lat="45.9796739" lon="12.0358408"><ele>675.0</ele><time>2026-04-18T12:33:51.536Z</time></trkpt><trkpt lat="45.9796099" lon="12.0359087"><ele>675.1666666666666</ele><time>2026-04-18T12:33:54.536Z</time></trkpt><trkpt lat="45.9795527" lon="12.0359725"><ele>675.3333333333334</ele><time>2026-04-18T12:33:57.536Z</time></trkpt><trkpt lat="45.9794895" lon="12.0360501"><ele>675.5</ele><time>2026-04-18T12:34:00.537Z</time></trkpt><trkpt lat="45.979419" lon="12.0361342"><ele>675.6666666666667</ele><time>2026-04-18T12:34:03.537Z</time></trkpt><trkpt lat="45.9793774" lon="12.0362382"><ele>675.8333333333334</ele><time>2026-04-18T12:34:06.536Z</time></trkpt><trkpt lat="45.9793376" lon="12.0363445"><ele>676.0</ele><time>2026-04-18T12:34:09.535Z</time></trkpt><trkpt lat="45.9792664" lon="12.0364105"><ele>676.0</ele><time>2026-04-18T12:34:12.537Z</time></trkpt><trkpt lat="45.9791987" lon="12.0364773"><ele>676.0</ele><time>2026-04-18T12:34:15.539Z</time></trkpt><trkpt lat="45.9791307" lon="12.0365261"><ele>676.0</ele><time>2026-04-18T12:34:18.536Z</time></trkpt><trkpt lat="45.9790569" lon="12.0365798"><ele>676.0</ele><time>2026-04-18T12:34:22.537Z</time></trkpt><trkpt lat="45.978983" lon="12.03661"><ele>676.0</ele><time>2026-04-18T12:34:25.538Z</time></trkpt><trkpt lat="45.9789266" lon="12.0366668"><ele>676.0</ele><time>2026-04-18T12:34:29.535Z</time></trkpt><trkpt lat="45.9788682" lon="12.0367291"><ele>677.8333333333334</ele><time>2026-04-18T12:34:32.539Z</time></trkpt><trkpt lat="45.9788048" lon="12.0367807"><ele>679.6666666666667</ele><time>2026-04-18T12:34:35.536Z</time></trkpt><trkpt lat="45.9787373" lon="12.0368369"><ele>681.5</ele><time>2026-04-18T12:34:38.536Z</time></trkpt><trkpt lat="45.9786768" lon="12.0368911"><ele>683.3333333333334</ele><time>2026-04-18T12:34:41.537Z</time></trkpt><trkpt lat="45.9785991" lon="12.036956"><ele>685.1666666666666</ele><time>2026-04-18T12:34:44.537Z</time></trkpt><trkpt lat="45.9785319" lon="12.0369966"><ele>687.0</ele><time>2026-04-18T12:34:46.538Z</time></trkpt><trkpt lat="45.9784737" lon="12.0370674"><ele>687.0</ele><time>2026-04-18T12:34:49.536Z</time></trkpt><trkpt lat="45.9784254" lon="12.0371465"><ele>687.0</ele><time>2026-04-18T12:34:52.536Z</time></trkpt><trkpt lat="45.9783798" lon="12.0372149"><ele>687.0</ele><time>2026-04-18T12:34:55.536Z</time></trkpt><trkpt lat="45.9783345" lon="12.0372928"><ele>687.0</ele><time>2026-04-18T12:34:59.537Z</time></trkpt><trkpt lat="45.9783047" lon="12.0373742"><ele>687.0</ele><time>2026-04-18T12:35:02.538Z</time></trkpt><trkpt lat="45.9782519" lon="12.037456"><ele>687.0</ele><time>2026-04-18T12:35:06.536Z</time></trkpt><trkpt lat="45.9781851" lon="12.0375001"><ele>687.0</ele><time>2026-04-18T12:35:09.537Z</time></trkpt><trkpt lat="45.9781271" lon="12.0375747"><ele>689.3333333333334</ele><time>2026-04-18T12:35:13.539Z</time></trkpt><trkpt lat="45.9780626" lon="12.0376432"><ele>691.6666666666666</ele><time>2026-04-18T12:35:17.538Z</time></trkpt><trkpt lat="45.9779814" lon="12.0376741"><ele>694.0</ele><time>2026-04-18T12:35:20.539Z</time></trkpt><trkpt lat="45.9779266" lon="12.037734"><ele>696.3333333333333</ele><time>2026-04-18T12:35:23.537Z</time></trkpt><trkpt lat="45.9778781" lon="12.0378007"><ele>698.6666666666666</ele><time>2026-04-18T12:35:26.538Z</time></trkpt><trkpt lat="45.9778275" lon="12.0378945"><ele>701.0</ele><time>2026-04-18T12:35:30.537Z</time></trkpt><trkpt lat="45.9777894" lon="12.0379975"><ele>701.0</ele><time>2026-04-18T12:35:34.535Z</time></trkpt><trkpt lat="45.9777337" lon="12.0380769"><ele>701.0</ele><time>2026-04-18T12:35:38.537Z</time></trkpt><trkpt lat="45.9776935" lon="12.0381539"><ele>701.0</ele><time>2026-04-18T12:35:41.536Z</time></trkpt><trkpt lat="45.9776378" lon="12.0382227"><ele>701.0</ele><time>2026-04-18T12:35:44.537Z</time></trkpt><trkpt lat="45.977585" lon="12.0382975"><ele>701.0</ele><time>2026-04-18T12:35:47.537Z</time></trkpt><trkpt lat="45.9775362" lon="12.0383803"><ele>701.0</ele><time>2026-04-18T12:35:50.538Z</time></trkpt><trkpt lat="45.9774862" lon="12.0384616"><ele>701.0</ele><time>2026-04-18T12:35:53.537Z</time></trkpt><trkpt lat="45.977439" lon="12.0385438"><ele>703.8333333333333</ele><time>2026-04-18T12:35:56.536Z</time></trkpt><trkpt lat="45.9773919" lon="12.0386261"><ele>706.6666666666666</ele><time>2026-04-18T12:35:59.536Z</time></trkpt><trkpt lat="45.9773214" lon="12.0387081"><ele>709.5</ele><time>2026-04-18T12:36:02.535Z</time></trkpt><trkpt lat="45.9772663" lon="12.0387601"><ele>712.3333333333334</ele><time>2026-04-18T12:36:04.539Z</time></trkpt><trkpt lat="45.9772122" lon="12.0388356"><ele>715.1666666666667</ele><time>2026-04-18T12:36:07.537Z</time></trkpt><trkpt lat="45.9771531" lon="12.0389287"><ele>718.0</ele><time>2026-04-18T12:36:10.536Z</time></trkpt><trkpt lat="45.9771012" lon="12.039014"><ele>718.0</ele><time>2026-04-18T12:36:13.538Z</time></trkpt><trkpt lat="45.9770493" lon="12.0390656"><ele>718.0</ele><time>2026-04-18T12:36:15.538Z</time></trkpt><trkpt lat="45.9769959" lon="12.0391591"><ele>718.0</ele><time>2026-04-18T12:36:18.537Z</time></trkpt><trkpt lat="45.9769446" lon="12.0392365"><ele>718.0</ele><time>2026-04-18T12:36:21.538Z</time></trkpt><trkpt lat="45.9768694" lon="12.0392877"><ele>718.0</ele><time>2026-04-18T12:36:25.538Z</time></trkpt><trkpt lat="45.9768031" lon="12.0393354"><ele>718.0</ele><time>2026-04-18T12:36:28.537Z</time></trkpt><trkpt lat="45.9767403" lon="12.0393722"><ele>718.0</ele><time>2026-04-18T12:36:31.538Z</time></trkpt><trkpt lat="45.9766714" lon="12.0394214"><ele>719.4285714285714</ele><time>2026-04-18T12:36:34.537Z</time></trkpt><trkpt lat="45.9766145" lon="12.0394763"><ele>720.8571428571429</ele><time>2026-04-18T12:36:37.537Z</time></trkpt><trkpt lat="45.9765555" lon="12.0395202"><ele>722.2857142857142</ele><time>2026-04-18T12:36:40.537Z</time></trkpt><trkpt lat="45.9764933" lon="12.039549"><ele>723.7142857142858</ele><time>2026-04-18T12:36:44.538Z</time></trkpt><trkpt lat="45.9764304" lon="12.0395799"><ele>725.1428571428571</ele><time>2026-04-18T12:36:47.537Z</time></trkpt><trkpt lat="45.9763714" lon="12.0396263"><ele>726.5714285714286</ele><time>2026-04-18T12:36:50.536Z</time></trkpt><trkpt lat="45.9763189" lon="12.0396768"><ele>728.0</ele><time>2026-04-18T12:36:53.54Z</time></trkpt><trkpt lat="45.9762661" lon="12.0397303"><ele>728.0</ele><time>2026-04-18T12:36:56.538Z</time></trkpt><trkpt lat="45.9762142" lon="12.0398078"><ele>728.0</ele><time>2026-04-18T12:36:59.54Z</time></trkpt><trkpt lat="45.976155" lon="12.0398869"><ele>728.0</ele><time>2026-04-18T12:37:02.538Z</time></trkpt><trkpt lat="45.9761183" lon="12.0399727"><ele>728.0</ele><time>2026-04-18T12:37:05.537Z</time></trkpt><trkpt lat="45.9760597" lon="12.0400338"><ele>728.0</ele><time>2026-04-18T12:37:08.537Z</time></trkpt><trkpt lat="45.9759899" lon="12.040094"><ele>728.0</ele><time>2026-04-18T12:37:12.539Z</time></trkpt><trkpt lat="45.9759273" lon="12.0401406"><ele>727.7142857142857</ele><time>2026-04-18T12:37:15.535Z</time></trkpt><trkpt lat="45.9758628" lon="12.040198"><ele>727.4285714285714</ele><time>2026-04-18T12:37:18.536Z</time></trkpt><trkpt lat="45.9758003" lon="12.0402659"><ele>727.1428571428571</ele><time>2026-04-18T12:37:21.537Z</time></trkpt><trkpt lat="45.9757503" lon="12.040338"><ele>726.8571428571429</ele><time>2026-04-18T12:37:24.534Z</time></trkpt><trkpt lat="45.9756854" lon="12.0404001"><ele>726.5714285714286</ele><time>2026-04-18T12:37:27.537Z</time></trkpt><trkpt lat="45.9756314" lon="12.0404597"><ele>726.2857142857142</ele><time>2026-04-18T12:37:30.536Z</time></trkpt><trkpt lat="45.9755676" lon="12.0405211"><ele>726.0</ele><time>2026-04-18T12:37:33.536Z</time></trkpt><trkpt lat="45.9755126" lon="12.0406086"><ele>728.4285714285713</ele><time>2026-04-18T12:37:37.537Z</time></trkpt><trkpt lat="45.9754586" lon="12.0406727"><ele>730.8571428571429</ele><time>2026-04-18T12:37:40.536Z</time></trkpt><trkpt lat="45.9753965" lon="12.0407241"><ele>733.2857142857142</ele><time>2026-04-18T12:37:43.538Z</time></trkpt><trkpt lat="45.9753491" lon="12.0408004"><ele>735.7142857142857</ele><time>2026-04-18T12:37:46.535Z</time></trkpt><trkpt lat="45.9752923" lon="12.0408762"><ele>738.1428571428571</ele><time>2026-04-18T12:37:49.537Z</time></trkpt><trkpt lat="45.9752506" lon="12.0409591"><ele>740.5714285714286</ele><time>2026-04-18T12:37:52.536Z</time></trkpt><trkpt lat="45.9751892" lon="12.0410141"><ele>743.0</ele><time>2026-04-18T12:37:56.537Z</time></trkpt><trkpt lat="45.9751308" lon="12.041063"><ele>743.1428571428572</ele><time>2026-04-18T12:38:45.534Z</time></trkpt><trkpt lat="45.9750591" lon="12.04112"><ele>743.2857142857142</ele><time>2026-04-18T12:38:49.535Z</time></trkpt><trkpt lat="45.9749963" lon="12.0411676"><ele>743.4285714285714</ele><time>2026-04-18T12:38:53.534Z</time></trkpt><trkpt lat="45.9749392" lon="12.0412259"><ele>743.5714285714287</ele><time>2026-04-18T12:38:57.535Z</time></trkpt><trkpt lat="45.9748778" lon="12.0412667"><ele>743.7142857142858</ele><time>2026-04-18T12:39:00.534Z</time></trkpt><trkpt lat="45.9748081" lon="12.0412733"><ele>743.8571428571429</ele><time>2026-04-18T12:39:03.535Z</time></trkpt><trkpt lat="45.9747394" lon="12.0412945"><ele>744.0</ele><time>2026-04-18T12:39:07.534Z</time></trkpt><trkpt lat="45.9746797" lon="12.0413311"><ele>746.3333333333334</ele><time>2026-04-18T12:39:10.534Z</time></trkpt><trkpt lat="45.9746117" lon="12.041369"><ele>748.6666666666666</ele><time>2026-04-18T12:39:13.535Z</time></trkpt><trkpt lat="45.9745316" lon="12.0414079"><ele>751.0</ele><time>2026-04-18T12:39:16.534Z</time></trkpt><trkpt lat="45.9744738" lon="12.0414639"><ele>753.3333333333333</ele><time>2026-04-18T12:39:19.534Z</time></trkpt><trkpt lat="45.9744064" lon="12.0415521"><ele>755.6666666666666</ele><time>2026-04-18T12:39:23.537Z</time></trkpt><trkpt lat="45.974335" lon="12.0416124"><ele>758.0</ele><time>2026-04-18T12:39:26.536Z</time></trkpt><trkpt lat="45.9742648" lon="12.0416542"><ele>760.5</ele><time>2026-04-18T12:39:29.536Z</time></trkpt><trkpt lat="45.9741827" lon="12.041667"><ele>763.0</ele><time>2026-04-18T12:39:31.536Z</time></trkpt><trkpt lat="45.9741032" lon="12.0416961"><ele>765.5</ele><time>2026-04-18T12:39:34.537Z</time></trkpt><trkpt lat="45.9740534" lon="12.0417673"><ele>768.0</ele><time>2026-04-18T12:39:37.537Z</time></trkpt><trkpt lat="45.9740026" lon="12.041845"><ele>770.5000000000001</ele><time>2026-04-18T12:39:40.538Z</time></trkpt><trkpt lat="45.973946" lon="12.0419133"><ele>773.0</ele><time>2026-04-18T12:39:43.535Z</time></trkpt><trkpt lat="45.9739052" lon="12.042014"><ele>773.0</ele><time>2026-04-18T12:39:47.537Z</time></trkpt><trkpt lat="45.9738796" lon="12.0421036"><ele>773.0</ele><time>2026-04-18T12:39:50.537Z</time></trkpt><trkpt lat="45.9738631" lon="12.0421969"><ele>773.0</ele><time>2026-04-18T12:39:53.536Z</time></trkpt><trkpt lat="45.9738179" lon="12.042301"><ele>773.0</ele><time>2026-04-18T12:39:57.536Z</time></trkpt><trkpt lat="45.9737675" lon="12.0423627"><ele>773.0</ele><time>2026-04-18T12:40:00.538Z</time></trkpt><trkpt lat="45.973695" lon="12.0424328"><ele>773.0</ele><time>2026-04-18T12:40:04.536Z</time></trkpt><trkpt lat="45.9736348" lon="12.0424747"><ele>773.0</ele><time>2026-04-18T12:40:07.536Z</time></trkpt><trkpt lat="45.9735906" lon="12.0425639"><ele>774.5000000000001</ele><time>2026-04-18T12:40:10.536Z</time></trkpt><trkpt lat="45.9735631" lon="12.0426604"><ele>776.0</ele><time>2026-04-18T12:40:13.535Z</time></trkpt><trkpt lat="45.973552" lon="12.0427804"><ele>777.5</ele><time>2026-04-18T12:40:16.534Z</time></trkpt><trkpt lat="45.9735356" lon="12.0428789"><ele>779.0</ele><time>2026-04-18T12:40:19.535Z</time></trkpt><trkpt lat="45.9735183" lon="12.0429906"><ele>780.5000000000001</ele><time>2026-04-18T12:40:22.537Z</time></trkpt><trkpt lat="45.9734984" lon="12.0430954"><ele>782.0</ele><time>2026-04-18T12:40:25.537Z</time></trkpt><trkpt lat="45.9734657" lon="12.0431913"><ele>783.3333333333334</ele><time>2026-04-18T12:40:28.536Z</time></trkpt><trkpt lat="45.9734324" lon="12.0433015"><ele>784.6666666666667</ele><time>2026-04-18T12:40:31.537Z</time></trkpt><trkpt lat="45.9733785" lon="12.0433926"><ele>786.0</ele><time>2026-04-18T12:40:34.536Z</time></trkpt><trkpt lat="45.9733228" lon="12.0434964"><ele>787.3333333333333</ele><time>2026-04-18T12:40:37.536Z</time></trkpt><trkpt lat="45.973268" lon="12.043589"><ele>788.6666666666666</ele><time>2026-04-18T12:40:40.535Z</time></trkpt><trkpt lat="45.9732168" lon="12.0436635"><ele>790.0</ele><time>2026-04-18T12:40:43.536Z</time></trkpt><trkpt lat="45.9731445" lon="12.043718"><ele>790.0</ele><time>2026-04-18T12:40:46.537Z</time></trkpt><trkpt lat="45.97312" lon="12.0438057"><ele>790.0</ele><time>2026-04-18T12:40:49.536Z</time></trkpt><trkpt lat="45.9730868" lon="12.0438899"><ele>790.0</ele><time>2026-04-18T12:40:52.537Z</time></trkpt><trkpt lat="45.9730417" lon="12.0439573"><ele>790.0</ele><time>2026-04-18T12:40:55.537Z</time></trkpt><trkpt lat="45.9730061" lon="12.0440322"><ele>790.0</ele><time>2026-04-18T12:40:58.537Z</time></trkpt><trkpt lat="45.9729576" lon="12.0441088"><ele>790.0</ele><time>2026-04-18T12:41:01.538Z</time></trkpt><trkpt lat="45.9729113" lon="12.0441815"><ele>790.0</ele><time>2026-04-18T12:41:04.538Z</time></trkpt><trkpt lat="45.972859" lon="12.0442496"><ele>792.1666666666666</ele><time>2026-04-18T12:41:07.539Z</time></trkpt><trkpt lat="45.9727807" lon="12.0443034"><ele>794.3333333333333</ele><time>2026-04-18T12:41:10.538Z</time></trkpt><trkpt lat="45.9727309" lon="12.0443819"><ele>796.5</ele><time>2026-04-18T12:41:13.54Z</time></trkpt><trkpt lat="45.9726725" lon="12.0444647"><ele>798.6666666666667</ele><time>2026-04-18T12:41:17.535Z</time></trkpt><trkpt lat="45.9726236" lon="12.0445403"><ele>800.8333333333334</ele><time>2026-04-18T12:41:21.537Z</time></trkpt><trkpt lat="45.9725606" lon="12.0446117"><ele>803.0</ele><time>2026-04-18T12:41:25.537Z</time></trkpt><trkpt lat="45.9724901" lon="12.0446467"><ele>803.5714285714286</ele><time>2026-04-18T12:41:29.538Z</time></trkpt><trkpt lat="45.9724223" lon="12.0446725"><ele>804.1428571428571</ele><time>2026-04-18T12:41:32.538Z</time></trkpt><trkpt lat="45.9723558" lon="12.044714"><ele>804.7142857142858</ele><time>2026-04-18T12:41:36.54Z</time></trkpt><trkpt lat="45.9722954" lon="12.0447605"><ele>805.2857142857142</ele><time>2026-04-18T12:41:39.54Z</time></trkpt><trkpt lat="45.9722523" lon="12.0448486"><ele>805.8571428571429</ele><time>2026-04-18T12:41:42.539Z</time></trkpt><trkpt lat="45.9721966" lon="12.0449241"><ele>806.4285714285714</ele><time>2026-04-18T12:41:45.537Z</time></trkpt><trkpt lat="45.9721217" lon="12.0449681"><ele>807.0</ele><time>2026-04-18T12:41:48.538Z</time></trkpt><trkpt lat="45.9720626" lon="12.045025"><ele>807.8333333333334</ele><time>2026-04-18T12:41:51.538Z</time></trkpt><trkpt lat="45.9720254" lon="12.045103"><ele>808.6666666666667</ele><time>2026-04-18T12:41:54.54Z</time></trkpt><trkpt lat="45.9719818" lon="12.0451759"><ele>809.5</ele><time>2026-04-18T12:41:57.538Z</time></trkpt><trkpt lat="45.9719252" lon="12.0452758"><ele>810.3333333333334</ele><time>2026-04-18T12:42:00.539Z</time></trkpt><trkpt lat="45.9718765" lon="12.0453624"><ele>811.1666666666667</ele><time>2026-04-18T12:42:03.54Z</time></trkpt><trkpt lat="45.9718193" lon="12.0454438"><ele>812.0</ele><time>2026-04-18T12:42:06.537Z</time></trkpt><trkpt lat="45.9717607" lon="12.0455102"><ele>812.0</ele><time>2026-04-18T12:42:09.538Z</time></trkpt><trkpt lat="45.9716996" lon="12.045555"><ele>812.0</ele><time>2026-04-18T12:42:12.54Z</time></trkpt><trkpt lat="45.9716607" lon="12.045634"><ele>812.0</ele><time>2026-04-18T12:42:15.537Z</time></trkpt><trkpt lat="45.9716125" lon="12.0457258"><ele>812.0</ele><time>2026-04-18T12:42:19.538Z</time></trkpt><trkpt lat="45.9715519" lon="12.045761"><ele>812.0</ele><time>2026-04-18T12:42:25.541Z</time></trkpt><trkpt lat="45.9715398" lon="12.0456687"><ele>812.0</ele><time>2026-04-18T12:43:10.536Z</time></trkpt><trkpt lat="45.9715401" lon="12.0455751"><ele>812.0</ele><time>2026-04-18T12:43:13.535Z</time></trkpt><trkpt lat="45.971518" lon="12.0454755"><ele>812.7142857142857</ele><time>2026-04-18T12:43:16.535Z</time></trkpt><trkpt lat="45.9715068" lon="12.0453848"><ele>813.4285714285714</ele><time>2026-04-18T12:43:19.536Z</time></trkpt><trkpt lat="45.9715042" lon="12.0452819"><ele>814.1428571428571</ele><time>2026-04-18T12:43:23.537Z</time></trkpt><trkpt lat="45.9714845" lon="12.0451907"><ele>814.8571428571429</ele><time>2026-04-18T12:43:28.535Z</time></trkpt><trkpt lat="45.9715201" lon="12.0452856"><ele>815.5714285714286</ele><time>2026-04-18T12:44:01.535Z</time></trkpt><trkpt lat="45.9715262" lon="12.0454137"><ele>816.2857142857142</ele><time>2026-04-18T12:44:04.535Z</time></trkpt><trkpt lat="45.9715254" lon="12.0455299"><ele>817.0</ele><time>2026-04-18T12:44:08.535Z</time></trkpt><trkpt lat="45.9715363" lon="12.0456258"><ele>816.9999999999999</ele><time>2026-04-18T12:44:11.535Z</time></trkpt><trkpt lat="45.9715588" lon="12.0457404"><ele>817.0</ele><time>2026-04-18T12:44:15.535Z</time></trkpt><trkpt lat="45.9715969" lon="12.0458272"><ele>817.0</ele><time>2026-04-18T12:44:19.535Z</time></trkpt><trkpt lat="45.9716679" lon="12.0458234"><ele>817.0</ele><time>2026-04-18T12:44:53.534Z</time></trkpt><trkpt lat="45.9717238" lon="12.0457576"><ele>816.9999999999999</ele><time>2026-04-18T12:44:58.535Z</time></trkpt><trkpt lat="45.9717693" lon="12.045659"><ele>817.0</ele><time>2026-04-18T12:45:02.535Z</time></trkpt><trkpt lat="45.971801" lon="12.0455416"><ele>816.2857142857142</ele><time>2026-04-18T12:45:05.535Z</time></trkpt><trkpt lat="45.9718596" lon="12.0454694"><ele>815.5714285714286</ele><time>2026-04-18T12:45:08.535Z</time></trkpt><trkpt lat="45.9719209" lon="12.0453978"><ele>814.8571428571429</ele><time>2026-04-18T12:45:12.535Z</time></trkpt><trkpt lat="45.9719727" lon="12.0453181"><ele>814.1428571428571</ele><time>2026-04-18T12:45:15.535Z</time></trkpt><trkpt lat="45.9720216" lon="12.0452466"><ele>813.4285714285714</ele><time>2026-04-18T12:45:18.537Z</time></trkpt><trkpt lat="45.9720793" lon="12.0451809"><ele>812.7142857142857</ele><time>2026-04-18T12:45:21.536Z</time></trkpt><trkpt lat="45.972138" lon="12.0451392"><ele>812.0</ele><time>2026-04-18T12:45:24.534Z</time></trkpt><trkpt lat="45.9721978" lon="12.0450861"><ele>812.0</ele><time>2026-04-18T12:45:27.536Z</time></trkpt><trkpt lat="45.9722401" lon="12.0450129"><ele>812.0</ele><time>2026-04-18T12:45:30.535Z</time></trkpt><trkpt lat="45.9722882" lon="12.0449517"><ele>812.0</ele><time>2026-04-18T12:45:33.536Z</time></trkpt><trkpt lat="45.9723419" lon="12.0448797"><ele>812.0</ele><time>2026-04-18T12:45:36.534Z</time></trkpt><trkpt lat="45.9724031" lon="12.0448095"><ele>812.0</ele><time>2026-04-18T12:45:40.535Z</time></trkpt><trkpt lat="45.9724581" lon="12.0447294"><ele>812.0</ele><time>2026-04-18T12:45:44.534Z</time></trkpt><trkpt lat="45.9725321" lon="12.0446772"><ele>812.0</ele><time>2026-04-18T12:45:47.534Z</time></trkpt><trkpt lat="45.9726123" lon="12.0446575"><ele>810.5000000000001</ele><time>2026-04-18T12:45:50.536Z</time></trkpt><trkpt lat="45.9726672" lon="12.0446107"><ele>809.0</ele><time>2026-04-18T12:45:53.535Z</time></trkpt><trkpt lat="45.9727353" lon="12.0445644"><ele>807.5</ele><time>2026-04-18T12:45:56.534Z</time></trkpt><trkpt lat="45.9727984" lon="12.0444886"><ele>806.0</ele><time>2026-04-18T12:46:00.537Z</time></trkpt><trkpt lat="45.9728517" lon="12.0444201"><ele>804.5000000000001</ele><time>2026-04-18T12:46:03.534Z</time></trkpt><trkpt lat="45.9729014" lon="12.0443313"><ele>803.0</ele><time>2026-04-18T12:46:06.535Z</time></trkpt><trkpt lat="45.9729627" lon="12.0442535"><ele>803.0000000000001</ele><time>2026-04-18T12:46:09.535Z</time></trkpt><trkpt lat="45.9730149" lon="12.0441557"><ele>803.0</ele><time>2026-04-18T12:46:12.535Z</time></trkpt><trkpt lat="45.9730579" lon="12.0440564"><ele>803.0</ele><time>2026-04-18T12:46:15.534Z</time></trkpt><trkpt lat="45.973098" lon="12.0439333"><ele>803.0</ele><time>2026-04-18T12:46:18.535Z</time></trkpt><trkpt lat="45.9731592" lon="12.0438599"><ele>803.0000000000001</ele><time>2026-04-18T12:46:21.535Z</time></trkpt><trkpt lat="45.9732105" lon="12.0437897"><ele>803.0</ele><time>2026-04-18T12:46:24.535Z</time></trkpt><trkpt lat="45.9732539" lon="12.0436996"><ele>803.1666666666667</ele><time>2026-04-18T12:46:27.534Z</time></trkpt><trkpt lat="45.973293" lon="12.043587"><ele>803.3333333333334</ele><time>2026-04-18T12:46:30.538Z</time></trkpt><trkpt lat="45.9733434" lon="12.0434899"><ele>803.5</ele><time>2026-04-18T12:46:33.534Z</time></trkpt><trkpt lat="45.9733888" lon="12.0434005"><ele>803.6666666666667</ele><time>2026-04-18T12:46:36.534Z</time></trkpt><trkpt lat="45.9734326" lon="12.0433333"><ele>803.8333333333334</ele><time>2026-04-18T12:46:39.537Z</time></trkpt><trkpt lat="45.9734712" lon="12.0432499"><ele>804.0</ele><time>2026-04-18T12:46:42.534Z</time></trkpt><trkpt lat="45.973507" lon="12.0431633"><ele>800.3333333333334</ele><time>2026-04-18T12:46:44.536Z</time></trkpt><trkpt lat="45.9735276" lon="12.0430762"><ele>796.6666666666667</ele><time>2026-04-18T12:46:46.535Z</time></trkpt><trkpt lat="45.9735728" lon="12.0429613"><ele>793.0</ele><time>2026-04-18T12:46:49.534Z</time></trkpt><trkpt lat="45.9735945" lon="12.0428408"><ele>789.3333333333334</ele><time>2026-04-18T12:46:52.534Z</time></trkpt><trkpt lat="45.9736102" lon="12.0427507"><ele>785.6666666666667</ele><time>2026-04-18T12:46:54.535Z</time></trkpt><trkpt lat="45.9736637" lon="12.0426391"><ele>782.0</ele><time>2026-04-18T12:46:57.534Z</time></trkpt><trkpt lat="45.973708" lon="12.0425735"><ele>782.0000000000001</ele><time>2026-04-18T12:46:59.534Z</time></trkpt><trkpt lat="45.9737548" lon="12.0424884"><ele>782.0</ele><time>2026-04-18T12:47:02.535Z</time></trkpt><trkpt lat="45.9738311" lon="12.0424314"><ele>782.0</ele><time>2026-04-18T12:47:05.537Z</time></trkpt><trkpt lat="45.9738847" lon="12.0423506"><ele>782.0</ele><time>2026-04-18T12:47:08.535Z</time></trkpt><trkpt lat="45.9739161" lon="12.042253"><ele>782.0000000000001</ele><time>2026-04-18T12:47:11.535Z</time></trkpt><trkpt lat="45.9739431" lon="12.0421502"><ele>782.0</ele><time>2026-04-18T12:47:14.535Z</time></trkpt><trkpt lat="45.9739635" lon="12.0420474"><ele>780.7142857142857</ele><time>2026-04-18T12:47:17.534Z</time></trkpt><trkpt lat="45.9739915" lon="12.0419371"><ele>779.4285714285714</ele><time>2026-04-18T12:47:20.534Z</time></trkpt><trkpt lat="45.9740372" lon="12.0418642"><ele>778.1428571428571</ele><time>2026-04-18T12:47:23.535Z</time></trkpt><trkpt lat="45.9740957" lon="12.0418116"><ele>776.8571428571429</ele><time>2026-04-18T12:47:26.535Z</time></trkpt><trkpt lat="45.9741723" lon="12.0417812"><ele>775.5714285714286</ele><time>2026-04-18T12:47:29.535Z</time></trkpt><trkpt lat="45.9742249" lon="12.0417153"><ele>774.2857142857142</ele><time>2026-04-18T12:47:33.537Z</time></trkpt><trkpt lat="45.9742658" lon="12.0416419"><ele>773.0</ele><time>2026-04-18T12:47:36.535Z</time></trkpt><trkpt lat="45.9743406" lon="12.0415636"><ele>770.5000000000001</ele><time>2026-04-18T12:47:40.533Z</time></trkpt><trkpt lat="45.9744157" lon="12.0415243"><ele>768.0</ele><time>2026-04-18T12:47:42.535Z</time></trkpt><trkpt lat="45.9744739" lon="12.0414785"><ele>765.5</ele><time>2026-04-18T12:47:44.536Z</time></trkpt><trkpt lat="45.9745322" lon="12.0413986"><ele>763.0</ele><time>2026-04-18T12:47:47.537Z</time></trkpt><trkpt lat="45.9746072" lon="12.041333"><ele>760.5</ele><time>2026-04-18T12:47:50.535Z</time></trkpt><trkpt lat="45.9746708" lon="12.0413042"><ele>758.0</ele><time>2026-04-18T12:47:53.535Z</time></trkpt><trkpt lat="45.9747571" lon="12.0412972"><ele>758.0</ele><time>2026-04-18T12:47:57.535Z</time></trkpt><trkpt lat="45.9748294" lon="12.0412899"><ele>758.0</ele><time>2026-04-18T12:48:00.534Z</time></trkpt><trkpt lat="45.9749094" lon="12.0412442"><ele>758.0</ele><time>2026-04-18T12:48:03.535Z</time></trkpt><trkpt lat="45.9749795" lon="12.0412082"><ele>758.0</ele><time>2026-04-18T12:48:07.535Z</time></trkpt><trkpt lat="45.9750453" lon="12.0411803"><ele>758.0</ele><time>2026-04-18T12:48:10.535Z</time></trkpt><trkpt lat="45.9751075" lon="12.0411279"><ele>758.0</ele><time>2026-04-18T12:48:14.533Z</time></trkpt><trkpt lat="45.9751881" lon="12.0410899"><ele>756.0000000000001</ele><time>2026-04-18T12:48:49.534Z</time></trkpt><trkpt lat="45.9752443" lon="12.0410246"><ele>754.0</ele><time>2026-04-18T12:48:52.534Z</time></trkpt><trkpt lat="45.9752783" lon="12.0409409"><ele>752.0</ele><time>2026-04-18T12:48:55.537Z</time></trkpt><trkpt lat="45.9753335" lon="12.0408427"><ele>750.0</ele><time>2026-04-18T12:48:59.537Z</time></trkpt><trkpt lat="45.9753822" lon="12.0407778"><ele>748.0</ele><time>2026-04-18T12:49:02.537Z</time></trkpt><trkpt lat="45.9754251" lon="12.0406992"><ele>746.0000000000001</ele><time>2026-04-18T12:49:05.537Z</time></trkpt><trkpt lat="45.9754815" lon="12.0406286"><ele>744.0</ele><time>2026-04-18T12:49:08.537Z</time></trkpt><trkpt lat="45.975549" lon="12.0405755"><ele>743.8571428571429</ele><time>2026-04-18T12:49:12.537Z</time></trkpt><trkpt lat="45.9756022" lon="12.0405061"><ele>743.7142857142858</ele><time>2026-04-18T12:49:15.537Z</time></trkpt><trkpt lat="45.9756562" lon="12.0404297"><ele>743.5714285714287</ele><time>2026-04-18T12:49:19.539Z</time></trkpt><trkpt lat="45.97572" lon="12.0403791"><ele>743.4285714285714</ele><time>2026-04-18T12:49:23.538Z</time></trkpt><trkpt lat="45.9757601" lon="12.0403063"><ele>743.2857142857142</ele><time>2026-04-18T12:49:26.538Z</time></trkpt><trkpt lat="45.9758204" lon="12.0402379"><ele>743.1428571428572</ele><time>2026-04-18T12:49:29.535Z</time></trkpt><trkpt lat="45.9758939" lon="12.0401751"><ele>743.0</ele><time>2026-04-18T12:49:32.536Z</time></trkpt><trkpt lat="45.9759576" lon="12.0401066"><ele>740.5</ele><time>2026-04-18T12:49:35.536Z</time></trkpt><trkpt lat="45.9760181" lon="12.0400513"><ele>738.0</ele><time>2026-04-18T12:49:38.537Z</time></trkpt><trkpt lat="45.9760742" lon="12.0399995"><ele>735.5</ele><time>2026-04-18T12:49:41.535Z</time></trkpt><trkpt lat="45.97613" lon="12.0399272"><ele>733.0</ele><time>2026-04-18T12:49:45.539Z</time></trkpt><trkpt lat="45.9761912" lon="12.0398382"><ele>730.5</ele><time>2026-04-18T12:49:49.54Z</time></trkpt><trkpt lat="45.9762425" lon="12.0397549"><ele>728.0</ele><time>2026-04-18T12:49:52.537Z</time></trkpt><trkpt lat="45.9763134" lon="12.039684"><ele>728.0</ele><time>2026-04-18T12:49:55.537Z</time></trkpt><trkpt lat="45.9763899" lon="12.0396441"><ele>728.0</ele><time>2026-04-18T12:49:58.538Z</time></trkpt><trkpt lat="45.9764665" lon="12.0396017"><ele>728.0</ele><time>2026-04-18T12:50:01.537Z</time></trkpt><trkpt lat="45.9765445" lon="12.039564"><ele>728.0</ele><time>2026-04-18T12:50:04.538Z</time></trkpt><trkpt lat="45.9766126" lon="12.0395367"><ele>728.0</ele><time>2026-04-18T12:50:07.537Z</time></trkpt><trkpt lat="45.9766755" lon="12.0395132"><ele>728.0</ele><time>2026-04-18T12:50:10.536Z</time></trkpt><trkpt lat="45.9767442" lon="12.0395026"><ele>726.8333333333333</ele><time>2026-04-18T12:50:13.538Z</time></trkpt><trkpt lat="45.9768288" lon="12.0394658"><ele>725.6666666666666</ele><time>2026-04-18T12:50:16.537Z</time></trkpt><trkpt lat="45.9768893" lon="12.0393908"><ele>724.5</ele><time>2026-04-18T12:50:19.536Z</time></trkpt><trkpt lat="45.9769629" lon="12.0393468"><ele>723.3333333333334</ele><time>2026-04-18T12:50:22.537Z</time></trkpt><trkpt lat="45.9770329" lon="12.0393032"><ele>722.1666666666667</ele><time>2026-04-18T12:50:25.537Z</time></trkpt><trkpt lat="45.9770825" lon="12.0392429"><ele>721.0</ele><time>2026-04-18T12:50:28.536Z</time></trkpt><trkpt lat="45.9771313" lon="12.0391756"><ele>720.5714285714286</ele><time>2026-04-18T12:50:31.537Z</time></trkpt><trkpt lat="45.9771951" lon="12.0391191"><ele>720.1428571428571</ele><time>2026-04-18T12:50:34.537Z</time></trkpt><trkpt lat="45.9772389" lon="12.0390528"><ele>719.7142857142858</ele><time>2026-04-18T12:50:37.537Z</time></trkpt><trkpt lat="45.9772792" lon="12.0389682"><ele>719.2857142857142</ele><time>2026-04-18T12:50:40.537Z</time></trkpt><trkpt lat="45.9773262" lon="12.0388804"><ele>718.8571428571429</ele><time>2026-04-18T12:50:43.537Z</time></trkpt><trkpt lat="45.9773728" lon="12.0387919"><ele>718.4285714285714</ele><time>2026-04-18T12:50:46.541Z</time></trkpt><trkpt lat="45.9774231" lon="12.0387172"><ele>718.0</ele><time>2026-04-18T12:50:49.537Z</time></trkpt><trkpt lat="45.9774748" lon="12.0386595"><ele>717.6666666666667</ele><time>2026-04-18T12:50:52.538Z</time></trkpt><trkpt lat="45.9775288" lon="12.0385655"><ele>717.3333333333334</ele><time>2026-04-18T12:50:56.537Z</time></trkpt><trkpt lat="45.977576" lon="12.03848"><ele>717.0</ele><time>2026-04-18T12:50:59.536Z</time></trkpt><trkpt lat="45.9776351" lon="12.0383972"><ele>716.6666666666666</ele><time>2026-04-18T12:51:02.539Z</time></trkpt><trkpt lat="45.9776908" lon="12.038309"><ele>716.3333333333333</ele><time>2026-04-18T12:51:06.537Z</time></trkpt><trkpt lat="45.9777264" lon="12.0382139"><ele>716.0</ele><time>2026-04-18T12:51:09.541Z</time></trkpt><trkpt lat="45.9777927" lon="12.0381492"><ele>713.5</ele><time>2026-04-18T12:51:12.536Z</time></trkpt><trkpt lat="45.9778566" lon="12.0380616"><ele>711.0</ele><time>2026-04-18T12:51:15.539Z</time></trkpt><trkpt lat="45.97791" lon="12.037999"><ele>708.5</ele><time>2026-04-18T12:51:17.537Z</time></trkpt><trkpt lat="45.9779612" lon="12.0379246"><ele>706.0</ele><time>2026-04-18T12:51:19.537Z</time></trkpt><trkpt lat="45.9780106" lon="12.0378633"><ele>703.5</ele><time>2026-04-18T12:51:21.537Z</time></trkpt><trkpt lat="45.9780797" lon="12.0377774"><ele>701.0</ele><time>2026-04-18T12:51:24.537Z</time></trkpt><trkpt lat="45.9781314" lon="12.0377225"><ele>701.0</ele><time>2026-04-18T12:51:26.537Z</time></trkpt><trkpt lat="45.9781973" lon="12.037659"><ele>701.0</ele><time>2026-04-18T12:51:28.536Z</time></trkpt><trkpt lat="45.9782588" lon="12.0375882"><ele>701.0</ele><time>2026-04-18T12:51:30.537Z</time></trkpt><trkpt lat="45.9783037" lon="12.0375117"><ele>701.0</ele><time>2026-04-18T12:51:32.536Z</time></trkpt><trkpt lat="45.9783512" lon="12.0374458"><ele>701.0</ele><time>2026-04-18T12:51:34.536Z</time></trkpt><trkpt lat="45.9783985" lon="12.0373582"><ele>701.0</ele><time>2026-04-18T12:51:37.537Z</time></trkpt><trkpt lat="45.978446" lon="12.0372773"><ele>701.0</ele><time>2026-04-18T12:51:40.539Z</time></trkpt><trkpt lat="45.9784916" lon="12.0371837"><ele>698.6666666666666</ele><time>2026-04-18T12:51:43.538Z</time></trkpt><trkpt lat="45.9785468" lon="12.0370792"><ele>696.3333333333333</ele><time>2026-04-18T12:51:46.539Z</time></trkpt><trkpt lat="45.9785864" lon="12.0370073"><ele>694.0</ele><time>2026-04-18T12:51:48.537Z</time></trkpt><trkpt lat="45.9786223" lon="12.0369032"><ele>691.6666666666666</ele><time>2026-04-18T12:51:51.535Z</time></trkpt><trkpt lat="45.9787045" lon="12.0368379"><ele>689.3333333333334</ele><time>2026-04-18T12:51:54.537Z</time></trkpt><trkpt lat="45.978777" lon="12.0368044"><ele>687.0</ele><time>2026-04-18T12:51:56.537Z</time></trkpt><trkpt lat="45.9788442" lon="12.0367796"><ele>687.0</ele><time>2026-04-18T12:51:58.535Z</time></trkpt><trkpt lat="45.9789059" lon="12.036742"><ele>687.0</ele><time>2026-04-18T12:52:00.537Z</time></trkpt><trkpt lat="45.9789954" lon="12.0366925"><ele>687.0</ele><time>2026-04-18T12:52:03.536Z</time></trkpt><trkpt lat="45.9790714" lon="12.0366454"><ele>687.0</ele><time>2026-04-18T12:52:06.538Z</time></trkpt><trkpt lat="45.9791506" lon="12.0365967"><ele>687.0</ele><time>2026-04-18T12:52:09.536Z</time></trkpt><trkpt lat="45.9792193" lon="12.0365257"><ele>687.0</ele><time>2026-04-18T12:52:12.537Z</time></trkpt><trkpt lat="45.9792816" lon="12.0364479"><ele>685.1666666666666</ele><time>2026-04-18T12:52:15.538Z</time></trkpt><trkpt lat="45.9793462" lon="12.0363739"><ele>683.3333333333334</ele><time>2026-04-18T12:52:18.537Z</time></trkpt><trkpt lat="45.9793929" lon="12.036279"><ele>681.5</ele><time>2026-04-18T12:52:21.536Z</time></trkpt><trkpt lat="45.9794401" lon="12.0361846"><ele>679.6666666666667</ele><time>2026-04-18T12:52:24.537Z</time></trkpt><trkpt lat="45.9794824" lon="12.0360882"><ele>677.8333333333334</ele><time>2026-04-18T12:52:27.536Z</time></trkpt><trkpt lat="45.9795549" lon="12.0360043"><ele>676.0</ele><time>2026-04-18T12:52:30.537Z</time></trkpt><trkpt lat="45.9796208" lon="12.035933"><ele>676.0</ele><time>2026-04-18T12:52:33.537Z</time></trkpt><trkpt lat="45.979673" lon="12.0358586"><ele>676.0</ele><time>2026-04-18T12:52:36.537Z</time></trkpt><trkpt lat="45.9797439" lon="12.0357855"><ele>676.0</ele><time>2026-04-18T12:52:39.538Z</time></trkpt><trkpt lat="45.9798082" lon="12.0357"><ele>676.0</ele><time>2026-04-18T12:52:42.537Z</time></trkpt><trkpt lat="45.9798613" lon="12.035606"><ele>676.0</ele><time>2026-04-18T12:52:45.535Z</time></trkpt><trkpt lat="45.9799225" lon="12.0355354"><ele>676.0</ele><time>2026-04-18T12:52:48.538Z</time></trkpt><trkpt lat="45.9799771" lon="12.0354867"><ele>673.0</ele><time>2026-04-18T12:52:51.536Z</time></trkpt><trkpt lat="45.980034" lon="12.0354345"><ele>670.0</ele><time>2026-04-18T12:52:54.537Z</time></trkpt><trkpt lat="45.9800917" lon="12.0353886"><ele>667.0</ele><time>2026-04-18T12:52:57.539Z</time></trkpt><trkpt lat="45.9801527" lon="12.0353604"><ele>664.0</ele><time>2026-04-18T12:52:59.537Z</time></trkpt><trkpt lat="45.980224" lon="12.0353075"><ele>661.0</ele><time>2026-04-18T12:53:02.535Z</time></trkpt><trkpt lat="45.9802849" lon="12.0352529"><ele>658.0</ele><time>2026-04-18T12:53:04.537Z</time></trkpt><trkpt lat="45.9803526" lon="12.0352001"><ele>655.0</ele><time>2026-04-18T12:53:06.535Z</time></trkpt><trkpt lat="45.9804145" lon="12.0351423"><ele>655.0</ele><time>2026-04-18T12:53:08.537Z</time></trkpt><trkpt lat="45.980488" lon="12.0351018"><ele>655.0</ele><time>2026-04-18T12:53:10.535Z</time></trkpt><trkpt lat="45.9805591" lon="12.0350724"><ele>655.0</ele><time>2026-04-18T12:53:12.537Z</time></trkpt><trkpt lat="45.9806258" lon="12.0350228"><ele>655.0</ele><time>2026-04-18T12:53:14.537Z</time></trkpt><trkpt lat="45.980686" lon="12.0349588"><ele>655.0</ele><time>2026-04-18T12:53:16.537Z</time></trkpt><trkpt lat="45.9807424" lon="12.0349092"><ele>655.0</ele><time>2026-04-18T12:53:18.536Z</time></trkpt><trkpt lat="45.9808093" lon="12.0348529"><ele>655.0</ele><time>2026-04-18T12:53:21.537Z</time></trkpt><trkpt lat="45.9808652" lon="12.0347627"><ele>654.3333333333334</ele><time>2026-04-18T12:53:24.536Z</time></trkpt><trkpt lat="45.9809365" lon="12.0347165"><ele>653.6666666666667</ele><time>2026-04-18T12:53:27.536Z</time></trkpt><trkpt lat="45.9809955" lon="12.0346549"><ele>653.0</ele><time>2026-04-18T12:53:30.537Z</time></trkpt><trkpt lat="45.9810438" lon="12.0345705"><ele>652.3333333333334</ele><time>2026-04-18T12:53:33.539Z</time></trkpt><trkpt lat="45.9811104" lon="12.0344807"><ele>651.6666666666666</ele><time>2026-04-18T12:53:36.535Z</time></trkpt><trkpt lat="45.9811691" lon="12.0343959"><ele>651.0</ele><time>2026-04-18T12:53:39.537Z</time></trkpt><trkpt lat="45.9812377" lon="12.0343294"><ele>651.0</ele><time>2026-04-18T12:53:42.536Z</time></trkpt><trkpt lat="45.9813059" lon="12.0342615"><ele>651.0</ele><time>2026-04-18T12:53:46.538Z</time></trkpt><trkpt lat="45.9813816" lon="12.0341911"><ele>651.0</ele><time>2026-04-18T12:53:49.537Z</time></trkpt><trkpt lat="45.9814388" lon="12.0341272"><ele>651.0</ele><time>2026-04-18T12:53:51.537Z</time></trkpt><trkpt lat="45.981499" lon="12.0340659"><ele>651.0</ele><time>2026-04-18T12:53:53.538Z</time></trkpt><trkpt lat="45.9815584" lon="12.034005"><ele>651.0</ele><time>2026-04-18T12:53:55.537Z</time></trkpt><trkpt lat="45.9816219" lon="12.0339332"><ele>648.1666666666666</ele><time>2026-04-18T12:53:58.537Z</time></trkpt><trkpt lat="45.9816978" lon="12.0338634"><ele>645.3333333333334</ele><time>2026-04-18T12:54:01.537Z</time></trkpt><trkpt lat="45.9817577" lon="12.0338216"><ele>642.5</ele><time>2026-04-18T12:54:03.537Z</time></trkpt><trkpt lat="45.9818183" lon="12.0337832"><ele>639.6666666666667</ele><time>2026-04-18T12:54:05.537Z</time></trkpt><trkpt lat="45.9819095" lon="12.0337373"><ele>636.8333333333334</ele><time>2026-04-18T12:54:08.537Z</time></trkpt><trkpt lat="45.9819807" lon="12.0337037"><ele>634.0</ele><time>2026-04-18T12:54:10.536Z</time></trkpt><trkpt lat="45.9820662" lon="12.0336722"><ele>634.0</ele><time>2026-04-18T12:54:13.536Z</time></trkpt><trkpt lat="45.9821556" lon="12.0336088"><ele>634.0</ele><time>2026-04-18T12:54:16.536Z</time></trkpt><trkpt lat="45.9822095" lon="12.0335443"><ele>634.0</ele><time>2026-04-18T12:54:18.538Z</time></trkpt><trkpt lat="45.9822831" lon="12.0335296"><ele>634.0</ele><time>2026-04-18T12:54:20.537Z</time></trkpt><trkpt lat="45.9823494" lon="12.0334958"><ele>634.0</ele><time>2026-04-18T12:54:22.536Z</time></trkpt><trkpt lat="45.982419" lon="12.0334612"><ele>634.0</ele><time>2026-04-18T12:54:24.537Z</time></trkpt><trkpt lat="45.9825022" lon="12.0334214"><ele>633.3333333333334</ele><time>2026-04-18T12:54:27.537Z</time></trkpt><trkpt lat="45.9825797" lon="12.03338"><ele>632.6666666666667</ele><time>2026-04-18T12:54:30.536Z</time></trkpt><trkpt lat="45.9826428" lon="12.0333506"><ele>632.0</ele><time>2026-04-18T12:54:32.537Z</time></trkpt><trkpt lat="45.9827287" lon="12.0333233"><ele>631.3333333333334</ele><time>2026-04-18T12:54:35.535Z</time></trkpt><trkpt lat="45.9828126" lon="12.0332949"><ele>630.6666666666666</ele><time>2026-04-18T12:54:38.537Z</time></trkpt><trkpt lat="45.9828953" lon="12.0332513"><ele>630.0</ele><time>2026-04-18T12:54:41.537Z</time></trkpt><trkpt lat="45.9829734" lon="12.0332007"><ele>630.0</ele><time>2026-04-18T12:54:44.538Z</time></trkpt><trkpt lat="45.9830449" lon="12.0331724"><ele>630.0</ele><time>2026-04-18T12:54:47.538Z</time></trkpt><trkpt lat="45.9831171" lon="12.0331566"><ele>630.0</ele><time>2026-04-18T12:54:50.536Z</time></trkpt><trkpt lat="45.9831909" lon="12.033125"><ele>630.0</ele><time>2026-04-18T12:54:53.538Z</time></trkpt><trkpt lat="45.9832601" lon="12.0330769"><ele>630.0</ele><time>2026-04-18T12:54:56.537Z</time></trkpt><trkpt lat="45.9833236" lon="12.0330344"><ele>630.0</ele><time>2026-04-18T12:54:59.536Z</time></trkpt><trkpt lat="45.9833832" lon="12.03297"><ele>630.0</ele><time>2026-04-18T12:55:02.538Z</time></trkpt><trkpt lat="45.9834406" lon="12.0329195"><ele>633.0</ele><time>2026-04-18T12:55:05.536Z</time></trkpt><trkpt lat="45.9835049" lon="12.0328686"><ele>636.0</ele><time>2026-04-18T12:55:08.537Z</time></trkpt><trkpt lat="45.9835725" lon="12.0328039"><ele>639.0</ele><time>2026-04-18T12:55:11.536Z</time></trkpt><trkpt lat="45.9836319" lon="12.0327419"><ele>642.0</ele><time>2026-04-18T12:55:14.537Z</time></trkpt><trkpt lat="45.9836884" lon="12.0326799"><ele>645.0</ele><time>2026-04-18T12:55:17.536Z</time></trkpt><trkpt lat="45.9837489" lon="12.0326217"><ele>648.0</ele><time>2026-04-18T12:55:20.538Z</time></trkpt><trkpt lat="45.9838142" lon="12.0325658"><ele>651.0</ele><time>2026-04-18T12:55:23.536Z</time></trkpt><trkpt lat="45.9838858" lon="12.0325143"><ele>648.5</ele><time>2026-04-18T12:55:26.536Z</time></trkpt><trkpt lat="45.9839532" lon="12.0324666"><ele>646.0</ele><time>2026-04-18T12:55:29.535Z</time></trkpt><trkpt lat="45.9840205" lon="12.0324193"><ele>643.5</ele><time>2026-04-18T12:55:32.537Z</time></trkpt><trkpt lat="45.9840874" lon="12.0323717"><ele>641.0</ele><time>2026-04-18T12:55:35.537Z</time></trkpt><trkpt lat="45.984159" lon="12.0323169"><ele>638.5</ele><time>2026-04-18T12:55:38.536Z</time></trkpt><trkpt lat="45.9842286" lon="12.0322642"><ele>636.0</ele><time>2026-04-18T12:55:41.539Z</time></trkpt><trkpt lat="45.9842953" lon="12.0322123"><ele>636.0</ele><time>2026-04-18T12:55:44.536Z</time></trkpt><trkpt lat="45.9843555" lon="12.0321693"><ele>636.0</ele><time>2026-04-18T12:55:47.534Z</time></trkpt><trkpt lat="45.9844218" lon="12.0321173"><ele>636.0</ele><time>2026-04-18T12:55:50.536Z</time></trkpt><trkpt lat="45.984496" lon="12.0320585"><ele>636.0</ele><time>2026-04-18T12:55:53.539Z</time></trkpt><trkpt lat="45.9845784" lon="12.0320157"><ele>636.0</ele><time>2026-04-18T12:55:56.541Z</time></trkpt><trkpt lat="45.9846422" lon="12.0319978"><ele>636.0</ele><time>2026-04-18T12:55:58.537Z</time></trkpt><trkpt lat="45.9847313" lon="12.031977"><ele>636.0</ele><time>2026-04-18T12:56:01.534Z</time></trkpt><trkpt lat="45.9847997" lon="12.0319602"><ele>636.0</ele><time>2026-04-18T12:56:04.537Z</time></trkpt><trkpt lat="45.9848667" lon="12.0319638"><ele>636.0</ele><time>2026-04-18T12:56:07.535Z</time></trkpt><trkpt lat="45.9849369" lon="12.0319795"><ele>636.0</ele><time>2026-04-18T12:56:09.536Z</time></trkpt><trkpt lat="45.9849998" lon="12.0320104"><ele>636.0</ele><time>2026-04-18T12:56:11.536Z</time></trkpt><trkpt lat="45.9850645" lon="12.03203"><ele>636.0</ele><time>2026-04-18T12:56:13.536Z</time></trkpt><trkpt lat="45.9851383" lon="12.0320392"><ele>636.0</ele><time>2026-04-18T12:56:15.537Z</time></trkpt><trkpt lat="45.9852214" lon="12.0320488"><ele>635.1428571428571</ele><time>2026-04-18T12:56:17.536Z</time></trkpt><trkpt lat="45.985305" lon="12.0320483"><ele>634.2857142857143</ele><time>2026-04-18T12:56:19.537Z</time></trkpt><trkpt lat="45.985383" lon="12.0320496"><ele>633.4285714285714</ele><time>2026-04-18T12:56:21.534Z</time></trkpt><trkpt lat="45.985457" lon="12.032043"><ele>632.5714285714286</ele><time>2026-04-18T12:56:23.536Z</time></trkpt><trkpt lat="45.9855181" lon="12.0320183"><ele>631.7142857142858</ele><time>2026-04-18T12:56:25.536Z</time></trkpt><trkpt lat="45.9855822" lon="12.031994"><ele>630.8571428571429</ele><time>2026-04-18T12:56:27.536Z</time></trkpt><trkpt lat="45.9856499" lon="12.0319777"><ele>630.0</ele><time>2026-04-18T12:56:29.536Z</time></trkpt><trkpt lat="45.9857378" lon="12.0319623"><ele>630.0</ele><time>2026-04-18T12:56:32.536Z</time></trkpt><trkpt lat="45.9858139" lon="12.0319514"><ele>630.0</ele><time>2026-04-18T12:56:35.537Z</time></trkpt><trkpt lat="45.9858947" lon="12.0319434"><ele>630.0</ele><time>2026-04-18T12:56:38.536Z</time></trkpt><trkpt lat="45.9859595" lon="12.0319365"><ele>630.0</ele><time>2026-04-18T12:56:40.537Z</time></trkpt><trkpt lat="45.9860328" lon="12.0319304"><ele>630.0</ele><time>2026-04-18T12:56:42.539Z</time></trkpt><trkpt lat="45.9861122" lon="12.031931"><ele>630.0</ele><time>2026-04-18T12:56:44.537Z</time></trkpt><trkpt lat="45.9861996" lon="12.031913"><ele>630.6666666666666</ele><time>2026-04-18T12:56:46.536Z</time></trkpt><trkpt lat="45.9862941" lon="12.0319035"><ele>631.3333333333334</ele><time>2026-04-18T12:56:48.536Z</time></trkpt><trkpt lat="45.9863799" lon="12.0318899"><ele>632.0</ele><time>2026-04-18T12:56:50.536Z</time></trkpt><trkpt lat="45.9864536" lon="12.0318664"><ele>632.6666666666667</ele><time>2026-04-18T12:56:52.536Z</time></trkpt><trkpt lat="45.9865284" lon="12.0318614"><ele>633.3333333333334</ele><time>2026-04-18T12:56:54.535Z</time></trkpt><trkpt lat="45.9865968" lon="12.0318732"><ele>634.0</ele><time>2026-04-18T12:56:56.536Z</time></trkpt><trkpt lat="45.986664" lon="12.0318824"><ele>634.1666666666667</ele><time>2026-04-18T12:56:58.534Z</time></trkpt><trkpt lat="45.9867431" lon="12.0318676"><ele>634.3333333333334</ele><time>2026-04-18T12:57:00.537Z</time></trkpt><trkpt lat="45.9868319" lon="12.031839"><ele>634.5</ele><time>2026-04-18T12:57:02.537Z</time></trkpt><trkpt lat="45.98692" lon="12.0318116"><ele>634.6666666666666</ele><time>2026-04-18T12:57:04.536Z</time></trkpt><trkpt lat="45.9870023" lon="12.031794"><ele>634.8333333333333</ele><time>2026-04-18T12:57:06.536Z</time></trkpt><trkpt lat="45.987076" lon="12.0317757"><ele>635.0</ele><time>2026-04-18T12:57:08.538Z</time></trkpt><trkpt lat="45.9871531" lon="12.0317613"><ele>635.0</ele><time>2026-04-18T12:57:10.536Z</time></trkpt><trkpt lat="45.9872225" lon="12.0317321"><ele>635.0</ele><time>2026-04-18T12:57:12.535Z</time></trkpt><trkpt lat="45.9872873" lon="12.0317066"><ele>635.0</ele><time>2026-04-18T12:57:14.537Z</time></trkpt><trkpt lat="45.9873509" lon="12.0316825"><ele>635.0</ele><time>2026-04-18T12:57:16.536Z</time></trkpt><trkpt lat="45.9874122" lon="12.0316578"><ele>635.0</ele><time>2026-04-18T12:57:18.537Z</time></trkpt><trkpt lat="45.9875082" lon="12.0316371"><ele>635.0</ele><time>2026-04-18T12:57:21.537Z</time></trkpt><trkpt lat="45.9875969" lon="12.0316419"><ele>634.1428571428571</ele><time>2026-04-18T12:57:24.537Z</time></trkpt><trkpt lat="45.9876822" lon="12.0316746"><ele>633.2857142857142</ele><time>2026-04-18T12:57:27.54Z</time></trkpt><trkpt lat="45.9877662" lon="12.0316999"><ele>632.4285714285713</ele><time>2026-04-18T12:57:30.537Z</time></trkpt><trkpt lat="45.9878192" lon="12.0317515"><ele>631.5714285714286</ele><time>2026-04-18T12:57:32.539Z</time></trkpt><trkpt lat="45.9878824" lon="12.0318098"><ele>630.7142857142858</ele><time>2026-04-18T12:57:34.537Z</time></trkpt><trkpt lat="45.9879403" lon="12.0318533"><ele>629.8571428571428</ele><time>2026-04-18T12:57:36.537Z</time></trkpt><trkpt lat="45.9880039" lon="12.0318871"><ele>629.0</ele><time>2026-04-18T12:57:38.538Z</time></trkpt><trkpt lat="45.9880659" lon="12.0319087"><ele>629.0</ele><time>2026-04-18T12:57:40.54Z</time></trkpt><trkpt lat="45.9881255" lon="12.0319527"><ele>629.0</ele><time>2026-04-18T12:57:42.54Z</time></trkpt><trkpt lat="45.9881838" lon="12.0320062"><ele>629.0</ele><time>2026-04-18T12:57:44.537Z</time></trkpt><trkpt lat="45.9882425" lon="12.0320444"><ele>629.0</ele><time>2026-04-18T12:57:46.538Z</time></trkpt><trkpt lat="45.9883266" lon="12.0320907"><ele>629.0</ele><time>2026-04-18T12:57:49.539Z</time></trkpt><trkpt lat="45.9883951" lon="12.0321074"><ele>629.0</ele><time>2026-04-18T12:57:51.538Z</time></trkpt><trkpt lat="45.9884723" lon="12.0320948"><ele>629.0</ele><time>2026-04-18T12:57:54.538Z</time></trkpt><trkpt lat="45.9885609" lon="12.0320715"><ele>628.1428571428571</ele><time>2026-04-18T12:57:58.537Z</time></trkpt><trkpt lat="45.9886328" lon="12.0320628"><ele>627.2857142857143</ele><time>2026-04-18T12:58:00.539Z</time></trkpt><trkpt lat="45.9886954" lon="12.0320724"><ele>626.4285714285714</ele><time>2026-04-18T12:58:02.538Z</time></trkpt><trkpt lat="45.9887696" lon="12.0320837"><ele>625.5714285714286</ele><time>2026-04-18T12:58:05.539Z</time></trkpt><trkpt lat="45.988832" lon="12.0321013"><ele>624.7142857142858</ele><time>2026-04-18T12:58:07.538Z</time></trkpt><trkpt lat="45.9888999" lon="12.0321362"><ele>623.8571428571429</ele><time>2026-04-18T12:58:09.537Z</time></trkpt><trkpt lat="45.9889785" lon="12.0321964"><ele>623.0</ele><time>2026-04-18T12:58:12.538Z</time></trkpt><trkpt lat="45.9890485" lon="12.0322486"><ele>623.0</ele><time>2026-04-18T12:58:15.536Z</time></trkpt><trkpt lat="45.9891153" lon="12.0322873"><ele>623.0</ele><time>2026-04-18T12:58:18.537Z</time></trkpt><trkpt lat="45.989186" lon="12.0323523"><ele>623.0</ele><time>2026-04-18T12:58:20.537Z</time></trkpt><trkpt lat="45.9892443" lon="12.032421"><ele>623.0</ele><time>2026-04-18T12:58:22.537Z</time></trkpt><trkpt lat="45.9893046" lon="12.0324881"><ele>623.0</ele><time>2026-04-18T12:58:24.538Z</time></trkpt><trkpt lat="45.9893706" lon="12.032534"><ele>623.0</ele><time>2026-04-18T12:58:26.535Z</time></trkpt><trkpt lat="45.9894493" lon="12.0325862"><ele>624.8333333333333</ele><time>2026-04-18T12:58:28.537Z</time></trkpt><trkpt lat="45.9895261" lon="12.0326257"><ele>626.6666666666666</ele><time>2026-04-18T12:58:30.538Z</time></trkpt><trkpt lat="45.9896069" lon="12.0326608"><ele>628.5</ele><time>2026-04-18T12:58:32.538Z</time></trkpt><trkpt lat="45.9896709" lon="12.0326847"><ele>630.3333333333334</ele><time>2026-04-18T12:58:34.538Z</time></trkpt><trkpt lat="45.9897589" lon="12.0327074"><ele>632.1666666666667</ele><time>2026-04-18T12:58:37.538Z</time></trkpt><trkpt lat="45.9898529" lon="12.0327407"><ele>634.0</ele><time>2026-04-18T12:58:40.538Z</time></trkpt><trkpt lat="45.9899454" lon="12.032744"><ele>632.6666666666667</ele><time>2026-04-18T12:58:43.537Z</time></trkpt><trkpt lat="45.99003" lon="12.0327329"><ele>631.3333333333334</ele><time>2026-04-18T12:58:46.538Z</time></trkpt><trkpt lat="45.990129" lon="12.032727"><ele>630.0</ele><time>2026-04-18T12:58:49.537Z</time></trkpt><trkpt lat="45.9902154" lon="12.0327437"><ele>628.6666666666666</ele><time>2026-04-18T12:58:51.539Z</time></trkpt><trkpt lat="45.9902836" lon="12.0327596"><ele>627.3333333333333</ele><time>2026-04-18T12:58:53.536Z</time></trkpt><trkpt lat="45.9903679" lon="12.0327678"><ele>626.0</ele><time>2026-04-18T12:58:56.54Z</time></trkpt><trkpt lat="45.9904319" lon="12.0327623"><ele>626.0</ele><time>2026-04-18T12:58:58.542Z</time></trkpt><trkpt lat="45.9904951" lon="12.0327581"><ele>626.0</ele><time>2026-04-18T12:59:00.537Z</time></trkpt><trkpt lat="45.9905921" lon="12.0327276"><ele>626.0</ele><time>2026-04-18T12:59:03.536Z</time></trkpt><trkpt lat="45.9906586" lon="12.0327118"><ele>626.0</ele><time>2026-04-18T12:59:05.538Z</time></trkpt><trkpt lat="45.9907394" lon="12.0326894"><ele>626.0</ele><time>2026-04-18T12:59:07.537Z</time></trkpt><trkpt lat="45.9908341" lon="12.0326728"><ele>626.0</ele><time>2026-04-18T12:59:09.538Z</time></trkpt><trkpt lat="45.9909368" lon="12.0326774"><ele>624.5</ele><time>2026-04-18T12:59:11.539Z</time></trkpt><trkpt lat="45.9910189" lon="12.0327028"><ele>623.0</ele><time>2026-04-18T12:59:13.539Z</time></trkpt><trkpt lat="45.9910949" lon="12.0327344"><ele>621.5</ele><time>2026-04-18T12:59:15.537Z</time></trkpt><trkpt lat="45.9911652" lon="12.0327376"><ele>620.0</ele><time>2026-04-18T12:59:18.538Z</time></trkpt><trkpt lat="45.9912522" lon="12.0327079"><ele>618.5</ele><time>2026-04-18T12:59:21.538Z</time></trkpt><trkpt lat="45.9913274" lon="12.0326941"><ele>617.0</ele><time>2026-04-18T12:59:23.537Z</time></trkpt><trkpt lat="45.9913935" lon="12.0326857"><ele>617.0</ele><time>2026-04-18T12:59:25.537Z</time></trkpt><trkpt lat="45.991475" lon="12.0326826"><ele>617.0</ele><time>2026-04-18T12:59:27.539Z</time></trkpt><trkpt lat="45.9915566" lon="12.032687"><ele>617.0</ele><time>2026-04-18T12:59:29.538Z</time></trkpt><trkpt lat="45.9916347" lon="12.032695"><ele>617.0</ele><time>2026-04-18T12:59:31.539Z</time></trkpt><trkpt lat="45.9917247" lon="12.0327137"><ele>617.0</ele><time>2026-04-18T12:59:33.538Z</time></trkpt><trkpt lat="45.9918193" lon="12.0327352"><ele>617.0</ele><time>2026-04-18T12:59:35.538Z</time></trkpt><trkpt lat="45.9918974" lon="12.0327552"><ele>616.2</ele><time>2026-04-18T12:59:37.539Z</time></trkpt><trkpt lat="45.991992" lon="12.0327721"><ele>615.4000000000001</ele><time>2026-04-18T12:59:39.539Z</time></trkpt><trkpt lat="45.9920848" lon="12.0327831"><ele>614.5999999999999</ele><time>2026-04-18T12:59:41.538Z</time></trkpt><trkpt lat="45.9921831" lon="12.0327922"><ele>613.8</ele><time>2026-04-18T12:59:43.539Z</time></trkpt><trkpt lat="45.9922693" lon="12.0327951"><ele>613.0</ele><time>2026-04-18T12:59:45.54Z</time></trkpt><trkpt lat="45.9923673" lon="12.0327997"><ele>611.4</ele><time>2026-04-18T12:59:47.537Z</time></trkpt><trkpt lat="45.992509" lon="12.0328062"><ele>609.8</ele><time>2026-04-18T12:59:49.539Z</time></trkpt><trkpt lat="45.9925779" lon="12.0328085"><ele>608.2</ele><time>2026-04-18T12:59:50.54Z</time></trkpt><trkpt lat="45.9926461" lon="12.03281"><ele>606.6</ele><time>2026-04-18T12:59:51.538Z</time></trkpt><trkpt lat="45.9927567" lon="12.0328281"><ele>605.0</ele><time>2026-04-18T12:59:53.536Z</time></trkpt><trkpt lat="45.9928393" lon="12.0328558"><ele>605.0</ele><time>2026-04-18T12:59:55.536Z</time></trkpt><trkpt lat="45.9929031" lon="12.03288"><ele>605.0</ele><time>2026-04-18T12:59:57.54Z</time></trkpt><trkpt lat="45.9929871" lon="12.0329152"><ele>605.0</ele><time>2026-04-18T13:00:00.538Z</time></trkpt><trkpt lat="45.9930843" lon="12.0329267"><ele>605.0</ele><time>2026-04-18T13:00:03.539Z</time></trkpt><trkpt lat="45.9931636" lon="12.032911"><ele>605.0</ele><time>2026-04-18T13:00:05.539Z</time></trkpt><trkpt lat="45.9932366" lon="12.0329002"><ele>605.0</ele><time>2026-04-18T13:00:07.538Z</time></trkpt><trkpt lat="45.9933041" lon="12.032895"><ele>600.8333333333333</ele><time>2026-04-18T13:00:09.537Z</time></trkpt><trkpt lat="45.9933825" lon="12.0329039"><ele>596.6666666666666</ele><time>2026-04-18T13:00:12.536Z</time></trkpt><trkpt lat="45.9934592" lon="12.0329102"><ele>592.5</ele><time>2026-04-18T13:00:14.538Z</time></trkpt><trkpt lat="45.9935352" lon="12.0328992"><ele>588.3333333333334</ele><time>2026-04-18T13:00:16.535Z</time></trkpt><trkpt lat="45.9936192" lon="12.0329049"><ele>584.1666666666667</ele><time>2026-04-18T13:00:18.537Z</time></trkpt><trkpt lat="45.9937023" lon="12.0329047"><ele>580.0</ele><time>2026-04-18T13:00:20.538Z</time></trkpt><trkpt lat="45.9937809" lon="12.032915"><ele>580.0</ele><time>2026-04-18T13:00:22.539Z</time></trkpt><trkpt lat="45.9938513" lon="12.0329288"><ele>580.0</ele><time>2026-04-18T13:00:24.539Z</time></trkpt><trkpt lat="45.9939147" lon="12.0329166"><ele>580.0</ele><time>2026-04-18T13:00:26.537Z</time></trkpt><trkpt lat="45.9939913" lon="12.0328925"><ele>580.0</ele><time>2026-04-18T13:00:29.538Z</time></trkpt><trkpt lat="45.9940549" lon="12.0328954"><ele>580.0</ele><time>2026-04-18T13:00:32.54Z</time></trkpt><trkpt lat="45.9941191" lon="12.0329344"><ele>580.0</ele><time>2026-04-18T13:00:36.54Z</time></trkpt><trkpt lat="45.9941732" lon="12.0329998"><ele>580.0</ele><time>2026-04-18T13:00:39.534Z</time></trkpt><trkpt lat="45.9942384" lon="12.0330776"><ele>574.4285714285714</ele><time>2026-04-18T13:00:42.534Z</time></trkpt><trkpt lat="45.9942893" lon="12.0331398"><ele>568.8571428571429</ele><time>2026-04-18T13:00:44.538Z</time></trkpt><trkpt lat="45.9943295" lon="12.0332214"><ele>563.2857142857143</ele><time>2026-04-18T13:00:46.536Z</time></trkpt><trkpt lat="45.9943639" lon="12.0333464"><ele>557.7142857142858</ele><time>2026-04-18T13:00:49.539Z</time></trkpt><trkpt lat="45.9943824" lon="12.0334334"><ele>552.1428571428571</ele><time>2026-04-18T13:00:51.54Z</time></trkpt><trkpt lat="45.9943897" lon="12.0335314"><ele>546.5714285714287</ele><time>2026-04-18T13:00:53.539Z</time></trkpt><trkpt lat="45.9944055" lon="12.0336373"><ele>541.0</ele><time>2026-04-18T13:00:55.538Z</time></trkpt><trkpt lat="45.9944276" lon="12.0337428"><ele>541.0</ele><time>2026-04-18T13:00:57.54Z</time></trkpt><trkpt lat="45.9944539" lon="12.0338503"><ele>541.0</ele><time>2026-04-18T13:00:59.536Z</time></trkpt><trkpt lat="45.9944992" lon="12.0339394"><ele>541.0</ele><time>2026-04-18T13:01:01.539Z</time></trkpt><trkpt lat="45.9945966" lon="12.0340587"><ele>541.0</ele><time>2026-04-18T13:01:04.538Z</time></trkpt><trkpt lat="45.9946626" lon="12.0341399"><ele>541.0</ele><time>2026-04-18T13:01:06.538Z</time></trkpt><trkpt lat="45.9947624" lon="12.0342467"><ele>541.0</ele><time>2026-04-18T13:01:09.536Z</time></trkpt><trkpt lat="45.9948265" lon="12.0343126"><ele>541.0</ele><time>2026-04-18T13:01:11.54Z</time></trkpt><trkpt lat="45.9949002" lon="12.0343709"><ele>541.0</ele><time>2026-04-18T13:01:13.543Z</time></trkpt><trkpt lat="45.9949751" lon="12.0344104"><ele>541.0</ele><time>2026-04-18T13:01:15.54Z</time></trkpt><trkpt lat="45.995053" lon="12.034449"><ele>541.0</ele><time>2026-04-18T13:01:17.538Z</time></trkpt><trkpt lat="45.9951168" lon="12.0345035"><ele>541.0</ele><time>2026-04-18T13:01:19.537Z</time></trkpt><trkpt lat="45.9951744" lon="12.0345487"><ele>541.0</ele><time>2026-04-18T13:01:21.536Z</time></trkpt><trkpt lat="45.9952352" lon="12.0345741"><ele>541.0</ele><time>2026-04-18T13:01:23.538Z</time></trkpt><trkpt lat="45.9952985" lon="12.03457"><ele>541.0</ele><time>2026-04-18T13:01:26.539Z</time></trkpt><trkpt lat="45.9953949" lon="12.034567"><ele>541.0</ele><time>2026-04-18T13:01:29.537Z</time></trkpt><trkpt lat="45.9954769" lon="12.0345801"><ele>541.0</ele><time>2026-04-18T13:01:31.537Z</time></trkpt><trkpt lat="45.9955622" lon="12.0346299"><ele>541.0</ele><time>2026-04-18T13:01:33.537Z</time></trkpt><trkpt lat="45.9956494" lon="12.0347029"><ele>541.0</ele><time>2026-04-18T13:01:35.541Z</time></trkpt><trkpt lat="45.9957371" lon="12.0347883"><ele>541.0</ele><time>2026-04-18T13:01:37.54Z</time></trkpt><trkpt lat="45.9958128" lon="12.0348832"><ele>541.0</ele><time>2026-04-18T13:01:39.536Z</time></trkpt><trkpt lat="45.9958842" lon="12.0349595"><ele>541.0</ele><time>2026-04-18T13:01:41.54Z</time></trkpt><trkpt lat="45.9959463" lon="12.0350229"><ele>541.0</ele><time>2026-04-18T13:01:43.538Z</time></trkpt><trkpt lat="45.9960129" lon="12.0350728"><ele>541.0</ele><time>2026-04-18T13:01:45.536Z</time></trkpt><trkpt lat="45.9960727" lon="12.0351323"><ele>538.5</ele><time>2026-04-18T13:01:47.537Z</time></trkpt><trkpt lat="45.9961312" lon="12.035225"><ele>536.0</ele><time>2026-04-18T13:01:50.538Z</time></trkpt><trkpt lat="45.9961132" lon="12.0353391"><ele>533.5</ele><time>2026-04-18T13:01:53.537Z</time></trkpt><trkpt lat="45.9960789" lon="12.0354249"><ele>531.0</ele><time>2026-04-18T13:01:55.536Z</time></trkpt><trkpt lat="45.9960601" lon="12.0355195"><ele>528.5</ele><time>2026-04-18T13:01:57.539Z</time></trkpt><trkpt lat="45.9960738" lon="12.0356187"><ele>526.0</ele><time>2026-04-18T13:01:59.537Z</time></trkpt><trkpt lat="45.9961004" lon="12.0357431"><ele>529.6</ele><time>2026-04-18T13:02:01.538Z</time></trkpt><trkpt lat="45.9961385" lon="12.0358822"><ele>533.2</ele><time>2026-04-18T13:02:03.537Z</time></trkpt><trkpt lat="45.9961779" lon="12.0360266"><ele>536.8</ele><time>2026-04-18T13:02:05.537Z</time></trkpt><trkpt lat="45.9962151" lon="12.0361576"><ele>540.4</ele><time>2026-04-18T13:02:07.539Z</time></trkpt><trkpt lat="45.9962593" lon="12.036294"><ele>544.0</ele><time>2026-04-18T13:02:09.538Z</time></trkpt><trkpt lat="45.9962999" lon="12.0364127"><ele>544.0</ele><time>2026-04-18T13:02:11.539Z</time></trkpt><trkpt lat="45.9963474" lon="12.03651"><ele>544.0</ele><time>2026-04-18T13:02:13.539Z</time></trkpt><trkpt lat="45.9964144" lon="12.0365866"><ele>544.0</ele><time>2026-04-18T13:02:15.538Z</time></trkpt><trkpt lat="45.9964514" lon="12.0366618"><ele>544.0</ele><time>2026-04-18T13:02:17.538Z</time></trkpt><trkpt lat="45.9964854" lon="12.0367574"><ele>544.0</ele><time>2026-04-18T13:02:19.537Z</time></trkpt><trkpt lat="45.9965135" lon="12.0368572"><ele>544.0</ele><time>2026-04-18T13:02:21.538Z</time></trkpt><trkpt lat="45.9965301" lon="12.0369557"><ele>543.6666666666667</ele><time>2026-04-18T13:02:23.535Z</time></trkpt><trkpt lat="45.9965329" lon="12.037066"><ele>543.3333333333334</ele><time>2026-04-18T13:02:25.537Z</time></trkpt><trkpt lat="45.9965405" lon="12.0371743"><ele>543.0</ele><time>2026-04-18T13:02:27.537Z</time></trkpt><trkpt lat="45.9965713" lon="12.0372864"><ele>542.6666666666666</ele><time>2026-04-18T13:02:29.536Z</time></trkpt><trkpt lat="45.9966116" lon="12.0373954"><ele>542.3333333333333</ele><time>2026-04-18T13:02:31.539Z</time></trkpt><trkpt lat="45.9966481" lon="12.0374876"><ele>542.0</ele><time>2026-04-18T13:02:33.537Z</time></trkpt><trkpt lat="45.9966917" lon="12.0375861"><ele>542.0</ele><time>2026-04-18T13:02:35.538Z</time></trkpt><trkpt lat="45.9967328" lon="12.0376737"><ele>542.0</ele><time>2026-04-18T13:02:37.537Z</time></trkpt><trkpt lat="45.9967646" lon="12.0377571"><ele>542.0</ele><time>2026-04-18T13:02:39.539Z</time></trkpt><trkpt lat="45.996768" lon="12.0378505"><ele>542.0</ele><time>2026-04-18T13:02:41.537Z</time></trkpt><trkpt lat="45.9966951" lon="12.0379288"><ele>542.0</ele><time>2026-04-18T13:02:44.538Z</time></trkpt><trkpt lat="45.9966169" lon="12.0379313"><ele>542.0</ele><time>2026-04-18T13:02:46.539Z</time></trkpt><trkpt lat="45.9965525" lon="12.0379302"><ele>542.0</ele><time>2026-04-18T13:02:48.538Z</time></trkpt><trkpt lat="45.996481" lon="12.0379769"><ele>543.4285714285714</ele><time>2026-04-18T13:02:51.537Z</time></trkpt><trkpt lat="45.9964338" lon="12.0380918"><ele>544.8571428571429</ele><time>2026-04-18T13:02:54.538Z</time></trkpt><trkpt lat="45.9964238" lon="12.0381963"><ele>546.2857142857143</ele><time>2026-04-18T13:02:56.538Z</time></trkpt><trkpt lat="45.9964438" lon="12.0382826"><ele>547.7142857142858</ele><time>2026-04-18T13:02:58.537Z</time></trkpt><trkpt lat="45.9964825" lon="12.0383615"><ele>549.1428571428572</ele><time>2026-04-18T13:03:00.537Z</time></trkpt><trkpt lat="45.9964928" lon="12.038474"><ele>550.5714285714286</ele><time>2026-04-18T13:03:03.537Z</time></trkpt><trkpt lat="45.996445" lon="12.0385344"><ele>552.0</ele><time>2026-04-18T13:03:05.537Z</time></trkpt><trkpt lat="45.9963866" lon="12.0385927"><ele>548.5714285714286</ele><time>2026-04-18T13:03:07.536Z</time></trkpt><trkpt lat="45.9963254" lon="12.0386963"><ele>545.1428571428572</ele><time>2026-04-18T13:03:10.538Z</time></trkpt><trkpt lat="45.9962883" lon="12.0387733"><ele>541.7142857142858</ele><time>2026-04-18T13:03:12.537Z</time></trkpt><trkpt lat="45.9962646" lon="12.0388659"><ele>538.2857142857143</ele><time>2026-04-18T13:03:14.538Z</time></trkpt><trkpt lat="45.9962307" lon="12.0389449"><ele>534.8571428571429</ele><time>2026-04-18T13:03:16.539Z</time></trkpt><trkpt lat="45.9962088" lon="12.0390299"><ele>531.4285714285714</ele><time>2026-04-18T13:03:18.536Z</time></trkpt><trkpt lat="45.9961501" lon="12.0391294"><ele>528.0</ele><time>2026-04-18T13:03:21.538Z</time></trkpt><trkpt lat="45.9961097" lon="12.0392158"><ele>524.0</ele><time>2026-04-18T13:03:23.538Z</time></trkpt><trkpt lat="45.9960774" lon="12.0393204"><ele>520.0</ele><time>2026-04-18T13:03:25.537Z</time></trkpt><trkpt lat="45.9960596" lon="12.0394312"><ele>516.0</ele><time>2026-04-18T13:03:27.537Z</time></trkpt><trkpt lat="45.9960432" lon="12.0395462"><ele>512.0</ele><time>2026-04-18T13:03:29.536Z</time></trkpt><trkpt lat="45.9960137" lon="12.0396453"><ele>508.0</ele><time>2026-04-18T13:03:31.537Z</time></trkpt><trkpt lat="45.9959831" lon="12.0397396"><ele>504.0</ele><time>2026-04-18T13:03:33.537Z</time></trkpt><trkpt lat="45.9959435" lon="12.0398198"><ele>504.0</ele><time>2026-04-18T13:03:35.539Z</time></trkpt><trkpt lat="45.9959152" lon="12.039913"><ele>504.0</ele><time>2026-04-18T13:03:37.537Z</time></trkpt><trkpt lat="45.9959184" lon="12.0400212"><ele>504.0</ele><time>2026-04-18T13:03:39.538Z</time></trkpt><trkpt lat="45.9958851" lon="12.0401337"><ele>504.0</ele><time>2026-04-18T13:03:42.537Z</time></trkpt><trkpt lat="45.9958267" lon="12.0402364"><ele>504.0</ele><time>2026-04-18T13:03:45.537Z</time></trkpt><trkpt lat="45.9958192" lon="12.0403435"><ele>504.0</ele><time>2026-04-18T13:03:48.536Z</time></trkpt><trkpt lat="45.9958869" lon="12.0403667"><ele>505.0</ele><time>2026-04-18T13:03:51.538Z</time></trkpt><trkpt lat="45.9959475" lon="12.0403293"><ele>506.0</ele><time>2026-04-18T13:03:53.536Z</time></trkpt><trkpt lat="45.9960136" lon="12.0402625"><ele>507.0</ele><time>2026-04-18T13:03:55.537Z</time></trkpt><trkpt lat="45.9960781" lon="12.0402104"><ele>508.0</ele><time>2026-04-18T13:03:57.537Z</time></trkpt><trkpt lat="45.9961448" lon="12.0401835"><ele>509.0</ele><time>2026-04-18T13:03:59.535Z</time></trkpt><trkpt lat="45.9962086" lon="12.040197"><ele>510.0</ele><time>2026-04-18T13:04:01.538Z</time></trkpt><trkpt lat="45.9962855" lon="12.0402118"><ele>511.0</ele><time>2026-04-18T13:04:04.537Z</time></trkpt><trkpt lat="45.9963548" lon="12.0401603"><ele>511.0</ele><time>2026-04-18T13:04:07.536Z</time></trkpt><trkpt lat="45.9963929" lon="12.0400815"><ele>511.0</ele><time>2026-04-18T13:04:09.538Z</time></trkpt><trkpt lat="45.9964308" lon="12.0400072"><ele>511.0</ele><time>2026-04-18T13:04:11.536Z</time></trkpt><trkpt lat="45.9964784" lon="12.0399071"><ele>511.0</ele><time>2026-04-18T13:04:14.537Z</time></trkpt><trkpt lat="45.9965252" lon="12.039798"><ele>511.0</ele><time>2026-04-18T13:04:17.536Z</time></trkpt><trkpt lat="45.9965673" lon="12.0397305"><ele>511.0</ele><time>2026-04-18T13:04:19.537Z</time></trkpt><trkpt lat="45.9966108" lon="12.0396611"><ele>511.0</ele><time>2026-04-18T13:04:21.537Z</time></trkpt><trkpt lat="45.9966693" lon="12.0395856"><ele>509.6666666666667</ele><time>2026-04-18T13:04:23.539Z</time></trkpt><trkpt lat="45.9967316" lon="12.0395103"><ele>508.33333333333337</ele><time>2026-04-18T13:04:26.536Z</time></trkpt><trkpt lat="45.996799" lon="12.0394259"><ele>507.0</ele><time>2026-04-18T13:04:29.536Z</time></trkpt><trkpt lat="45.9968669" lon="12.0393724"><ele>505.66666666666663</ele><time>2026-04-18T13:04:31.539Z</time></trkpt><trkpt lat="45.9969246" lon="12.0393225"><ele>504.3333333333333</ele><time>2026-04-18T13:04:33.538Z</time></trkpt><trkpt lat="45.9970157" lon="12.0393066"><ele>503.0</ele><time>2026-04-18T13:04:36.537Z</time></trkpt><trkpt lat="45.9970852" lon="12.039292"><ele>502.99999999999994</ele><time>2026-04-18T13:04:38.537Z</time></trkpt><trkpt lat="45.9971762" lon="12.0392672"><ele>503.0</ele><time>2026-04-18T13:04:40.538Z</time></trkpt><trkpt lat="45.9972361" lon="12.0392354"><ele>503.0</ele><time>2026-04-18T13:04:42.537Z</time></trkpt><trkpt lat="45.9973049" lon="12.0391654"><ele>503.0</ele><time>2026-04-18T13:04:45.536Z</time></trkpt><trkpt lat="45.9973611" lon="12.0390995"><ele>502.99999999999994</ele><time>2026-04-18T13:04:47.535Z</time></trkpt><trkpt lat="45.997415" lon="12.0390186"><ele>503.0</ele><time>2026-04-18T13:04:49.537Z</time></trkpt><trkpt lat="45.9974711" lon="12.0389467"><ele>500.16666666666663</ele><time>2026-04-18T13:04:51.537Z</time></trkpt><trkpt lat="45.9975256" lon="12.0388949"><ele>497.3333333333333</ele><time>2026-04-18T13:04:53.538Z</time></trkpt><trkpt lat="45.9975952" lon="12.038876"><ele>494.5</ele><time>2026-04-18T13:04:55.538Z</time></trkpt><trkpt lat="45.9976895" lon="12.0389072"><ele>491.66666666666663</ele><time>2026-04-18T13:04:57.538Z</time></trkpt><trkpt lat="45.9977728" lon="12.0389397"><ele>488.8333333333333</ele><time>2026-04-18T13:04:59.536Z</time></trkpt><trkpt lat="45.9978594" lon="12.0389806"><ele>486.0</ele><time>2026-04-18T13:05:01.539Z</time></trkpt><trkpt lat="45.9979314" lon="12.0389845"><ele>486.0</ele><time>2026-04-18T13:05:03.537Z</time></trkpt><trkpt lat="45.9980271" lon="12.0389939"><ele>486.0</ele><time>2026-04-18T13:05:06.538Z</time></trkpt><trkpt lat="45.9980952" lon="12.0389773"><ele>486.0</ele><time>2026-04-18T13:05:08.539Z</time></trkpt><trkpt lat="45.9981588" lon="12.0389281"><ele>486.0</ele><time>2026-04-18T13:05:10.536Z</time></trkpt><trkpt lat="45.9982277" lon="12.0388907"><ele>486.0</ele><time>2026-04-18T13:05:12.539Z</time></trkpt><trkpt lat="45.9982965" lon="12.0388557"><ele>486.0</ele><time>2026-04-18T13:05:14.538Z</time></trkpt><trkpt lat="45.9983601" lon="12.038802"><ele>486.3333333333333</ele><time>2026-04-18T13:05:16.537Z</time></trkpt><trkpt lat="45.998433" lon="12.0387299"><ele>486.66666666666663</ele><time>2026-04-18T13:05:18.537Z</time></trkpt><trkpt lat="45.9985082" lon="12.038676"><ele>487.0</ele><time>2026-04-18T13:05:20.538Z</time></trkpt><trkpt lat="45.9985789" lon="12.0386221"><ele>487.3333333333333</ele><time>2026-04-18T13:05:22.539Z</time></trkpt><trkpt lat="45.9986433" lon="12.0385939"><ele>487.66666666666663</ele><time>2026-04-18T13:05:24.538Z</time></trkpt><trkpt lat="45.9987151" lon="12.0385459"><ele>488.0</ele><time>2026-04-18T13:05:26.538Z</time></trkpt><trkpt lat="45.99878" lon="12.0385047"><ele>487.99999999999994</ele><time>2026-04-18T13:05:28.537Z</time></trkpt><trkpt lat="45.9988402" lon="12.0384609"><ele>488.0</ele><time>2026-04-18T13:05:30.534Z</time></trkpt><trkpt lat="45.9989127" lon="12.0384228"><ele>487.99999999999994</ele><time>2026-04-18T13:05:32.537Z</time></trkpt><trkpt lat="45.9989863" lon="12.0384067"><ele>487.99999999999994</ele><time>2026-04-18T13:05:34.537Z</time></trkpt><trkpt lat="45.9990524" lon="12.0384203"><ele>488.0</ele><time>2026-04-18T13:05:36.537Z</time></trkpt><trkpt lat="45.9991134" lon="12.0384483"><ele>487.99999999999994</ele><time>2026-04-18T13:05:38.538Z</time></trkpt><trkpt lat="45.9991953" lon="12.0384933"><ele>487.99999999999994</ele><time>2026-04-18T13:05:41.536Z</time></trkpt><trkpt lat="45.9992615" lon="12.0385064"><ele>486.8333333333333</ele><time>2026-04-18T13:05:43.537Z</time></trkpt><trkpt lat="45.9993481" lon="12.0384859"><ele>485.66666666666663</ele><time>2026-04-18T13:05:46.537Z</time></trkpt><trkpt lat="45.9994318" lon="12.0384597"><ele>484.5</ele><time>2026-04-18T13:05:49.537Z</time></trkpt><trkpt lat="45.9994996" lon="12.0384522"><ele>483.33333333333337</ele><time>2026-04-18T13:05:51.535Z</time></trkpt><trkpt lat="45.999578" lon="12.0384526"><ele>482.1666666666667</ele><time>2026-04-18T13:05:53.537Z</time></trkpt><trkpt lat="45.9996394" lon="12.0384862"><ele>481.0</ele><time>2026-04-18T13:05:55.536Z</time></trkpt><trkpt lat="45.9996772" lon="12.0386109"><ele>480.99999999999994</ele><time>2026-04-18T13:05:58.537Z</time></trkpt><trkpt lat="45.999699" lon="12.0387043"><ele>481.0</ele><time>2026-04-18T13:06:00.536Z</time></trkpt><trkpt lat="45.9997122" lon="12.0387998"><ele>480.99999999999994</ele><time>2026-04-18T13:06:02.538Z</time></trkpt><trkpt lat="45.999734" lon="12.0388934"><ele>480.99999999999994</ele><time>2026-04-18T13:06:04.537Z</time></trkpt><trkpt lat="45.9997692" lon="12.0389696"><ele>481.0</ele><time>2026-04-18T13:06:06.534Z</time></trkpt><trkpt lat="45.9998561" lon="12.0389861"><ele>480.99999999999994</ele><time>2026-04-18T13:06:09.536Z</time></trkpt><trkpt lat="45.9999122" lon="12.0389439"><ele>480.99999999999994</ele><time>2026-04-18T13:06:11.535Z</time></trkpt><trkpt lat="45.9999667" lon="12.0388967"><ele>481.00000000000006</ele><time>2026-04-18T13:06:13.535Z</time></trkpt><trkpt lat="46.0000347" lon="12.0388437"><ele>481.0</ele><time>2026-04-18T13:06:15.535Z</time></trkpt><trkpt lat="46.0001011" lon="12.038798"><ele>481.0</ele><time>2026-04-18T13:06:17.535Z</time></trkpt><trkpt lat="46.0001737" lon="12.0387707"><ele>481.0</ele><time>2026-04-18T13:06:19.535Z</time></trkpt><trkpt lat="46.0002414" lon="12.0387393"><ele>481.00000000000006</ele><time>2026-04-18T13:06:21.539Z</time></trkpt><trkpt lat="46.0003074" lon="12.0387127"><ele>481.0</ele><time>2026-04-18T13:06:23.536Z</time></trkpt><trkpt lat="46.000387" lon="12.0386664"><ele>481.00000000000006</ele><time>2026-04-18T13:06:26.539Z</time></trkpt><trkpt lat="46.0004641" lon="12.0385964"><ele>481.0</ele><time>2026-04-18T13:06:29.537Z</time></trkpt><trkpt lat="46.0005467" lon="12.0385519"><ele>481.0</ele><time>2026-04-18T13:06:32.537Z</time></trkpt><trkpt lat="46.0006044" lon="12.038592"><ele>481.0</ele><time>2026-04-18T13:06:34.538Z</time></trkpt><trkpt lat="46.0006572" lon="12.038661"><ele>481.00000000000006</ele><time>2026-04-18T13:06:36.537Z</time></trkpt><trkpt lat="46.0006993" lon="12.038731"><ele>481.0</ele><time>2026-04-18T13:06:38.537Z</time></trkpt><trkpt lat="46.0007437" lon="12.0388464"><ele>480.99999999999994</ele><time>2026-04-18T13:06:41.536Z</time></trkpt><trkpt lat="46.0007658" lon="12.0389368"><ele>481.0</ele><time>2026-04-18T13:06:43.537Z</time></trkpt><trkpt lat="46.000803" lon="12.0390128"><ele>480.99999999999994</ele><time>2026-04-18T13:06:45.537Z</time></trkpt><trkpt lat="46.000881" lon="12.0390738"><ele>480.99999999999994</ele><time>2026-04-18T13:06:48.536Z</time></trkpt><trkpt lat="46.0009487" lon="12.0390911"><ele>481.0</ele><time>2026-04-18T13:06:50.536Z</time></trkpt><trkpt lat="46.001018" lon="12.0390972"><ele>480.99999999999994</ele><time>2026-04-18T13:06:52.536Z</time></trkpt><trkpt lat="46.0011086" lon="12.0390841"><ele>480.99999999999994</ele><time>2026-04-18T13:06:55.538Z</time></trkpt><trkpt lat="46.0011754" lon="12.0390959"><ele>480.99999999999994</ele><time>2026-04-18T13:06:57.537Z</time></trkpt><trkpt lat="46.0012371" lon="12.0391285"><ele>481.0</ele><time>2026-04-18T13:06:59.537Z</time></trkpt><trkpt lat="46.0013046" lon="12.0391624"><ele>480.99999999999994</ele><time>2026-04-18T13:07:01.537Z</time></trkpt><trkpt lat="46.0013727" lon="12.0391749"><ele>480.99999999999994</ele><time>2026-04-18T13:07:03.537Z</time></trkpt><trkpt lat="46.0014449" lon="12.0391615"><ele>481.0</ele><time>2026-04-18T13:07:05.537Z</time></trkpt><trkpt lat="46.0015067" lon="12.039125"><ele>480.99999999999994</ele><time>2026-04-18T13:07:07.536Z</time></trkpt><trkpt lat="46.0015667" lon="12.0390787"><ele>480.99999999999994</ele><time>2026-04-18T13:07:09.537Z</time></trkpt><trkpt lat="46.0016444" lon="12.039047"><ele>481.50000000000006</ele><time>2026-04-18T13:07:12.536Z</time></trkpt><trkpt lat="46.0017217" lon="12.0391015"><ele>482.0</ele><time>2026-04-18T13:07:15.534Z</time></trkpt><trkpt lat="46.0017778" lon="12.0391498"><ele>482.5</ele><time>2026-04-18T13:07:17.537Z</time></trkpt><trkpt lat="46.0018503" lon="12.0392328"><ele>483.0</ele><time>2026-04-18T13:07:20.537Z</time></trkpt><trkpt lat="46.0018922" lon="12.0393559"><ele>483.50000000000006</ele><time>2026-04-18T13:07:23.538Z</time></trkpt><trkpt lat="46.0019151" lon="12.0394506"><ele>484.0</ele><time>2026-04-18T13:07:25.534Z</time></trkpt><trkpt lat="46.0019587" lon="12.0395305"><ele>487.57142857142856</ele><time>2026-04-18T13:07:27.535Z</time></trkpt><trkpt lat="46.0020185" lon="12.0395782"><ele>491.1428571428571</ele><time>2026-04-18T13:07:29.534Z</time></trkpt><trkpt lat="46.0020958" lon="12.0395922"><ele>494.71428571428567</ele><time>2026-04-18T13:07:32.537Z</time></trkpt><trkpt lat="46.0021925" lon="12.0395928"><ele>498.2857142857142</ele><time>2026-04-18T13:07:35.536Z</time></trkpt><trkpt lat="46.0022559" lon="12.0395746"><ele>501.85714285714283</ele><time>2026-04-18T13:07:37.537Z</time></trkpt><trkpt lat="46.0023213" lon="12.0395595"><ele>505.42857142857133</ele><time>2026-04-18T13:07:39.537Z</time></trkpt><trkpt lat="46.0023923" lon="12.0395484"><ele>508.99999999999994</ele><time>2026-04-18T13:07:41.537Z</time></trkpt><trkpt lat="46.0024606" lon="12.039538"><ele>508.2857142857142</ele><time>2026-04-18T13:07:43.537Z</time></trkpt><trkpt lat="46.0025232" lon="12.0395269"><ele>507.57142857142856</ele><time>2026-04-18T13:07:45.537Z</time></trkpt><trkpt lat="46.0025896" lon="12.0395189"><ele>506.85714285714283</ele><time>2026-04-18T13:07:47.537Z</time></trkpt><trkpt lat="46.0026545" lon="12.0395187"><ele>506.1428571428571</ele><time>2026-04-18T13:07:49.535Z</time></trkpt><trkpt lat="46.002722" lon="12.0395106"><ele>505.42857142857144</ele><time>2026-04-18T13:07:51.534Z</time></trkpt><trkpt lat="46.0027875" lon="12.0394962"><ele>504.7142857142857</ele><time>2026-04-18T13:07:53.538Z</time></trkpt><trkpt lat="46.002877" lon="12.0395088"><ele>504.0</ele><time>2026-04-18T13:07:56.536Z</time></trkpt><trkpt lat="46.0029472" lon="12.0395446"><ele>504.0</ele><time>2026-04-18T13:07:58.535Z</time></trkpt><trkpt lat="46.0030212" lon="12.0396225"><ele>504.0</ele><time>2026-04-18T13:08:01.536Z</time></trkpt><trkpt lat="46.0030726" lon="12.0396759"><ele>504.0</ele><time>2026-04-18T13:08:03.536Z</time></trkpt><trkpt lat="46.0031274" lon="12.0397398"><ele>504.0</ele><time>2026-04-18T13:08:05.536Z</time></trkpt><trkpt lat="46.0031843" lon="12.0398019"><ele>504.0</ele><time>2026-04-18T13:08:07.537Z</time></trkpt><trkpt lat="46.0032424" lon="12.0398552"><ele>504.0</ele><time>2026-04-18T13:08:09.536Z</time></trkpt><trkpt lat="46.0033031" lon="12.0399163"><ele>504.0</ele><time>2026-04-18T13:08:11.536Z</time></trkpt><trkpt lat="46.0033734" lon="12.0399953"><ele>507.8571428571429</ele><time>2026-04-18T13:08:14.537Z</time></trkpt><trkpt lat="46.0034357" lon="12.0400482"><ele>511.7142857142857</ele><time>2026-04-18T13:08:16.537Z</time></trkpt><trkpt lat="46.003504" lon="12.0400963"><ele>515.5714285714286</ele><time>2026-04-18T13:08:18.537Z</time></trkpt><trkpt lat="46.0035719" lon="12.0401399"><ele>519.4285714285714</ele><time>2026-04-18T13:08:20.537Z</time></trkpt><trkpt lat="46.0036383" lon="12.0401863"><ele>523.2857142857143</ele><time>2026-04-18T13:08:22.537Z</time></trkpt><trkpt lat="46.0037063" lon="12.04023"><ele>527.1428571428571</ele><time>2026-04-18T13:08:24.537Z</time></trkpt><trkpt lat="46.0037643" lon="12.0402681"><ele>531.0</ele><time>2026-04-18T13:08:26.537Z</time></trkpt><trkpt lat="46.0038342" lon="12.0403069"><ele>531.0</ele><time>2026-04-18T13:08:29.537Z</time></trkpt><trkpt lat="46.0039001" lon="12.0403303"><ele>531.0</ele><time>2026-04-18T13:09:06.536Z</time></trkpt><trkpt lat="46.0039723" lon="12.0403767"><ele>531.0</ele><time>2026-04-18T13:09:10.536Z</time></trkpt><trkpt lat="46.0040506" lon="12.0404007"><ele>531.0</ele><time>2026-04-18T13:09:14.536Z</time></trkpt><trkpt lat="46.0041262" lon="12.0404535"><ele>531.0</ele><time>2026-04-18T13:09:17.536Z</time></trkpt><trkpt lat="46.004196" lon="12.0404836"><ele>531.0</ele><time>2026-04-18T13:09:20.537Z</time></trkpt><trkpt lat="46.004259" lon="12.0404726"><ele>531.0</ele><time>2026-04-18T13:09:23.537Z</time></trkpt><trkpt lat="46.0043304" lon="12.0404636"><ele>527.7142857142858</ele><time>2026-04-18T13:09:26.538Z</time></trkpt><trkpt lat="46.0044169" lon="12.0404507"><ele>524.4285714285714</ele><time>2026-04-18T13:09:29.538Z</time></trkpt><trkpt lat="46.0044828" lon="12.0404469"><ele>521.1428571428571</ele><time>2026-04-18T13:09:31.54Z</time></trkpt><trkpt lat="46.004557" lon="12.0404416"><ele>517.8571428571429</ele><time>2026-04-18T13:09:33.54Z</time></trkpt><trkpt lat="46.0046293" lon="12.0404396"><ele>514.5714285714286</ele><time>2026-04-18T13:09:35.538Z</time></trkpt><trkpt lat="46.0047004" lon="12.0404455"><ele>511.28571428571433</ele><time>2026-04-18T13:09:37.538Z</time></trkpt><trkpt lat="46.0047635" lon="12.0404743"><ele>508.0</ele><time>2026-04-18T13:09:39.538Z</time></trkpt><trkpt lat="46.0048355" lon="12.0405084"><ele>508.0</ele><time>2026-04-18T13:09:41.537Z</time></trkpt><trkpt lat="46.004908" lon="12.0405441"><ele>508.0</ele><time>2026-04-18T13:09:43.538Z</time></trkpt><trkpt lat="46.0049684" lon="12.0405862"><ele>508.0</ele><time>2026-04-18T13:09:45.538Z</time></trkpt><trkpt lat="46.0050285" lon="12.0406356"><ele>508.0</ele><time>2026-04-18T13:09:47.537Z</time></trkpt><trkpt lat="46.0050804" lon="12.0406981"><ele>508.0</ele><time>2026-04-18T13:09:49.538Z</time></trkpt><trkpt lat="46.0051321" lon="12.0407699"><ele>508.0</ele><time>2026-04-18T13:09:51.538Z</time></trkpt><trkpt lat="46.0051532" lon="12.0408787"><ele>508.0</ele><time>2026-04-18T13:09:53.539Z</time></trkpt><trkpt lat="46.0051525" lon="12.0409955"><ele>511.83333333333337</ele><time>2026-04-18T13:09:55.537Z</time></trkpt><trkpt lat="46.0051441" lon="12.0411033"><ele>515.6666666666667</ele><time>2026-04-18T13:09:57.538Z</time></trkpt><trkpt lat="46.0051317" lon="12.0412134"><ele>519.5</ele><time>2026-04-18T13:09:59.538Z</time></trkpt><trkpt lat="46.005124" lon="12.0413304"><ele>523.3333333333334</ele><time>2026-04-18T13:10:01.538Z</time></trkpt><trkpt lat="46.0051108" lon="12.0414345"><ele>527.1666666666666</ele><time>2026-04-18T13:10:03.538Z</time></trkpt><trkpt lat="46.0050936" lon="12.0415522"><ele>531.0</ele><time>2026-04-18T13:10:05.537Z</time></trkpt><trkpt lat="46.0050926" lon="12.0416675"><ele>535.0</ele><time>2026-04-18T13:10:07.539Z</time></trkpt><trkpt lat="46.005056" lon="12.0417549"><ele>539.0</ele><time>2026-04-18T13:10:09.54Z</time></trkpt><trkpt lat="46.0050739" lon="12.0418526"><ele>543.0</ele><time>2026-04-18T13:10:12.535Z</time></trkpt><trkpt lat="46.0051258" lon="12.0417899"><ele>547.0</ele><time>2026-04-18T13:10:15.538Z</time></trkpt><trkpt lat="46.0051881" lon="12.0416996"><ele>551.0</ele><time>2026-04-18T13:10:18.54Z</time></trkpt><trkpt lat="46.0052473" lon="12.0416641"><ele>555.0</ele><time>2026-04-18T13:10:20.539Z</time></trkpt><trkpt lat="46.0053167" lon="12.0416384"><ele>559.0</ele><time>2026-04-18T13:10:22.538Z</time></trkpt><trkpt lat="46.005415" lon="12.0416424"><ele>559.0</ele><time>2026-04-18T13:10:24.539Z</time></trkpt><trkpt lat="46.0054989" lon="12.0416512"><ele>559.0</ele><time>2026-04-18T13:10:26.54Z</time></trkpt><trkpt lat="46.0055794" lon="12.0416565"><ele>559.0</ele><time>2026-04-18T13:10:28.538Z</time></trkpt><trkpt lat="46.0056601" lon="12.0416528"><ele>559.0</ele><time>2026-04-18T13:10:30.54Z</time></trkpt><trkpt lat="46.0057375" lon="12.0416525"><ele>559.0</ele><time>2026-04-18T13:10:32.539Z</time></trkpt><trkpt lat="46.0058245" lon="12.041653"><ele>559.0</ele><time>2026-04-18T13:10:34.54Z</time></trkpt><trkpt lat="46.0059046" lon="12.0416557"><ele>556.4285714285714</ele><time>2026-04-18T13:10:36.537Z</time></trkpt><trkpt lat="46.005971" lon="12.0416408"><ele>553.8571428571429</ele><time>2026-04-18T13:10:38.538Z</time></trkpt><trkpt lat="46.0060403" lon="12.0416306"><ele>551.2857142857143</ele><time>2026-04-18T13:10:40.538Z</time></trkpt><trkpt lat="46.0061342" lon="12.041601"><ele>548.7142857142858</ele><time>2026-04-18T13:10:43.538Z</time></trkpt><trkpt lat="46.0062" lon="12.0415936"><ele>546.1428571428571</ele><time>2026-04-18T13:10:45.537Z</time></trkpt><trkpt lat="46.0062645" lon="12.0415864"><ele>543.5714285714287</ele><time>2026-04-18T13:10:47.537Z</time></trkpt><trkpt lat="46.0063273" lon="12.0415988"><ele>541.0</ele><time>2026-04-18T13:10:49.537Z</time></trkpt><trkpt lat="46.0064213" lon="12.0416353"><ele>541.0</ele><time>2026-04-18T13:10:52.538Z</time></trkpt><trkpt lat="46.0064937" lon="12.0416686"><ele>541.0</ele><time>2026-04-18T13:10:54.537Z</time></trkpt><trkpt lat="46.0065684" lon="12.0417088"><ele>541.0</ele><time>2026-04-18T13:10:56.537Z</time></trkpt><trkpt lat="46.0066419" lon="12.0417544"><ele>541.0</ele><time>2026-04-18T13:10:58.538Z</time></trkpt><trkpt lat="46.0067172" lon="12.0418091"><ele>541.0</ele><time>2026-04-18T13:11:00.538Z</time></trkpt><trkpt lat="46.0067906" lon="12.0418637"><ele>541.0</ele><time>2026-04-18T13:11:02.54Z</time></trkpt><trkpt lat="46.0068597" lon="12.0419206"><ele>539.5</ele><time>2026-04-18T13:11:04.538Z</time></trkpt><trkpt lat="46.006934" lon="12.0419827"><ele>538.0</ele><time>2026-04-18T13:11:06.537Z</time></trkpt><trkpt lat="46.0070065" lon="12.0420507"><ele>536.5</ele><time>2026-04-18T13:11:08.535Z</time></trkpt><trkpt lat="46.0070725" lon="12.0421299"><ele>535.0</ele><time>2026-04-18T13:11:10.536Z</time></trkpt><trkpt lat="46.0071392" lon="12.0422178"><ele>533.5</ele><time>2026-04-18T13:11:12.538Z</time></trkpt><trkpt lat="46.0072037" lon="12.0422823"><ele>532.0</ele><time>2026-04-18T13:11:14.537Z</time></trkpt><trkpt lat="46.0072627" lon="12.0423689"><ele>535.6</ele><time>2026-04-18T13:11:16.537Z</time></trkpt><trkpt lat="46.0073" lon="12.042479"><ele>539.2</ele><time>2026-04-18T13:11:18.538Z</time></trkpt><trkpt lat="46.0073112" lon="12.0425972"><ele>542.8</ele><time>2026-04-18T13:11:20.537Z</time></trkpt><trkpt lat="46.0073011" lon="12.0427338"><ele>546.4</ele><time>2026-04-18T13:11:22.538Z</time></trkpt><trkpt lat="46.0072698" lon="12.0428769"><ele>550.0</ele><time>2026-04-18T13:11:24.536Z</time></trkpt><trkpt lat="46.0072481" lon="12.0430157"><ele>550.0</ele><time>2026-04-18T13:11:26.538Z</time></trkpt><trkpt lat="46.0072407" lon="12.0431314"><ele>550.0</ele><time>2026-04-18T13:11:28.537Z</time></trkpt><trkpt lat="46.0072822" lon="12.0432178"><ele>550.0</ele><time>2026-04-18T13:11:31.537Z</time></trkpt><trkpt lat="46.0073738" lon="12.0432659"><ele>550.0</ele><time>2026-04-18T13:11:34.537Z</time></trkpt><trkpt lat="46.0074453" lon="12.0433109"><ele>550.0</ele><time>2026-04-18T13:11:36.539Z</time></trkpt><trkpt lat="46.0075141" lon="12.0433918"><ele>550.0</ele><time>2026-04-18T13:11:38.537Z</time></trkpt><trkpt lat="46.0075721" lon="12.0434952"><ele>546.8333333333334</ele><time>2026-04-18T13:11:40.536Z</time></trkpt><trkpt lat="46.0076105" lon="12.0436095"><ele>543.6666666666667</ele><time>2026-04-18T13:11:42.537Z</time></trkpt><trkpt lat="46.0076458" lon="12.0437094"><ele>540.5</ele><time>2026-04-18T13:11:44.54Z</time></trkpt><trkpt lat="46.0076833" lon="12.0438164"><ele>537.3333333333334</ele><time>2026-04-18T13:11:46.539Z</time></trkpt><trkpt lat="46.0077227" lon="12.0439257"><ele>534.1666666666666</ele><time>2026-04-18T13:11:48.538Z</time></trkpt><trkpt lat="46.0077589" lon="12.04402"><ele>531.0</ele><time>2026-04-18T13:11:50.537Z</time></trkpt><trkpt lat="46.007795" lon="12.0441235"><ele>532.7142857142858</ele><time>2026-04-18T13:11:52.538Z</time></trkpt><trkpt lat="46.0078249" lon="12.0442198"><ele>534.4285714285714</ele><time>2026-04-18T13:11:54.537Z</time></trkpt><trkpt lat="46.0078365" lon="12.0443182"><ele>536.1428571428571</ele><time>2026-04-18T13:11:56.538Z</time></trkpt><trkpt lat="46.007845" lon="12.0444131"><ele>537.8571428571429</ele><time>2026-04-18T13:11:58.537Z</time></trkpt><trkpt lat="46.0078303" lon="12.0445194"><ele>539.5714285714286</ele><time>2026-04-18T13:12:00.538Z</time></trkpt><trkpt lat="46.0078032" lon="12.0446129"><ele>541.2857142857143</ele><time>2026-04-18T13:12:02.537Z</time></trkpt><trkpt lat="46.0077613" lon="12.0447096"><ele>543.0</ele><time>2026-04-18T13:12:04.537Z</time></trkpt><trkpt lat="46.0077162" lon="12.0448164"><ele>543.0</ele><time>2026-04-18T13:12:06.536Z</time></trkpt><trkpt lat="46.0076948" lon="12.0449312"><ele>543.0</ele><time>2026-04-18T13:12:08.538Z</time></trkpt><trkpt lat="46.0077028" lon="12.0450274"><ele>543.0</ele><time>2026-04-18T13:12:10.537Z</time></trkpt><trkpt lat="46.0077424" lon="12.0451151"><ele>543.0</ele><time>2026-04-18T13:12:12.539Z</time></trkpt><trkpt lat="46.007797" lon="12.0451989"><ele>543.0</ele><time>2026-04-18T13:12:14.537Z</time></trkpt><trkpt lat="46.0078489" lon="12.0452777"><ele>543.0</ele><time>2026-04-18T13:12:16.537Z</time></trkpt><trkpt lat="46.007899" lon="12.0453492"><ele>543.0</ele><time>2026-04-18T13:12:18.538Z</time></trkpt><trkpt lat="46.0079492" lon="12.0454094"><ele>544.0</ele><time>2026-04-18T13:12:20.538Z</time></trkpt><trkpt lat="46.0079984" lon="12.0454664"><ele>545.0</ele><time>2026-04-18T13:12:22.538Z</time></trkpt><trkpt lat="46.0080558" lon="12.0455695"><ele>546.0</ele><time>2026-04-18T13:12:25.54Z</time></trkpt><trkpt lat="46.0081006" lon="12.0456525"><ele>547.0</ele><time>2026-04-18T13:12:27.537Z</time></trkpt><trkpt lat="46.0081443" lon="12.0457402"><ele>548.0</ele><time>2026-04-18T13:12:29.54Z</time></trkpt><trkpt lat="46.0081799" lon="12.0458213"><ele>549.0</ele><time>2026-04-18T13:12:31.538Z</time></trkpt><trkpt lat="46.0081939" lon="12.0459419"><ele>550.6</ele><time>2026-04-18T13:12:34.536Z</time></trkpt><trkpt lat="46.008174" lon="12.0460707"><ele>552.2</ele><time>2026-04-18T13:12:37.537Z</time></trkpt><trkpt lat="46.0081558" lon="12.046179"><ele>553.8000000000001</ele><time>2026-04-18T13:12:39.537Z</time></trkpt><trkpt lat="46.0081307" lon="12.0463164"><ele>555.4</ele><time>2026-04-18T13:12:41.538Z</time></trkpt><trkpt lat="46.0081245" lon="12.0464883"><ele>557.0</ele><time>2026-04-18T13:12:43.538Z</time></trkpt><trkpt lat="46.008112" lon="12.0466603"><ele>558.8000000000001</ele><time>2026-04-18T13:12:45.537Z</time></trkpt><trkpt lat="46.0080938" lon="12.0468123"><ele>560.6</ele><time>2026-04-18T13:12:47.539Z</time></trkpt><trkpt lat="46.0080674" lon="12.0469468"><ele>562.4000000000001</ele><time>2026-04-18T13:12:49.538Z</time></trkpt><trkpt lat="46.0080415" lon="12.0470692"><ele>564.2</ele><time>2026-04-18T13:12:51.539Z</time></trkpt><trkpt lat="46.0080079" lon="12.0471868"><ele>566.0</ele><time>2026-04-18T13:12:53.537Z</time></trkpt><trkpt lat="46.007989" lon="12.0473016"><ele>566.0</ele><time>2026-04-18T13:12:55.538Z</time></trkpt><trkpt lat="46.0080424" lon="12.0473723"><ele>566.0</ele><time>2026-04-18T13:13:00.538Z</time></trkpt><trkpt lat="46.0081174" lon="12.0473875"><ele>566.0</ele><time>2026-04-18T13:13:03.537Z</time></trkpt><trkpt lat="46.0081912" lon="12.0474029"><ele>566.0</ele><time>2026-04-18T13:13:06.537Z</time></trkpt><trkpt lat="46.0082803" lon="12.0474186"><ele>566.0</ele><time>2026-04-18T13:13:09.539Z</time></trkpt><trkpt lat="46.0083495" lon="12.047434"><ele>566.0</ele><time>2026-04-18T13:13:11.539Z</time></trkpt><trkpt lat="46.0084366" lon="12.0474597"><ele>560.5</ele><time>2026-04-18T13:13:14.538Z</time></trkpt><trkpt lat="46.0085215" lon="12.0474721"><ele>555.0</ele><time>2026-04-18T13:13:17.538Z</time></trkpt><trkpt lat="46.008588" lon="12.0475027"><ele>549.5</ele><time>2026-04-18T13:13:19.536Z</time></trkpt><trkpt lat="46.0086729" lon="12.047543"><ele>544.0</ele><time>2026-04-18T13:13:22.535Z</time></trkpt><trkpt lat="46.0087352" lon="12.0475756"><ele>538.5</ele><time>2026-04-18T13:13:24.537Z</time></trkpt><trkpt lat="46.0087953" lon="12.0476191"><ele>533.0</ele><time>2026-04-18T13:13:26.535Z</time></trkpt><trkpt lat="46.0088678" lon="12.0476988"><ele>533.0</ele><time>2026-04-18T13:13:29.536Z</time></trkpt><trkpt lat="46.0089257" lon="12.0477917"><ele>533.0</ele><time>2026-04-18T13:13:32.537Z</time></trkpt><trkpt lat="46.008972" lon="12.0478939"><ele>533.0</ele><time>2026-04-18T13:13:35.537Z</time></trkpt><trkpt lat="46.0090131" lon="12.0480113"><ele>533.0</ele><time>2026-04-18T13:13:38.54Z</time></trkpt><trkpt lat="46.0090476" lon="12.0480889"><ele>533.0</ele><time>2026-04-18T13:13:40.536Z</time></trkpt><trkpt lat="46.0090832" lon="12.048205"><ele>533.0</ele><time>2026-04-18T13:13:43.542Z</time></trkpt><trkpt lat="46.009113" lon="12.0483134"><ele>536.8333333333333</ele><time>2026-04-18T13:13:46.535Z</time></trkpt><trkpt lat="46.0091398" lon="12.0484447"><ele>540.6666666666666</ele><time>2026-04-18T13:13:49.537Z</time></trkpt><trkpt lat="46.0091473" lon="12.0485352"><ele>544.5</ele><time>2026-04-18T13:13:51.537Z</time></trkpt><trkpt lat="46.0091415" lon="12.0486687"><ele>548.3333333333334</ele><time>2026-04-18T13:13:54.537Z</time></trkpt><trkpt lat="46.0091308" lon="12.0487581"><ele>552.1666666666667</ele><time>2026-04-18T13:13:56.539Z</time></trkpt><trkpt lat="46.0091159" lon="12.0488754"><ele>556.0</ele><time>2026-04-18T13:13:59.538Z</time></trkpt><trkpt lat="46.0091215" lon="12.0489875"><ele>556.0</ele><time>2026-04-18T13:14:02.537Z</time></trkpt><trkpt lat="46.0091545" lon="12.0491007"><ele>556.0</ele><time>2026-04-18T13:14:04.539Z</time></trkpt><trkpt lat="46.0092056" lon="12.0492054"><ele>556.0</ele><time>2026-04-18T13:14:06.538Z</time></trkpt><trkpt lat="46.0092659" lon="12.0493007"><ele>556.0</ele><time>2026-04-18T13:14:08.538Z</time></trkpt><trkpt lat="46.0093345" lon="12.0493973"><ele>556.0</ele><time>2026-04-18T13:14:10.538Z</time></trkpt><trkpt lat="46.0094075" lon="12.0494884"><ele>556.3333333333334</ele><time>2026-04-18T13:14:12.536Z</time></trkpt><trkpt lat="46.0094763" lon="12.0495673"><ele>556.6666666666667</ele><time>2026-04-18T13:14:14.537Z</time></trkpt><trkpt lat="46.0095482" lon="12.049653"><ele>557.0</ele><time>2026-04-18T13:14:16.538Z</time></trkpt><trkpt lat="46.0096143" lon="12.0497367"><ele>557.3333333333334</ele><time>2026-04-18T13:14:18.535Z</time></trkpt><trkpt lat="46.0096824" lon="12.0498152"><ele>557.6666666666666</ele><time>2026-04-18T13:14:20.539Z</time></trkpt><trkpt lat="46.0097428" lon="12.0498944"><ele>558.0</ele><time>2026-04-18T13:14:22.537Z</time></trkpt><trkpt lat="46.0098056" lon="12.0499717"><ele>558.0</ele><time>2026-04-18T13:14:24.538Z</time></trkpt><trkpt lat="46.0098737" lon="12.050054"><ele>558.0</ele><time>2026-04-18T13:14:26.536Z</time></trkpt><trkpt lat="46.0099473" lon="12.05014"><ele>558.0</ele><time>2026-04-18T13:14:28.536Z</time></trkpt><trkpt lat="46.0100235" lon="12.0502243"><ele>558.0</ele><time>2026-04-18T13:14:30.537Z</time></trkpt><trkpt lat="46.0100981" lon="12.0503039"><ele>558.0</ele><time>2026-04-18T13:14:32.536Z</time></trkpt><trkpt lat="46.0101829" lon="12.0503919"><ele>550.1999999999999</ele><time>2026-04-18T13:14:34.536Z</time></trkpt><trkpt lat="46.0102807" lon="12.0504739"><ele>542.4</ele><time>2026-04-18T13:14:36.537Z</time></trkpt><trkpt lat="46.010381" lon="12.0505419"><ele>534.5999999999999</ele><time>2026-04-18T13:14:38.537Z</time></trkpt><trkpt lat="46.0104813" lon="12.0506012"><ele>526.8</ele><time>2026-04-18T13:14:40.538Z</time></trkpt><trkpt lat="46.0105887" lon="12.0506511"><ele>519.0</ele><time>2026-04-18T13:14:42.537Z</time></trkpt><trkpt lat="46.0107" lon="12.0506883"><ele>519.0</ele><time>2026-04-18T13:14:44.536Z</time></trkpt><trkpt lat="46.0108041" lon="12.0507272"><ele>519.0</ele><time>2026-04-18T13:14:46.537Z</time></trkpt><trkpt lat="46.0109047" lon="12.0507505"><ele>519.0</ele><time>2026-04-18T13:14:48.538Z</time></trkpt><trkpt lat="46.0110063" lon="12.0507824"><ele>519.0</ele><time>2026-04-18T13:14:50.539Z</time></trkpt><trkpt lat="46.0110956" lon="12.0508172"><ele>519.0</ele><time>2026-04-18T13:14:52.537Z</time></trkpt><trkpt lat="46.011181" lon="12.0508333"><ele>518.2</ele><time>2026-04-18T13:14:54.538Z</time></trkpt><trkpt lat="46.0112906" lon="12.0508457"><ele>517.4</ele><time>2026-04-18T13:14:56.537Z</time></trkpt><trkpt lat="46.0113953" lon="12.0508542"><ele>516.6</ele><time>2026-04-18T13:14:58.535Z</time></trkpt><trkpt lat="46.0114926" lon="12.0508616"><ele>515.8</ele><time>2026-04-18T13:15:00.536Z</time></trkpt><trkpt lat="46.0115974" lon="12.0508756"><ele>515.0</ele><time>2026-04-18T13:15:02.538Z</time></trkpt><trkpt lat="46.0116928" lon="12.0508981"><ele>512.8333333333333</ele><time>2026-04-18T13:15:04.536Z</time></trkpt><trkpt lat="46.011766" lon="12.0509349"><ele>510.66666666666663</ele><time>2026-04-18T13:15:06.538Z</time></trkpt><trkpt lat="46.0118397" lon="12.0509347"><ele>508.5</ele><time>2026-04-18T13:15:09.539Z</time></trkpt><trkpt lat="46.0118132" lon="12.0508281"><ele>506.33333333333337</ele><time>2026-04-18T13:15:12.539Z</time></trkpt><trkpt lat="46.0117371" lon="12.0507636"><ele>504.1666666666667</ele><time>2026-04-18T13:15:14.539Z</time></trkpt><trkpt lat="46.0116567" lon="12.0506845"><ele>502.0</ele><time>2026-04-18T13:15:16.536Z</time></trkpt><trkpt lat="46.0115707" lon="12.0506137"><ele>501.50000000000006</ele><time>2026-04-18T13:15:18.537Z</time></trkpt><trkpt lat="46.0114768" lon="12.0505337"><ele>501.0</ele><time>2026-04-18T13:15:20.539Z</time></trkpt><trkpt lat="46.0114037" lon="12.0504675"><ele>500.5</ele><time>2026-04-18T13:15:22.537Z</time></trkpt><trkpt lat="46.0113554" lon="12.0504059"><ele>500.0</ele><time>2026-04-18T13:15:24.537Z</time></trkpt><trkpt lat="46.0113979" lon="12.0503197"><ele>499.50000000000006</ele><time>2026-04-18T13:15:27.535Z</time></trkpt><trkpt lat="46.0114703" lon="12.0503731"><ele>499.0</ele><time>2026-04-18T13:15:29.537Z</time></trkpt><trkpt lat="46.0115694" lon="12.0504398"><ele>496.0</ele><time>2026-04-18T13:15:31.537Z</time></trkpt><trkpt lat="46.0116809" lon="12.0504826"><ele>493.0</ele><time>2026-04-18T13:15:33.535Z</time></trkpt><trkpt lat="46.0117828" lon="12.0505015"><ele>490.0</ele><time>2026-04-18T13:15:35.537Z</time></trkpt><trkpt lat="46.0118792" lon="12.0505195"><ele>487.0</ele><time>2026-04-18T13:15:37.536Z</time></trkpt><trkpt lat="46.011964" lon="12.0505502"><ele>484.0</ele><time>2026-04-18T13:15:39.537Z</time></trkpt><trkpt lat="46.012042" lon="12.050578"><ele>484.0</ele><time>2026-04-18T13:15:41.537Z</time></trkpt><trkpt lat="46.0121309" lon="12.0505811"><ele>484.0</ele><time>2026-04-18T13:15:43.537Z</time></trkpt><trkpt lat="46.0122263" lon="12.0505672"><ele>484.0</ele><time>2026-04-18T13:15:45.537Z</time></trkpt><trkpt lat="46.0123165" lon="12.0505436"><ele>484.0</ele><time>2026-04-18T13:15:47.534Z</time></trkpt><trkpt lat="46.0124026" lon="12.0505157"><ele>484.0</ele><time>2026-04-18T13:15:49.538Z</time></trkpt><trkpt lat="46.0124921" lon="12.0504936"><ele>484.6</ele><time>2026-04-18T13:15:51.535Z</time></trkpt><trkpt lat="46.012587" lon="12.050487"><ele>485.2</ele><time>2026-04-18T13:15:53.537Z</time></trkpt><trkpt lat="46.0126854" lon="12.0504933"><ele>485.80000000000007</ele><time>2026-04-18T13:15:55.536Z</time></trkpt><trkpt lat="46.0128102" lon="12.0505106"><ele>486.40000000000003</ele><time>2026-04-18T13:15:57.538Z</time></trkpt><trkpt lat="46.0128834" lon="12.0505272"><ele>487.0</ele><time>2026-04-18T13:15:58.537Z</time></trkpt><trkpt lat="46.0129659" lon="12.050549"><ele>487.00000000000006</ele><time>2026-04-18T13:15:59.538Z</time></trkpt><trkpt lat="46.0130534" lon="12.0505757"><ele>487.0</ele><time>2026-04-18T13:16:00.539Z</time></trkpt><trkpt lat="46.013141" lon="12.0506086"><ele>487.0</ele><time>2026-04-18T13:16:01.538Z</time></trkpt><trkpt lat="46.0132252" lon="12.0506416"><ele>487.0</ele><time>2026-04-18T13:16:02.536Z</time></trkpt><trkpt lat="46.0133093" lon="12.0506693"><ele>487.00000000000006</ele><time>2026-04-18T13:16:03.538Z</time></trkpt><trkpt lat="46.0134003" lon="12.0506871"><ele>487.0</ele><time>2026-04-18T13:16:04.538Z</time></trkpt><trkpt lat="46.0134925" lon="12.0506994"><ele>486.20000000000005</ele><time>2026-04-18T13:16:05.537Z</time></trkpt><trkpt lat="46.0135851" lon="12.0506999"><ele>485.40000000000003</ele><time>2026-04-18T13:16:06.536Z</time></trkpt><trkpt lat="46.0136789" lon="12.0507"><ele>484.59999999999997</ele><time>2026-04-18T13:16:07.539Z</time></trkpt><trkpt lat="46.0137786" lon="12.0506979"><ele>483.79999999999995</ele><time>2026-04-18T13:16:08.539Z</time></trkpt><trkpt lat="46.0138796" lon="12.0507001"><ele>483.0</ele><time>2026-04-18T13:16:09.536Z</time></trkpt><trkpt lat="46.0139804" lon="12.0507133"><ele>483.0</ele><time>2026-04-18T13:16:10.536Z</time></trkpt><trkpt lat="46.014075" lon="12.0507341"><ele>482.99999999999994</ele><time>2026-04-18T13:16:11.538Z</time></trkpt><trkpt lat="46.0141617" lon="12.0507535"><ele>482.99999999999994</ele><time>2026-04-18T13:16:12.536Z</time></trkpt><trkpt lat="46.014248" lon="12.0507739"><ele>483.0</ele><time>2026-04-18T13:16:13.536Z</time></trkpt><trkpt lat="46.0143187" lon="12.0507845"><ele>483.0</ele><time>2026-04-18T13:16:14.536Z</time></trkpt><trkpt lat="46.0144398" lon="12.0507736"><ele>481.1666666666667</ele><time>2026-04-18T13:16:16.536Z</time></trkpt><trkpt lat="46.0145413" lon="12.0506902"><ele>479.33333333333337</ele><time>2026-04-18T13:16:18.536Z</time></trkpt><trkpt lat="46.0145898" lon="12.0506268"><ele>477.5</ele><time>2026-04-18T13:16:19.535Z</time></trkpt><trkpt lat="46.0146357" lon="12.0505522"><ele>475.6666666666667</ele><time>2026-04-18T13:16:20.536Z</time></trkpt><trkpt lat="46.014683" lon="12.0504757"><ele>473.83333333333337</ele><time>2026-04-18T13:16:21.539Z</time></trkpt><trkpt lat="46.0147436" lon="12.0504131"><ele>472.0</ele><time>2026-04-18T13:16:22.536Z</time></trkpt><trkpt lat="46.0148057" lon="12.0503613"><ele>472.00000000000006</ele><time>2026-04-18T13:16:23.537Z</time></trkpt><trkpt lat="46.0148682" lon="12.0503194"><ele>472.0</ele><time>2026-04-18T13:16:24.537Z</time></trkpt><trkpt lat="46.0149384" lon="12.0502873"><ele>472.0</ele><time>2026-04-18T13:16:25.536Z</time></trkpt><trkpt lat="46.0150106" lon="12.0502653"><ele>472.0</ele><time>2026-04-18T13:16:26.537Z</time></trkpt><trkpt lat="46.015088" lon="12.050267"><ele>472.00000000000006</ele><time>2026-04-18T13:16:27.537Z</time></trkpt><trkpt lat="46.0151637" lon="12.0502887"><ele>472.0</ele><time>2026-04-18T13:16:28.536Z</time></trkpt><trkpt lat="46.015241" lon="12.0503333"><ele>470.6666666666667</ele><time>2026-04-18T13:16:29.536Z</time></trkpt><trkpt lat="46.015313" lon="12.0504044"><ele>469.33333333333337</ele><time>2026-04-18T13:16:30.537Z</time></trkpt><trkpt lat="46.0153607" lon="12.0504897"><ele>468.0</ele><time>2026-04-18T13:16:31.537Z</time></trkpt><trkpt lat="46.0154045" lon="12.0505803"><ele>466.66666666666663</ele><time>2026-04-18T13:16:32.536Z</time></trkpt><trkpt lat="46.0154487" lon="12.0506642"><ele>465.3333333333333</ele><time>2026-04-18T13:16:33.536Z</time></trkpt><trkpt lat="46.0154924" lon="12.0507451"><ele>464.0</ele><time>2026-04-18T13:16:34.537Z</time></trkpt><trkpt lat="46.0155358" lon="12.0508324"><ele>462.16666666666663</ele><time>2026-04-18T13:16:35.538Z</time></trkpt><trkpt lat="46.0155713" lon="12.0509133"><ele>460.3333333333333</ele><time>2026-04-18T13:16:36.537Z</time></trkpt><trkpt lat="46.0156363" lon="12.0510178"><ele>458.5</ele><time>2026-04-18T13:16:38.537Z</time></trkpt><trkpt lat="46.0157174" lon="12.0510418"><ele>456.66666666666663</ele><time>2026-04-18T13:16:40.539Z</time></trkpt><trkpt lat="46.01583" lon="12.05103"><ele>454.8333333333333</ele><time>2026-04-18T13:16:42.537Z</time></trkpt><trkpt lat="46.0159001" lon="12.0510351"><ele>453.0</ele><time>2026-04-18T13:16:43.539Z</time></trkpt><trkpt lat="46.0159711" lon="12.0510555"><ele>453.0</ele><time>2026-04-18T13:16:44.539Z</time></trkpt><trkpt lat="46.0160381" lon="12.0510868"><ele>453.0</ele><time>2026-04-18T13:16:45.536Z</time></trkpt><trkpt lat="46.0161025" lon="12.0511257"><ele>453.0</ele><time>2026-04-18T13:16:46.537Z</time></trkpt><trkpt lat="46.0161649" lon="12.0511666"><ele>453.0</ele><time>2026-04-18T13:16:47.536Z</time></trkpt><trkpt lat="46.0162273" lon="12.0512051"><ele>453.0</ele><time>2026-04-18T13:16:48.535Z</time></trkpt><trkpt lat="46.0163378" lon="12.0512771"><ele>453.0</ele><time>2026-04-18T13:16:50.537Z</time></trkpt><trkpt lat="46.0164432" lon="12.0513116"><ele>453.0</ele><time>2026-04-18T13:16:52.537Z</time></trkpt><trkpt lat="46.0165513" lon="12.051294"><ele>453.0</ele><time>2026-04-18T13:16:54.536Z</time></trkpt><trkpt lat="46.0166541" lon="12.0512133"><ele>453.0</ele><time>2026-04-18T13:16:56.536Z</time></trkpt><trkpt lat="46.0167084" lon="12.0511558"><ele>453.0</ele><time>2026-04-18T13:16:57.536Z</time></trkpt><trkpt lat="46.0167633" lon="12.0510968"><ele>453.0</ele><time>2026-04-18T13:16:58.535Z</time></trkpt><trkpt lat="46.0168229" lon="12.0510372"><ele>453.0</ele><time>2026-04-18T13:16:59.537Z</time></trkpt><trkpt lat="46.0168898" lon="12.0509859"><ele>450.5</ele><time>2026-04-18T13:17:00.537Z</time></trkpt><trkpt lat="46.0169644" lon="12.0509455"><ele>448.0</ele><time>2026-04-18T13:17:01.537Z</time></trkpt><trkpt lat="46.0170443" lon="12.0509187"><ele>445.5</ele><time>2026-04-18T13:17:02.536Z</time></trkpt><trkpt lat="46.0171214" lon="12.0509024"><ele>443.0</ele><time>2026-04-18T13:17:03.536Z</time></trkpt><trkpt lat="46.0171927" lon="12.0508907"><ele>440.5</ele><time>2026-04-18T13:17:04.536Z</time></trkpt><trkpt lat="46.0172614" lon="12.0508827"><ele>438.0</ele><time>2026-04-18T13:17:05.536Z</time></trkpt><trkpt lat="46.0173328" lon="12.0508779"><ele>438.0</ele><time>2026-04-18T13:17:06.538Z</time></trkpt><trkpt lat="46.0174442" lon="12.0508608"><ele>437.99999999999994</ele><time>2026-04-18T13:17:08.537Z</time></trkpt><trkpt lat="46.0175398" lon="12.0507863"><ele>437.99999999999994</ele><time>2026-04-18T13:17:10.536Z</time></trkpt><trkpt lat="46.0176112" lon="12.0507124"><ele>438.0</ele><time>2026-04-18T13:17:12.537Z</time></trkpt><trkpt lat="46.0176766" lon="12.0508034"><ele>438.0</ele><time>2026-04-18T13:17:15.536Z</time></trkpt><trkpt lat="46.0176373" lon="12.0509448"><ele>438.0</ele><time>2026-04-18T13:17:17.536Z</time></trkpt><trkpt lat="46.0175969" lon="12.0510203"><ele>438.0</ele><time>2026-04-18T13:17:18.537Z</time></trkpt><trkpt lat="46.0175516" lon="12.0510853"><ele>438.0</ele><time>2026-04-18T13:17:19.536Z</time></trkpt><trkpt lat="46.0174448" lon="12.0511933"><ele>438.0</ele><time>2026-04-18T13:17:21.537Z</time></trkpt><trkpt lat="46.0173821" lon="12.0512451"><ele>438.0</ele><time>2026-04-18T13:17:22.537Z</time></trkpt><trkpt lat="46.0173227" lon="12.0512928"><ele>438.0</ele><time>2026-04-18T13:17:23.536Z</time></trkpt><trkpt lat="46.0172674" lon="12.0513424"><ele>438.0</ele><time>2026-04-18T13:17:24.537Z</time></trkpt><trkpt lat="46.0172127" lon="12.0513945"><ele>438.0</ele><time>2026-04-18T13:17:25.538Z</time></trkpt><trkpt lat="46.0171554" lon="12.0514517"><ele>438.0</ele><time>2026-04-18T13:17:26.538Z</time></trkpt><trkpt lat="46.0171009" lon="12.0515173"><ele>438.0</ele><time>2026-04-18T13:17:27.538Z</time></trkpt><trkpt lat="46.0170517" lon="12.0515849"><ele>438.0</ele><time>2026-04-18T13:17:28.537Z</time></trkpt><trkpt lat="46.0170063" lon="12.0516502"><ele>438.0</ele><time>2026-04-18T13:17:29.536Z</time></trkpt><trkpt lat="46.0169658" lon="12.0517257"><ele>438.0</ele><time>2026-04-18T13:17:30.537Z</time></trkpt><trkpt lat="46.0169295" lon="12.0518049"><ele>437.8333333333333</ele><time>2026-04-18T13:17:31.537Z</time></trkpt><trkpt lat="46.0168907" lon="12.0518845"><ele>437.66666666666663</ele><time>2026-04-18T13:17:32.537Z</time></trkpt><trkpt lat="46.016849" lon="12.0519645"><ele>437.5</ele><time>2026-04-18T13:17:33.537Z</time></trkpt><trkpt lat="46.0168091" lon="12.0520409"><ele>437.3333333333333</ele><time>2026-04-18T13:17:34.537Z</time></trkpt><trkpt lat="46.0167232" lon="12.0521423"><ele>437.16666666666663</ele><time>2026-04-18T13:17:36.537Z</time></trkpt><trkpt lat="46.0166586" lon="12.052218"><ele>437.0</ele><time>2026-04-18T13:17:38.536Z</time></trkpt><trkpt lat="46.0166368" lon="12.0523283"><ele>432.8</ele><time>2026-04-18T13:17:41.535Z</time></trkpt><trkpt lat="46.0167012" lon="12.0523814"><ele>428.6</ele><time>2026-04-18T13:17:43.536Z</time></trkpt><trkpt lat="46.0167931" lon="12.0523624"><ele>424.40000000000003</ele><time>2026-04-18T13:17:45.537Z</time></trkpt><trkpt lat="46.0168861" lon="12.0522715"><ele>420.20000000000005</ele><time>2026-04-18T13:17:47.536Z</time></trkpt><trkpt lat="46.0169835" lon="12.0522204"><ele>416.0</ele><time>2026-04-18T13:17:49.537Z</time></trkpt><trkpt lat="46.0170967" lon="12.0522038"><ele>416.0</ele><time>2026-04-18T13:17:51.537Z</time></trkpt><trkpt lat="46.0172048" lon="12.0522264"><ele>416.0</ele><time>2026-04-18T13:17:53.537Z</time></trkpt><trkpt lat="46.0173033" lon="12.0522755"><ele>416.0</ele><time>2026-04-18T13:17:55.537Z</time></trkpt><trkpt lat="46.0174039" lon="12.0523052"><ele>416.0</ele><time>2026-04-18T13:17:57.537Z</time></trkpt><trkpt lat="46.0175182" lon="12.0522602"><ele>416.0</ele><time>2026-04-18T13:17:59.537Z</time></trkpt><trkpt lat="46.0176178" lon="12.0521494"><ele>411.8333333333333</ele><time>2026-04-18T13:18:01.536Z</time></trkpt><trkpt lat="46.017671" lon="12.0520766"><ele>407.66666666666663</ele><time>2026-04-18T13:18:02.537Z</time></trkpt><trkpt lat="46.0177274" lon="12.0520007"><ele>403.5</ele><time>2026-04-18T13:18:03.537Z</time></trkpt><trkpt lat="46.0177895" lon="12.0519274"><ele>399.33333333333337</ele><time>2026-04-18T13:18:04.537Z</time></trkpt><trkpt lat="46.0178555" lon="12.0518604"><ele>395.1666666666667</ele><time>2026-04-18T13:18:05.536Z</time></trkpt><trkpt lat="46.0179224" lon="12.0517952"><ele>391.0</ele><time>2026-04-18T13:18:06.537Z</time></trkpt><trkpt lat="46.0179888" lon="12.0517299"><ele>391.00000000000006</ele><time>2026-04-18T13:18:07.535Z</time></trkpt><trkpt lat="46.0180573" lon="12.051671"><ele>391.0</ele><time>2026-04-18T13:18:08.536Z</time></trkpt><trkpt lat="46.0181282" lon="12.0516234"><ele>391.0</ele><time>2026-04-18T13:18:09.54Z</time></trkpt><trkpt lat="46.0182083" lon="12.0515774"><ele>391.0</ele><time>2026-04-18T13:18:10.536Z</time></trkpt><trkpt lat="46.0182879" lon="12.051541"><ele>391.00000000000006</ele><time>2026-04-18T13:18:11.537Z</time></trkpt><trkpt lat="46.0183631" lon="12.0515142"><ele>391.0</ele><time>2026-04-18T13:18:12.534Z</time></trkpt><trkpt lat="46.0184353" lon="12.0515032"><ele>391.85714285714283</ele><time>2026-04-18T13:18:13.538Z</time></trkpt><trkpt lat="46.0185039" lon="12.0515096"><ele>392.7142857142857</ele><time>2026-04-18T13:18:14.536Z</time></trkpt><trkpt lat="46.0185686" lon="12.0515444"><ele>393.57142857142856</ele><time>2026-04-18T13:18:15.537Z</time></trkpt><trkpt lat="46.0186237" lon="12.0516031"><ele>394.42857142857144</ele><time>2026-04-18T13:18:16.536Z</time></trkpt><trkpt lat="46.0186735" lon="12.051678"><ele>395.2857142857143</ele><time>2026-04-18T13:18:17.537Z</time></trkpt><trkpt lat="46.0187234" lon="12.0517519"><ele>396.1428571428571</ele><time>2026-04-18T13:18:18.537Z</time></trkpt><trkpt lat="46.0187737" lon="12.0518227"><ele>397.0</ele><time>2026-04-18T13:18:19.539Z</time></trkpt><trkpt lat="46.0188259" lon="12.051888"><ele>393.50000000000006</ele><time>2026-04-18T13:18:20.537Z</time></trkpt><trkpt lat="46.0188768" lon="12.0519502"><ele>390.0</ele><time>2026-04-18T13:18:21.537Z</time></trkpt><trkpt lat="46.0189731" lon="12.0520264"><ele>386.5</ele><time>2026-04-18T13:18:23.536Z</time></trkpt><trkpt lat="46.0190662" lon="12.0519977"><ele>383.0</ele><time>2026-04-18T13:18:25.538Z</time></trkpt><trkpt lat="46.0191282" lon="12.0519055"><ele>379.5</ele><time>2026-04-18T13:18:27.537Z</time></trkpt><trkpt lat="46.0191744" lon="12.0517989"><ele>376.0</ele><time>2026-04-18T13:18:29.54Z</time></trkpt><trkpt lat="46.0192278" lon="12.0517037"><ele>375.2857142857143</ele><time>2026-04-18T13:18:31.54Z</time></trkpt><trkpt lat="46.0192774" lon="12.0516256"><ele>374.57142857142856</ele><time>2026-04-18T13:18:33.537Z</time></trkpt><trkpt lat="46.0193264" lon="12.0515619"><ele>373.8571428571429</ele><time>2026-04-18T13:18:35.538Z</time></trkpt><trkpt lat="46.0193759" lon="12.0515023"><ele>373.1428571428571</ele><time>2026-04-18T13:18:37.539Z</time></trkpt><trkpt lat="46.0194345" lon="12.0514031"><ele>372.42857142857144</ele><time>2026-04-18T13:18:40.537Z</time></trkpt><trkpt lat="46.0194865" lon="12.0513"><ele>371.7142857142857</ele><time>2026-04-18T13:18:43.537Z</time></trkpt><trkpt lat="46.0195241" lon="12.051227"><ele>371.0</ele><time>2026-04-18T13:18:45.539Z</time></trkpt><trkpt lat="46.0195705" lon="12.0511623"><ele>371.0</ele><time>2026-04-18T13:18:47.538Z</time></trkpt><trkpt lat="46.0196444" lon="12.0510792"><ele>371.0</ele><time>2026-04-18T13:18:50.54Z</time></trkpt><trkpt lat="46.0196947" lon="12.0510243"><ele>371.0</ele><time>2026-04-18T13:18:52.537Z</time></trkpt><trkpt lat="46.019747" lon="12.0509667"><ele>371.0</ele><time>2026-04-18T13:18:54.538Z</time></trkpt><trkpt lat="46.0198104" lon="12.0508637"><ele>371.0</ele><time>2026-04-18T13:18:57.539Z</time></trkpt><trkpt lat="46.0198643" lon="12.0507936"><ele>371.0</ele><time>2026-04-18T13:18:59.537Z</time></trkpt><trkpt lat="46.0199124" lon="12.0507238"><ele>370.2857142857143</ele><time>2026-04-18T13:19:01.537Z</time></trkpt><trkpt lat="46.019957" lon="12.0506567"><ele>369.57142857142856</ele><time>2026-04-18T13:19:03.538Z</time></trkpt><trkpt lat="46.0200023" lon="12.0505811"><ele>368.8571428571429</ele><time>2026-04-18T13:19:05.538Z</time></trkpt><trkpt lat="46.0200439" lon="12.0505064"><ele>368.1428571428571</ele><time>2026-04-18T13:19:07.538Z</time></trkpt><trkpt lat="46.0200882" lon="12.0504407"><ele>367.42857142857144</ele><time>2026-04-18T13:19:09.538Z</time></trkpt><trkpt lat="46.0201338" lon="12.050378"><ele>366.7142857142857</ele><time>2026-04-18T13:19:11.539Z</time></trkpt><trkpt lat="46.0201841" lon="12.0502768"><ele>366.0</ele><time>2026-04-18T13:19:14.538Z</time></trkpt><trkpt lat="46.0202461" lon="12.0502107"><ele>362.8333333333333</ele><time>2026-04-18T13:19:17.539Z</time></trkpt><trkpt lat="46.0203165" lon="12.0501704"><ele>359.6666666666667</ele><time>2026-04-18T13:19:20.537Z</time></trkpt><trkpt lat="46.0203827" lon="12.0501633"><ele>356.5</ele><time>2026-04-18T13:19:23.539Z</time></trkpt><trkpt lat="46.0204479" lon="12.0501704"><ele>353.33333333333337</ele><time>2026-04-18T13:19:26.538Z</time></trkpt><trkpt lat="46.0205119" lon="12.0502001"><ele>350.1666666666667</ele><time>2026-04-18T13:19:29.541Z</time></trkpt><trkpt lat="46.0206038" lon="12.0502489"><ele>347.0</ele><time>2026-04-18T13:19:32.538Z</time></trkpt><trkpt lat="46.0206732" lon="12.050303"><ele>347.0</ele><time>2026-04-18T13:19:34.536Z</time></trkpt><trkpt lat="46.0207471" lon="12.0503467"><ele>347.0</ele><time>2026-04-18T13:19:36.537Z</time></trkpt><trkpt lat="46.0208242" lon="12.0503718"><ele>347.0</ele><time>2026-04-18T13:19:38.539Z</time></trkpt><trkpt lat="46.0208969" lon="12.0503846"><ele>347.0</ele><time>2026-04-18T13:19:40.538Z</time></trkpt><trkpt lat="46.020965" lon="12.0503839"><ele>347.0</ele><time>2026-04-18T13:19:42.536Z</time></trkpt><trkpt lat="46.0210304" lon="12.0503866"><ele>347.0</ele><time>2026-04-18T13:19:44.535Z</time></trkpt><trkpt lat="46.0211038" lon="12.0503821"><ele>347.0</ele><time>2026-04-18T13:19:46.538Z</time></trkpt><trkpt lat="46.0211841" lon="12.050384"><ele>348.8571428571429</ele><time>2026-04-18T13:19:48.537Z</time></trkpt><trkpt lat="46.0212568" lon="12.0503884"><ele>350.71428571428567</ele><time>2026-04-18T13:19:50.536Z</time></trkpt><trkpt lat="46.0213284" lon="12.0503979"><ele>352.57142857142856</ele><time>2026-04-18T13:19:52.537Z</time></trkpt><trkpt lat="46.0213929" lon="12.050414"><ele>354.42857142857144</ele><time>2026-04-18T13:19:54.536Z</time></trkpt><trkpt lat="46.0214838" lon="12.0504461"><ele>356.28571428571433</ele><time>2026-04-18T13:19:57.537Z</time></trkpt><trkpt lat="46.0215447" lon="12.0504847"><ele>358.1428571428571</ele><time>2026-04-18T13:19:59.537Z</time></trkpt><trkpt lat="46.0215933" lon="12.0505433"><ele>360.0</ele><time>2026-04-18T13:20:01.537Z</time></trkpt><trkpt lat="46.0216379" lon="12.0506112"><ele>361.0</ele><time>2026-04-18T13:20:03.539Z</time></trkpt><trkpt lat="46.0216727" lon="12.050712"><ele>362.0</ele><time>2026-04-18T13:20:05.539Z</time></trkpt><trkpt lat="46.02169" lon="12.0508253"><ele>363.0</ele><time>2026-04-18T13:20:07.538Z</time></trkpt><trkpt lat="46.0216949" lon="12.0509591"><ele>364.0</ele><time>2026-04-18T13:20:09.537Z</time></trkpt><trkpt lat="46.0216845" lon="12.051096"><ele>365.0</ele><time>2026-04-18T13:20:11.539Z</time></trkpt><trkpt lat="46.021686" lon="12.0512076"><ele>366.0</ele><time>2026-04-18T13:20:13.536Z</time></trkpt><trkpt lat="46.0216872" lon="12.0513358"><ele>367.0</ele><time>2026-04-18T13:20:16.537Z</time></trkpt><trkpt lat="46.0217293" lon="12.0514184"><ele>368.0</ele><time>2026-04-18T13:20:19.537Z</time></trkpt><trkpt lat="46.0218056" lon="12.051445"><ele>369.0</ele><time>2026-04-18T13:20:22.536Z</time></trkpt><trkpt lat="46.0218727" lon="12.0514723"><ele>370.0</ele><time>2026-04-18T13:20:24.537Z</time></trkpt><trkpt lat="46.0219365" lon="12.0515013"><ele>371.0</ele><time>2026-04-18T13:20:26.538Z</time></trkpt><trkpt lat="46.0220081" lon="12.0515648"><ele>372.0</ele><time>2026-04-18T13:20:28.537Z</time></trkpt><trkpt lat="46.0220583" lon="12.0516433"><ele>373.0</ele><time>2026-04-18T13:20:30.538Z</time></trkpt><trkpt lat="46.0220635" lon="12.0517547"><ele>374.8333333333333</ele><time>2026-04-18T13:20:32.537Z</time></trkpt><trkpt lat="46.0220346" lon="12.0518706"><ele>376.66666666666663</ele><time>2026-04-18T13:20:34.535Z</time></trkpt><trkpt lat="46.0220094" lon="12.0519715"><ele>378.5</ele><time>2026-04-18T13:20:36.54Z</time></trkpt><trkpt lat="46.0220251" lon="12.0520609"><ele>380.3333333333333</ele><time>2026-04-18T13:20:38.539Z</time></trkpt><trkpt lat="46.0220729" lon="12.0521238"><ele>382.1666666666667</ele><time>2026-04-18T13:20:40.537Z</time></trkpt><trkpt lat="46.0221543" lon="12.0521244"><ele>384.0</ele><time>2026-04-18T13:20:43.537Z</time></trkpt><trkpt lat="46.0222338" lon="12.0520984"><ele>384.0</ele><time>2026-04-18T13:20:45.537Z</time></trkpt><trkpt lat="46.0223193" lon="12.0520275"><ele>384.0</ele><time>2026-04-18T13:20:47.54Z</time></trkpt><trkpt lat="46.0224085" lon="12.0519195"><ele>384.0</ele><time>2026-04-18T13:20:49.54Z</time></trkpt><trkpt lat="46.0225084" lon="12.0518144"><ele>384.0</ele><time>2026-04-18T13:20:51.541Z</time></trkpt><trkpt lat="46.0226183" lon="12.0517373"><ele>378.2</ele><time>2026-04-18T13:20:53.541Z</time></trkpt><trkpt lat="46.0227211" lon="12.0516997"><ele>372.4</ele><time>2026-04-18T13:20:55.541Z</time></trkpt><trkpt lat="46.0228254" lon="12.0516985"><ele>366.6</ele><time>2026-04-18T13:20:57.54Z</time></trkpt><trkpt lat="46.02293" lon="12.0516846"><ele>360.8</ele><time>2026-04-18T13:20:59.539Z</time></trkpt><trkpt lat="46.0230271" lon="12.0516651"><ele>355.0</ele><time>2026-04-18T13:21:01.539Z</time></trkpt><trkpt lat="46.0231195" lon="12.0516279"><ele>355.0</ele><time>2026-04-18T13:21:03.54Z</time></trkpt><trkpt lat="46.0232065" lon="12.0516244"><ele>355.0</ele><time>2026-04-18T13:21:05.541Z</time></trkpt><trkpt lat="46.0232947" lon="12.0516502"><ele>355.0</ele><time>2026-04-18T13:21:07.539Z</time></trkpt><trkpt lat="46.0233956" lon="12.0517243"><ele>355.0</ele><time>2026-04-18T13:21:09.537Z</time></trkpt><trkpt lat="46.023459" lon="12.0517609"><ele>355.0</ele><time>2026-04-18T13:21:10.537Z</time></trkpt><trkpt lat="46.0235295" lon="12.0518021"><ele>355.0</ele><time>2026-04-18T13:21:11.54Z</time></trkpt><trkpt lat="46.0235954" lon="12.0518482"><ele>353.8333333333333</ele><time>2026-04-18T13:21:12.54Z</time></trkpt><trkpt lat="46.0236666" lon="12.0518991"><ele>352.66666666666663</ele><time>2026-04-18T13:21:13.539Z</time></trkpt><trkpt lat="46.023724" lon="12.0519384"><ele>351.5</ele><time>2026-04-18T13:21:14.539Z</time></trkpt><trkpt lat="46.0237824" lon="12.0519756"><ele>350.3333333333333</ele><time>2026-04-18T13:21:15.539Z</time></trkpt><trkpt lat="46.0238865" lon="12.0520448"><ele>349.1666666666667</ele><time>2026-04-18T13:21:17.537Z</time></trkpt><trkpt lat="46.0239618" lon="12.0521097"><ele>348.0</ele><time>2026-04-18T13:21:19.54Z</time></trkpt><trkpt lat="46.0240398" lon="12.0521665"><ele>348.0</ele><time>2026-04-18T13:21:21.537Z</time></trkpt><trkpt lat="46.0241226" lon="12.0522259"><ele>348.0</ele><time>2026-04-18T13:21:23.539Z</time></trkpt><trkpt lat="46.0241929" lon="12.0522763"><ele>348.0</ele><time>2026-04-18T13:21:25.539Z</time></trkpt><trkpt lat="46.0242659" lon="12.0523347"><ele>348.0</ele><time>2026-04-18T13:21:27.541Z</time></trkpt><trkpt lat="46.0243229" lon="12.0523752"><ele>348.0</ele><time>2026-04-18T13:21:29.539Z</time></trkpt><trkpt lat="46.0244062" lon="12.0524082"><ele>348.0</ele><time>2026-04-18T13:21:32.539Z</time></trkpt><trkpt lat="46.0244905" lon="12.0524267"><ele>347.5</ele><time>2026-04-18T13:21:35.54Z</time></trkpt><trkpt lat="46.0245503" lon="12.0523944"><ele>347.0</ele><time>2026-04-18T13:21:37.539Z</time></trkpt><trkpt lat="46.0246141" lon="12.0523425"><ele>346.5</ele><time>2026-04-18T13:21:39.539Z</time></trkpt><trkpt lat="46.0246815" lon="12.0522838"><ele>346.0</ele><time>2026-04-18T13:21:41.539Z</time></trkpt><trkpt lat="46.0247555" lon="12.0522332"><ele>345.5</ele><time>2026-04-18T13:21:43.541Z</time></trkpt><trkpt lat="46.0248243" lon="12.0521962"><ele>345.0</ele><time>2026-04-18T13:21:45.539Z</time></trkpt><trkpt lat="46.0249023" lon="12.0521812"><ele>344.1666666666667</ele><time>2026-04-18T13:21:47.539Z</time></trkpt><trkpt lat="46.0249963" lon="12.052207"><ele>343.3333333333333</ele><time>2026-04-18T13:21:50.537Z</time></trkpt><trkpt lat="46.0250672" lon="12.0522038"><ele>342.5</ele><time>2026-04-18T13:21:52.537Z</time></trkpt><trkpt lat="46.0251362" lon="12.0521819"><ele>341.66666666666663</ele><time>2026-04-18T13:21:54.537Z</time></trkpt><trkpt lat="46.0252031" lon="12.0521079"><ele>340.8333333333333</ele><time>2026-04-18T13:21:57.536Z</time></trkpt><trkpt lat="46.0252658" lon="12.052067"><ele>340.0</ele><time>2026-04-18T13:21:59.537Z</time></trkpt><trkpt lat="46.0253329" lon="12.052022"><ele>340.0</ele><time>2026-04-18T13:22:01.536Z</time></trkpt><trkpt lat="46.0253876" lon="12.0519664"><ele>340.0</ele><time>2026-04-18T13:22:03.536Z</time></trkpt><trkpt lat="46.0254549" lon="12.0518958"><ele>340.0</ele><time>2026-04-18T13:22:06.535Z</time></trkpt><trkpt lat="46.0255303" lon="12.051847"><ele>340.0</ele><time>2026-04-18T13:22:09.536Z</time></trkpt><trkpt lat="46.0256093" lon="12.0518332"><ele>340.0</ele><time>2026-04-18T13:22:12.539Z</time></trkpt><trkpt lat="46.0256767" lon="12.0518547"><ele>340.0</ele><time>2026-04-18T13:22:16.536Z</time></trkpt><trkpt lat="46.02573" lon="12.051906"><ele>340.0</ele><time>2026-04-18T13:22:19.534Z</time></trkpt><trkpt lat="46.0258048" lon="12.0519602"><ele>343.14285714285717</ele><time>2026-04-18T13:22:23.54Z</time></trkpt><trkpt lat="46.0258685" lon="12.0519993"><ele>346.2857142857143</ele><time>2026-04-18T13:22:26.538Z</time></trkpt><trkpt lat="46.0259357" lon="12.0519984"><ele>349.42857142857144</ele><time>2026-04-18T13:22:30.536Z</time></trkpt><trkpt lat="46.0260013" lon="12.0520146"><ele>352.57142857142856</ele><time>2026-04-18T13:22:33.536Z</time></trkpt><trkpt lat="46.0260456" lon="12.0519112"><ele>355.71428571428567</ele><time>2026-04-18T13:22:37.535Z</time></trkpt><trkpt lat="46.0260811" lon="12.0518326"><ele>358.85714285714283</ele><time>2026-04-18T13:22:40.536Z</time></trkpt><trkpt lat="46.026112" lon="12.0517292"><ele>362.0</ele><time>2026-04-18T13:22:43.537Z</time></trkpt><trkpt lat="46.0261502" lon="12.0516372"><ele>359.85714285714283</ele><time>2026-04-18T13:22:46.537Z</time></trkpt><trkpt lat="46.0261976" lon="12.0515552"><ele>357.71428571428567</ele><time>2026-04-18T13:22:49.537Z</time></trkpt><trkpt lat="46.0262513" lon="12.0514844"><ele>355.57142857142856</ele><time>2026-04-18T13:22:52.535Z</time></trkpt><trkpt lat="46.0263123" lon="12.0514241"><ele>353.42857142857144</ele><time>2026-04-18T13:22:55.537Z</time></trkpt><trkpt lat="46.0263684" lon="12.0513404"><ele>351.2857142857143</ele><time>2026-04-18T13:22:58.535Z</time></trkpt><trkpt lat="46.0264036" lon="12.0512524"><ele>349.14285714285717</ele><time>2026-04-18T13:23:00.538Z</time></trkpt><trkpt lat="46.0264106" lon="12.0511525"><ele>347.0</ele><time>2026-04-18T13:23:02.535Z</time></trkpt><trkpt lat="46.0264191" lon="12.0510403"><ele>347.0</ele><time>2026-04-18T13:23:05.537Z</time></trkpt><trkpt lat="46.0264404" lon="12.0509353"><ele>347.0</ele><time>2026-04-18T13:23:08.536Z</time></trkpt><trkpt lat="46.0264667" lon="12.0508269"><ele>347.0</ele><time>2026-04-18T13:23:11.537Z</time></trkpt><trkpt lat="46.0264833" lon="12.0506997"><ele>347.0</ele><time>2026-04-18T13:23:14.535Z</time></trkpt><trkpt lat="46.026497" lon="12.050579"><ele>347.0</ele><time>2026-04-18T13:23:17.537Z</time></trkpt><trkpt lat="46.0264932" lon="12.0504513"><ele>347.0</ele><time>2026-04-18T13:23:20.537Z</time></trkpt><trkpt lat="46.0264798" lon="12.0503264"><ele>347.5</ele><time>2026-04-18T13:23:23.538Z</time></trkpt><trkpt lat="46.0264696" lon="12.050212"><ele>348.0</ele><time>2026-04-18T13:23:26.538Z</time></trkpt><trkpt lat="46.0264569" lon="12.0500951"><ele>348.5</ele><time>2026-04-18T13:23:29.537Z</time></trkpt><trkpt lat="46.026459" lon="12.0499844"><ele>349.0</ele><time>2026-04-18T13:23:32.541Z</time></trkpt><trkpt lat="46.0264889" lon="12.0498812"><ele>349.5</ele><time>2026-04-18T13:23:36.538Z</time></trkpt><trkpt lat="46.0265495" lon="12.0498108"><ele>350.0</ele><time>2026-04-18T13:23:39.537Z</time></trkpt><trkpt lat="46.0266399" lon="12.0497589"><ele>353.5</ele><time>2026-04-18T13:23:42.537Z</time></trkpt><trkpt lat="46.0266956" lon="12.0497021"><ele>357.0</ele><time>2026-04-18T13:23:44.537Z</time></trkpt><trkpt lat="46.0267612" lon="12.0496308"><ele>360.5</ele><time>2026-04-18T13:23:46.536Z</time></trkpt><trkpt lat="46.0268269" lon="12.0495695"><ele>364.0</ele><time>2026-04-18T13:23:48.538Z</time></trkpt><trkpt lat="46.0269022" lon="12.0495075"><ele>367.5</ele><time>2026-04-18T13:23:50.537Z</time></trkpt><trkpt lat="46.02699" lon="12.0494612"><ele>371.0</ele><time>2026-04-18T13:23:52.536Z</time></trkpt><trkpt lat="46.0270714" lon="12.049439"><ele>371.0</ele><time>2026-04-18T13:23:54.537Z</time></trkpt><trkpt lat="46.0271577" lon="12.049415"><ele>371.0</ele><time>2026-04-18T13:23:56.54Z</time></trkpt><trkpt lat="46.0272423" lon="12.049403"><ele>371.0</ele><time>2026-04-18T13:23:58.538Z</time></trkpt><trkpt lat="46.0273367" lon="12.0493931"><ele>371.0</ele><time>2026-04-18T13:24:00.536Z</time></trkpt><trkpt lat="46.0274368" lon="12.0493694"><ele>371.0</ele><time>2026-04-18T13:24:02.536Z</time></trkpt><trkpt lat="46.0275359" lon="12.0493588"><ele>370.20000000000005</ele><time>2026-04-18T13:24:04.538Z</time></trkpt><trkpt lat="46.0276285" lon="12.049364"><ele>369.40000000000003</ele><time>2026-04-18T13:24:06.536Z</time></trkpt><trkpt lat="46.027711" lon="12.0493762"><ele>368.6</ele><time>2026-04-18T13:24:08.537Z</time></trkpt><trkpt lat="46.0277979" lon="12.0494525"><ele>367.8</ele><time>2026-04-18T13:24:10.537Z</time></trkpt><trkpt lat="46.0278959" lon="12.0495554"><ele>367.0</ele><time>2026-04-18T13:24:12.54Z</time></trkpt><trkpt lat="46.0279854" lon="12.0496466"><ele>367.0</ele><time>2026-04-18T13:24:14.538Z</time></trkpt><trkpt lat="46.0280423" lon="12.0497096"><ele>367.0</ele><time>2026-04-18T13:24:16.537Z</time></trkpt><trkpt lat="46.0280888" lon="12.0498069"><ele>367.0</ele><time>2026-04-18T13:24:18.536Z</time></trkpt><trkpt lat="46.0281316" lon="12.0499455"><ele>367.0</ele><time>2026-04-18T13:24:20.537Z</time></trkpt><trkpt lat="46.0281656" lon="12.0500874"><ele>367.0</ele><time>2026-04-18T13:24:22.537Z</time></trkpt><trkpt lat="46.0282192" lon="12.0502117"><ele>365.66666666666663</ele><time>2026-04-18T13:24:24.538Z</time></trkpt><trkpt lat="46.0282683" lon="12.0503363"><ele>364.3333333333333</ele><time>2026-04-18T13:24:26.537Z</time></trkpt><trkpt lat="46.0283007" lon="12.0504622"><ele>363.0</ele><time>2026-04-18T13:24:28.537Z</time></trkpt><trkpt lat="46.0283543" lon="12.0505605"><ele>361.6666666666667</ele><time>2026-04-18T13:24:30.536Z</time></trkpt><trkpt lat="46.02842" lon="12.0505634"><ele>360.33333333333337</ele><time>2026-04-18T13:24:32.537Z</time></trkpt><trkpt lat="46.0284806" lon="12.0504859"><ele>359.0</ele><time>2026-04-18T13:24:34.538Z</time></trkpt><trkpt lat="46.0285206" lon="12.0503766"><ele>359.0</ele><time>2026-04-18T13:24:36.536Z</time></trkpt><trkpt lat="46.0285499" lon="12.0502725"><ele>359.0</ele><time>2026-04-18T13:24:38.539Z</time></trkpt><trkpt lat="46.0285597" lon="12.0501555"><ele>359.0</ele><time>2026-04-18T13:24:40.538Z</time></trkpt><trkpt lat="46.0285747" lon="12.0500414"><ele>359.0</ele><time>2026-04-18T13:24:42.538Z</time></trkpt><trkpt lat="46.0285878" lon="12.049929"><ele>359.0</ele><time>2026-04-18T13:24:44.538Z</time></trkpt><trkpt lat="46.0285978" lon="12.0498151"><ele>359.0</ele><time>2026-04-18T13:24:46.536Z</time></trkpt><trkpt lat="46.028633" lon="12.0496954"><ele>357.1666666666667</ele><time>2026-04-18T13:24:49.535Z</time></trkpt><trkpt lat="46.0286864" lon="12.0495854"><ele>355.33333333333337</ele><time>2026-04-18T13:24:52.537Z</time></trkpt><trkpt lat="46.0287367" lon="12.0495083"><ele>353.5</ele><time>2026-04-18T13:24:54.537Z</time></trkpt><trkpt lat="46.0287928" lon="12.0494286"><ele>351.6666666666667</ele><time>2026-04-18T13:24:56.537Z</time></trkpt><trkpt lat="46.0288561" lon="12.0493418"><ele>349.8333333333333</ele><time>2026-04-18T13:24:58.538Z</time></trkpt><trkpt lat="46.0289187" lon="12.0492642"><ele>348.0</ele><time>2026-04-18T13:25:00.538Z</time></trkpt><trkpt lat="46.0290099" lon="12.0492153"><ele>348.0</ele><time>2026-04-18T13:25:02.536Z</time></trkpt><trkpt lat="46.0291142" lon="12.0491802"><ele>348.0</ele><time>2026-04-18T13:25:04.536Z</time></trkpt><trkpt lat="46.0292328" lon="12.0491546"><ele>348.0</ele><time>2026-04-18T13:25:06.536Z</time></trkpt><trkpt lat="46.0293165" lon="12.0491648"><ele>348.0</ele><time>2026-04-18T13:25:08.537Z</time></trkpt><trkpt lat="46.0293802" lon="12.0491715"><ele>348.0</ele><time>2026-04-18T13:25:23.535Z</time></trkpt><trkpt lat="46.0294728" lon="12.0491893"><ele>347.8333333333333</ele><time>2026-04-18T13:25:26.536Z</time></trkpt><trkpt lat="46.0295438" lon="12.0491987"><ele>347.6666666666667</ele><time>2026-04-18T13:25:28.536Z</time></trkpt><trkpt lat="46.0296217" lon="12.0492118"><ele>347.5</ele><time>2026-04-18T13:25:30.536Z</time></trkpt><trkpt lat="46.0297031" lon="12.0492334"><ele>347.33333333333337</ele><time>2026-04-18T13:25:32.54Z</time></trkpt><trkpt lat="46.0297935" lon="12.0492622"><ele>347.1666666666667</ele><time>2026-04-18T13:25:34.538Z</time></trkpt><trkpt lat="46.0298668" lon="12.0492855"><ele>347.0</ele><time>2026-04-18T13:25:36.537Z</time></trkpt><trkpt lat="46.0299364" lon="12.0493212"><ele>346.1666666666667</ele><time>2026-04-18T13:25:38.537Z</time></trkpt><trkpt lat="46.0300047" lon="12.049355"><ele>345.33333333333337</ele><time>2026-04-18T13:25:40.538Z</time></trkpt><trkpt lat="46.030082" lon="12.0493932"><ele>344.5</ele><time>2026-04-18T13:25:42.536Z</time></trkpt><trkpt lat="46.0301587" lon="12.0494328"><ele>343.6666666666667</ele><time>2026-04-18T13:25:44.539Z</time></trkpt><trkpt lat="46.0302294" lon="12.0494603"><ele>342.8333333333333</ele><time>2026-04-18T13:25:46.537Z</time></trkpt><trkpt lat="46.0303121" lon="12.0494913"><ele>342.0</ele><time>2026-04-18T13:25:48.536Z</time></trkpt><trkpt lat="46.0303958" lon="12.0495213"><ele>342.0</ele><time>2026-04-18T13:25:50.538Z</time></trkpt><trkpt lat="46.0304783" lon="12.0495484"><ele>342.0</ele><time>2026-04-18T13:25:52.536Z</time></trkpt><trkpt lat="46.030559" lon="12.0495883"><ele>342.0</ele><time>2026-04-18T13:25:54.536Z</time></trkpt><trkpt lat="46.0306314" lon="12.0496395"><ele>342.0</ele><time>2026-04-18T13:25:56.536Z</time></trkpt><trkpt lat="46.0306915" lon="12.0496919"><ele>342.0</ele><time>2026-04-18T13:25:58.538Z</time></trkpt><trkpt lat="46.0307511" lon="12.0497493"><ele>342.0</ele><time>2026-04-18T13:26:00.536Z</time></trkpt><trkpt lat="46.0308191" lon="12.0498172"><ele>341.5</ele><time>2026-04-18T13:26:02.537Z</time></trkpt><trkpt lat="46.0308876" lon="12.0498775"><ele>341.0</ele><time>2026-04-18T13:26:04.536Z</time></trkpt><trkpt lat="46.0309539" lon="12.0499015"><ele>340.5</ele><time>2026-04-18T13:26:06.537Z</time></trkpt><trkpt lat="46.0310338" lon="12.0498551"><ele>340.0</ele><time>2026-04-18T13:26:09.539Z</time></trkpt><trkpt lat="46.0310428" lon="12.0497597"><ele>339.5</ele><time>2026-04-18T13:26:11.538Z</time></trkpt><trkpt lat="46.0310251" lon="12.0496239"><ele>339.0</ele><time>2026-04-18T13:26:13.536Z</time></trkpt><trkpt lat="46.0310346" lon="12.0494954"><ele>339.0</ele><time>2026-04-18T13:26:15.537Z</time></trkpt><trkpt lat="46.0310818" lon="12.0493898"><ele>339.0</ele><time>2026-04-18T13:26:17.537Z</time></trkpt><trkpt lat="46.0311431" lon="12.0493225"><ele>339.0</ele><time>2026-04-18T13:26:19.538Z</time></trkpt><trkpt lat="46.0312175" lon="12.0492791"><ele>339.0</ele><time>2026-04-18T13:26:21.537Z</time></trkpt><trkpt lat="46.0313008" lon="12.0492556"><ele>339.0</ele><time>2026-04-18T13:26:23.537Z</time></trkpt><trkpt lat="46.031364" lon="12.0492415"><ele>339.0</ele><time>2026-04-18T13:26:25.539Z</time></trkpt><trkpt lat="46.0314286" lon="12.0492541"><ele>339.0</ele><time>2026-04-18T13:26:27.537Z</time></trkpt><trkpt lat="46.0315105" lon="12.0492872"><ele>339.0</ele><time>2026-04-18T13:26:29.538Z</time></trkpt><trkpt lat="46.0315998" lon="12.0492783"><ele>339.0</ele><time>2026-04-18T13:26:31.537Z</time></trkpt><trkpt lat="46.0316628" lon="12.0492375"><ele>339.0</ele><time>2026-04-18T13:26:33.538Z</time></trkpt><trkpt lat="46.0316949" lon="12.0491127"><ele>339.0</ele><time>2026-04-18T13:26:35.539Z</time></trkpt><trkpt lat="46.0317276" lon="12.0489847"><ele>339.0</ele><time>2026-04-18T13:26:37.537Z</time></trkpt><trkpt lat="46.0317583" lon="12.0488633"><ele>339.3333333333333</ele><time>2026-04-18T13:26:39.535Z</time></trkpt><trkpt lat="46.0317881" lon="12.0487512"><ele>339.6666666666667</ele><time>2026-04-18T13:26:41.538Z</time></trkpt><trkpt lat="46.0318214" lon="12.048644"><ele>340.0</ele><time>2026-04-18T13:26:43.537Z</time></trkpt><trkpt lat="46.0318521" lon="12.0485414"><ele>340.33333333333337</ele><time>2026-04-18T13:26:45.536Z</time></trkpt><trkpt lat="46.0318676" lon="12.0484403"><ele>340.6666666666667</ele><time>2026-04-18T13:26:47.536Z</time></trkpt><trkpt lat="46.0318948" lon="12.0483105"><ele>341.0</ele><time>2026-04-18T13:26:50.536Z</time></trkpt><trkpt lat="46.0319131" lon="12.0481944"><ele>341.0</ele><time>2026-04-18T13:26:52.535Z</time></trkpt><trkpt lat="46.0319174" lon="12.0480792"><ele>341.0</ele><time>2026-04-18T13:26:54.535Z</time></trkpt><trkpt lat="46.0319068" lon="12.0479697"><ele>341.0</ele><time>2026-04-18T13:26:56.539Z</time></trkpt><trkpt lat="46.0318825" lon="12.0478615"><ele>341.0</ele><time>2026-04-18T13:26:58.537Z</time></trkpt><trkpt lat="46.0318628" lon="12.0477556"><ele>341.0</ele><time>2026-04-18T13:27:00.538Z</time></trkpt><trkpt lat="46.0318624" lon="12.0476597"><ele>341.0</ele><time>2026-04-18T13:27:02.537Z</time></trkpt><trkpt lat="46.0318737" lon="12.0475565"><ele>341.0</ele><time>2026-04-18T13:27:04.536Z</time></trkpt><trkpt lat="46.0319083" lon="12.0474621"><ele>341.0</ele><time>2026-04-18T13:27:06.537Z</time></trkpt><trkpt lat="46.0319613" lon="12.0473993"><ele>341.0</ele><time>2026-04-18T13:27:08.537Z</time></trkpt><trkpt lat="46.0320312" lon="12.0473639"><ele>341.0</ele><time>2026-04-18T13:27:10.537Z</time></trkpt><trkpt lat="46.0321017" lon="12.0473273"><ele>341.0</ele><time>2026-04-18T13:27:12.537Z</time></trkpt><trkpt lat="46.0321695" lon="12.0472853"><ele>341.0</ele><time>2026-04-18T13:27:14.536Z</time></trkpt><trkpt lat="46.0322482" lon="12.0472532"><ele>341.0</ele><time>2026-04-18T13:27:16.537Z</time></trkpt><trkpt lat="46.0323214" lon="12.047221"><ele>340.1428571428571</ele><time>2026-04-18T13:27:18.539Z</time></trkpt><trkpt lat="46.0323906" lon="12.0471809"><ele>339.2857142857143</ele><time>2026-04-18T13:27:20.537Z</time></trkpt><trkpt lat="46.0324618" lon="12.0471429"><ele>338.42857142857144</ele><time>2026-04-18T13:27:22.536Z</time></trkpt><trkpt lat="46.0325283" lon="12.0471067"><ele>337.57142857142856</ele><time>2026-04-18T13:27:24.537Z</time></trkpt><trkpt lat="46.0325905" lon="12.0470668"><ele>336.7142857142857</ele><time>2026-04-18T13:27:26.536Z</time></trkpt><trkpt lat="46.0326528" lon="12.047037"><ele>335.85714285714283</ele><time>2026-04-18T13:27:28.537Z</time></trkpt><trkpt lat="46.0327347" lon="12.0470143"><ele>335.0</ele><time>2026-04-18T13:27:30.537Z</time></trkpt><trkpt lat="46.032812" lon="12.0470146"><ele>335.0</ele><time>2026-04-18T13:27:32.536Z</time></trkpt><trkpt lat="46.032907" lon="12.0470317"><ele>335.0</ele><time>2026-04-18T13:27:34.535Z</time></trkpt><trkpt lat="46.0329966" lon="12.047051"><ele>335.0</ele><time>2026-04-18T13:27:36.537Z</time></trkpt><trkpt lat="46.0331093" lon="12.0470606"><ele>335.0</ele><time>2026-04-18T13:27:38.537Z</time></trkpt><trkpt lat="46.03322" lon="12.047036"><ele>335.0</ele><time>2026-04-18T13:27:40.538Z</time></trkpt><trkpt lat="46.033315" lon="12.0469552"><ele>333.8</ele><time>2026-04-18T13:27:42.537Z</time></trkpt><trkpt lat="46.0334047" lon="12.0468518"><ele>332.6</ele><time>2026-04-18T13:27:44.538Z</time></trkpt><trkpt lat="46.0334821" lon="12.0467535"><ele>331.4</ele><time>2026-04-18T13:27:46.537Z</time></trkpt><trkpt lat="46.033557" lon="12.0466683"><ele>330.2</ele><time>2026-04-18T13:27:48.538Z</time></trkpt><trkpt lat="46.0336189" lon="12.0465925"><ele>329.0</ele><time>2026-04-18T13:27:50.536Z</time></trkpt><trkpt lat="46.0336759" lon="12.0465179"><ele>329.0</ele><time>2026-04-18T13:27:52.538Z</time></trkpt><trkpt lat="46.0337331" lon="12.0464517"><ele>329.0</ele><time>2026-04-18T13:27:54.537Z</time></trkpt><trkpt lat="46.0337891" lon="12.0463841"><ele>329.0</ele><time>2026-04-18T13:27:56.538Z</time></trkpt><trkpt lat="46.0338471" lon="12.0463238"><ele>329.0</ele><time>2026-04-18T13:27:58.537Z</time></trkpt><trkpt lat="46.0339053" lon="12.0462666"><ele>329.0</ele><time>2026-04-18T13:28:00.537Z</time></trkpt><trkpt lat="46.0339616" lon="12.0462029"><ele>329.0</ele><time>2026-04-18T13:28:02.537Z</time></trkpt><trkpt lat="46.0340196" lon="12.0461499"><ele>329.0</ele><time>2026-04-18T13:28:04.536Z</time></trkpt><trkpt lat="46.0340976" lon="12.0460909"><ele>333.0</ele><time>2026-04-18T13:28:07.537Z</time></trkpt><trkpt lat="46.0341842" lon="12.0460663"><ele>337.0</ele><time>2026-04-18T13:28:10.537Z</time></trkpt><trkpt lat="46.034288" lon="12.0460962"><ele>341.0</ele><time>2026-04-18T13:28:13.537Z</time></trkpt><trkpt lat="46.0343712" lon="12.0461678"><ele>345.0</ele><time>2026-04-18T13:28:15.537Z</time></trkpt><trkpt lat="46.034459" lon="12.046247"><ele>349.0</ele><time>2026-04-18T13:28:17.535Z</time></trkpt><trkpt lat="46.0345428" lon="12.0463059"><ele>349.0</ele><time>2026-04-18T13:28:19.537Z</time></trkpt><trkpt lat="46.0346271" lon="12.0463428"><ele>349.0</ele><time>2026-04-18T13:28:21.537Z</time></trkpt><trkpt lat="46.0347224" lon="12.0463599"><ele>349.0</ele><time>2026-04-18T13:28:23.537Z</time></trkpt><trkpt lat="46.0348175" lon="12.0463535"><ele>349.0</ele><time>2026-04-18T13:28:25.538Z</time></trkpt><trkpt lat="46.0349072" lon="12.0463362"><ele>349.0</ele><time>2026-04-18T13:28:27.538Z</time></trkpt><trkpt lat="46.03499" lon="12.0463174"><ele>350.8333333333333</ele><time>2026-04-18T13:28:29.537Z</time></trkpt><trkpt lat="46.0350685" lon="12.0462966"><ele>352.66666666666663</ele><time>2026-04-18T13:28:31.538Z</time></trkpt><trkpt lat="46.0351393" lon="12.0462798"><ele>354.5</ele><time>2026-04-18T13:28:33.536Z</time></trkpt><trkpt lat="46.0352199" lon="12.0463046"><ele>356.3333333333333</ele><time>2026-04-18T13:28:36.537Z</time></trkpt><trkpt lat="46.0352664" lon="12.0463741"><ele>358.1666666666667</ele><time>2026-04-18T13:28:38.537Z</time></trkpt><trkpt lat="46.0352916" lon="12.0464905"><ele>360.0</ele><time>2026-04-18T13:28:40.536Z</time></trkpt><trkpt lat="46.0353113" lon="12.0466136"><ele>363.0</ele><time>2026-04-18T13:28:42.537Z</time></trkpt><trkpt lat="46.0353281" lon="12.0467361"><ele>366.0</ele><time>2026-04-18T13:28:44.537Z</time></trkpt><trkpt lat="46.0353518" lon="12.0468753"><ele>369.0</ele><time>2026-04-18T13:28:46.536Z</time></trkpt><trkpt lat="46.0353997" lon="12.0470052"><ele>372.0</ele><time>2026-04-18T13:28:48.539Z</time></trkpt><trkpt lat="46.0354563" lon="12.0471195"><ele>375.0</ele><time>2026-04-18T13:28:50.537Z</time></trkpt><trkpt lat="46.0354997" lon="12.0472582"><ele>375.0</ele><time>2026-04-18T13:28:52.538Z</time></trkpt><trkpt lat="46.0355113" lon="12.0474322"><ele>375.0</ele><time>2026-04-18T13:28:54.538Z</time></trkpt><trkpt lat="46.0355302" lon="12.047572"><ele>375.0</ele><time>2026-04-18T13:28:56.537Z</time></trkpt><trkpt lat="46.0355808" lon="12.0476658"><ele>375.0</ele><time>2026-04-18T13:28:58.536Z</time></trkpt><trkpt lat="46.0356463" lon="12.047669"><ele>375.0</ele><time>2026-04-18T13:29:00.534Z</time></trkpt><trkpt lat="46.0357231" lon="12.0475778"><ele>373.4</ele><time>2026-04-18T13:29:02.536Z</time></trkpt><trkpt lat="46.0358243" lon="12.0475"><ele>371.8</ele><time>2026-04-18T13:29:04.536Z</time></trkpt><trkpt lat="46.0359194" lon="12.0474381"><ele>370.20000000000005</ele><time>2026-04-18T13:29:06.537Z</time></trkpt><trkpt lat="46.0360062" lon="12.0473615"><ele>368.6</ele><time>2026-04-18T13:29:08.536Z</time></trkpt><trkpt lat="46.0360891" lon="12.0472889"><ele>367.0</ele><time>2026-04-18T13:29:10.537Z</time></trkpt><trkpt lat="46.0361389" lon="12.0471702"><ele>364.8333333333333</ele><time>2026-04-18T13:29:12.537Z</time></trkpt><trkpt lat="46.0361449" lon="12.0470441"><ele>362.66666666666663</ele><time>2026-04-18T13:29:14.538Z</time></trkpt><trkpt lat="46.036134" lon="12.0469147"><ele>360.5</ele><time>2026-04-18T13:29:16.537Z</time></trkpt><trkpt lat="46.036161" lon="12.0468116"><ele>358.3333333333333</ele><time>2026-04-18T13:29:18.537Z</time></trkpt><trkpt lat="46.036227" lon="12.0467293"><ele>356.1666666666667</ele><time>2026-04-18T13:29:20.537Z</time></trkpt><trkpt lat="46.0363061" lon="12.0466531"><ele>354.0</ele><time>2026-04-18T13:29:22.537Z</time></trkpt><trkpt lat="46.0363831" lon="12.0465697"><ele>353.1666666666667</ele><time>2026-04-18T13:29:24.539Z</time></trkpt><trkpt lat="46.0364615" lon="12.0465061"><ele>352.3333333333333</ele><time>2026-04-18T13:29:26.537Z</time></trkpt><trkpt lat="46.0365344" lon="12.046457"><ele>351.5</ele><time>2026-04-18T13:29:28.539Z</time></trkpt><trkpt lat="46.036608" lon="12.0464231"><ele>350.66666666666663</ele><time>2026-04-18T13:29:30.537Z</time></trkpt><trkpt lat="46.0366889" lon="12.046426"><ele>349.8333333333333</ele><time>2026-04-18T13:29:32.539Z</time></trkpt><trkpt lat="46.0367605" lon="12.0464341"><ele>349.0</ele><time>2026-04-18T13:29:34.534Z</time></trkpt><trkpt lat="46.0368221" lon="12.0464103"><ele>349.0</ele><time>2026-04-18T13:29:36.536Z</time></trkpt><trkpt lat="46.0368655" lon="12.0463333"><ele>349.0</ele><time>2026-04-18T13:29:38.537Z</time></trkpt><trkpt lat="46.0369062" lon="12.0462385"><ele>349.0</ele><time>2026-04-18T13:29:40.537Z</time></trkpt><trkpt lat="46.036953" lon="12.0461453"><ele>349.0</ele><time>2026-04-18T13:29:42.536Z</time></trkpt><trkpt lat="46.0370108" lon="12.0460632"><ele>349.0</ele><time>2026-04-18T13:29:44.536Z</time></trkpt><trkpt lat="46.0370718" lon="12.0460049"><ele>349.0</ele><time>2026-04-18T13:29:46.536Z</time></trkpt><trkpt lat="46.0371484" lon="12.0459472"><ele>349.0</ele><time>2026-04-18T13:29:48.538Z</time></trkpt><trkpt lat="46.0372082" lon="12.0458362"><ele>349.0</ele><time>2026-04-18T13:29:50.536Z</time></trkpt><trkpt lat="46.0372548" lon="12.0457318"><ele>349.0</ele><time>2026-04-18T13:29:52.537Z</time></trkpt><trkpt lat="46.037301" lon="12.0456292"><ele>349.0</ele><time>2026-04-18T13:29:54.536Z</time></trkpt><trkpt lat="46.0373401" lon="12.0455229"><ele>349.0</ele><time>2026-04-18T13:29:56.537Z</time></trkpt><trkpt lat="46.037369" lon="12.0454232"><ele>349.0</ele><time>2026-04-18T13:29:58.537Z</time></trkpt><trkpt lat="46.037408" lon="12.0453366"><ele>349.79999999999995</ele><time>2026-04-18T13:30:00.536Z</time></trkpt><trkpt lat="46.0374696" lon="12.0452393"><ele>350.59999999999997</ele><time>2026-04-18T13:30:03.537Z</time></trkpt><trkpt lat="46.0375382" lon="12.0451371"><ele>351.4</ele><time>2026-04-18T13:30:06.537Z</time></trkpt><trkpt lat="46.0376025" lon="12.045061"><ele>352.2</ele><time>2026-04-18T13:30:08.535Z</time></trkpt><trkpt lat="46.0376812" lon="12.0449776"><ele>353.0</ele><time>2026-04-18T13:30:10.536Z</time></trkpt><trkpt lat="46.0377726" lon="12.0448991"><ele>344.25</ele><time>2026-04-18T13:30:12.537Z</time></trkpt><trkpt lat="46.0378779" lon="12.0448453"><ele>335.5</ele><time>2026-04-18T13:30:14.538Z</time></trkpt><trkpt lat="46.0379893" lon="12.0448123"><ele>326.75</ele><time>2026-04-18T13:30:16.537Z</time></trkpt><trkpt lat="46.0381094" lon="12.0447971"><ele>318.0</ele><time>2026-04-18T13:30:18.537Z</time></trkpt><trkpt lat="46.0382242" lon="12.0447707"><ele>323.8</ele><time>2026-04-18T13:30:20.537Z</time></trkpt><trkpt lat="46.0383289" lon="12.0447291"><ele>329.6</ele><time>2026-04-18T13:30:22.536Z</time></trkpt><trkpt lat="46.0384375" lon="12.0446852"><ele>335.40000000000003</ele><time>2026-04-18T13:30:24.536Z</time></trkpt><trkpt lat="46.0385513" lon="12.0446141"><ele>341.20000000000005</ele><time>2026-04-18T13:30:26.536Z</time></trkpt><trkpt lat="46.0386099" lon="12.0445744"><ele>347.0</ele><time>2026-04-18T13:30:27.538Z</time></trkpt><trkpt lat="46.0386712" lon="12.0445351"><ele>347.0</ele><time>2026-04-18T13:30:28.537Z</time></trkpt><trkpt lat="46.0387316" lon="12.0444926"><ele>347.0</ele><time>2026-04-18T13:30:29.537Z</time></trkpt><trkpt lat="46.0387898" lon="12.0444437"><ele>347.0</ele><time>2026-04-18T13:30:30.539Z</time></trkpt><trkpt lat="46.0388476" lon="12.0443862"><ele>347.0</ele><time>2026-04-18T13:30:31.537Z</time></trkpt><trkpt lat="46.0389036" lon="12.044322"><ele>347.0</ele><time>2026-04-18T13:30:32.537Z</time></trkpt><trkpt lat="46.0389596" lon="12.0442547"><ele>347.0</ele><time>2026-04-18T13:30:33.536Z</time></trkpt><trkpt lat="46.0390112" lon="12.0441843"><ele>347.0</ele><time>2026-04-18T13:30:34.537Z</time></trkpt><trkpt lat="46.0390607" lon="12.0441166"><ele>344.83333333333337</ele><time>2026-04-18T13:30:35.538Z</time></trkpt><trkpt lat="46.0391076" lon="12.0440516"><ele>342.6666666666667</ele><time>2026-04-18T13:30:36.537Z</time></trkpt><trkpt lat="46.0391523" lon="12.0439829"><ele>340.5</ele><time>2026-04-18T13:30:37.537Z</time></trkpt><trkpt lat="46.0391949" lon="12.0439147"><ele>338.3333333333333</ele><time>2026-04-18T13:30:38.538Z</time></trkpt><trkpt lat="46.0392397" lon="12.0438501"><ele>336.16666666666663</ele><time>2026-04-18T13:30:39.538Z</time></trkpt><trkpt lat="46.0393353" lon="12.0437351"><ele>334.0</ele><time>2026-04-18T13:30:41.536Z</time></trkpt><trkpt lat="46.0394409" lon="12.0436329"><ele>334.0</ele><time>2026-04-18T13:30:43.537Z</time></trkpt><trkpt lat="46.0394978" lon="12.0435865"><ele>334.0</ele><time>2026-04-18T13:30:44.537Z</time></trkpt><trkpt lat="46.0395603" lon="12.0435411"><ele>334.0</ele><time>2026-04-18T13:30:45.536Z</time></trkpt><trkpt lat="46.0396269" lon="12.0435007"><ele>334.0</ele><time>2026-04-18T13:30:46.537Z</time></trkpt><trkpt lat="46.0396983" lon="12.0434672"><ele>334.0</ele><time>2026-04-18T13:30:47.535Z</time></trkpt><trkpt lat="46.0397712" lon="12.0434344"><ele>334.0</ele><time>2026-04-18T13:30:48.537Z</time></trkpt><trkpt lat="46.0398422" lon="12.0433984"><ele>334.0</ele><time>2026-04-18T13:30:49.536Z</time></trkpt><trkpt lat="46.0399196" lon="12.0433574"><ele>333.3333333333333</ele><time>2026-04-18T13:30:50.537Z</time></trkpt><trkpt lat="46.0399929" lon="12.0433151"><ele>332.66666666666663</ele><time>2026-04-18T13:30:51.537Z</time></trkpt><trkpt lat="46.0400627" lon="12.0432697"><ele>332.0</ele><time>2026-04-18T13:30:52.535Z</time></trkpt><trkpt lat="46.0401332" lon="12.0432146"><ele>331.3333333333333</ele><time>2026-04-18T13:30:53.537Z</time></trkpt><trkpt lat="46.0401977" lon="12.0431573"><ele>330.6666666666667</ele><time>2026-04-18T13:30:54.535Z</time></trkpt><trkpt lat="46.0402565" lon="12.0430942"><ele>330.0</ele><time>2026-04-18T13:30:55.536Z</time></trkpt><trkpt lat="46.0403059" lon="12.0430236"><ele>330.0</ele><time>2026-04-18T13:30:56.539Z</time></trkpt><trkpt lat="46.0403469" lon="12.0429497"><ele>330.0</ele><time>2026-04-18T13:30:57.537Z</time></trkpt><trkpt lat="46.0403999" lon="12.042788"><ele>330.0</ele><time>2026-04-18T13:30:59.538Z</time></trkpt><trkpt lat="46.0404144" lon="12.0426166"><ele>330.0</ele><time>2026-04-18T13:31:01.535Z</time></trkpt><trkpt lat="46.0404519" lon="12.0424795"><ele>330.0</ele><time>2026-04-18T13:31:03.538Z</time></trkpt><trkpt lat="46.0405274" lon="12.0423804"><ele>329.6666666666667</ele><time>2026-04-18T13:31:05.537Z</time></trkpt><trkpt lat="46.0406476" lon="12.04232"><ele>329.3333333333333</ele><time>2026-04-18T13:31:07.537Z</time></trkpt><trkpt lat="46.0407198" lon="12.0422869"><ele>329.0</ele><time>2026-04-18T13:31:08.536Z</time></trkpt><trkpt lat="46.0407905" lon="12.0422509"><ele>328.66666666666663</ele><time>2026-04-18T13:31:09.536Z</time></trkpt><trkpt lat="46.0408649" lon="12.0422159"><ele>328.3333333333333</ele><time>2026-04-18T13:31:10.537Z</time></trkpt><trkpt lat="46.0409374" lon="12.0421795"><ele>328.0</ele><time>2026-04-18T13:31:11.539Z</time></trkpt><trkpt lat="46.041002" lon="12.0421446"><ele>328.0</ele><time>2026-04-18T13:31:12.535Z</time></trkpt><trkpt lat="46.0410618" lon="12.0421084"><ele>328.0</ele><time>2026-04-18T13:31:13.536Z</time></trkpt><trkpt lat="46.0411244" lon="12.042068"><ele>328.0</ele><time>2026-04-18T13:31:14.537Z</time></trkpt><trkpt lat="46.0411864" lon="12.0420216"><ele>328.0</ele><time>2026-04-18T13:31:15.537Z</time></trkpt><trkpt lat="46.0412394" lon="12.0419654"><ele>328.0</ele><time>2026-04-18T13:31:16.537Z</time></trkpt><trkpt lat="46.0412905" lon="12.0419057"><ele>328.0</ele><time>2026-04-18T13:31:17.535Z</time></trkpt><trkpt lat="46.0413787" lon="12.0417822"><ele>328.0</ele><time>2026-04-18T13:31:19.536Z</time></trkpt><trkpt lat="46.0414698" lon="12.0416656"><ele>328.0</ele><time>2026-04-18T13:31:21.536Z</time></trkpt><trkpt lat="46.0415759" lon="12.0415783"><ele>328.0</ele><time>2026-04-18T13:31:23.538Z</time></trkpt><trkpt lat="46.0416871" lon="12.0415345"><ele>328.0</ele><time>2026-04-18T13:31:25.537Z</time></trkpt><trkpt lat="46.0417937" lon="12.0414649"><ele>327.16666666666663</ele><time>2026-04-18T13:31:27.538Z</time></trkpt><trkpt lat="46.0418892" lon="12.041409"><ele>326.3333333333333</ele><time>2026-04-18T13:31:29.537Z</time></trkpt><trkpt lat="46.0419798" lon="12.0413744"><ele>325.5</ele><time>2026-04-18T13:31:31.537Z</time></trkpt><trkpt lat="46.0420593" lon="12.0413616"><ele>324.6666666666667</ele><time>2026-04-18T13:31:33.537Z</time></trkpt><trkpt lat="46.0421269" lon="12.0413791"><ele>323.83333333333337</ele><time>2026-04-18T13:31:35.536Z</time></trkpt><trkpt lat="46.0421818" lon="12.0414402"><ele>323.0</ele><time>2026-04-18T13:31:37.536Z</time></trkpt><trkpt lat="46.0422313" lon="12.041536"><ele>324.0</ele><time>2026-04-18T13:31:39.536Z</time></trkpt><trkpt lat="46.0422923" lon="12.0416504"><ele>325.0</ele><time>2026-04-18T13:31:41.538Z</time></trkpt><trkpt lat="46.0423907" lon="12.0417421"><ele>326.0</ele><time>2026-04-18T13:31:43.537Z</time></trkpt><trkpt lat="46.0424545" lon="12.041756"><ele>327.0</ele><time>2026-04-18T13:31:44.536Z</time></trkpt><trkpt lat="46.0425222" lon="12.0417404"><ele>328.0</ele><time>2026-04-18T13:31:45.536Z</time></trkpt><trkpt lat="46.0425826" lon="12.0416976"><ele>329.0</ele><time>2026-04-18T13:31:46.535Z</time></trkpt><trkpt lat="46.0426353" lon="12.0416349"><ele>328.5</ele><time>2026-04-18T13:31:47.537Z</time></trkpt><trkpt lat="46.0426838" lon="12.041564"><ele>328.0</ele><time>2026-04-18T13:31:48.535Z</time></trkpt><trkpt lat="46.0427301" lon="12.0414978"><ele>327.5</ele><time>2026-04-18T13:31:49.537Z</time></trkpt><trkpt lat="46.0428138" lon="12.0413748"><ele>327.0</ele><time>2026-04-18T13:31:51.536Z</time></trkpt><trkpt lat="46.0428861" lon="12.0412674"><ele>326.5</ele><time>2026-04-18T13:31:53.536Z</time></trkpt><trkpt lat="46.0429498" lon="12.0411783"><ele>326.0</ele><time>2026-04-18T13:31:55.539Z</time></trkpt><trkpt lat="46.0430097" lon="12.0410975"><ele>326.0</ele><time>2026-04-18T13:31:57.537Z</time></trkpt><trkpt lat="46.0430711" lon="12.0410342"><ele>326.0</ele><time>2026-04-18T13:31:59.535Z</time></trkpt><trkpt lat="46.0431366" lon="12.0409891"><ele>326.0</ele><time>2026-04-18T13:32:01.536Z</time></trkpt><trkpt lat="46.0432017" lon="12.0409563"><ele>326.0</ele><time>2026-04-18T13:32:03.537Z</time></trkpt><trkpt lat="46.04327" lon="12.040936"><ele>326.0</ele><time>2026-04-18T13:32:05.536Z</time></trkpt><trkpt lat="46.0433395" lon="12.0409156"><ele>326.0</ele><time>2026-04-18T13:32:07.537Z</time></trkpt><trkpt lat="46.0434091" lon="12.0408959"><ele>326.0</ele><time>2026-04-18T13:32:09.537Z</time></trkpt><trkpt lat="46.0434777" lon="12.0408867"><ele>327.6</ele><time>2026-04-18T13:32:11.536Z</time></trkpt><trkpt lat="46.0435529" lon="12.0408707"><ele>329.20000000000005</ele><time>2026-04-18T13:32:13.538Z</time></trkpt><trkpt lat="46.0436593" lon="12.0408292"><ele>330.79999999999995</ele><time>2026-04-18T13:32:15.536Z</time></trkpt><trkpt lat="46.043766" lon="12.0408499"><ele>332.4</ele><time>2026-04-18T13:32:17.536Z</time></trkpt><trkpt lat="46.0438618" lon="12.0409233"><ele>334.0</ele><time>2026-04-18T13:32:19.538Z</time></trkpt><trkpt lat="46.0439067" lon="12.0410016"><ele>334.0</ele><time>2026-04-18T13:32:20.537Z</time></trkpt><trkpt lat="46.0439557" lon="12.0410893"><ele>334.0</ele><time>2026-04-18T13:32:21.537Z</time></trkpt><trkpt lat="46.0440073" lon="12.0411806"><ele>334.0</ele><time>2026-04-18T13:32:22.536Z</time></trkpt><trkpt lat="46.0440621" lon="12.0412798"><ele>334.0</ele><time>2026-04-18T13:32:23.537Z</time></trkpt><trkpt lat="46.0441155" lon="12.0413801"><ele>334.0</ele><time>2026-04-18T13:32:24.536Z</time></trkpt><trkpt lat="46.0441726" lon="12.0414838"><ele>334.0</ele><time>2026-04-18T13:32:25.537Z</time></trkpt><trkpt lat="46.0442306" lon="12.0415871"><ele>332.0</ele><time>2026-04-18T13:32:26.538Z</time></trkpt><trkpt lat="46.0442906" lon="12.041691"><ele>330.0</ele><time>2026-04-18T13:32:27.537Z</time></trkpt><trkpt lat="46.0443509" lon="12.0417932"><ele>328.0</ele><time>2026-04-18T13:32:28.537Z</time></trkpt><trkpt lat="46.0444188" lon="12.0418875"><ele>326.0</ele><time>2026-04-18T13:32:29.537Z</time></trkpt><trkpt lat="46.0444952" lon="12.0419669"><ele>324.0</ele><time>2026-04-18T13:32:30.536Z</time></trkpt><trkpt lat="46.0445784" lon="12.0420295"><ele>324.0</ele><time>2026-04-18T13:32:31.537Z</time></trkpt><trkpt lat="46.044662" lon="12.0420772"><ele>324.0</ele><time>2026-04-18T13:32:32.537Z</time></trkpt><trkpt lat="46.0447453" lon="12.0421112"><ele>324.0</ele><time>2026-04-18T13:32:33.537Z</time></trkpt><trkpt lat="46.0448287" lon="12.0421301"><ele>324.0</ele><time>2026-04-18T13:32:34.536Z</time></trkpt><trkpt lat="46.0449085" lon="12.0421394"><ele>324.0</ele><time>2026-04-18T13:32:35.538Z</time></trkpt><trkpt lat="46.0449837" lon="12.0421488"><ele>324.0</ele><time>2026-04-18T13:32:36.536Z</time></trkpt><trkpt lat="46.0450518" lon="12.0421641"><ele>323.6666666666667</ele><time>2026-04-18T13:32:37.535Z</time></trkpt><trkpt lat="46.0451537" lon="12.0421977"><ele>323.3333333333333</ele><time>2026-04-18T13:32:39.537Z</time></trkpt><trkpt lat="46.0452337" lon="12.0422177"><ele>323.0</ele><time>2026-04-18T13:32:42.537Z</time></trkpt><trkpt lat="46.0453044" lon="12.0421878"><ele>322.66666666666663</ele><time>2026-04-18T13:32:46.534Z</time></trkpt><trkpt lat="46.0453381" lon="12.0420673"><ele>322.3333333333333</ele><time>2026-04-18T13:32:49.535Z</time></trkpt><trkpt lat="46.0453697" lon="12.0419784"><ele>322.0</ele><time>2026-04-18T13:32:51.538Z</time></trkpt><trkpt lat="46.0454102" lon="12.0418891"><ele>322.0</ele><time>2026-04-18T13:32:53.537Z</time></trkpt><trkpt lat="46.0454739" lon="12.0418"><ele>322.0</ele><time>2026-04-18T13:32:55.537Z</time></trkpt><trkpt lat="46.0455524" lon="12.0417369"><ele>322.0</ele><time>2026-04-18T13:32:57.537Z</time></trkpt><trkpt lat="46.045638" lon="12.0416877"><ele>322.0</ele><time>2026-04-18T13:32:59.536Z</time></trkpt><trkpt lat="46.0457227" lon="12.0416311"><ele>322.0</ele><time>2026-04-18T13:33:01.538Z</time></trkpt><trkpt lat="46.0458046" lon="12.0415543"><ele>321.40000000000003</ele><time>2026-04-18T13:33:03.538Z</time></trkpt><trkpt lat="46.0458559" lon="12.0414271"><ele>320.8</ele><time>2026-04-18T13:33:05.537Z</time></trkpt><trkpt lat="46.0458782" lon="12.0412714"><ele>320.2</ele><time>2026-04-18T13:33:07.536Z</time></trkpt><trkpt lat="46.0458909" lon="12.0411128"><ele>319.6</ele><time>2026-04-18T13:33:09.536Z</time></trkpt><trkpt lat="46.0458973" lon="12.0409565"><ele>319.0</ele><time>2026-04-18T13:33:11.537Z</time></trkpt><trkpt lat="46.0458843" lon="12.0407865"><ele>319.0</ele><time>2026-04-18T13:33:13.537Z</time></trkpt><trkpt lat="46.0458778" lon="12.040696"><ele>319.0</ele><time>2026-04-18T13:33:14.54Z</time></trkpt><trkpt lat="46.0458713" lon="12.0406014"><ele>319.0</ele><time>2026-04-18T13:33:15.537Z</time></trkpt><trkpt lat="46.0458629" lon="12.0405066"><ele>319.0</ele><time>2026-04-18T13:33:16.538Z</time></trkpt><trkpt lat="46.0458549" lon="12.0404099"><ele>319.0</ele><time>2026-04-18T13:33:17.539Z</time></trkpt><trkpt lat="46.0458494" lon="12.0403119"><ele>319.0</ele><time>2026-04-18T13:33:18.538Z</time></trkpt><trkpt lat="46.0458473" lon="12.0402135"><ele>319.0</ele><time>2026-04-18T13:33:19.54Z</time></trkpt><trkpt lat="46.0458482" lon="12.0401198"><ele>319.0</ele><time>2026-04-18T13:33:20.538Z</time></trkpt><trkpt lat="46.0458533" lon="12.040027"><ele>319.0</ele><time>2026-04-18T13:33:21.538Z</time></trkpt><trkpt lat="46.045863" lon="12.0399351"><ele>319.0</ele><time>2026-04-18T13:33:22.538Z</time></trkpt><trkpt lat="46.0458786" lon="12.0397579"><ele>319.0</ele><time>2026-04-18T13:33:24.537Z</time></trkpt><trkpt lat="46.0458908" lon="12.039588"><ele>319.0</ele><time>2026-04-18T13:33:26.538Z</time></trkpt><trkpt lat="46.0458981" lon="12.0394315"><ele>318.59999999999997</ele><time>2026-04-18T13:33:28.537Z</time></trkpt><trkpt lat="46.0458947" lon="12.0392738"><ele>318.2</ele><time>2026-04-18T13:33:30.536Z</time></trkpt><trkpt lat="46.0458903" lon="12.039117"><ele>317.79999999999995</ele><time>2026-04-18T13:33:32.537Z</time></trkpt><trkpt lat="46.0458931" lon="12.0389636"><ele>317.4</ele><time>2026-04-18T13:33:34.536Z</time></trkpt><trkpt lat="46.045895" lon="12.038812"><ele>317.0</ele><time>2026-04-18T13:33:36.539Z</time></trkpt><trkpt lat="46.0459151" lon="12.038671"><ele>316.25</ele><time>2026-04-18T13:33:38.537Z</time></trkpt><trkpt lat="46.045958" lon="12.038537"><ele>315.5</ele><time>2026-04-18T13:33:40.538Z</time></trkpt><trkpt lat="46.0460188" lon="12.038401"><ele>314.75</ele><time>2026-04-18T13:33:42.537Z</time></trkpt><trkpt lat="46.046091" lon="12.0382664"><ele>314.0</ele><time>2026-04-18T13:33:44.541Z</time></trkpt><trkpt lat="46.0461844" lon="12.0381405"><ele>313.71428571428567</ele><time>2026-04-18T13:33:46.536Z</time></trkpt><trkpt lat="46.046231" lon="12.0380751"><ele>313.42857142857144</ele><time>2026-04-18T13:33:47.537Z</time></trkpt><trkpt lat="46.0462707" lon="12.0379985"><ele>313.1428571428571</ele><time>2026-04-18T13:33:48.536Z</time></trkpt><trkpt lat="46.0463111" lon="12.0379163"><ele>312.85714285714283</ele><time>2026-04-18T13:33:49.539Z</time></trkpt><trkpt lat="46.0463487" lon="12.0378343"><ele>312.57142857142856</ele><time>2026-04-18T13:33:50.538Z</time></trkpt><trkpt lat="46.0463851" lon="12.0377487"><ele>312.2857142857143</ele><time>2026-04-18T13:33:51.536Z</time></trkpt><trkpt lat="46.0464231" lon="12.0376615"><ele>312.0</ele><time>2026-04-18T13:33:52.535Z</time></trkpt><trkpt lat="46.0464555" lon="12.0375661"><ele>312.0</ele><time>2026-04-18T13:33:53.538Z</time></trkpt><trkpt lat="46.0464836" lon="12.0374719"><ele>312.0</ele><time>2026-04-18T13:33:54.538Z</time></trkpt><trkpt lat="46.0464971" lon="12.0373789"><ele>312.0</ele><time>2026-04-18T13:33:55.54Z</time></trkpt><trkpt lat="46.0464966" lon="12.0372878"><ele>312.0</ele><time>2026-04-18T13:33:56.539Z</time></trkpt><trkpt lat="46.0464542" lon="12.0371287"><ele>312.0</ele><time>2026-04-18T13:33:58.538Z</time></trkpt><trkpt lat="46.0463822" lon="12.0370183"><ele>312.0</ele><time>2026-04-18T13:34:00.537Z</time></trkpt><trkpt lat="46.0463038" lon="12.0369302"><ele>312.2</ele><time>2026-04-18T13:34:02.538Z</time></trkpt><trkpt lat="46.0462391" lon="12.0368257"><ele>312.4</ele><time>2026-04-18T13:34:04.537Z</time></trkpt><trkpt lat="46.0461874" lon="12.0367014"><ele>312.6</ele><time>2026-04-18T13:34:06.536Z</time></trkpt><trkpt lat="46.0461472" lon="12.0365634"><ele>312.8</ele><time>2026-04-18T13:34:08.539Z</time></trkpt><trkpt lat="46.0461187" lon="12.0364187"><ele>313.0</ele><time>2026-04-18T13:34:10.54Z</time></trkpt><trkpt lat="46.0461045" lon="12.036274"><ele>312.6</ele><time>2026-04-18T13:34:12.538Z</time></trkpt><trkpt lat="46.0460905" lon="12.0361303"><ele>312.20000000000005</ele><time>2026-04-18T13:34:14.538Z</time></trkpt><trkpt lat="46.0460702" lon="12.0359907"><ele>311.8</ele><time>2026-04-18T13:34:16.537Z</time></trkpt><trkpt lat="46.0460453" lon="12.0358571"><ele>311.40000000000003</ele><time>2026-04-18T13:34:18.536Z</time></trkpt><trkpt lat="46.0460094" lon="12.0357369"><ele>311.0</ele><time>2026-04-18T13:34:20.54Z</time></trkpt><trkpt lat="46.0459706" lon="12.035623"><ele>310.40000000000003</ele><time>2026-04-18T13:34:22.537Z</time></trkpt><trkpt lat="46.045922" lon="12.0355167"><ele>309.8</ele><time>2026-04-18T13:34:24.537Z</time></trkpt><trkpt lat="46.0458613" lon="12.0354223"><ele>309.20000000000005</ele><time>2026-04-18T13:34:26.538Z</time></trkpt><trkpt lat="46.0457887" lon="12.0353253"><ele>308.6</ele><time>2026-04-18T13:34:28.54Z</time></trkpt><trkpt lat="46.0457137" lon="12.0352177"><ele>308.0</ele><time>2026-04-18T13:34:30.54Z</time></trkpt><trkpt lat="46.0456318" lon="12.0351013"><ele>307.0</ele><time>2026-04-18T13:34:32.538Z</time></trkpt><trkpt lat="46.0455607" lon="12.03496"><ele>306.0</ele><time>2026-04-18T13:34:34.537Z</time></trkpt><trkpt lat="46.0455021" lon="12.0348161"><ele>305.0</ele><time>2026-04-18T13:34:36.538Z</time></trkpt><trkpt lat="46.0454392" lon="12.0346706"><ele>304.0</ele><time>2026-04-18T13:34:38.537Z</time></trkpt><trkpt lat="46.0454133" lon="12.0345856"><ele>303.0</ele><time>2026-04-18T13:34:39.538Z</time></trkpt><trkpt lat="46.0453938" lon="12.034487"><ele>303.0</ele><time>2026-04-18T13:34:40.537Z</time></trkpt><trkpt lat="46.0453794" lon="12.0343814"><ele>303.0</ele><time>2026-04-18T13:34:41.537Z</time></trkpt><trkpt lat="46.045368" lon="12.0342701"><ele>303.0</ele><time>2026-04-18T13:34:42.538Z</time></trkpt><trkpt lat="46.0453598" lon="12.034152"><ele>303.0</ele><time>2026-04-18T13:34:43.539Z</time></trkpt><trkpt lat="46.0453521" lon="12.0340272"><ele>303.0</ele><time>2026-04-18T13:34:44.537Z</time></trkpt><trkpt lat="46.0453422" lon="12.0338935"><ele>303.0</ele><time>2026-04-18T13:34:45.539Z</time></trkpt><trkpt lat="46.0453321" lon="12.0337538"><ele>301.0</ele><time>2026-04-18T13:34:46.54Z</time></trkpt><trkpt lat="46.0453147" lon="12.0336133"><ele>299.0</ele><time>2026-04-18T13:34:47.538Z</time></trkpt><trkpt lat="46.0452885" lon="12.0334835"><ele>297.0</ele><time>2026-04-18T13:34:48.539Z</time></trkpt><trkpt lat="46.045255" lon="12.033367"><ele>295.0</ele><time>2026-04-18T13:34:49.537Z</time></trkpt><trkpt lat="46.0452244" lon="12.0332597"><ele>293.0</ele><time>2026-04-18T13:34:50.537Z</time></trkpt><trkpt lat="46.0452003" lon="12.0331647"><ele>291.0</ele><time>2026-04-18T13:34:51.539Z</time></trkpt><trkpt lat="46.0451792" lon="12.0330752"><ele>290.0</ele><time>2026-04-18T13:34:52.537Z</time></trkpt><trkpt lat="46.0451627" lon="12.0329804"><ele>289.0</ele><time>2026-04-18T13:34:53.54Z</time></trkpt><trkpt lat="46.0451471" lon="12.0328808"><ele>288.0</ele><time>2026-04-18T13:34:54.54Z</time></trkpt><trkpt lat="46.0451367" lon="12.0327774"><ele>287.0</ele><time>2026-04-18T13:34:55.541Z</time></trkpt><trkpt lat="46.0451332" lon="12.0326678"><ele>286.0</ele><time>2026-04-18T13:34:56.539Z</time></trkpt><trkpt lat="46.0451381" lon="12.0325662"><ele>285.0</ele><time>2026-04-18T13:34:57.538Z</time></trkpt><trkpt lat="46.0451547" lon="12.0324748"><ele>284.0</ele><time>2026-04-18T13:34:58.538Z</time></trkpt><trkpt lat="46.0451764" lon="12.0323858"><ele>282.7142857142857</ele><time>2026-04-18T13:34:59.537Z</time></trkpt><trkpt lat="46.0452039" lon="12.0322973"><ele>281.4285714285714</ele><time>2026-04-18T13:35:00.538Z</time></trkpt><trkpt lat="46.0452342" lon="12.0322081"><ele>280.1428571428571</ele><time>2026-04-18T13:35:01.538Z</time></trkpt><trkpt lat="46.0452687" lon="12.0321203"><ele>278.85714285714283</ele><time>2026-04-18T13:35:02.538Z</time></trkpt><trkpt lat="46.0453073" lon="12.0320363"><ele>277.57142857142856</ele><time>2026-04-18T13:35:03.536Z</time></trkpt><trkpt lat="46.0453498" lon="12.0319593"><ele>276.2857142857143</ele><time>2026-04-18T13:35:04.538Z</time></trkpt><trkpt lat="46.0454016" lon="12.0318966"><ele>275.0</ele><time>2026-04-18T13:35:05.54Z</time></trkpt><trkpt lat="46.0454591" lon="12.0318418"><ele>275.0</ele><time>2026-04-18T13:35:06.537Z</time></trkpt><trkpt lat="46.0455124" lon="12.0317924"><ele>275.0</ele><time>2026-04-18T13:35:07.536Z</time></trkpt><trkpt lat="46.0455713" lon="12.0317575"><ele>275.0</ele><time>2026-04-18T13:35:08.54Z</time></trkpt><trkpt lat="46.0456618" lon="12.031657"><ele>275.0</ele><time>2026-04-18T13:35:10.539Z</time></trkpt><trkpt lat="46.0457548" lon="12.0315738"><ele>275.0</ele><time>2026-04-18T13:35:12.536Z</time></trkpt><trkpt lat="46.0458685" lon="12.031559"><ele>275.0</ele><time>2026-04-18T13:35:14.538Z</time></trkpt><trkpt lat="46.0459859" lon="12.0315802"><ele>275.0</ele><time>2026-04-18T13:35:16.537Z</time></trkpt><trkpt lat="46.0460845" lon="12.0315609"><ele>275.0</ele><time>2026-04-18T13:35:18.538Z</time></trkpt><trkpt lat="46.0461437" lon="12.0314266"><ele>275.0</ele><time>2026-04-18T13:35:20.537Z</time></trkpt><trkpt lat="46.0461843" lon="12.0312788"><ele>275.0</ele><time>2026-04-18T13:35:22.536Z</time></trkpt><trkpt lat="46.0462321" lon="12.0311492"><ele>275.0</ele><time>2026-04-18T13:35:24.539Z</time></trkpt><trkpt lat="46.0462866" lon="12.0310274"><ele>275.0</ele><time>2026-04-18T13:35:26.536Z</time></trkpt><trkpt lat="46.0463283" lon="12.030889"><ele>275.0</ele><time>2026-04-18T13:35:28.539Z</time></trkpt><trkpt lat="46.0463282" lon="12.0307353"><ele>275.0</ele><time>2026-04-18T13:35:30.537Z</time></trkpt><trkpt lat="46.0463104" lon="12.0305698"><ele>275.0</ele><time>2026-04-18T13:35:32.539Z</time></trkpt><trkpt lat="46.0462947" lon="12.0304076"><ele>274.2</ele><time>2026-04-18T13:35:34.538Z</time></trkpt><trkpt lat="46.0462426" lon="12.0302974"><ele>273.4</ele><time>2026-04-18T13:35:36.538Z</time></trkpt><trkpt lat="46.0461536" lon="12.0302784"><ele>272.6</ele><time>2026-04-18T13:35:38.539Z</time></trkpt><trkpt lat="46.0460525" lon="12.030335"><ele>271.8</ele><time>2026-04-18T13:35:40.538Z</time></trkpt><trkpt lat="46.0459509" lon="12.0304108"><ele>271.0</ele><time>2026-04-18T13:35:42.538Z</time></trkpt><trkpt lat="46.0458571" lon="12.0304923"><ele>270.40000000000003</ele><time>2026-04-18T13:35:44.538Z</time></trkpt><trkpt lat="46.0457577" lon="12.0305549"><ele>269.8</ele><time>2026-04-18T13:35:46.537Z</time></trkpt><trkpt lat="46.0456638" lon="12.0306293"><ele>269.20000000000005</ele><time>2026-04-18T13:35:48.537Z</time></trkpt><trkpt lat="46.045581" lon="12.0307081"><ele>268.6</ele><time>2026-04-18T13:35:50.538Z</time></trkpt><trkpt lat="46.045506" lon="12.0307504"><ele>268.0</ele><time>2026-04-18T13:35:52.535Z</time></trkpt><trkpt lat="46.0454453" lon="12.0306873"><ele>268.0</ele><time>2026-04-18T13:35:54.537Z</time></trkpt><trkpt lat="46.0454611" lon="12.030566"><ele>268.0</ele><time>2026-04-18T13:35:56.538Z</time></trkpt><trkpt lat="46.0455117" lon="12.0304395"><ele>268.0</ele><time>2026-04-18T13:35:58.537Z</time></trkpt><trkpt lat="46.0455268" lon="12.0302914"><ele>268.0</ele><time>2026-04-18T13:36:00.538Z</time></trkpt><trkpt lat="46.0455124" lon="12.0301173"><ele>268.0</ele><time>2026-04-18T13:36:02.538Z</time></trkpt><trkpt lat="46.0454904" lon="12.0300294"><ele>267.5</ele><time>2026-04-18T13:36:03.538Z</time></trkpt><trkpt lat="46.0454568" lon="12.0299497"><ele>267.0</ele><time>2026-04-18T13:36:04.538Z</time></trkpt><trkpt lat="46.0454248" lon="12.0298706"><ele>266.5</ele><time>2026-04-18T13:36:05.541Z</time></trkpt><trkpt lat="46.0453651" lon="12.0297226"><ele>266.0</ele><time>2026-04-18T13:36:07.538Z</time></trkpt><trkpt lat="46.0453264" lon="12.0295871"><ele>265.5</ele><time>2026-04-18T13:36:09.537Z</time></trkpt><trkpt lat="46.0453513" lon="12.0294693"><ele>265.0</ele><time>2026-04-18T13:36:11.539Z</time></trkpt><trkpt lat="46.0453899" lon="12.029392"><ele>264.99999999999994</ele><time>2026-04-18T13:36:13.538Z</time></trkpt><trkpt lat="46.0453955" lon="12.0292847"><ele>265.0</ele><time>2026-04-18T13:36:17.539Z</time></trkpt><trkpt lat="46.0454045" lon="12.029178"><ele>265.0</ele><time>2026-04-18T13:37:09.54Z</time></trkpt><trkpt lat="46.0453756" lon="12.0290971"><ele>265.0</ele><time>2026-04-18T13:37:12.538Z</time></trkpt><trkpt lat="46.0453123" lon="12.029042"><ele>265.0</ele><time>2026-04-18T13:37:15.538Z</time></trkpt><trkpt lat="46.045294" lon="12.0289481"><ele>264.99999999999994</ele><time>2026-04-18T13:37:18.537Z</time></trkpt><trkpt lat="46.0452843" lon="12.0288186"><ele>265.0</ele><time>2026-04-18T13:37:21.538Z</time></trkpt><trkpt lat="46.0452804" lon="12.0286889"><ele>264.8333333333333</ele><time>2026-04-18T13:37:24.538Z</time></trkpt><trkpt lat="46.0452882" lon="12.028562"><ele>264.66666666666663</ele><time>2026-04-18T13:37:27.537Z</time></trkpt><trkpt lat="46.045304" lon="12.0284419"><ele>264.5</ele><time>2026-04-18T13:37:30.537Z</time></trkpt><trkpt lat="46.0453213" lon="12.0283326"><ele>264.3333333333333</ele><time>2026-04-18T13:37:33.54Z</time></trkpt><trkpt lat="46.0453333" lon="12.0281997"><ele>264.1666666666667</ele><time>2026-04-18T13:37:36.537Z</time></trkpt><trkpt lat="46.0453373" lon="12.0280884"><ele>264.0</ele><time>2026-04-18T13:37:38.539Z</time></trkpt><trkpt lat="46.0453357" lon="12.0279773"><ele>264.0</ele><time>2026-04-18T13:37:40.539Z</time></trkpt><trkpt lat="46.0453267" lon="12.0278601"><ele>264.0</ele><time>2026-04-18T13:37:42.537Z</time></trkpt><trkpt lat="46.0453142" lon="12.0277438"><ele>264.0</ele><time>2026-04-18T13:37:44.538Z</time></trkpt><trkpt lat="46.0453055" lon="12.0276292"><ele>264.0</ele><time>2026-04-18T13:37:46.538Z</time></trkpt><trkpt lat="46.0452951" lon="12.0275172"><ele>264.0</ele><time>2026-04-18T13:37:48.536Z</time></trkpt><trkpt lat="46.0452744" lon="12.0274122"><ele>264.0</ele><time>2026-04-18T13:37:50.537Z</time></trkpt><trkpt lat="46.045248" lon="12.0273067"><ele>264.0</ele><time>2026-04-18T13:37:52.539Z</time></trkpt><trkpt lat="46.0452261" lon="12.0272049"><ele>264.0</ele><time>2026-04-18T13:37:54.536Z</time></trkpt><trkpt lat="46.0452082" lon="12.0271076"><ele>264.0</ele><time>2026-04-18T13:37:56.54Z</time></trkpt><trkpt lat="46.0451972" lon="12.0270045"><ele>264.0</ele><time>2026-04-18T13:37:58.535Z</time></trkpt><trkpt lat="46.0452071" lon="12.0269025"><ele>264.0</ele><time>2026-04-18T13:38:00.535Z</time></trkpt><trkpt lat="46.0452574" lon="12.026819"><ele>264.0</ele><time>2026-04-18T13:38:02.536Z</time></trkpt><trkpt lat="46.0453219" lon="12.0267399"><ele>264.0</ele><time>2026-04-18T13:38:04.536Z</time></trkpt><trkpt lat="46.0454146" lon="12.0266787"><ele>264.0</ele><time>2026-04-18T13:38:06.536Z</time></trkpt><trkpt lat="46.0455118" lon="12.0266079"><ele>264.0</ele><time>2026-04-18T13:38:08.537Z</time></trkpt><trkpt lat="46.0456156" lon="12.0265366"><ele>264.0</ele><time>2026-04-18T13:38:10.536Z</time></trkpt><trkpt lat="46.0457283" lon="12.0264758"><ele>264.0</ele><time>2026-04-18T13:38:12.537Z</time></trkpt><trkpt lat="46.0458439" lon="12.0264233"><ele>263.5</ele><time>2026-04-18T13:38:14.537Z</time></trkpt><trkpt lat="46.0459513" lon="12.0263689"><ele>263.0</ele><time>2026-04-18T13:38:16.539Z</time></trkpt><trkpt lat="46.0460573" lon="12.0263056"><ele>262.5</ele><time>2026-04-18T13:38:18.537Z</time></trkpt><trkpt lat="46.0461641" lon="12.0262503"><ele>262.0</ele><time>2026-04-18T13:38:20.538Z</time></trkpt><trkpt lat="46.0462691" lon="12.0262041"><ele>262.0</ele><time>2026-04-18T13:38:22.537Z</time></trkpt><trkpt lat="46.0463727" lon="12.0261581"><ele>262.0</ele><time>2026-04-18T13:38:24.537Z</time></trkpt><trkpt lat="46.0464728" lon="12.0261116"><ele>262.0</ele><time>2026-04-18T13:38:26.536Z</time></trkpt><trkpt lat="46.0465745" lon="12.0260795"><ele>262.0</ele><time>2026-04-18T13:38:28.536Z</time></trkpt><trkpt lat="46.0466725" lon="12.026041"><ele>262.0</ele><time>2026-04-18T13:38:30.537Z</time></trkpt><trkpt lat="46.0467696" lon="12.0259966"><ele>261.6</ele><time>2026-04-18T13:38:32.538Z</time></trkpt><trkpt lat="46.0468723" lon="12.0259569"><ele>261.2</ele><time>2026-04-18T13:38:34.537Z</time></trkpt><trkpt lat="46.0469737" lon="12.0259143"><ele>260.8</ele><time>2026-04-18T13:38:36.537Z</time></trkpt><trkpt lat="46.0470805" lon="12.0258675"><ele>260.4</ele><time>2026-04-18T13:38:38.536Z</time></trkpt><trkpt lat="46.0471829" lon="12.0258144"><ele>260.0</ele><time>2026-04-18T13:38:40.538Z</time></trkpt><trkpt lat="46.0472868" lon="12.0257731"><ele>260.0</ele><time>2026-04-18T13:38:42.539Z</time></trkpt><trkpt lat="46.0473871" lon="12.0257381"><ele>260.0</ele><time>2026-04-18T13:38:44.538Z</time></trkpt><trkpt lat="46.0474901" lon="12.0257041"><ele>260.0</ele><time>2026-04-18T13:38:46.534Z</time></trkpt><trkpt lat="46.0475953" lon="12.0256686"><ele>260.0</ele><time>2026-04-18T13:38:48.538Z</time></trkpt><trkpt lat="46.0476972" lon="12.0256321"><ele>260.0</ele><time>2026-04-18T13:38:50.538Z</time></trkpt><trkpt lat="46.0477997" lon="12.0255925"><ele>259.6</ele><time>2026-04-18T13:38:52.536Z</time></trkpt><trkpt lat="46.047903" lon="12.0255549"><ele>259.2</ele><time>2026-04-18T13:38:54.538Z</time></trkpt><trkpt lat="46.0480037" lon="12.0255142"><ele>258.8</ele><time>2026-04-18T13:38:56.537Z</time></trkpt><trkpt lat="46.0481091" lon="12.0254801"><ele>258.4</ele><time>2026-04-18T13:38:58.537Z</time></trkpt><trkpt lat="46.0482107" lon="12.02544"><ele>258.0</ele><time>2026-04-18T13:39:00.537Z</time></trkpt><trkpt lat="46.0483139" lon="12.0254002"><ele>257.6</ele><time>2026-04-18T13:39:02.538Z</time></trkpt><trkpt lat="46.048416" lon="12.0253657"><ele>257.20000000000005</ele><time>2026-04-18T13:39:04.54Z</time></trkpt><trkpt lat="46.0485157" lon="12.0253288"><ele>256.8</ele><time>2026-04-18T13:39:06.535Z</time></trkpt><trkpt lat="46.0486118" lon="12.0252908"><ele>256.40000000000003</ele><time>2026-04-18T13:39:08.536Z</time></trkpt><trkpt lat="46.0487043" lon="12.0252511"><ele>256.0</ele><time>2026-04-18T13:39:10.539Z</time></trkpt><trkpt lat="46.0487957" lon="12.025213"><ele>256.0</ele><time>2026-04-18T13:39:12.537Z</time></trkpt><trkpt lat="46.048881" lon="12.025153"><ele>256.0</ele><time>2026-04-18T13:39:14.536Z</time></trkpt><trkpt lat="46.0489577" lon="12.0250709"><ele>256.0</ele><time>2026-04-18T13:39:16.536Z</time></trkpt><trkpt lat="46.0490179" lon="12.0249694"><ele>256.0</ele><time>2026-04-18T13:39:18.537Z</time></trkpt><trkpt lat="46.049063" lon="12.0248513"><ele>256.0</ele><time>2026-04-18T13:39:20.537Z</time></trkpt><trkpt lat="46.0490935" lon="12.0247236"><ele>255.99999999999997</ele><time>2026-04-18T13:39:22.537Z</time></trkpt><trkpt lat="46.0491191" lon="12.0246027"><ele>256.0</ele><time>2026-04-18T13:39:24.537Z</time></trkpt><trkpt lat="46.0491392" lon="12.0244906"><ele>256.0</ele><time>2026-04-18T13:39:26.536Z</time></trkpt><trkpt lat="46.0491518" lon="12.0243857"><ele>256.0</ele><time>2026-04-18T13:39:28.536Z</time></trkpt><trkpt lat="46.0491662" lon="12.0242943"><ele>255.99999999999997</ele><time>2026-04-18T13:39:30.537Z</time></trkpt><trkpt lat="46.0491791" lon="12.0241846"><ele>256.0</ele><time>2026-04-18T13:39:33.539Z</time></trkpt><trkpt lat="46.0492003" lon="12.0240764"><ele>255.99999999999997</ele><time>2026-04-18T13:46:15.535Z</time></trkpt><trkpt lat="46.0492274" lon="12.0239711"><ele>256.0</ele><time>2026-04-18T13:46:18.534Z</time></trkpt><trkpt lat="46.0492358" lon="12.0238484"><ele>256.0</ele><time>2026-04-18T13:46:21.535Z</time></trkpt><trkpt lat="46.0492388" lon="12.0237112"><ele>256.0</ele><time>2026-04-18T13:46:24.535Z</time></trkpt><trkpt lat="46.0492413" lon="12.0236097"><ele>255.99999999999997</ele><time>2026-04-18T13:46:26.536Z</time></trkpt><trkpt lat="46.0492424" lon="12.0235086"><ele>256.0</ele><time>2026-04-18T13:46:28.534Z</time></trkpt><trkpt lat="46.0492403" lon="12.0234069"><ele>255.99999999999997</ele><time>2026-04-18T13:46:30.535Z</time></trkpt><trkpt lat="46.0492337" lon="12.0233044"><ele>256.0</ele><time>2026-04-18T13:46:32.535Z</time></trkpt><trkpt lat="46.049238" lon="12.0231955"><ele>256.0</ele><time>2026-04-18T13:46:34.535Z</time></trkpt><trkpt lat="46.0492336" lon="12.0230558"><ele>256.0</ele><time>2026-04-18T13:46:36.533Z</time></trkpt><trkpt lat="46.0492281" lon="12.0229092"><ele>255.99999999999997</ele><time>2026-04-18T13:46:38.536Z</time></trkpt><trkpt lat="46.0492239" lon="12.0227647"><ele>256.0</ele><time>2026-04-18T13:46:40.535Z</time></trkpt><trkpt lat="46.0492081" lon="12.022642"><ele>255.99999999999997</ele><time>2026-04-18T13:46:42.535Z</time></trkpt><trkpt lat="46.0491667" lon="12.0225432"><ele>256.0</ele><time>2026-04-18T13:46:44.535Z</time></trkpt><trkpt lat="46.0490891" lon="12.022484"><ele>256.0</ele><time>2026-04-18T13:46:47.535Z</time></trkpt><trkpt lat="46.0490082" lon="12.0225414"><ele>256.0</ele><time>2026-04-18T13:46:50.536Z</time></trkpt><trkpt lat="46.0489438" lon="12.0226177"><ele>255.99999999999997</ele><time>2026-04-18T13:46:52.539Z</time></trkpt><trkpt lat="46.0488746" lon="12.0226969"><ele>256.0</ele><time>2026-04-18T13:46:54.539Z</time></trkpt><trkpt lat="46.0488094" lon="12.0227689"><ele>256.16666666666663</ele><time>2026-04-18T13:46:56.538Z</time></trkpt><trkpt lat="46.0487439" lon="12.0228427"><ele>256.3333333333333</ele><time>2026-04-18T13:46:58.535Z</time></trkpt><trkpt lat="46.0486784" lon="12.0229017"><ele>256.5</ele><time>2026-04-18T13:47:00.534Z</time></trkpt><trkpt lat="46.0486182" lon="12.0229777"><ele>256.6666666666667</ele><time>2026-04-18T13:47:03.538Z</time></trkpt><trkpt lat="46.0485436" lon="12.0230576"><ele>256.83333333333337</ele><time>2026-04-18T13:47:06.538Z</time></trkpt><trkpt lat="46.0484752" lon="12.0230993"><ele>257.0</ele><time>2026-04-18T13:47:08.539Z</time></trkpt><trkpt lat="46.0483946" lon="12.0231078"><ele>257.0</ele><time>2026-04-18T13:47:10.535Z</time></trkpt><trkpt lat="46.0483087" lon="12.0231159"><ele>257.0</ele><time>2026-04-18T13:47:12.537Z</time></trkpt><trkpt lat="46.048221" lon="12.0231318"><ele>257.0</ele><time>2026-04-18T13:47:14.538Z</time></trkpt><trkpt lat="46.0481339" lon="12.0231496"><ele>257.0</ele><time>2026-04-18T13:47:16.535Z</time></trkpt><trkpt lat="46.048052" lon="12.0231692"><ele>257.0</ele><time>2026-04-18T13:47:18.537Z</time></trkpt><trkpt lat="46.0479687" lon="12.0231992"><ele>257.0</ele><time>2026-04-18T13:47:20.538Z</time></trkpt><trkpt lat="46.0479016" lon="12.0232731"><ele>257.33333333333337</ele><time>2026-04-18T13:47:22.537Z</time></trkpt><trkpt lat="46.0478559" lon="12.0233709"><ele>257.6666666666667</ele><time>2026-04-18T13:47:24.535Z</time></trkpt><trkpt lat="46.0477848" lon="12.0234352"><ele>258.0</ele><time>2026-04-18T13:47:26.538Z</time></trkpt><trkpt lat="46.0477032" lon="12.0234674"><ele>258.3333333333333</ele><time>2026-04-18T13:47:28.536Z</time></trkpt><trkpt lat="46.0476172" lon="12.0234899"><ele>258.66666666666663</ele><time>2026-04-18T13:47:30.537Z</time></trkpt><trkpt lat="46.047534" lon="12.0234924"><ele>259.0</ele><time>2026-04-18T13:47:32.538Z</time></trkpt><trkpt lat="46.0474578" lon="12.0234871"><ele>259.16666666666663</ele><time>2026-04-18T13:47:34.537Z</time></trkpt><trkpt lat="46.0473832" lon="12.0234824"><ele>259.3333333333333</ele><time>2026-04-18T13:47:36.538Z</time></trkpt><trkpt lat="46.0473091" lon="12.0235305"><ele>259.5</ele><time>2026-04-18T13:47:38.539Z</time></trkpt><trkpt lat="46.0472415" lon="12.0236013"><ele>259.6666666666667</ele><time>2026-04-18T13:47:40.537Z</time></trkpt><trkpt lat="46.047184" lon="12.0236851"><ele>259.83333333333337</ele><time>2026-04-18T13:47:42.536Z</time></trkpt><trkpt lat="46.0471322" lon="12.0237769"><ele>260.0</ele><time>2026-04-18T13:47:44.539Z</time></trkpt><trkpt lat="46.0470777" lon="12.0238679"><ele>260.0</ele><time>2026-04-18T13:47:46.536Z</time></trkpt><trkpt lat="46.0470322" lon="12.0239604"><ele>260.0</ele><time>2026-04-18T13:47:48.538Z</time></trkpt><trkpt lat="46.0469867" lon="12.024042"><ele>260.0</ele><time>2026-04-18T13:47:50.539Z</time></trkpt><trkpt lat="46.0469022" lon="12.0240521"><ele>260.0</ele><time>2026-04-18T13:47:53.537Z</time></trkpt><trkpt lat="46.0468731" lon="12.0239692"><ele>260.0</ele><time>2026-04-18T13:47:55.536Z</time></trkpt><trkpt lat="46.046853" lon="12.023857"><ele>260.0</ele><time>2026-04-18T13:47:57.537Z</time></trkpt><trkpt lat="46.0468312" lon="12.0237461"><ele>260.00000000000006</ele><time>2026-04-18T13:47:59.537Z</time></trkpt><trkpt lat="46.0467994" lon="12.0236346"><ele>260.0</ele><time>2026-04-18T13:48:01.539Z</time></trkpt><trkpt lat="46.0467706" lon="12.0235374"><ele>260.0</ele><time>2026-04-18T13:48:03.538Z</time></trkpt><trkpt lat="46.0467304" lon="12.02345"><ele>260.0</ele><time>2026-04-18T13:48:05.536Z</time></trkpt><trkpt lat="46.0466948" lon="12.023368"><ele>260.0</ele><time>2026-04-18T13:48:07.538Z</time></trkpt><trkpt lat="46.0466532" lon="12.0232895"><ele>260.00000000000006</ele><time>2026-04-18T13:48:09.539Z</time></trkpt><trkpt lat="46.0466514" lon="12.0231722"><ele>260.0</ele><time>2026-04-18T13:48:12.539Z</time></trkpt><trkpt lat="46.0467111" lon="12.0231243"><ele>259.83333333333337</ele><time>2026-04-18T13:48:14.536Z</time></trkpt><trkpt lat="46.0467793" lon="12.023064"><ele>259.6666666666667</ele><time>2026-04-18T13:48:16.537Z</time></trkpt><trkpt lat="46.0468523" lon="12.0229951"><ele>259.5</ele><time>2026-04-18T13:48:18.539Z</time></trkpt><trkpt lat="46.0469167" lon="12.0229092"><ele>259.3333333333333</ele><time>2026-04-18T13:48:20.535Z</time></trkpt><trkpt lat="46.0469792" lon="12.0228036"><ele>259.16666666666663</ele><time>2026-04-18T13:48:22.535Z</time></trkpt><trkpt lat="46.0470366" lon="12.0226925"><ele>259.0</ele><time>2026-04-18T13:48:24.539Z</time></trkpt><trkpt lat="46.0470943" lon="12.0225706"><ele>259.0</ele><time>2026-04-18T13:48:26.54Z</time></trkpt><trkpt lat="46.0471591" lon="12.0224544"><ele>259.0</ele><time>2026-04-18T13:48:28.537Z</time></trkpt><trkpt lat="46.0472445" lon="12.0223581"><ele>259.0</ele><time>2026-04-18T13:48:30.537Z</time></trkpt><trkpt lat="46.0473204" lon="12.0222556"><ele>259.0</ele><time>2026-04-18T13:48:32.538Z</time></trkpt><trkpt lat="46.0473933" lon="12.0221446"><ele>259.0</ele><time>2026-04-18T13:48:34.537Z</time></trkpt><trkpt lat="46.0474602" lon="12.0220199"><ele>258.8</ele><time>2026-04-18T13:48:36.539Z</time></trkpt><trkpt lat="46.047527" lon="12.0218977"><ele>258.59999999999997</ele><time>2026-04-18T13:48:38.537Z</time></trkpt><trkpt lat="46.0476024" lon="12.0217929"><ele>258.4</ele><time>2026-04-18T13:48:40.537Z</time></trkpt><trkpt lat="46.0476921" lon="12.0217194"><ele>258.2</ele><time>2026-04-18T13:48:42.538Z</time></trkpt><trkpt lat="46.0477866" lon="12.0216602"><ele>258.0</ele><time>2026-04-18T13:48:44.539Z</time></trkpt><trkpt lat="46.0478772" lon="12.0215961"><ele>257.6</ele><time>2026-04-18T13:48:46.537Z</time></trkpt><trkpt lat="46.0479647" lon="12.0215137"><ele>257.20000000000005</ele><time>2026-04-18T13:48:48.536Z</time></trkpt><trkpt lat="46.0480548" lon="12.0214302"><ele>256.8</ele><time>2026-04-18T13:48:50.537Z</time></trkpt><trkpt lat="46.0481476" lon="12.0213495"><ele>256.40000000000003</ele><time>2026-04-18T13:48:52.537Z</time></trkpt><trkpt lat="46.0482313" lon="12.021253"><ele>256.0</ele><time>2026-04-18T13:48:54.536Z</time></trkpt><trkpt lat="46.0483147" lon="12.0211557"><ele>255.8</ele><time>2026-04-18T13:48:56.538Z</time></trkpt><trkpt lat="46.0483925" lon="12.0210532"><ele>255.60000000000002</ele><time>2026-04-18T13:48:58.537Z</time></trkpt><trkpt lat="46.048472" lon="12.0209513"><ele>255.4</ele><time>2026-04-18T13:49:00.537Z</time></trkpt><trkpt lat="46.0485474" lon="12.0208527"><ele>255.2</ele><time>2026-04-18T13:49:02.537Z</time></trkpt><trkpt lat="46.0486181" lon="12.0207491"><ele>255.0</ele><time>2026-04-18T13:49:04.539Z</time></trkpt><trkpt lat="46.0486939" lon="12.0206568"><ele>254.6</ele><time>2026-04-18T13:49:06.537Z</time></trkpt><trkpt lat="46.0487772" lon="12.0205864"><ele>254.2</ele><time>2026-04-18T13:49:08.536Z</time></trkpt><trkpt lat="46.0488661" lon="12.0205205"><ele>253.8</ele><time>2026-04-18T13:49:10.538Z</time></trkpt><trkpt lat="46.0489551" lon="12.0204598"><ele>253.4</ele><time>2026-04-18T13:49:12.537Z</time></trkpt><trkpt lat="46.0490425" lon="12.0204044"><ele>253.0</ele><time>2026-04-18T13:49:14.538Z</time></trkpt><trkpt lat="46.0491208" lon="12.020344"><ele>252.66666666666666</ele><time>2026-04-18T13:49:16.535Z</time></trkpt><trkpt lat="46.049192" lon="12.0203084"><ele>252.33333333333331</ele><time>2026-04-18T13:49:18.539Z</time></trkpt><trkpt lat="46.0492581" lon="12.0203511"><ele>252.0</ele><time>2026-04-18T13:49:20.537Z</time></trkpt><trkpt lat="46.0493022" lon="12.020447"><ele>251.66666666666669</ele><time>2026-04-18T13:49:22.535Z</time></trkpt><trkpt lat="46.0493481" lon="12.0205396"><ele>251.33333333333334</ele><time>2026-04-18T13:49:24.539Z</time></trkpt><trkpt lat="46.0494233" lon="12.020599"><ele>251.0</ele><time>2026-04-18T13:49:26.538Z</time></trkpt><trkpt lat="46.0495112" lon="12.0206391"><ele>251.0</ele><time>2026-04-18T13:49:28.538Z</time></trkpt><trkpt lat="46.0495796" lon="12.0205736"><ele>251.00000000000003</ele><time>2026-04-18T13:49:30.538Z</time></trkpt><trkpt lat="46.0496366" lon="12.020437"><ele>251.00000000000003</ele><time>2026-04-18T13:49:32.538Z</time></trkpt><trkpt lat="46.0496447" lon="12.0202994"><ele>251.0</ele><time>2026-04-18T13:49:34.536Z</time></trkpt><trkpt lat="46.0496259" lon="12.020165"><ele>251.0</ele><time>2026-04-18T13:49:36.536Z</time></trkpt><trkpt lat="46.0496105" lon="12.0200285"><ele>250.20000000000002</ele><time>2026-04-18T13:49:38.539Z</time></trkpt><trkpt lat="46.0496004" lon="12.0198827"><ele>249.40000000000003</ele><time>2026-04-18T13:49:40.538Z</time></trkpt><trkpt lat="46.0495898" lon="12.019737"><ele>248.6</ele><time>2026-04-18T13:49:42.537Z</time></trkpt><trkpt lat="46.0495798" lon="12.0195876"><ele>247.8</ele><time>2026-04-18T13:49:44.537Z</time></trkpt><trkpt lat="46.049567" lon="12.019434"><ele>247.0</ele><time>2026-04-18T13:49:46.537Z</time></trkpt><trkpt lat="46.0495529" lon="12.0192775"><ele>247.2</ele><time>2026-04-18T13:49:48.537Z</time></trkpt><trkpt lat="46.0495385" lon="12.0191227"><ele>247.39999999999998</ele><time>2026-04-18T13:49:50.537Z</time></trkpt><trkpt lat="46.0495192" lon="12.0189707"><ele>247.60000000000002</ele><time>2026-04-18T13:49:52.539Z</time></trkpt><trkpt lat="46.049501" lon="12.018822"><ele>247.8</ele><time>2026-04-18T13:49:54.537Z</time></trkpt><trkpt lat="46.0494694" lon="12.0186796"><ele>248.0</ele><time>2026-04-18T13:49:56.537Z</time></trkpt><trkpt lat="46.0494272" lon="12.0185393"><ele>248.0</ele><time>2026-04-18T13:49:58.538Z</time></trkpt><trkpt lat="46.0493875" lon="12.0184011"><ele>248.0</ele><time>2026-04-18T13:50:00.539Z</time></trkpt><trkpt lat="46.0493421" lon="12.0182639"><ele>248.0</ele><time>2026-04-18T13:50:02.538Z</time></trkpt><trkpt lat="46.0493039" lon="12.0181238"><ele>248.0</ele><time>2026-04-18T13:50:04.538Z</time></trkpt><trkpt lat="46.0492714" lon="12.0179846"><ele>248.0</ele><time>2026-04-18T13:50:06.536Z</time></trkpt><trkpt lat="46.0492384" lon="12.0178438"><ele>248.0</ele><time>2026-04-18T13:50:08.54Z</time></trkpt><trkpt lat="46.0492049" lon="12.017704"><ele>248.0</ele><time>2026-04-18T13:50:10.537Z</time></trkpt><trkpt lat="46.0491677" lon="12.0175675"><ele>248.0</ele><time>2026-04-18T13:50:12.535Z</time></trkpt><trkpt lat="46.0491274" lon="12.0174309"><ele>248.0</ele><time>2026-04-18T13:50:14.538Z</time></trkpt><trkpt lat="46.0490821" lon="12.0172937"><ele>248.0</ele><time>2026-04-18T13:50:16.535Z</time></trkpt><trkpt lat="46.0490417" lon="12.0171572"><ele>248.0</ele><time>2026-04-18T13:50:18.534Z</time></trkpt><trkpt lat="46.0489915" lon="12.0170198"><ele>248.0</ele><time>2026-04-18T13:50:20.539Z</time></trkpt><trkpt lat="46.0489455" lon="12.0168859"><ele>248.0</ele><time>2026-04-18T13:50:22.535Z</time></trkpt><trkpt lat="46.0488922" lon="12.0167587"><ele>248.0</ele><time>2026-04-18T13:50:24.536Z</time></trkpt><trkpt lat="46.0488386" lon="12.0166364"><ele>248.0</ele><time>2026-04-18T13:50:26.537Z</time></trkpt><trkpt lat="46.0487893" lon="12.0165092"><ele>247.0</ele><time>2026-04-18T13:50:28.536Z</time></trkpt><trkpt lat="46.0487303" lon="12.0163903"><ele>246.0</ele><time>2026-04-18T13:50:30.537Z</time></trkpt><trkpt lat="46.0486708" lon="12.0162712"><ele>245.0</ele><time>2026-04-18T13:50:32.539Z</time></trkpt><trkpt lat="46.0486251" lon="12.0161375"><ele>244.0</ele><time>2026-04-18T13:50:34.536Z</time></trkpt><trkpt lat="46.0485874" lon="12.0160013"><ele>243.0</ele><time>2026-04-18T13:50:36.536Z</time></trkpt><trkpt lat="46.0485504" lon="12.015868"><ele>243.33333333333334</ele><time>2026-04-18T13:50:38.538Z</time></trkpt><trkpt lat="46.0485021" lon="12.0157216"><ele>243.66666666666669</ele><time>2026-04-18T13:50:40.537Z</time></trkpt><trkpt lat="46.048471" lon="12.0156409"><ele>244.0</ele><time>2026-04-18T13:50:41.539Z</time></trkpt><trkpt lat="46.0484356" lon="12.0155596"><ele>244.33333333333334</ele><time>2026-04-18T13:50:42.537Z</time></trkpt><trkpt lat="46.0483986" lon="12.0154862"><ele>244.66666666666669</ele><time>2026-04-18T13:50:43.535Z</time></trkpt><trkpt lat="46.0483266" lon="12.0153713"><ele>245.0</ele><time>2026-04-18T13:50:45.539Z</time></trkpt><trkpt lat="46.0482675" lon="12.015278"><ele>245.2</ele><time>2026-04-18T13:50:47.538Z</time></trkpt><trkpt lat="46.0482175" lon="12.0151788"><ele>245.4</ele><time>2026-04-18T13:50:49.538Z</time></trkpt><trkpt lat="46.0481668" lon="12.0150661"><ele>245.60000000000002</ele><time>2026-04-18T13:50:51.537Z</time></trkpt><trkpt lat="46.0481184" lon="12.0149404"><ele>245.8</ele><time>2026-04-18T13:50:53.537Z</time></trkpt><trkpt lat="46.0480715" lon="12.0148146"><ele>246.0</ele><time>2026-04-18T13:50:55.537Z</time></trkpt><trkpt lat="46.0480186" lon="12.0146947"><ele>246.0</ele><time>2026-04-18T13:50:57.536Z</time></trkpt><trkpt lat="46.0479647" lon="12.0145691"><ele>246.00000000000003</ele><time>2026-04-18T13:50:59.539Z</time></trkpt><trkpt lat="46.0479145" lon="12.0144417"><ele>246.00000000000003</ele><time>2026-04-18T13:51:01.538Z</time></trkpt><trkpt lat="46.0478662" lon="12.0143179"><ele>246.0</ele><time>2026-04-18T13:51:03.539Z</time></trkpt><trkpt lat="46.0478144" lon="12.0141956"><ele>246.0</ele><time>2026-04-18T13:51:05.538Z</time></trkpt><trkpt lat="46.0477636" lon="12.0140705"><ele>245.20000000000002</ele><time>2026-04-18T13:51:07.536Z</time></trkpt><trkpt lat="46.0477118" lon="12.0139514"><ele>244.40000000000003</ele><time>2026-04-18T13:51:09.537Z</time></trkpt><trkpt lat="46.0476573" lon="12.0138326"><ele>243.6</ele><time>2026-04-18T13:51:11.538Z</time></trkpt><trkpt lat="46.0476039" lon="12.0137151"><ele>242.8</ele><time>2026-04-18T13:51:13.537Z</time></trkpt><trkpt lat="46.0475497" lon="12.0135955"><ele>242.0</ele><time>2026-04-18T13:51:15.536Z</time></trkpt><trkpt lat="46.0474987" lon="12.0134761"><ele>242.39999999999998</ele><time>2026-04-18T13:51:17.538Z</time></trkpt><trkpt lat="46.0474501" lon="12.0133541"><ele>242.79999999999998</ele><time>2026-04-18T13:51:19.537Z</time></trkpt><trkpt lat="46.047401" lon="12.0132292"><ele>243.2</ele><time>2026-04-18T13:51:21.536Z</time></trkpt><trkpt lat="46.0473565" lon="12.0131034"><ele>243.6</ele><time>2026-04-18T13:51:23.537Z</time></trkpt><trkpt lat="46.0473079" lon="12.0129801"><ele>244.0</ele><time>2026-04-18T13:51:25.537Z</time></trkpt><trkpt lat="46.0472615" lon="12.0128549"><ele>244.0</ele><time>2026-04-18T13:51:27.536Z</time></trkpt><trkpt lat="46.0472117" lon="12.0127321"><ele>243.99999999999997</ele><time>2026-04-18T13:51:29.537Z</time></trkpt><trkpt lat="46.0471595" lon="12.0126155"><ele>243.99999999999997</ele><time>2026-04-18T13:51:31.536Z</time></trkpt><trkpt lat="46.0471059" lon="12.0124995"><ele>244.0</ele><time>2026-04-18T13:51:33.538Z</time></trkpt><trkpt lat="46.0470581" lon="12.0123749"><ele>244.0</ele><time>2026-04-18T13:51:35.538Z</time></trkpt><trkpt lat="46.0470108" lon="12.0122508"><ele>243.79999999999998</ele><time>2026-04-18T13:51:37.537Z</time></trkpt><trkpt lat="46.0469592" lon="12.0121263"><ele>243.59999999999997</ele><time>2026-04-18T13:51:39.537Z</time></trkpt><trkpt lat="46.0469047" lon="12.0119986"><ele>243.4</ele><time>2026-04-18T13:51:41.535Z</time></trkpt><trkpt lat="46.0468497" lon="12.0118753"><ele>243.2</ele><time>2026-04-18T13:51:43.537Z</time></trkpt><trkpt lat="46.0467989" lon="12.0117475"><ele>243.0</ele><time>2026-04-18T13:51:45.537Z</time></trkpt><trkpt lat="46.0467486" lon="12.0116242"><ele>243.0</ele><time>2026-04-18T13:51:47.535Z</time></trkpt><trkpt lat="46.0466972" lon="12.0115054"><ele>243.0</ele><time>2026-04-18T13:51:49.535Z</time></trkpt><trkpt lat="46.0466424" lon="12.0113846"><ele>243.0</ele><time>2026-04-18T13:51:51.535Z</time></trkpt><trkpt lat="46.0465902" lon="12.0112639"><ele>243.0</ele><time>2026-04-18T13:51:53.538Z</time></trkpt><trkpt lat="46.0465405" lon="12.0111412"><ele>243.0</ele><time>2026-04-18T13:51:55.537Z</time></trkpt><trkpt lat="46.0464906" lon="12.0110033"><ele>243.0</ele><time>2026-04-18T13:51:57.537Z</time></trkpt><trkpt lat="46.0464546" lon="12.0108356"><ele>243.0</ele><time>2026-04-18T13:51:59.537Z</time></trkpt><trkpt lat="46.0464485" lon="12.010741"><ele>243.0</ele><time>2026-04-18T13:52:00.538Z</time></trkpt><trkpt lat="46.046467" lon="12.0105786"><ele>243.0</ele><time>2026-04-18T13:52:02.537Z</time></trkpt><trkpt lat="46.0464942" lon="12.0104395"><ele>243.0</ele><time>2026-04-18T13:52:04.536Z</time></trkpt><trkpt lat="46.0465204" lon="12.0103061"><ele>242.60000000000002</ele><time>2026-04-18T13:52:06.536Z</time></trkpt><trkpt lat="46.0465494" lon="12.0101794"><ele>242.20000000000002</ele><time>2026-04-18T13:52:08.539Z</time></trkpt><trkpt lat="46.0465739" lon="12.0100508"><ele>241.8</ele><time>2026-04-18T13:52:10.537Z</time></trkpt><trkpt lat="46.0465956" lon="12.0099181"><ele>241.4</ele><time>2026-04-18T13:52:12.536Z</time></trkpt><trkpt lat="46.0466147" lon="12.009785"><ele>241.0</ele><time>2026-04-18T13:52:14.537Z</time></trkpt><trkpt lat="46.0466201" lon="12.0096525"><ele>240.8</ele><time>2026-04-18T13:52:16.534Z</time></trkpt><trkpt lat="46.0466031" lon="12.0095115"><ele>240.60000000000002</ele><time>2026-04-18T13:52:18.537Z</time></trkpt><trkpt lat="46.0465618" lon="12.0093666"><ele>240.4</ele><time>2026-04-18T13:52:20.536Z</time></trkpt><trkpt lat="46.0465187" lon="12.0092248"><ele>240.2</ele><time>2026-04-18T13:52:22.537Z</time></trkpt><trkpt lat="46.0464753" lon="12.0090926"><ele>240.0</ele><time>2026-04-18T13:52:24.538Z</time></trkpt><trkpt lat="46.0464206" lon="12.0089616"><ele>240.4</ele><time>2026-04-18T13:52:26.538Z</time></trkpt><trkpt lat="46.0463625" lon="12.0088445"><ele>240.8</ele><time>2026-04-18T13:52:28.537Z</time></trkpt><trkpt lat="46.0463075" lon="12.0087338"><ele>241.2</ele><time>2026-04-18T13:52:30.537Z</time></trkpt><trkpt lat="46.0462585" lon="12.0086223"><ele>241.6</ele><time>2026-04-18T13:52:32.539Z</time></trkpt><trkpt lat="46.0461994" lon="12.0084899"><ele>242.0</ele><time>2026-04-18T13:52:34.537Z</time></trkpt><trkpt lat="46.0461503" lon="12.0083508"><ele>242.0</ele><time>2026-04-18T13:52:36.538Z</time></trkpt><trkpt lat="46.0461079" lon="12.0082258"><ele>242.0</ele><time>2026-04-18T13:52:38.536Z</time></trkpt><trkpt lat="46.046077" lon="12.0080957"><ele>242.0</ele><time>2026-04-18T13:52:40.536Z</time></trkpt><trkpt lat="46.0460445" lon="12.007967"><ele>242.0</ele><time>2026-04-18T13:52:42.537Z</time></trkpt><trkpt lat="46.0460218" lon="12.0078501"><ele>242.0</ele><time>2026-04-18T13:52:44.54Z</time></trkpt><trkpt lat="46.0459948" lon="12.007716"><ele>242.0</ele><time>2026-04-18T13:52:46.536Z</time></trkpt><trkpt lat="46.0459562" lon="12.0075646"><ele>242.0</ele><time>2026-04-18T13:52:48.539Z</time></trkpt><trkpt lat="46.0459002" lon="12.007421"><ele>242.0</ele><time>2026-04-18T13:52:50.538Z</time></trkpt><trkpt lat="46.0458262" lon="12.007295"><ele>242.0</ele><time>2026-04-18T13:52:52.538Z</time></trkpt><trkpt lat="46.0457468" lon="12.0071875"><ele>242.0</ele><time>2026-04-18T13:52:54.537Z</time></trkpt><trkpt lat="46.0456559" lon="12.0070909"><ele>242.0</ele><time>2026-04-18T13:52:56.537Z</time></trkpt><trkpt lat="46.0455652" lon="12.0069922"><ele>242.0</ele><time>2026-04-18T13:52:58.537Z</time></trkpt><trkpt lat="46.0454816" lon="12.0068699"><ele>242.0</ele><time>2026-04-18T13:53:00.536Z</time></trkpt><trkpt lat="46.0454052" lon="12.0067445"><ele>241.8</ele><time>2026-04-18T13:53:02.538Z</time></trkpt><trkpt lat="46.0453334" lon="12.0066161"><ele>241.6</ele><time>2026-04-18T13:53:04.539Z</time></trkpt><trkpt lat="46.0452697" lon="12.0064794"><ele>241.40000000000003</ele><time>2026-04-18T13:53:06.536Z</time></trkpt><trkpt lat="46.0452115" lon="12.0063494"><ele>241.20000000000002</ele><time>2026-04-18T13:53:08.536Z</time></trkpt><trkpt lat="46.0451502" lon="12.0062327"><ele>241.0</ele><time>2026-04-18T13:53:10.536Z</time></trkpt><trkpt lat="46.045094" lon="12.0061207"><ele>240.99999999999997</ele><time>2026-04-18T13:53:12.539Z</time></trkpt><trkpt lat="46.0450542" lon="12.006001"><ele>241.0</ele><time>2026-04-18T13:53:14.537Z</time></trkpt><trkpt lat="46.0450884" lon="12.0059077"><ele>241.0</ele><time>2026-04-18T13:53:16.538Z</time></trkpt><trkpt lat="46.0451696" lon="12.0058622"><ele>241.0</ele><time>2026-04-18T13:53:18.536Z</time></trkpt><trkpt lat="46.0452436" lon="12.0057982"><ele>240.99999999999997</ele><time>2026-04-18T13:53:20.538Z</time></trkpt><trkpt lat="46.0452628" lon="12.0056881"><ele>241.0</ele><time>2026-04-18T13:53:22.535Z</time></trkpt><trkpt lat="46.0452322" lon="12.0055746"><ele>241.0</ele><time>2026-04-18T13:53:24.539Z</time></trkpt><trkpt lat="46.0451744" lon="12.0054647"><ele>241.00000000000003</ele><time>2026-04-18T13:53:26.537Z</time></trkpt><trkpt lat="46.045117" lon="12.0053555"><ele>241.00000000000003</ele><time>2026-04-18T13:53:28.536Z</time></trkpt><trkpt lat="46.045069" lon="12.0052408"><ele>241.0</ele><time>2026-04-18T13:53:30.538Z</time></trkpt><trkpt lat="46.0450172" lon="12.005125"><ele>241.0</ele><time>2026-04-18T13:53:32.539Z</time></trkpt><trkpt lat="46.0449602" lon="12.005008"><ele>240.60000000000002</ele><time>2026-04-18T13:53:34.537Z</time></trkpt><trkpt lat="46.0449065" lon="12.0048889"><ele>240.20000000000002</ele><time>2026-04-18T13:53:36.538Z</time></trkpt><trkpt lat="46.0448615" lon="12.0047643"><ele>239.79999999999998</ele><time>2026-04-18T13:53:38.536Z</time></trkpt><trkpt lat="46.0448162" lon="12.0046322"><ele>239.39999999999998</ele><time>2026-04-18T13:53:40.537Z</time></trkpt><trkpt lat="46.0447748" lon="12.0044992"><ele>239.0</ele><time>2026-04-18T13:53:42.537Z</time></trkpt><trkpt lat="46.0447449" lon="12.0043629"><ele>239.0</ele><time>2026-04-18T13:53:44.539Z</time></trkpt><trkpt lat="46.0447201" lon="12.0042216"><ele>238.99999999999997</ele><time>2026-04-18T13:53:46.537Z</time></trkpt><trkpt lat="46.0446975" lon="12.0040817"><ele>238.99999999999997</ele><time>2026-04-18T13:53:48.539Z</time></trkpt><trkpt lat="46.0446736" lon="12.0039432"><ele>239.0</ele><time>2026-04-18T13:53:50.537Z</time></trkpt><trkpt lat="46.0446193" lon="12.0038185"><ele>239.0</ele><time>2026-04-18T13:53:52.537Z</time></trkpt><trkpt lat="46.0445393" lon="12.0037325"><ele>238.79999999999998</ele><time>2026-04-18T13:53:54.537Z</time></trkpt><trkpt lat="46.0444488" lon="12.0036679"><ele>238.59999999999997</ele><time>2026-04-18T13:53:56.538Z</time></trkpt><trkpt lat="46.0443623" lon="12.0035897"><ele>238.4</ele><time>2026-04-18T13:53:58.536Z</time></trkpt><trkpt lat="46.044282" lon="12.0034969"><ele>238.2</ele><time>2026-04-18T13:54:00.536Z</time></trkpt><trkpt lat="46.0442101" lon="12.003393"><ele>238.0</ele><time>2026-04-18T13:54:02.538Z</time></trkpt><trkpt lat="46.0441398" lon="12.0032812"><ele>238.0</ele><time>2026-04-18T13:54:04.539Z</time></trkpt><trkpt lat="46.0440647" lon="12.0031747"><ele>238.0</ele><time>2026-04-18T13:54:06.536Z</time></trkpt><trkpt lat="46.0439906" lon="12.0030666"><ele>238.0</ele><time>2026-04-18T13:54:08.538Z</time></trkpt><trkpt lat="46.0439206" lon="12.002957"><ele>238.0</ele><time>2026-04-18T13:54:10.537Z</time></trkpt><trkpt lat="46.0438482" lon="12.0028494"><ele>238.0</ele><time>2026-04-18T13:54:12.538Z</time></trkpt><trkpt lat="46.04377" lon="12.0027487"><ele>238.0</ele><time>2026-04-18T13:54:14.539Z</time></trkpt><trkpt lat="46.0436845" lon="12.0026698"><ele>238.0</ele><time>2026-04-18T13:54:16.536Z</time></trkpt><trkpt lat="46.0435911" lon="12.0026112"><ele>238.0</ele><time>2026-04-18T13:54:18.535Z</time></trkpt><trkpt lat="46.043493" lon="12.0025594"><ele>238.0</ele><time>2026-04-18T13:54:20.536Z</time></trkpt><trkpt lat="46.043395" lon="12.0025064"><ele>238.0</ele><time>2026-04-18T13:54:22.537Z</time></trkpt><trkpt lat="46.043299" lon="12.0024343"><ele>238.0</ele><time>2026-04-18T13:54:24.538Z</time></trkpt><trkpt lat="46.0432139" lon="12.0023436"><ele>238.0</ele><time>2026-04-18T13:54:26.539Z</time></trkpt><trkpt lat="46.0431361" lon="12.0022405"><ele>238.0</ele><time>2026-04-18T13:54:28.537Z</time></trkpt><trkpt lat="46.0430656" lon="12.0021381"><ele>238.0</ele><time>2026-04-18T13:54:30.537Z</time></trkpt><trkpt lat="46.0429992" lon="12.0020408"><ele>238.0</ele><time>2026-04-18T13:54:32.538Z</time></trkpt><trkpt lat="46.0429315" lon="12.0019409"><ele>238.0</ele><time>2026-04-18T13:54:34.537Z</time></trkpt><trkpt lat="46.0428599" lon="12.0018379"><ele>238.0</ele><time>2026-04-18T13:54:36.538Z</time></trkpt><trkpt lat="46.0427858" lon="12.0017304"><ele>238.0</ele><time>2026-04-18T13:54:38.538Z</time></trkpt><trkpt lat="46.0427101" lon="12.0016226"><ele>238.0</ele><time>2026-04-18T13:54:40.537Z</time></trkpt><trkpt lat="46.0426376" lon="12.0015137"><ele>238.0</ele><time>2026-04-18T13:54:42.536Z</time></trkpt><trkpt lat="46.0425576" lon="12.001415"><ele>238.0</ele><time>2026-04-18T13:54:44.536Z</time></trkpt><trkpt lat="46.0424815" lon="12.0013144"><ele>238.0</ele><time>2026-04-18T13:54:46.537Z</time></trkpt><trkpt lat="46.0424066" lon="12.0012028"><ele>238.0</ele><time>2026-04-18T13:54:48.539Z</time></trkpt><trkpt lat="46.0423318" lon="12.0010895"><ele>238.0</ele><time>2026-04-18T13:54:50.538Z</time></trkpt><trkpt lat="46.042258" lon="12.0009749"><ele>238.0</ele><time>2026-04-18T13:54:52.536Z</time></trkpt><trkpt lat="46.0421776" lon="12.0008709"><ele>237.60000000000002</ele><time>2026-04-18T13:54:54.538Z</time></trkpt><trkpt lat="46.0420955" lon="12.0007684"><ele>237.20000000000002</ele><time>2026-04-18T13:54:56.537Z</time></trkpt><trkpt lat="46.0420135" lon="12.0006698"><ele>236.8</ele><time>2026-04-18T13:54:58.538Z</time></trkpt><trkpt lat="46.0419336" lon="12.0005648"><ele>236.4</ele><time>2026-04-18T13:55:00.539Z</time></trkpt><trkpt lat="46.0418696" lon="12.0004478"><ele>236.0</ele><time>2026-04-18T13:55:02.538Z</time></trkpt><trkpt lat="46.0418241" lon="12.0003258"><ele>236.0</ele><time>2026-04-18T13:55:04.537Z</time></trkpt><trkpt lat="46.0417873" lon="12.0001974"><ele>236.00000000000003</ele><time>2026-04-18T13:55:06.539Z</time></trkpt><trkpt lat="46.0417518" lon="12.0000559"><ele>236.00000000000003</ele><time>2026-04-18T13:55:08.539Z</time></trkpt><trkpt lat="46.0417106" lon="11.9999227"><ele>236.0</ele><time>2026-04-18T13:55:10.536Z</time></trkpt><trkpt lat="46.041653" lon="11.9997961"><ele>236.0</ele><time>2026-04-18T13:55:12.538Z</time></trkpt><trkpt lat="46.0415866" lon="11.9996788"><ele>236.60000000000002</ele><time>2026-04-18T13:55:14.538Z</time></trkpt><trkpt lat="46.0415209" lon="11.9995675"><ele>237.20000000000002</ele><time>2026-04-18T13:55:16.538Z</time></trkpt><trkpt lat="46.0414582" lon="11.9994539"><ele>237.79999999999998</ele><time>2026-04-18T13:55:18.538Z</time></trkpt><trkpt lat="46.0413932" lon="11.9993431"><ele>238.39999999999998</ele><time>2026-04-18T13:55:20.538Z</time></trkpt><trkpt lat="46.0413152" lon="11.9992501"><ele>239.0</ele><time>2026-04-18T13:55:22.537Z</time></trkpt><trkpt lat="46.0412181" lon="11.9991947"><ele>239.0</ele><time>2026-04-18T13:55:24.537Z</time></trkpt><trkpt lat="46.0411146" lon="11.9991834"><ele>238.99999999999997</ele><time>2026-04-18T13:55:26.538Z</time></trkpt><trkpt lat="46.0410132" lon="11.9991774"><ele>238.99999999999997</ele><time>2026-04-18T13:55:28.537Z</time></trkpt><trkpt lat="46.0409253" lon="11.9991326"><ele>239.0</ele><time>2026-04-18T13:55:30.539Z</time></trkpt><trkpt lat="46.0408562" lon="11.9990327"><ele>239.0</ele><time>2026-04-18T13:55:32.538Z</time></trkpt><trkpt lat="46.0407842" lon="11.9989307"><ele>239.0</ele><time>2026-04-18T13:55:34.538Z</time></trkpt><trkpt lat="46.0407014" lon="11.9988383"><ele>238.99999999999997</ele><time>2026-04-18T13:55:36.539Z</time></trkpt><trkpt lat="46.0406138" lon="11.9987593"><ele>238.99999999999997</ele><time>2026-04-18T13:55:38.539Z</time></trkpt><trkpt lat="46.0405248" lon="11.9986798"><ele>239.0</ele><time>2026-04-18T13:55:40.534Z</time></trkpt><trkpt lat="46.0404364" lon="11.9986048"><ele>239.0</ele><time>2026-04-18T13:55:42.538Z</time></trkpt><trkpt lat="46.040362" lon="11.9985249"><ele>239.00000000000003</ele><time>2026-04-18T13:55:44.539Z</time></trkpt><trkpt lat="46.04033" lon="11.9984256"><ele>239.0</ele><time>2026-04-18T13:55:46.537Z</time></trkpt><trkpt lat="46.0403757" lon="11.9983109"><ele>239.0</ele><time>2026-04-18T13:55:49.54Z</time></trkpt><trkpt lat="46.0404473" lon="11.998245"><ele>239.0</ele><time>2026-04-18T13:55:51.537Z</time></trkpt><trkpt lat="46.0405251" lon="11.9981685"><ele>239.00000000000003</ele><time>2026-04-18T13:55:53.537Z</time></trkpt><trkpt lat="46.0405956" lon="11.9980732"><ele>239.0</ele><time>2026-04-18T13:55:55.539Z</time></trkpt><trkpt lat="46.0406444" lon="11.9979461"><ele>238.79999999999998</ele><time>2026-04-18T13:55:57.538Z</time></trkpt><trkpt lat="46.0406814" lon="11.997806"><ele>238.59999999999997</ele><time>2026-04-18T13:55:59.538Z</time></trkpt><trkpt lat="46.0407127" lon="11.9976628"><ele>238.4</ele><time>2026-04-18T13:56:01.537Z</time></trkpt><trkpt lat="46.0407419" lon="11.9975178"><ele>238.2</ele><time>2026-04-18T13:56:03.537Z</time></trkpt><trkpt lat="46.0407686" lon="11.9973762"><ele>238.0</ele><time>2026-04-18T13:56:05.539Z</time></trkpt><trkpt lat="46.0407892" lon="11.997235"><ele>237.8</ele><time>2026-04-18T13:56:07.537Z</time></trkpt><trkpt lat="46.040805" lon="11.9970912"><ele>237.60000000000002</ele><time>2026-04-18T13:56:09.538Z</time></trkpt><trkpt lat="46.0408243" lon="11.9969507"><ele>237.39999999999998</ele><time>2026-04-18T13:56:11.539Z</time></trkpt><trkpt lat="46.0408426" lon="11.9968147"><ele>237.2</ele><time>2026-04-18T13:56:13.535Z</time></trkpt><trkpt lat="46.0408716" lon="11.9966801"><ele>237.0</ele><time>2026-04-18T13:56:15.537Z</time></trkpt><trkpt lat="46.0409223" lon="11.9965597"><ele>236.83333333333334</ele><time>2026-04-18T13:56:17.537Z</time></trkpt><trkpt lat="46.0409914" lon="11.996462"><ele>236.66666666666669</ele><time>2026-04-18T13:56:19.538Z</time></trkpt><trkpt lat="46.0410689" lon="11.9963879"><ele>236.5</ele><time>2026-04-18T13:56:21.537Z</time></trkpt><trkpt lat="46.0411394" lon="11.9963149"><ele>236.33333333333334</ele><time>2026-04-18T13:56:23.539Z</time></trkpt><trkpt lat="46.0411723" lon="11.9962051"><ele>236.16666666666669</ele><time>2026-04-18T13:56:25.537Z</time></trkpt><trkpt lat="46.0411637" lon="11.996093"><ele>236.0</ele><time>2026-04-18T13:56:27.538Z</time></trkpt><trkpt lat="46.0411414" lon="11.9959712"><ele>236.0</ele><time>2026-04-18T13:56:29.537Z</time></trkpt><trkpt lat="46.0411163" lon="11.9958551"><ele>236.00000000000003</ele><time>2026-04-18T13:56:31.538Z</time></trkpt><trkpt lat="46.0410952" lon="11.9957265"><ele>236.00000000000003</ele><time>2026-04-18T13:56:33.537Z</time></trkpt><trkpt lat="46.0410723" lon="11.9956005"><ele>236.0</ele><time>2026-04-18T13:56:35.537Z</time></trkpt><trkpt lat="46.0410288" lon="11.9954843"><ele>236.0</ele><time>2026-04-18T13:56:37.537Z</time></trkpt><trkpt lat="46.0409688" lon="11.9953801"><ele>236.0</ele><time>2026-04-18T13:56:39.536Z</time></trkpt><trkpt lat="46.04089" lon="11.9952854"><ele>236.00000000000003</ele><time>2026-04-18T13:56:41.539Z</time></trkpt><trkpt lat="46.0408166" lon="11.9951866"><ele>236.00000000000003</ele><time>2026-04-18T13:56:43.535Z</time></trkpt><trkpt lat="46.0407455" lon="11.9950798"><ele>236.0</ele><time>2026-04-18T13:56:45.537Z</time></trkpt><trkpt lat="46.0406766" lon="11.9949698"><ele>236.0</ele><time>2026-04-18T13:56:47.538Z</time></trkpt><trkpt lat="46.0406112" lon="11.9948703"><ele>236.0</ele><time>2026-04-18T13:56:49.537Z</time></trkpt><trkpt lat="46.0405446" lon="11.9947777"><ele>236.00000000000003</ele><time>2026-04-18T13:56:51.537Z</time></trkpt><trkpt lat="46.0404816" lon="11.9946884"><ele>236.00000000000003</ele><time>2026-04-18T13:56:53.536Z</time></trkpt><trkpt lat="46.040418" lon="11.9945973"><ele>236.0</ele><time>2026-04-18T13:56:55.536Z</time></trkpt><trkpt lat="46.0403461" lon="11.9945135"><ele>236.0</ele><time>2026-04-18T13:56:57.539Z</time></trkpt><trkpt lat="46.0402761" lon="11.9944205"><ele>236.00000000000003</ele><time>2026-04-18T13:56:59.539Z</time></trkpt><trkpt lat="46.0402082" lon="11.9943309"><ele>236.0</ele><time>2026-04-18T13:57:01.537Z</time></trkpt><trkpt lat="46.0401466" lon="11.9942338"><ele>236.0</ele><time>2026-04-18T13:57:03.537Z</time></trkpt><trkpt lat="46.0400924" lon="11.9941316"><ele>236.0</ele><time>2026-04-18T13:57:05.538Z</time></trkpt><trkpt lat="46.0400535" lon="11.9940249"><ele>236.00000000000003</ele><time>2026-04-18T13:57:07.539Z</time></trkpt><trkpt lat="46.0400307" lon="11.9939178"><ele>236.0</ele><time>2026-04-18T13:57:09.538Z</time></trkpt><trkpt lat="46.0399918" lon="11.9938242"><ele>236.16666666666669</ele><time>2026-04-18T13:57:11.539Z</time></trkpt><trkpt lat="46.0399302" lon="11.9937599"><ele>236.33333333333334</ele><time>2026-04-18T13:57:13.538Z</time></trkpt><trkpt lat="46.0398474" lon="11.9937142"><ele>236.5</ele><time>2026-04-18T13:57:15.538Z</time></trkpt><trkpt lat="46.0397694" lon="11.9936641"><ele>236.66666666666669</ele><time>2026-04-18T13:57:17.536Z</time></trkpt><trkpt lat="46.0397062" lon="11.993597"><ele>236.83333333333334</ele><time>2026-04-18T13:57:19.538Z</time></trkpt><trkpt lat="46.0396439" lon="11.9935452"><ele>237.0</ele><time>2026-04-18T13:57:21.538Z</time></trkpt><trkpt lat="46.0395731" lon="11.9934793"><ele>237.0</ele><time>2026-04-18T13:57:23.535Z</time></trkpt><trkpt lat="46.0394998" lon="11.9934066"><ele>237.0</ele><time>2026-04-18T13:57:25.536Z</time></trkpt><trkpt lat="46.0394212" lon="11.9933311"><ele>237.0</ele><time>2026-04-18T13:57:27.536Z</time></trkpt><trkpt lat="46.0393425" lon="11.9932544"><ele>237.0</ele><time>2026-04-18T13:57:29.538Z</time></trkpt><trkpt lat="46.0392607" lon="11.9931898"><ele>237.0</ele><time>2026-04-18T13:57:31.539Z</time></trkpt><trkpt lat="46.0391628" lon="11.9931568"><ele>237.5</ele><time>2026-04-18T13:57:33.536Z</time></trkpt><trkpt lat="46.0390579" lon="11.9931483"><ele>238.0</ele><time>2026-04-18T13:57:35.536Z</time></trkpt><trkpt lat="46.0389646" lon="11.9931469"><ele>238.5</ele><time>2026-04-18T13:57:37.538Z</time></trkpt><trkpt lat="46.0388834" lon="11.9931463"><ele>239.0</ele><time>2026-04-18T13:57:39.539Z</time></trkpt><trkpt lat="46.0388238" lon="11.9930588"><ele>239.5</ele><time>2026-04-18T13:57:42.537Z</time></trkpt><trkpt lat="46.038803" lon="11.9929665"><ele>240.0</ele><time>2026-04-18T13:57:44.538Z</time></trkpt><trkpt lat="46.0387703" lon="11.9928695"><ele>240.0</ele><time>2026-04-18T13:57:46.537Z</time></trkpt><trkpt lat="46.0387422" lon="11.9927639"><ele>240.0</ele><time>2026-04-18T13:57:48.539Z</time></trkpt><trkpt lat="46.0387184" lon="11.9926536"><ele>240.0</ele><time>2026-04-18T13:57:50.537Z</time></trkpt><trkpt lat="46.0386987" lon="11.9925424"><ele>240.0</ele><time>2026-04-18T13:57:52.536Z</time></trkpt><trkpt lat="46.0386774" lon="11.9924293"><ele>240.0</ele><time>2026-04-18T13:57:54.537Z</time></trkpt><trkpt lat="46.038649" lon="11.9923212"><ele>240.0</ele><time>2026-04-18T13:57:56.537Z</time></trkpt><trkpt lat="46.0386243" lon="11.9922093"><ele>240.16666666666666</ele><time>2026-04-18T13:57:58.538Z</time></trkpt><trkpt lat="46.0386004" lon="11.9920941"><ele>240.33333333333331</ele><time>2026-04-18T13:58:00.537Z</time></trkpt><trkpt lat="46.0385714" lon="11.9919771"><ele>240.5</ele><time>2026-04-18T13:58:02.534Z</time></trkpt><trkpt lat="46.0385409" lon="11.9918628"><ele>240.66666666666666</ele><time>2026-04-18T13:58:04.537Z</time></trkpt><trkpt lat="46.0385026" lon="11.9917533"><ele>240.83333333333331</ele><time>2026-04-18T13:58:06.536Z</time></trkpt><trkpt lat="46.0384593" lon="11.9916485"><ele>241.0</ele><time>2026-04-18T13:58:08.538Z</time></trkpt><trkpt lat="46.0384045" lon="11.9915597"><ele>240.99999999999997</ele><time>2026-04-18T13:58:10.536Z</time></trkpt><trkpt lat="46.0383506" lon="11.9914736"><ele>241.0</ele><time>2026-04-18T13:58:12.538Z</time></trkpt><trkpt lat="46.0383082" lon="11.9913782"><ele>241.0</ele><time>2026-04-18T13:58:14.536Z</time></trkpt><trkpt lat="46.0382564" lon="11.9912924"><ele>241.0</ele><time>2026-04-18T13:58:17.538Z</time></trkpt><trkpt lat="46.0382176" lon="11.9911913"><ele>240.99999999999997</ele><time>2026-04-18T13:58:20.539Z</time></trkpt><trkpt lat="46.0381657" lon="11.9911228"><ele>241.0</ele><time>2026-04-18T13:58:22.537Z</time></trkpt><trkpt lat="46.0381094" lon="11.9910441"><ele>240.83333333333331</ele><time>2026-04-18T13:58:24.538Z</time></trkpt><trkpt lat="46.0380629" lon="11.990951"><ele>240.66666666666666</ele><time>2026-04-18T13:58:26.539Z</time></trkpt><trkpt lat="46.0380169" lon="11.9908491"><ele>240.5</ele><time>2026-04-18T13:58:28.539Z</time></trkpt><trkpt lat="46.0379699" lon="11.9907448"><ele>240.33333333333331</ele><time>2026-04-18T13:58:30.537Z</time></trkpt><trkpt lat="46.0379245" lon="11.9906387"><ele>240.16666666666666</ele><time>2026-04-18T13:58:32.538Z</time></trkpt><trkpt lat="46.0378802" lon="11.9905347"><ele>240.0</ele><time>2026-04-18T13:58:34.537Z</time></trkpt><trkpt lat="46.0378414" lon="11.9904268"><ele>240.0</ele><time>2026-04-18T13:58:36.537Z</time></trkpt><trkpt lat="46.0377998" lon="11.9903156"><ele>240.0</ele><time>2026-04-18T13:58:38.538Z</time></trkpt><trkpt lat="46.0377594" lon="11.9901919"><ele>240.0</ele><time>2026-04-18T13:58:40.539Z</time></trkpt><trkpt lat="46.0377262" lon="11.9900632"><ele>240.0</ele><time>2026-04-18T13:58:42.536Z</time></trkpt><trkpt lat="46.0376841" lon="11.9899397"><ele>240.0</ele><time>2026-04-18T13:58:44.539Z</time></trkpt><trkpt lat="46.0376488" lon="11.9898212"><ele>239.83333333333334</ele><time>2026-04-18T13:58:46.537Z</time></trkpt><trkpt lat="46.0376243" lon="11.9897045"><ele>239.66666666666669</ele><time>2026-04-18T13:58:48.535Z</time></trkpt><trkpt lat="46.037611" lon="11.9895868"><ele>239.5</ele><time>2026-04-18T13:58:50.538Z</time></trkpt><trkpt lat="46.0375995" lon="11.9894796"><ele>239.33333333333334</ele><time>2026-04-18T13:58:52.537Z</time></trkpt><trkpt lat="46.0375976" lon="11.9893728"><ele>239.16666666666669</ele><time>2026-04-18T13:58:54.537Z</time></trkpt><trkpt lat="46.0376057" lon="11.9892663"><ele>239.0</ele><time>2026-04-18T13:58:56.537Z</time></trkpt><trkpt lat="46.0376049" lon="11.9891617"><ele>238.5714285714286</ele><time>2026-04-18T13:58:58.539Z</time></trkpt><trkpt lat="46.0376109" lon="11.9890711"><ele>238.14285714285717</ele><time>2026-04-18T13:59:00.535Z</time></trkpt><trkpt lat="46.0376169" lon="11.9889525"><ele>237.71428571428572</ele><time>2026-04-18T13:59:03.538Z</time></trkpt><trkpt lat="46.0376207" lon="11.9888467"><ele>237.2857142857143</ele><time>2026-04-18T13:59:06.537Z</time></trkpt><trkpt lat="46.0376106" lon="11.9887372"><ele>236.8571428571429</ele><time>2026-04-18T13:59:31.536Z</time></trkpt><trkpt lat="46.0376121" lon="11.9886404"><ele>236.42857142857142</ele><time>2026-04-18T13:59:34.537Z</time></trkpt><trkpt lat="46.0376208" lon="11.9885241"><ele>236.0</ele><time>2026-04-18T13:59:37.536Z</time></trkpt><trkpt lat="46.0376351" lon="11.9884316"><ele>235.71428571428572</ele><time>2026-04-18T13:59:39.538Z</time></trkpt><trkpt lat="46.0376479" lon="11.9883373"><ele>235.42857142857144</ele><time>2026-04-18T13:59:41.539Z</time></trkpt><trkpt lat="46.0376581" lon="11.9882405"><ele>235.14285714285717</ele><time>2026-04-18T13:59:43.538Z</time></trkpt><trkpt lat="46.0376655" lon="11.9881468"><ele>234.85714285714286</ele><time>2026-04-18T13:59:45.539Z</time></trkpt><trkpt lat="46.0376657" lon="11.9880421"><ele>234.5714285714286</ele><time>2026-04-18T13:59:47.538Z</time></trkpt><trkpt lat="46.0376643" lon="11.9879374"><ele>234.2857142857143</ele><time>2026-04-18T13:59:49.539Z</time></trkpt><trkpt lat="46.037668" lon="11.9878373"><ele>234.0</ele><time>2026-04-18T13:59:51.536Z</time></trkpt><trkpt lat="46.0376695" lon="11.9877359"><ele>234.0</ele><time>2026-04-18T13:59:53.538Z</time></trkpt><trkpt lat="46.0376802" lon="11.9876344"><ele>234.00000000000003</ele><time>2026-04-18T13:59:55.536Z</time></trkpt><trkpt lat="46.0376906" lon="11.9875302"><ele>234.0</ele><time>2026-04-18T13:59:57.536Z</time></trkpt><trkpt lat="46.037694" lon="11.9874263"><ele>234.0</ele><time>2026-04-18T13:59:59.538Z</time></trkpt><trkpt lat="46.0376971" lon="11.9873203"><ele>234.00000000000003</ele><time>2026-04-18T14:00:01.538Z</time></trkpt><trkpt lat="46.0376982" lon="11.9872077"><ele>234.0</ele><time>2026-04-18T14:00:03.536Z</time></trkpt><trkpt lat="46.0377001" lon="11.9870972"><ele>234.0</ele><time>2026-04-18T14:00:05.538Z</time></trkpt><trkpt lat="46.0377055" lon="11.9869848"><ele>233.83333333333334</ele><time>2026-04-18T14:00:07.538Z</time></trkpt><trkpt lat="46.0377094" lon="11.9868719"><ele>233.66666666666669</ele><time>2026-04-18T14:00:09.537Z</time></trkpt><trkpt lat="46.0377117" lon="11.9867561"><ele>233.5</ele><time>2026-04-18T14:00:11.537Z</time></trkpt><trkpt lat="46.0377156" lon="11.9866379"><ele>233.33333333333334</ele><time>2026-04-18T14:00:13.539Z</time></trkpt><trkpt lat="46.0377207" lon="11.9865214"><ele>233.16666666666669</ele><time>2026-04-18T14:00:15.539Z</time></trkpt><trkpt lat="46.0377214" lon="11.9864057"><ele>233.0</ele><time>2026-04-18T14:00:17.535Z</time></trkpt><trkpt lat="46.0377149" lon="11.98629"><ele>233.00000000000003</ele><time>2026-04-18T14:00:19.537Z</time></trkpt><trkpt lat="46.0377165" lon="11.986173"><ele>233.0</ele><time>2026-04-18T14:00:21.537Z</time></trkpt><trkpt lat="46.0377223" lon="11.9860546"><ele>233.0</ele><time>2026-04-18T14:00:23.539Z</time></trkpt><trkpt lat="46.0377362" lon="11.9859436"><ele>233.0</ele><time>2026-04-18T14:00:25.535Z</time></trkpt><trkpt lat="46.0377573" lon="11.9858365"><ele>233.00000000000003</ele><time>2026-04-18T14:00:27.537Z</time></trkpt><trkpt lat="46.0377915" lon="11.9857406"><ele>233.0</ele><time>2026-04-18T14:00:29.539Z</time></trkpt><trkpt lat="46.0378377" lon="11.9856529"><ele>234.50000000000003</ele><time>2026-04-18T14:00:31.538Z</time></trkpt><trkpt lat="46.0378932" lon="11.9855815"><ele>236.0</ele><time>2026-04-18T14:00:33.539Z</time></trkpt><trkpt lat="46.0379547" lon="11.985519"><ele>237.5</ele><time>2026-04-18T14:00:35.539Z</time></trkpt><trkpt lat="46.0380148" lon="11.9854528"><ele>239.0</ele><time>2026-04-18T14:00:37.538Z</time></trkpt><trkpt lat="46.0380818" lon="11.9853872"><ele>240.50000000000003</ele><time>2026-04-18T14:00:39.538Z</time></trkpt><trkpt lat="46.0381425" lon="11.9853102"><ele>242.0</ele><time>2026-04-18T14:00:41.538Z</time></trkpt><trkpt lat="46.0381874" lon="11.9852266"><ele>242.00000000000003</ele><time>2026-04-18T14:00:43.539Z</time></trkpt><trkpt lat="46.0382293" lon="11.9851332"><ele>242.0</ele><time>2026-04-18T14:00:45.537Z</time></trkpt><trkpt lat="46.0382722" lon="11.9850413"><ele>242.0</ele><time>2026-04-18T14:00:47.539Z</time></trkpt><trkpt lat="46.0383145" lon="11.9849433"><ele>242.0</ele><time>2026-04-18T14:00:49.537Z</time></trkpt><trkpt lat="46.0383561" lon="11.9848399"><ele>242.00000000000003</ele><time>2026-04-18T14:00:51.537Z</time></trkpt><trkpt lat="46.0383979" lon="11.9847425"><ele>242.0</ele><time>2026-04-18T14:00:53.537Z</time></trkpt><trkpt lat="46.0384422" lon="11.9846487"><ele>241.66666666666669</ele><time>2026-04-18T14:00:55.537Z</time></trkpt><trkpt lat="46.0384834" lon="11.984554"><ele>241.33333333333334</ele><time>2026-04-18T14:00:57.537Z</time></trkpt><trkpt lat="46.0385197" lon="11.9844527"><ele>241.0</ele><time>2026-04-18T14:00:59.537Z</time></trkpt><trkpt lat="46.0385596" lon="11.984351"><ele>240.66666666666669</ele><time>2026-04-18T14:01:01.539Z</time></trkpt><trkpt lat="46.0385954" lon="11.9842513"><ele>240.33333333333334</ele><time>2026-04-18T14:01:03.536Z</time></trkpt><trkpt lat="46.0386242" lon="11.9841493"><ele>240.0</ele><time>2026-04-18T14:01:05.538Z</time></trkpt><trkpt lat="46.0386296" lon="11.9840388"><ele>240.85714285714286</ele><time>2026-04-18T14:01:07.538Z</time></trkpt><trkpt lat="46.0386009" lon="11.9839312"><ele>241.71428571428572</ele><time>2026-04-18T14:01:09.538Z</time></trkpt><trkpt lat="46.0385583" lon="11.9838352"><ele>242.57142857142858</ele><time>2026-04-18T14:01:11.539Z</time></trkpt><trkpt lat="46.0385107" lon="11.9837515"><ele>243.42857142857144</ele><time>2026-04-18T14:01:13.537Z</time></trkpt><trkpt lat="46.0384748" lon="11.9836594"><ele>244.28571428571428</ele><time>2026-04-18T14:01:15.537Z</time></trkpt><trkpt lat="46.0385049" lon="11.9835762"><ele>245.14285714285717</ele><time>2026-04-18T14:01:17.536Z</time></trkpt><trkpt lat="46.0385663" lon="11.9836189"><ele>246.00000000000003</ele><time>2026-04-18T14:01:19.537Z</time></trkpt><trkpt lat="46.0386064" lon="11.9837606"><ele>246.0</ele><time>2026-04-18T14:01:21.536Z</time></trkpt><trkpt lat="46.0386612" lon="11.9838863"><ele>246.00000000000003</ele><time>2026-04-18T14:01:23.538Z</time></trkpt><trkpt lat="46.0387357" lon="11.9840028"><ele>246.00000000000003</ele><time>2026-04-18T14:01:25.538Z</time></trkpt><trkpt lat="46.0388202" lon="11.9840957"><ele>246.0</ele><time>2026-04-18T14:01:27.539Z</time></trkpt><trkpt lat="46.038886" lon="11.9841362"><ele>246.0</ele><time>2026-04-18T14:01:29.537Z</time></trkpt><trkpt lat="46.0389578" lon="11.9841388"><ele>246.0</ele><time>2026-04-18T14:01:31.539Z</time></trkpt><trkpt lat="46.0390286" lon="11.9840821"><ele>246.0</ele><time>2026-04-18T14:01:33.536Z</time></trkpt><trkpt lat="46.0390975" lon="11.9840032"><ele>246.0</ele><time>2026-04-18T14:01:35.537Z</time></trkpt><trkpt lat="46.0391604" lon="11.9839245"><ele>246.0</ele><time>2026-04-18T14:01:37.537Z</time></trkpt><trkpt lat="46.0392186" lon="11.9838463"><ele>246.0</ele><time>2026-04-18T14:01:39.538Z</time></trkpt><trkpt lat="46.0392779" lon="11.983774"><ele>246.0</ele><time>2026-04-18T14:01:41.538Z</time></trkpt><trkpt lat="46.0393347" lon="11.9837043"><ele>246.00000000000003</ele><time>2026-04-18T14:01:43.538Z</time></trkpt><trkpt lat="46.0393935" lon="11.983639"><ele>246.0</ele><time>2026-04-18T14:01:45.537Z</time></trkpt><trkpt lat="46.0394452" lon="11.9835747"><ele>246.00000000000003</ele><time>2026-04-18T14:01:47.539Z</time></trkpt><trkpt lat="46.0394933" lon="11.9834876"><ele>246.00000000000003</ele><time>2026-04-18T14:01:50.539Z</time></trkpt><trkpt lat="46.0395715" lon="11.9834646"><ele>246.0</ele><time>2026-04-18T14:01:54.537Z</time></trkpt><trkpt lat="46.0396347" lon="11.9835122"><ele>246.00000000000003</ele><time>2026-04-18T14:01:56.537Z</time></trkpt><trkpt lat="46.0397063" lon="11.9835104"><ele>246.00000000000003</ele><time>2026-04-18T14:01:58.536Z</time></trkpt><trkpt lat="46.0397621" lon="11.9834484"><ele>246.00000000000003</ele><time>2026-04-18T14:02:00.537Z</time></trkpt><trkpt lat="46.0397979" lon="11.9833386"><ele>246.0</ele><time>2026-04-18T14:02:03.539Z</time></trkpt><trkpt lat="46.0398413" lon="11.9832657"><ele>246.00000000000003</ele><time>2026-04-18T14:02:05.537Z</time></trkpt><trkpt lat="46.0398968" lon="11.9832041"><ele>246.00000000000003</ele><time>2026-04-18T14:02:07.537Z</time></trkpt><trkpt lat="46.0399407" lon="11.9831236"><ele>246.0</ele><time>2026-04-18T14:02:09.539Z</time></trkpt><trkpt lat="46.0399845" lon="11.983042"><ele>246.00000000000003</ele><time>2026-04-18T14:02:11.537Z</time></trkpt><trkpt lat="46.0400364" lon="11.9829707"><ele>246.00000000000003</ele><time>2026-04-18T14:02:13.537Z</time></trkpt><trkpt lat="46.0400856" lon="11.9828996"><ele>245.8571428571429</ele><time>2026-04-18T14:02:15.535Z</time></trkpt><trkpt lat="46.0401367" lon="11.9828274"><ele>245.71428571428572</ele><time>2026-04-18T14:02:17.537Z</time></trkpt><trkpt lat="46.0401822" lon="11.9827517"><ele>245.57142857142858</ele><time>2026-04-18T14:02:19.539Z</time></trkpt><trkpt lat="46.0402363" lon="11.9826813"><ele>245.42857142857144</ele><time>2026-04-18T14:02:21.537Z</time></trkpt><trkpt lat="46.0402815" lon="11.9825994"><ele>245.28571428571428</ele><time>2026-04-18T14:02:23.539Z</time></trkpt><trkpt lat="46.0402811" lon="11.982507"><ele>245.14285714285714</ele><time>2026-04-18T14:02:25.539Z</time></trkpt><trkpt lat="46.040244" lon="11.9824261"><ele>245.0</ele><time>2026-04-18T14:02:27.537Z</time></trkpt><trkpt lat="46.0401959" lon="11.9823536"><ele>244.83333333333334</ele><time>2026-04-18T14:02:29.537Z</time></trkpt><trkpt lat="46.0401441" lon="11.9822895"><ele>244.66666666666669</ele><time>2026-04-18T14:02:31.537Z</time></trkpt><trkpt lat="46.0400878" lon="11.9822093"><ele>244.5</ele><time>2026-04-18T14:02:33.537Z</time></trkpt><trkpt lat="46.0400332" lon="11.9821304"><ele>244.33333333333331</ele><time>2026-04-18T14:02:35.539Z</time></trkpt><trkpt lat="46.0399725" lon="11.9820556"><ele>244.16666666666666</ele><time>2026-04-18T14:02:37.538Z</time></trkpt><trkpt lat="46.0399197" lon="11.9819713"><ele>244.0</ele><time>2026-04-18T14:02:39.537Z</time></trkpt><trkpt lat="46.0398666" lon="11.9818843"><ele>244.33333333333331</ele><time>2026-04-18T14:02:41.536Z</time></trkpt><trkpt lat="46.039807" lon="11.9817997"><ele>244.66666666666666</ele><time>2026-04-18T14:02:43.538Z</time></trkpt><trkpt lat="46.0397506" lon="11.9817149"><ele>245.0</ele><time>2026-04-18T14:02:45.537Z</time></trkpt><trkpt lat="46.0396913" lon="11.9816278"><ele>245.33333333333331</ele><time>2026-04-18T14:02:47.537Z</time></trkpt><trkpt lat="46.0396384" lon="11.9815391"><ele>245.66666666666666</ele><time>2026-04-18T14:02:49.537Z</time></trkpt><trkpt lat="46.0395877" lon="11.9814589"><ele>246.0</ele><time>2026-04-18T14:02:51.537Z</time></trkpt><trkpt lat="46.0395479" lon="11.9813776"><ele>246.0</ele><time>2026-04-18T14:02:53.537Z</time></trkpt><trkpt lat="46.0395527" lon="11.9812799"><ele>246.0</ele><time>2026-04-18T14:02:55.538Z</time></trkpt><trkpt lat="46.0396047" lon="11.9811998"><ele>246.0</ele><time>2026-04-18T14:02:57.536Z</time></trkpt><trkpt lat="46.0396669" lon="11.9811327"><ele>246.0</ele><time>2026-04-18T14:02:59.538Z</time></trkpt><trkpt lat="46.0397309" lon="11.9810669"><ele>246.0</ele><time>2026-04-18T14:03:01.541Z</time></trkpt><trkpt lat="46.0397981" lon="11.9809984"><ele>246.0</ele><time>2026-04-18T14:03:03.537Z</time></trkpt><trkpt lat="46.0398668" lon="11.9809234"><ele>246.0</ele><time>2026-04-18T14:03:05.537Z</time></trkpt><trkpt lat="46.0399338" lon="11.9808544"><ele>246.0</ele><time>2026-04-18T14:03:07.54Z</time></trkpt><trkpt lat="46.0399995" lon="11.9807791"><ele>246.0</ele><time>2026-04-18T14:03:09.538Z</time></trkpt><trkpt lat="46.0400683" lon="11.9807092"><ele>246.0</ele><time>2026-04-18T14:03:11.539Z</time></trkpt><trkpt lat="46.0401377" lon="11.9806446"><ele>246.0</ele><time>2026-04-18T14:03:13.537Z</time></trkpt><trkpt lat="46.0402057" lon="11.9805797"><ele>246.0</ele><time>2026-04-18T14:03:15.536Z</time></trkpt><trkpt lat="46.0402771" lon="11.9805256"><ele>247.16666666666666</ele><time>2026-04-18T14:03:17.538Z</time></trkpt><trkpt lat="46.0403567" lon="11.9805017"><ele>248.33333333333331</ele><time>2026-04-18T14:03:19.534Z</time></trkpt><trkpt lat="46.0404411" lon="11.980502"><ele>249.5</ele><time>2026-04-18T14:03:21.535Z</time></trkpt><trkpt lat="46.0405293" lon="11.9805337"><ele>250.66666666666666</ele><time>2026-04-18T14:03:23.534Z</time></trkpt><trkpt lat="46.040611" lon="11.9805729"><ele>251.83333333333331</ele><time>2026-04-18T14:03:25.535Z</time></trkpt><trkpt lat="46.0406856" lon="11.9806264"><ele>253.0</ele><time>2026-04-18T14:03:27.537Z</time></trkpt><trkpt lat="46.0407573" lon="11.9806843"><ele>253.49999999999997</ele><time>2026-04-18T14:03:29.534Z</time></trkpt><trkpt lat="46.0408222" lon="11.9807554"><ele>254.0</ele><time>2026-04-18T14:03:31.535Z</time></trkpt><trkpt lat="46.0408961" lon="11.9808116"><ele>254.5</ele><time>2026-04-18T14:03:33.536Z</time></trkpt><trkpt lat="46.0409755" lon="11.980824"><ele>255.0</ele><time>2026-04-18T14:03:35.535Z</time></trkpt><trkpt lat="46.0410448" lon="11.9807712"><ele>255.49999999999997</ele><time>2026-04-18T14:03:37.538Z</time></trkpt><trkpt lat="46.0410961" lon="11.9807059"><ele>256.0</ele><time>2026-04-18T14:03:39.536Z</time></trkpt><trkpt lat="46.0411523" lon="11.9805852"><ele>256.0</ele><time>2026-04-18T14:03:42.539Z</time></trkpt><trkpt lat="46.0411716" lon="11.9804928"><ele>255.99999999999997</ele><time>2026-04-18T14:03:44.537Z</time></trkpt><trkpt lat="46.0411736" lon="11.9804011"><ele>256.0</ele><time>2026-04-18T14:03:46.536Z</time></trkpt><trkpt lat="46.0411264" lon="11.9802961"><ele>256.0</ele><time>2026-04-18T14:03:49.535Z</time></trkpt><trkpt lat="46.0410722" lon="11.9802452"><ele>255.99999999999997</ele><time>2026-04-18T14:03:51.537Z</time></trkpt><trkpt lat="46.0410054" lon="11.980182"><ele>256.0</ele><time>2026-04-18T14:03:53.537Z</time></trkpt><trkpt lat="46.0409419" lon="11.9801039"><ele>256.0</ele><time>2026-04-18T14:03:55.537Z</time></trkpt><trkpt lat="46.0408828" lon="11.980018"><ele>255.99999999999997</ele><time>2026-04-18T14:03:57.536Z</time></trkpt><trkpt lat="46.0408313" lon="11.9799369"><ele>256.0</ele><time>2026-04-18T14:03:59.539Z</time></trkpt><trkpt lat="46.0407885" lon="11.9798489"><ele>256.0</ele><time>2026-04-18T14:04:01.536Z</time></trkpt><trkpt lat="46.0407558" lon="11.9797571"><ele>256.0</ele><time>2026-04-18T14:04:03.539Z</time></trkpt><trkpt lat="46.0407421" lon="11.9796563"><ele>255.99999999999997</ele><time>2026-04-18T14:04:05.537Z</time></trkpt><trkpt lat="46.0408058" lon="11.9795706"><ele>256.0</ele><time>2026-04-18T14:04:08.537Z</time></trkpt><trkpt lat="46.0408782" lon="11.9795643"><ele>257.0</ele><time>2026-04-18T14:04:10.536Z</time></trkpt><trkpt lat="46.0409509" lon="11.9795682"><ele>258.0</ele><time>2026-04-18T14:04:12.537Z</time></trkpt><trkpt lat="46.0410159" lon="11.9795902"><ele>259.0</ele><time>2026-04-18T14:04:14.537Z</time></trkpt><trkpt lat="46.0410947" lon="11.979654"><ele>260.0</ele><time>2026-04-18T14:04:17.538Z</time></trkpt><trkpt lat="46.0411595" lon="11.9796783"><ele>261.0</ele><time>2026-04-18T14:04:21.537Z</time></trkpt><trkpt lat="46.0411317" lon="11.9795632"><ele>262.0</ele><time>2026-04-18T14:04:25.538Z</time></trkpt><trkpt lat="46.0410947" lon="11.9794661"><ele>262.0</ele><time>2026-04-18T14:04:27.537Z</time></trkpt><trkpt lat="46.0410588" lon="11.9793455"><ele>262.0</ele><time>2026-04-18T14:04:29.537Z</time></trkpt><trkpt lat="46.0410378" lon="11.9792116"><ele>262.0</ele><time>2026-04-18T14:04:31.537Z</time></trkpt><trkpt lat="46.041017" lon="11.9790598"><ele>262.0</ele><time>2026-04-18T14:04:33.536Z</time></trkpt><trkpt lat="46.0409848" lon="11.978904"><ele>262.0</ele><time>2026-04-18T14:04:35.536Z</time></trkpt><trkpt lat="46.0409293" lon="11.9787832"><ele>262.4</ele><time>2026-04-18T14:04:37.537Z</time></trkpt><trkpt lat="46.0408626" lon="11.9786819"><ele>262.79999999999995</ele><time>2026-04-18T14:04:39.537Z</time></trkpt><trkpt lat="46.0407826" lon="11.9785996"><ele>263.2</ele><time>2026-04-18T14:04:41.537Z</time></trkpt><trkpt lat="46.0407033" lon="11.9785179"><ele>263.59999999999997</ele><time>2026-04-18T14:04:43.534Z</time></trkpt><trkpt lat="46.0406226" lon="11.9784508"><ele>264.0</ele><time>2026-04-18T14:04:45.538Z</time></trkpt><trkpt lat="46.0405442" lon="11.9783861"><ele>264.1666666666667</ele><time>2026-04-18T14:04:47.539Z</time></trkpt><trkpt lat="46.0404691" lon="11.9783129"><ele>264.3333333333333</ele><time>2026-04-18T14:04:49.537Z</time></trkpt><trkpt lat="46.0404008" lon="11.9782357"><ele>264.5</ele><time>2026-04-18T14:04:51.537Z</time></trkpt><trkpt lat="46.0403301" lon="11.9781546"><ele>264.66666666666663</ele><time>2026-04-18T14:04:53.536Z</time></trkpt><trkpt lat="46.0402674" lon="11.9780791"><ele>264.8333333333333</ele><time>2026-04-18T14:04:55.539Z</time></trkpt><trkpt lat="46.0402229" lon="11.9780036"><ele>265.0</ele><time>2026-04-18T14:04:57.537Z</time></trkpt><trkpt lat="46.0401962" lon="11.9779049"><ele>265.0</ele><time>2026-04-18T14:04:59.538Z</time></trkpt><trkpt lat="46.0401765" lon="11.9778002"><ele>265.0</ele><time>2026-04-18T14:05:01.539Z</time></trkpt><trkpt lat="46.0401541" lon="11.9776968"><ele>265.0</ele><time>2026-04-18T14:05:03.537Z</time></trkpt><trkpt lat="46.0401164" lon="11.9776043"><ele>265.0</ele><time>2026-04-18T14:05:05.537Z</time></trkpt><trkpt lat="46.0400575" lon="11.9775209"><ele>265.0</ele><time>2026-04-18T14:05:07.537Z</time></trkpt><trkpt lat="46.0399793" lon="11.9774469"><ele>265.0</ele><time>2026-04-18T14:05:09.537Z</time></trkpt><trkpt lat="46.0398879" lon="11.9773833"><ele>263.75</ele><time>2026-04-18T14:05:11.538Z</time></trkpt><trkpt lat="46.039781" lon="11.9773673"><ele>262.5</ele><time>2026-04-18T14:05:13.534Z</time></trkpt><trkpt lat="46.0396661" lon="11.97738"><ele>261.25</ele><time>2026-04-18T14:05:15.536Z</time></trkpt><trkpt lat="46.0395511" lon="11.9773706"><ele>260.0</ele><time>2026-04-18T14:05:17.537Z</time></trkpt><trkpt lat="46.0394502" lon="11.9773011"><ele>260.0</ele><time>2026-04-18T14:05:19.536Z</time></trkpt><trkpt lat="46.0393595" lon="11.977227"><ele>260.0</ele><time>2026-04-18T14:05:21.535Z</time></trkpt><trkpt lat="46.0392702" lon="11.9771841"><ele>260.0</ele><time>2026-04-18T14:05:23.537Z</time></trkpt><trkpt lat="46.0391693" lon="11.9771917"><ele>260.0</ele><time>2026-04-18T14:05:25.538Z</time></trkpt><trkpt lat="46.0390828" lon="11.9772409"><ele>260.0</ele><time>2026-04-18T14:05:27.538Z</time></trkpt><trkpt lat="46.0389948" lon="11.9773056"><ele>260.2</ele><time>2026-04-18T14:05:29.538Z</time></trkpt><trkpt lat="46.0388998" lon="11.977385"><ele>260.4</ele><time>2026-04-18T14:05:31.539Z</time></trkpt><trkpt lat="46.0388055" lon="11.9774634"><ele>260.6</ele><time>2026-04-18T14:05:33.537Z</time></trkpt><trkpt lat="46.0387091" lon="11.9775166"><ele>260.8</ele><time>2026-04-18T14:05:35.538Z</time></trkpt><trkpt lat="46.0386117" lon="11.9775586"><ele>261.0</ele><time>2026-04-18T14:05:37.539Z</time></trkpt><trkpt lat="46.0385152" lon="11.9776014"><ele>261.0</ele><time>2026-04-18T14:05:39.536Z</time></trkpt><trkpt lat="46.0384296" lon="11.9776397"><ele>261.0</ele><time>2026-04-18T14:05:41.539Z</time></trkpt><trkpt lat="46.0383459" lon="11.9776743"><ele>261.0</ele><time>2026-04-18T14:05:43.536Z</time></trkpt><trkpt lat="46.0382549" lon="11.9776747"><ele>261.0</ele><time>2026-04-18T14:05:45.537Z</time></trkpt><trkpt lat="46.0381744" lon="11.9776434"><ele>261.0</ele><time>2026-04-18T14:05:47.538Z</time></trkpt><trkpt lat="46.0380998" lon="11.9776003"><ele>261.0</ele><time>2026-04-18T14:05:49.537Z</time></trkpt><trkpt lat="46.0380265" lon="11.9775544"><ele>260.8571428571429</ele><time>2026-04-18T14:05:51.537Z</time></trkpt><trkpt lat="46.037959" lon="11.9775097"><ele>260.7142857142857</ele><time>2026-04-18T14:05:53.537Z</time></trkpt><trkpt lat="46.037891" lon="11.9774678"><ele>260.57142857142856</ele><time>2026-04-18T14:05:55.538Z</time></trkpt><trkpt lat="46.0378196" lon="11.9774217"><ele>260.42857142857144</ele><time>2026-04-18T14:05:57.538Z</time></trkpt><trkpt lat="46.0377474" lon="11.9773712"><ele>260.2857142857143</ele><time>2026-04-18T14:05:59.536Z</time></trkpt><trkpt lat="46.0376873" lon="11.977317"><ele>260.14285714285717</ele><time>2026-04-18T14:06:01.537Z</time></trkpt><trkpt lat="46.0376359" lon="11.9772603"><ele>260.0</ele><time>2026-04-18T14:06:03.536Z</time></trkpt><trkpt lat="46.0375866" lon="11.9771926"><ele>260.00000000000006</ele><time>2026-04-18T14:06:05.539Z</time></trkpt><trkpt lat="46.037536" lon="11.9771218"><ele>260.0</ele><time>2026-04-18T14:06:07.538Z</time></trkpt><trkpt lat="46.0374843" lon="11.9770442"><ele>260.0</ele><time>2026-04-18T14:06:09.534Z</time></trkpt><trkpt lat="46.0374344" lon="11.9769658"><ele>260.0</ele><time>2026-04-18T14:06:11.534Z</time></trkpt><trkpt lat="46.0373868" lon="11.9768831"><ele>260.0</ele><time>2026-04-18T14:06:13.536Z</time></trkpt><trkpt lat="46.0373356" lon="11.9768154"><ele>260.00000000000006</ele><time>2026-04-18T14:06:15.534Z</time></trkpt><trkpt lat="46.0372717" lon="11.9767644"><ele>260.0</ele><time>2026-04-18T14:06:17.534Z</time></trkpt><trkpt lat="46.0372016" lon="11.9767338"><ele>260.33333333333337</ele><time>2026-04-18T14:06:19.535Z</time></trkpt><trkpt lat="46.037119" lon="11.9766896"><ele>260.6666666666667</ele><time>2026-04-18T14:06:22.533Z</time></trkpt><trkpt lat="46.0370479" lon="11.9765991"><ele>261.0</ele><time>2026-04-18T14:06:25.536Z</time></trkpt><trkpt lat="46.0369889" lon="11.9764993"><ele>261.3333333333333</ele><time>2026-04-18T14:06:28.537Z</time></trkpt><trkpt lat="46.0369363" lon="11.9764183"><ele>261.66666666666663</ele><time>2026-04-18T14:06:31.537Z</time></trkpt><trkpt lat="46.0368811" lon="11.9763276"><ele>262.0</ele><time>2026-04-18T14:06:34.535Z</time></trkpt><trkpt lat="46.0368154" lon="11.9762287"><ele>262.0</ele><time>2026-04-18T14:06:37.538Z</time></trkpt><trkpt lat="46.036779" lon="11.976151"><ele>262.0</ele><time>2026-04-18T14:06:39.536Z</time></trkpt><trkpt lat="46.0367448" lon="11.9760748"><ele>262.0</ele><time>2026-04-18T14:06:41.538Z</time></trkpt><trkpt lat="46.0366866" lon="11.9759794"><ele>262.0</ele><time>2026-04-18T14:06:44.539Z</time></trkpt><trkpt lat="46.0366486" lon="11.9759069"><ele>262.0</ele><time>2026-04-18T14:06:46.539Z</time></trkpt><trkpt lat="46.0366098" lon="11.9758278"><ele>262.0</ele><time>2026-04-18T14:06:48.539Z</time></trkpt><trkpt lat="46.0365701" lon="11.9757499"><ele>262.0</ele><time>2026-04-18T14:06:50.536Z</time></trkpt><trkpt lat="46.0365346" lon="11.9756701"><ele>261.8571428571429</ele><time>2026-04-18T14:06:52.536Z</time></trkpt><trkpt lat="46.0364919" lon="11.9755993"><ele>261.7142857142857</ele><time>2026-04-18T14:06:54.537Z</time></trkpt><trkpt lat="46.0364443" lon="11.9755239"><ele>261.57142857142856</ele><time>2026-04-18T14:06:56.537Z</time></trkpt><trkpt lat="46.036393" lon="11.9754458"><ele>261.42857142857144</ele><time>2026-04-18T14:06:58.536Z</time></trkpt><trkpt lat="46.0363405" lon="11.9753698"><ele>261.2857142857143</ele><time>2026-04-18T14:07:00.537Z</time></trkpt><trkpt lat="46.0362903" lon="11.9752927"><ele>261.14285714285717</ele><time>2026-04-18T14:07:02.538Z</time></trkpt><trkpt lat="46.0362398" lon="11.9752178"><ele>261.0</ele><time>2026-04-18T14:07:04.538Z</time></trkpt><trkpt lat="46.0361906" lon="11.9751454"><ele>261.0</ele><time>2026-04-18T14:07:06.538Z</time></trkpt><trkpt lat="46.0361388" lon="11.9750836"><ele>261.0</ele><time>2026-04-18T14:07:08.54Z</time></trkpt><trkpt lat="46.0360898" lon="11.9750173"><ele>261.0</ele><time>2026-04-18T14:07:10.538Z</time></trkpt><trkpt lat="46.0360471" lon="11.9749498"><ele>261.0</ele><time>2026-04-18T14:07:12.537Z</time></trkpt><trkpt lat="46.0360052" lon="11.9748801"><ele>261.0</ele><time>2026-04-18T14:07:14.535Z</time></trkpt><trkpt lat="46.0359357" lon="11.9747953"><ele>261.0</ele><time>2026-04-18T14:07:17.537Z</time></trkpt><trkpt lat="46.0358855" lon="11.9747297"><ele>261.0</ele><time>2026-04-18T14:07:19.537Z</time></trkpt><trkpt lat="46.0358349" lon="11.9746722"><ele>261.1666666666667</ele><time>2026-04-18T14:07:21.537Z</time></trkpt><trkpt lat="46.0357743" lon="11.9745887"><ele>261.3333333333333</ele><time>2026-04-18T14:07:24.537Z</time></trkpt><trkpt lat="46.0357063" lon="11.9744984"><ele>261.5</ele><time>2026-04-18T14:07:27.538Z</time></trkpt><trkpt lat="46.0356582" lon="11.9744338"><ele>261.66666666666663</ele><time>2026-04-18T14:07:29.536Z</time></trkpt><trkpt lat="46.0355976" lon="11.9743465"><ele>261.8333333333333</ele><time>2026-04-18T14:07:32.537Z</time></trkpt><trkpt lat="46.0355323" lon="11.9742559"><ele>262.0</ele><time>2026-04-18T14:07:35.538Z</time></trkpt><trkpt lat="46.0354852" lon="11.9741915"><ele>262.42857142857144</ele><time>2026-04-18T14:07:37.54Z</time></trkpt><trkpt lat="46.0354375" lon="11.9741274"><ele>262.8571428571429</ele><time>2026-04-18T14:07:39.54Z</time></trkpt><trkpt lat="46.0353906" lon="11.9740622"><ele>263.2857142857143</ele><time>2026-04-18T14:07:41.536Z</time></trkpt><trkpt lat="46.0353446" lon="11.9739926"><ele>263.7142857142857</ele><time>2026-04-18T14:07:43.537Z</time></trkpt><trkpt lat="46.0353007" lon="11.9739243"><ele>264.1428571428571</ele><time>2026-04-18T14:07:45.537Z</time></trkpt><trkpt lat="46.0352836" lon="11.9738058"><ele>264.57142857142856</ele><time>2026-04-18T14:07:48.538Z</time></trkpt><trkpt lat="46.0353453" lon="11.9737491"><ele>265.0</ele><time>2026-04-18T14:07:51.536Z</time></trkpt><trkpt lat="46.0354113" lon="11.9737414"><ele>265.0</ele><time>2026-04-18T14:07:54.539Z</time></trkpt><trkpt lat="46.0354973" lon="11.973733"><ele>265.0</ele><time>2026-04-18T14:07:58.536Z</time></trkpt><trkpt lat="46.0355718" lon="11.9737177"><ele>265.0</ele><time>2026-04-18T14:08:01.536Z</time></trkpt><trkpt lat="46.0356395" lon="11.9737021"><ele>265.0</ele><time>2026-04-18T14:08:03.539Z</time></trkpt><trkpt lat="46.0357132" lon="11.9736945"><ele>265.0</ele><time>2026-04-18T14:08:05.538Z</time></trkpt><trkpt lat="46.0357885" lon="11.9736864"><ele>265.0</ele><time>2026-04-18T14:08:07.54Z</time></trkpt><trkpt lat="46.0358685" lon="11.9736852"><ele>265.99999999999994</ele><time>2026-04-18T14:08:09.538Z</time></trkpt><trkpt lat="46.0359438" lon="11.9736814"><ele>267.0</ele><time>2026-04-18T14:08:11.54Z</time></trkpt><trkpt lat="46.0360242" lon="11.9736703"><ele>268.0</ele><time>2026-04-18T14:08:13.538Z</time></trkpt><trkpt lat="46.0360972" lon="11.973661"><ele>269.0</ele><time>2026-04-18T14:08:15.537Z</time></trkpt><trkpt lat="46.0361631" lon="11.9736597"><ele>270.0</ele><time>2026-04-18T14:08:17.539Z</time></trkpt><trkpt lat="46.036237" lon="11.973651"><ele>270.99999999999994</ele><time>2026-04-18T14:08:19.538Z</time></trkpt><trkpt lat="46.0363067" lon="11.9736461"><ele>272.0</ele><time>2026-04-18T14:08:21.539Z</time></trkpt><trkpt lat="46.0363767" lon="11.9736346"><ele>271.99999999999994</ele><time>2026-04-18T14:08:23.538Z</time></trkpt><trkpt lat="46.0364423" lon="11.9736188"><ele>272.0</ele><time>2026-04-18T14:08:25.536Z</time></trkpt><trkpt lat="46.0365049" lon="11.9735843"><ele>272.0</ele><time>2026-04-18T14:08:27.539Z</time></trkpt><trkpt lat="46.0365626" lon="11.973532"><ele>272.0</ele><time>2026-04-18T14:08:29.539Z</time></trkpt><trkpt lat="46.036619" lon="11.9734728"><ele>272.0</ele><time>2026-04-18T14:08:31.539Z</time></trkpt><trkpt lat="46.0366754" lon="11.9734143"><ele>271.99999999999994</ele><time>2026-04-18T14:08:33.538Z</time></trkpt><trkpt lat="46.0367326" lon="11.9733541"><ele>272.0</ele><time>2026-04-18T14:08:35.536Z</time></trkpt><trkpt lat="46.0367915" lon="11.9732957"><ele>272.85714285714283</ele><time>2026-04-18T14:08:37.538Z</time></trkpt><trkpt lat="46.0368458" lon="11.973231"><ele>273.7142857142857</ele><time>2026-04-18T14:08:39.537Z</time></trkpt><trkpt lat="46.0369011" lon="11.9731659"><ele>274.57142857142856</ele><time>2026-04-18T14:08:41.538Z</time></trkpt><trkpt lat="46.0369575" lon="11.9730999"><ele>275.42857142857144</ele><time>2026-04-18T14:08:43.538Z</time></trkpt><trkpt lat="46.037008" lon="11.9730373"><ele>276.2857142857143</ele><time>2026-04-18T14:08:45.537Z</time></trkpt><trkpt lat="46.0370619" lon="11.9729742"><ele>277.1428571428571</ele><time>2026-04-18T14:08:47.536Z</time></trkpt><trkpt lat="46.037115" lon="11.972917"><ele>278.0</ele><time>2026-04-18T14:08:49.537Z</time></trkpt><trkpt lat="46.0371711" lon="11.9728595"><ele>278.0</ele><time>2026-04-18T14:08:51.538Z</time></trkpt><trkpt lat="46.0372247" lon="11.972758"><ele>278.0</ele><time>2026-04-18T14:08:54.537Z</time></trkpt><trkpt lat="46.0372498" lon="11.9726292"><ele>278.0</ele><time>2026-04-18T14:08:57.539Z</time></trkpt><trkpt lat="46.0372424" lon="11.9725342"><ele>278.0</ele><time>2026-04-18T14:08:59.538Z</time></trkpt><trkpt lat="46.0372422" lon="11.972437"><ele>278.0</ele><time>2026-04-18T14:09:01.539Z</time></trkpt><trkpt lat="46.0372482" lon="11.9723422"><ele>278.0</ele><time>2026-04-18T14:09:03.54Z</time></trkpt><trkpt lat="46.0372544" lon="11.9722458"><ele>278.0</ele><time>2026-04-18T14:09:05.54Z</time></trkpt><trkpt lat="46.0372568" lon="11.9721424"><ele>278.0</ele><time>2026-04-18T14:09:07.54Z</time></trkpt><trkpt lat="46.0372591" lon="11.9720408"><ele>278.0</ele><time>2026-04-18T14:09:09.538Z</time></trkpt><trkpt lat="46.0372634" lon="11.9719366"><ele>278.0</ele><time>2026-04-18T14:09:11.538Z</time></trkpt><trkpt lat="46.0372587" lon="11.9718324"><ele>278.0</ele><time>2026-04-18T14:09:13.538Z</time></trkpt><trkpt lat="46.0372682" lon="11.9717311"><ele>278.0</ele><time>2026-04-18T14:09:15.537Z</time></trkpt><trkpt lat="46.0372825" lon="11.971629"><ele>278.0</ele><time>2026-04-18T14:09:17.537Z</time></trkpt><trkpt lat="46.0373029" lon="11.9715278"><ele>278.0</ele><time>2026-04-18T14:09:19.538Z</time></trkpt><trkpt lat="46.0373241" lon="11.9714389"><ele>277.83333333333337</ele><time>2026-04-18T14:09:21.538Z</time></trkpt><trkpt lat="46.0373485" lon="11.9713159"><ele>277.6666666666667</ele><time>2026-04-18T14:09:24.539Z</time></trkpt><trkpt lat="46.0373917" lon="11.971204"><ele>277.5</ele><time>2026-04-18T14:09:27.537Z</time></trkpt><trkpt lat="46.0374628" lon="11.9711496"><ele>277.3333333333333</ele><time>2026-04-18T14:09:29.536Z</time></trkpt><trkpt lat="46.0375492" lon="11.9711226"><ele>277.16666666666663</ele><time>2026-04-18T14:09:31.538Z</time></trkpt><trkpt lat="46.0376191" lon="11.9711029"><ele>277.0</ele><time>2026-04-18T14:09:33.538Z</time></trkpt><trkpt lat="46.0376047" lon="11.9710058"><ele>276.66666666666663</ele><time>2026-04-18T14:09:39.539Z</time></trkpt><trkpt lat="46.0375399" lon="11.9709743"><ele>276.3333333333333</ele><time>2026-04-18T14:09:42.54Z</time></trkpt><trkpt lat="46.037481" lon="11.9708862"><ele>276.0</ele><time>2026-04-18T14:09:46.537Z</time></trkpt><trkpt lat="46.0374401" lon="11.9707835"><ele>275.6666666666667</ele><time>2026-04-18T14:09:49.538Z</time></trkpt><trkpt lat="46.0374505" lon="11.9706605"><ele>275.33333333333337</ele><time>2026-04-18T14:09:52.537Z</time></trkpt><trkpt lat="46.0374993" lon="11.9705672"><ele>275.0</ele><time>2026-04-18T14:09:54.536Z</time></trkpt><trkpt lat="46.0375495" lon="11.9704659"><ele>275.0</ele><time>2026-04-18T14:09:56.538Z</time></trkpt><trkpt lat="46.0375785" lon="11.9703657"><ele>275.0</ele><time>2026-04-18T14:09:58.538Z</time></trkpt><trkpt lat="46.0376123" lon="11.9702826"><ele>275.0</ele><time>2026-04-18T14:10:00.537Z</time></trkpt><trkpt lat="46.0376539" lon="11.9702059"><ele>275.0</ele><time>2026-04-18T14:10:02.536Z</time></trkpt><trkpt lat="46.0376996" lon="11.9701338"><ele>275.0</ele><time>2026-04-18T14:10:04.538Z</time></trkpt><trkpt lat="46.0377471" lon="11.9700487"><ele>275.0</ele><time>2026-04-18T14:10:06.539Z</time></trkpt><trkpt lat="46.0377796" lon="11.9699586"><ele>275.0</ele><time>2026-04-18T14:10:08.537Z</time></trkpt><trkpt lat="46.0377951" lon="11.9698656"><ele>272.83333333333337</ele><time>2026-04-18T14:10:10.536Z</time></trkpt><trkpt lat="46.0377731" lon="11.9697671"><ele>270.6666666666667</ele><time>2026-04-18T14:10:12.539Z</time></trkpt><trkpt lat="46.0377235" lon="11.9696793"><ele>268.5</ele><time>2026-04-18T14:10:14.539Z</time></trkpt><trkpt lat="46.037682" lon="11.9695766"><ele>266.3333333333333</ele><time>2026-04-18T14:10:16.537Z</time></trkpt><trkpt lat="46.0376472" lon="11.9694768"><ele>264.16666666666663</ele><time>2026-04-18T14:10:18.536Z</time></trkpt><trkpt lat="46.0376275" lon="11.9693564"><ele>262.0</ele><time>2026-04-18T14:10:20.539Z</time></trkpt><trkpt lat="46.0376308" lon="11.9692166"><ele>261.3333333333333</ele><time>2026-04-18T14:10:22.538Z</time></trkpt><trkpt lat="46.0376515" lon="11.9691018"><ele>260.66666666666663</ele><time>2026-04-18T14:10:24.537Z</time></trkpt><trkpt lat="46.0376586" lon="11.9690019"><ele>260.0</ele><time>2026-04-18T14:10:26.537Z</time></trkpt><trkpt lat="46.0376606" lon="11.9688849"><ele>259.3333333333333</ele><time>2026-04-18T14:10:29.539Z</time></trkpt><trkpt lat="46.0376839" lon="11.9687791"><ele>258.6666666666667</ele><time>2026-04-18T14:10:33.537Z</time></trkpt><trkpt lat="46.0376725" lon="11.9686505"><ele>258.0</ele><time>2026-04-18T14:10:56.538Z</time></trkpt><trkpt lat="46.037673" lon="11.9685585"><ele>258.0</ele><time>2026-04-18T14:10:59.536Z</time></trkpt><trkpt lat="46.037675" lon="11.9684469"><ele>258.0</ele><time>2026-04-18T14:11:02.538Z</time></trkpt><trkpt lat="46.0376803" lon="11.9683219"><ele>258.0</ele><time>2026-04-18T14:11:05.537Z</time></trkpt><trkpt lat="46.0376857" lon="11.9681995"><ele>258.0</ele><time>2026-04-18T14:11:08.539Z</time></trkpt><trkpt lat="46.0376898" lon="11.968075"><ele>258.0</ele><time>2026-04-18T14:11:11.538Z</time></trkpt><trkpt lat="46.0376921" lon="11.9679472"><ele>258.0</ele><time>2026-04-18T14:11:14.537Z</time></trkpt><trkpt lat="46.0376904" lon="11.9678353"><ele>258.2857142857143</ele><time>2026-04-18T14:11:17.538Z</time></trkpt><trkpt lat="46.0376971" lon="11.9677249"><ele>258.57142857142856</ele><time>2026-04-18T14:11:20.54Z</time></trkpt><trkpt lat="46.0376859" lon="11.9676263"><ele>258.8571428571429</ele><time>2026-04-18T14:11:24.539Z</time></trkpt><trkpt lat="46.0376225" lon="11.9676238"><ele>259.1428571428571</ele><time>2026-04-18T14:11:27.537Z</time></trkpt><trkpt lat="46.0375545" lon="11.9676505"><ele>259.42857142857144</ele><time>2026-04-18T14:11:30.536Z</time></trkpt><trkpt lat="46.0374654" lon="11.9676913"><ele>259.7142857142857</ele><time>2026-04-18T14:11:33.539Z</time></trkpt><trkpt lat="46.0373969" lon="11.967707"><ele>260.0</ele><time>2026-04-18T14:11:35.537Z</time></trkpt><trkpt lat="46.0373275" lon="11.9677125"><ele>260.0</ele><time>2026-04-18T14:11:37.54Z</time></trkpt><trkpt lat="46.037234" lon="11.9676971"><ele>260.0</ele><time>2026-04-18T14:11:40.538Z</time></trkpt><trkpt lat="46.0371701" lon="11.9676616"><ele>260.0</ele><time>2026-04-18T14:11:42.535Z</time></trkpt><trkpt lat="46.0371146" lon="11.9675948"><ele>260.0</ele><time>2026-04-18T14:11:44.54Z</time></trkpt><trkpt lat="46.0370556" lon="11.9675246"><ele>260.0</ele><time>2026-04-18T14:11:46.538Z</time></trkpt><trkpt lat="46.0369996" lon="11.967456"><ele>260.0</ele><time>2026-04-18T14:11:49.537Z</time></trkpt><trkpt lat="46.0369416" lon="11.9673817"><ele>260.00000000000006</ele><time>2026-04-18T14:11:53.54Z</time></trkpt><trkpt lat="46.0368782" lon="11.967376"><ele>260.0</ele><time>2026-04-18T14:11:56.539Z</time></trkpt><trkpt lat="46.0368126" lon="11.9673821"><ele>260.0</ele><time>2026-04-18T14:12:00.537Z</time></trkpt><trkpt lat="46.0367628" lon="11.9674479"><ele>260.0</ele><time>2026-04-18T14:12:04.538Z</time></trkpt><trkpt lat="46.0366988" lon="11.9674818"><ele>260.0</ele><time>2026-04-18T14:12:07.54Z</time></trkpt><trkpt lat="46.0366371" lon="11.9675353"><ele>260.00000000000006</ele><time>2026-04-18T14:12:11.536Z</time></trkpt><trkpt lat="46.0365702" lon="11.9675884"><ele>260.0</ele><time>2026-04-18T14:12:16.54Z</time></trkpt><trkpt lat="46.0365063" lon="11.9676391"><ele>261.14285714285717</ele><time>2026-04-18T14:12:20.539Z</time></trkpt><trkpt lat="46.0364445" lon="11.9676759"><ele>262.2857142857143</ele><time>2026-04-18T14:12:23.539Z</time></trkpt><trkpt lat="46.0363699" lon="11.9677018"><ele>263.42857142857144</ele><time>2026-04-18T14:12:27.539Z</time></trkpt><trkpt lat="46.036298" lon="11.9677234"><ele>264.57142857142856</ele><time>2026-04-18T14:12:31.539Z</time></trkpt><trkpt lat="46.0362168" lon="11.9677277"><ele>265.7142857142857</ele><time>2026-04-18T14:12:35.538Z</time></trkpt><trkpt lat="46.0361498" lon="11.9677319"><ele>266.8571428571429</ele><time>2026-04-18T14:12:39.536Z</time></trkpt><trkpt lat="46.0360831" lon="11.9677633"><ele>268.0</ele><time>2026-04-18T14:12:43.539Z</time></trkpt><trkpt lat="46.0360079" lon="11.9677774"><ele>268.0</ele><time>2026-04-18T14:12:47.539Z</time></trkpt><trkpt lat="46.035943" lon="11.96778"><ele>268.0</ele><time>2026-04-18T14:12:51.538Z</time></trkpt><trkpt lat="46.0358717" lon="11.9677594"><ele>268.0</ele><time>2026-04-18T14:12:55.538Z</time></trkpt><trkpt lat="46.0357991" lon="11.9677334"><ele>268.0</ele><time>2026-04-18T14:13:00.54Z</time></trkpt><trkpt lat="46.0357368" lon="11.9676944"><ele>268.0</ele><time>2026-04-18T14:13:04.539Z</time></trkpt><trkpt lat="46.0356687" lon="11.9676486"><ele>268.0</ele><time>2026-04-18T14:13:08.539Z</time></trkpt><trkpt lat="46.0356528" lon="11.9675327"><ele>268.0</ele><time>2026-04-18T14:13:12.539Z</time></trkpt><trkpt lat="46.035683" lon="11.9674409"><ele>269.3333333333333</ele><time>2026-04-18T14:13:15.539Z</time></trkpt><trkpt lat="46.0357102" lon="11.9673461"><ele>270.66666666666663</ele><time>2026-04-18T14:13:18.537Z</time></trkpt><trkpt lat="46.0357221" lon="11.9672445"><ele>272.0</ele><time>2026-04-18T14:13:21.538Z</time></trkpt><trkpt lat="46.035732" lon="11.967141"><ele>273.3333333333333</ele><time>2026-04-18T14:13:24.536Z</time></trkpt><trkpt lat="46.0357428" lon="11.9670328"><ele>274.6666666666667</ele><time>2026-04-18T14:13:27.538Z</time></trkpt><trkpt lat="46.0357612" lon="11.9669172"><ele>276.0</ele><time>2026-04-18T14:13:30.536Z</time></trkpt><trkpt lat="46.0357924" lon="11.9668028"><ele>276.3333333333333</ele><time>2026-04-18T14:13:33.538Z</time></trkpt><trkpt lat="46.0358197" lon="11.9667206"><ele>276.6666666666667</ele><time>2026-04-18T14:13:35.538Z</time></trkpt><trkpt lat="46.035849" lon="11.9666377"><ele>277.0</ele><time>2026-04-18T14:13:37.537Z</time></trkpt><trkpt lat="46.0358953" lon="11.9665308"><ele>277.33333333333337</ele><time>2026-04-18T14:13:40.537Z</time></trkpt><trkpt lat="46.0359619" lon="11.9664531"><ele>277.6666666666667</ele><time>2026-04-18T14:13:43.537Z</time></trkpt><trkpt lat="46.0360505" lon="11.9664486"><ele>278.0</ele><time>2026-04-18T14:13:46.539Z</time></trkpt><trkpt lat="46.0361413" lon="11.9664906"><ele>278.83333333333337</ele><time>2026-04-18T14:13:49.539Z</time></trkpt><trkpt lat="46.0362095" lon="11.9665004"><ele>279.6666666666667</ele><time>2026-04-18T14:13:51.537Z</time></trkpt><trkpt lat="46.0362771" lon="11.9664765"><ele>280.5</ele><time>2026-04-18T14:13:53.538Z</time></trkpt><trkpt lat="46.0363536" lon="11.9664094"><ele>281.3333333333333</ele><time>2026-04-18T14:13:56.539Z</time></trkpt><trkpt lat="46.0364222" lon="11.9663188"><ele>282.16666666666663</ele><time>2026-04-18T14:13:59.538Z</time></trkpt><trkpt lat="46.0364778" lon="11.9662205"><ele>283.0</ele><time>2026-04-18T14:14:02.539Z</time></trkpt><trkpt lat="46.0365097" lon="11.9661138"><ele>283.0</ele><time>2026-04-18T14:14:05.538Z</time></trkpt><trkpt lat="46.0365393" lon="11.9659988"><ele>283.0</ele><time>2026-04-18T14:14:08.538Z</time></trkpt><trkpt lat="46.0365652" lon="11.965878"><ele>283.0</ele><time>2026-04-18T14:14:11.536Z</time></trkpt><trkpt lat="46.0365849" lon="11.9657625"><ele>283.0</ele><time>2026-04-18T14:14:14.538Z</time></trkpt><trkpt lat="46.0366006" lon="11.9656432"><ele>283.0</ele><time>2026-04-18T14:14:17.538Z</time></trkpt><trkpt lat="46.0366107" lon="11.9655132"><ele>283.0</ele><time>2026-04-18T14:14:20.538Z</time></trkpt><trkpt lat="46.0366347" lon="11.9653952"><ele>283.7142857142857</ele><time>2026-04-18T14:14:23.536Z</time></trkpt><trkpt lat="46.0366581" lon="11.9652726"><ele>284.42857142857144</ele><time>2026-04-18T14:14:26.538Z</time></trkpt><trkpt lat="46.0366745" lon="11.9651839"><ele>285.14285714285717</ele><time>2026-04-18T14:14:28.538Z</time></trkpt><trkpt lat="46.0367048" lon="11.9651033"><ele>285.8571428571429</ele><time>2026-04-18T14:14:30.538Z</time></trkpt><trkpt lat="46.0367402" lon="11.9650201"><ele>286.57142857142856</ele><time>2026-04-18T14:14:32.538Z</time></trkpt><trkpt lat="46.0367692" lon="11.9649308"><ele>287.28571428571433</ele><time>2026-04-18T14:14:34.536Z</time></trkpt><trkpt lat="46.0368097" lon="11.964817"><ele>288.0</ele><time>2026-04-18T14:14:37.539Z</time></trkpt><trkpt lat="46.036859" lon="11.9647126"><ele>288.8333333333333</ele><time>2026-04-18T14:14:40.539Z</time></trkpt><trkpt lat="46.036899" lon="11.9646021"><ele>289.6666666666667</ele><time>2026-04-18T14:14:43.536Z</time></trkpt><trkpt lat="46.0369336" lon="11.9645012"><ele>290.5</ele><time>2026-04-18T14:14:46.536Z</time></trkpt><trkpt lat="46.0369701" lon="11.9643993"><ele>291.33333333333337</ele><time>2026-04-18T14:14:49.538Z</time></trkpt><trkpt lat="46.0370191" lon="11.9642886"><ele>292.1666666666667</ele><time>2026-04-18T14:14:52.539Z</time></trkpt><trkpt lat="46.0370636" lon="11.9642175"><ele>293.0</ele><time>2026-04-18T14:14:54.536Z</time></trkpt><trkpt lat="46.0371191" lon="11.9641132"><ele>294.1666666666667</ele><time>2026-04-18T14:14:57.537Z</time></trkpt><trkpt lat="46.0371775" lon="11.9640098"><ele>295.33333333333337</ele><time>2026-04-18T14:15:00.539Z</time></trkpt><trkpt lat="46.0372365" lon="11.9639072"><ele>296.5</ele><time>2026-04-18T14:15:03.538Z</time></trkpt><trkpt lat="46.0372927" lon="11.9638059"><ele>297.6666666666667</ele><time>2026-04-18T14:15:06.537Z</time></trkpt><trkpt lat="46.0373387" lon="11.9637126"><ele>298.8333333333333</ele><time>2026-04-18T14:15:09.539Z</time></trkpt><trkpt lat="46.0373896" lon="11.963606"><ele>300.0</ele><time>2026-04-18T14:15:12.537Z</time></trkpt><trkpt lat="46.0374296" lon="11.963495"><ele>300.0</ele><time>2026-04-18T14:15:15.537Z</time></trkpt><trkpt lat="46.0374527" lon="11.9634106"><ele>300.0</ele><time>2026-04-18T14:15:17.537Z</time></trkpt><trkpt lat="46.0374686" lon="11.963273"><ele>300.0</ele><time>2026-04-18T14:15:20.537Z</time></trkpt><trkpt lat="46.0374794" lon="11.9631421"><ele>300.0</ele><time>2026-04-18T14:15:23.538Z</time></trkpt><trkpt lat="46.0374572" lon="11.9630092"><ele>300.0</ele><time>2026-04-18T14:15:26.538Z</time></trkpt><trkpt lat="46.0374201" lon="11.9628846"><ele>300.0</ele><time>2026-04-18T14:15:29.536Z</time></trkpt><trkpt lat="46.0373999" lon="11.9627958"><ele>300.57142857142856</ele><time>2026-04-18T14:15:31.538Z</time></trkpt><trkpt lat="46.0373694" lon="11.962668"><ele>301.1428571428571</ele><time>2026-04-18T14:15:34.538Z</time></trkpt><trkpt lat="46.0373497" lon="11.9625757"><ele>301.71428571428567</ele><time>2026-04-18T14:15:36.539Z</time></trkpt><trkpt lat="46.03733" lon="11.9624857"><ele>302.2857142857143</ele><time>2026-04-18T14:15:38.538Z</time></trkpt><trkpt lat="46.0373141" lon="11.9623925"><ele>302.8571428571429</ele><time>2026-04-18T14:15:40.536Z</time></trkpt><trkpt lat="46.0372978" lon="11.9622996"><ele>303.4285714285714</ele><time>2026-04-18T14:15:42.539Z</time></trkpt><trkpt lat="46.0372796" lon="11.9622043"><ele>304.0</ele><time>2026-04-18T14:15:44.537Z</time></trkpt><trkpt lat="46.0372657" lon="11.9621048"><ele>304.3333333333333</ele><time>2026-04-18T14:15:46.537Z</time></trkpt><trkpt lat="46.0372575" lon="11.9620084"><ele>304.66666666666663</ele><time>2026-04-18T14:15:48.536Z</time></trkpt><trkpt lat="46.0372475" lon="11.9619073"><ele>305.0</ele><time>2026-04-18T14:15:50.537Z</time></trkpt><trkpt lat="46.0372361" lon="11.9618042"><ele>305.3333333333333</ele><time>2026-04-18T14:15:52.538Z</time></trkpt><trkpt lat="46.0372171" lon="11.961694"><ele>305.6666666666667</ele><time>2026-04-18T14:15:54.538Z</time></trkpt><trkpt lat="46.0371959" lon="11.9615951"><ele>306.0</ele><time>2026-04-18T14:15:56.539Z</time></trkpt><trkpt lat="46.0371649" lon="11.9614651"><ele>306.1428571428571</ele><time>2026-04-18T14:15:59.538Z</time></trkpt><trkpt lat="46.0371461" lon="11.9613697"><ele>306.2857142857143</ele><time>2026-04-18T14:16:01.537Z</time></trkpt><trkpt lat="46.037123" lon="11.9612775"><ele>306.42857142857144</ele><time>2026-04-18T14:16:03.539Z</time></trkpt><trkpt lat="46.0370995" lon="11.9611871"><ele>306.57142857142856</ele><time>2026-04-18T14:16:05.538Z</time></trkpt><trkpt lat="46.0370719" lon="11.9610532"><ele>306.7142857142857</ele><time>2026-04-18T14:16:08.538Z</time></trkpt><trkpt lat="46.0370512" lon="11.9609483"><ele>306.85714285714283</ele><time>2026-04-18T14:16:10.536Z</time></trkpt><trkpt lat="46.0370303" lon="11.9608477"><ele>307.0</ele><time>2026-04-18T14:16:12.535Z</time></trkpt><trkpt lat="46.037013" lon="11.9607543"><ele>306.99999999999994</ele><time>2026-04-18T14:16:14.538Z</time></trkpt><trkpt lat="46.0369911" lon="11.9606583"><ele>307.0</ele><time>2026-04-18T14:16:16.537Z</time></trkpt><trkpt lat="46.0369687" lon="11.9605653"><ele>307.0</ele><time>2026-04-18T14:16:18.535Z</time></trkpt><trkpt lat="46.0369539" lon="11.9604683"><ele>307.0</ele><time>2026-04-18T14:16:20.538Z</time></trkpt><trkpt lat="46.0369448" lon="11.9603698"><ele>307.0</ele><time>2026-04-18T14:16:22.537Z</time></trkpt><trkpt lat="46.036932" lon="11.9602745"><ele>306.99999999999994</ele><time>2026-04-18T14:16:24.538Z</time></trkpt><trkpt lat="46.0369181" lon="11.9601857"><ele>307.0</ele><time>2026-04-18T14:16:26.539Z</time></trkpt><trkpt lat="46.0369055" lon="11.9600915"><ele>307.2857142857143</ele><time>2026-04-18T14:16:28.538Z</time></trkpt><trkpt lat="46.0368866" lon="11.9600001"><ele>307.57142857142856</ele><time>2026-04-18T14:16:30.537Z</time></trkpt><trkpt lat="46.0368632" lon="11.9599073"><ele>307.8571428571429</ele><time>2026-04-18T14:16:32.539Z</time></trkpt><trkpt lat="46.0368429" lon="11.959816"><ele>308.1428571428571</ele><time>2026-04-18T14:16:34.539Z</time></trkpt><trkpt lat="46.0368247" lon="11.9597206"><ele>308.42857142857144</ele><time>2026-04-18T14:16:36.539Z</time></trkpt><trkpt lat="46.0368066" lon="11.9596305"><ele>308.7142857142857</ele><time>2026-04-18T14:16:38.538Z</time></trkpt><trkpt lat="46.0367845" lon="11.9595411"><ele>309.0</ele><time>2026-04-18T14:16:40.538Z</time></trkpt><trkpt lat="46.0367658" lon="11.9594501"><ele>309.00000000000006</ele><time>2026-04-18T14:16:42.539Z</time></trkpt><trkpt lat="46.036749" lon="11.9593593"><ele>309.0</ele><time>2026-04-18T14:16:44.54Z</time></trkpt><trkpt lat="46.0367313" lon="11.9592712"><ele>309.0</ele><time>2026-04-18T14:16:46.538Z</time></trkpt><trkpt lat="46.0367157" lon="11.9591805"><ele>309.0</ele><time>2026-04-18T14:16:48.535Z</time></trkpt><trkpt lat="46.0366958" lon="11.9590501"><ele>309.0</ele><time>2026-04-18T14:16:51.538Z</time></trkpt><trkpt lat="46.0366824" lon="11.9589604"><ele>309.00000000000006</ele><time>2026-04-18T14:16:53.538Z</time></trkpt><trkpt lat="46.0366554" lon="11.95883"><ele>309.0</ele><time>2026-04-18T14:16:56.539Z</time></trkpt><trkpt lat="46.0366407" lon="11.9587355"><ele>309.00000000000006</ele><time>2026-04-18T14:16:58.536Z</time></trkpt><trkpt lat="46.0366238" lon="11.9586425"><ele>309.0</ele><time>2026-04-18T14:17:00.539Z</time></trkpt><trkpt lat="46.0365988" lon="11.9585558"><ele>309.0</ele><time>2026-04-18T14:17:02.538Z</time></trkpt><trkpt lat="46.036577" lon="11.9584625"><ele>309.0</ele><time>2026-04-18T14:17:04.537Z</time></trkpt><trkpt lat="46.0365581" lon="11.9583703"><ele>309.0</ele><time>2026-04-18T14:17:06.537Z</time></trkpt><trkpt lat="46.0365367" lon="11.9582792"><ele>309.00000000000006</ele><time>2026-04-18T14:17:08.539Z</time></trkpt><trkpt lat="46.0365132" lon="11.9581845"><ele>309.0</ele><time>2026-04-18T14:17:10.537Z</time></trkpt><trkpt lat="46.036494" lon="11.9580931"><ele>309.6666666666667</ele><time>2026-04-18T14:17:12.537Z</time></trkpt><trkpt lat="46.0364762" lon="11.9580039"><ele>310.3333333333333</ele><time>2026-04-18T14:17:14.539Z</time></trkpt><trkpt lat="46.0364528" lon="11.9579099"><ele>311.0</ele><time>2026-04-18T14:17:16.537Z</time></trkpt><trkpt lat="46.0364338" lon="11.9578124"><ele>311.66666666666663</ele><time>2026-04-18T14:17:18.537Z</time></trkpt><trkpt lat="46.036408" lon="11.9576903"><ele>312.3333333333333</ele><time>2026-04-18T14:17:21.537Z</time></trkpt><trkpt lat="46.0363767" lon="11.9575654"><ele>313.0</ele><time>2026-04-18T14:17:24.538Z</time></trkpt><trkpt lat="46.0363544" lon="11.9574695"><ele>313.57142857142856</ele><time>2026-04-18T14:17:26.538Z</time></trkpt><trkpt lat="46.0363355" lon="11.9573701"><ele>314.14285714285717</ele><time>2026-04-18T14:17:28.537Z</time></trkpt><trkpt lat="46.0363131" lon="11.957274"><ele>314.7142857142857</ele><time>2026-04-18T14:17:30.535Z</time></trkpt><trkpt lat="46.0362912" lon="11.9571816"><ele>315.2857142857143</ele><time>2026-04-18T14:17:32.539Z</time></trkpt><trkpt lat="46.0362655" lon="11.9570978"><ele>315.85714285714283</ele><time>2026-04-18T14:17:34.536Z</time></trkpt><trkpt lat="46.0362369" lon="11.9570118"><ele>316.42857142857144</ele><time>2026-04-18T14:17:36.537Z</time></trkpt><trkpt lat="46.0362111" lon="11.9569194"><ele>317.0</ele><time>2026-04-18T14:17:38.535Z</time></trkpt><trkpt lat="46.0361698" lon="11.9568316"><ele>317.0</ele><time>2026-04-18T14:17:40.535Z</time></trkpt><trkpt lat="46.0361506" lon="11.9567412"><ele>317.0</ele><time>2026-04-18T14:17:42.538Z</time></trkpt><trkpt lat="46.0361256" lon="11.9566409"><ele>317.0</ele><time>2026-04-18T14:17:44.539Z</time></trkpt><trkpt lat="46.0361001" lon="11.9565369"><ele>317.0</ele><time>2026-04-18T14:17:46.539Z</time></trkpt><trkpt lat="46.036068" lon="11.956427"><ele>317.0</ele><time>2026-04-18T14:17:48.537Z</time></trkpt><trkpt lat="46.0360319" lon="11.9563027"><ele>317.0</ele><time>2026-04-18T14:17:50.537Z</time></trkpt><trkpt lat="46.0359899" lon="11.9561645"><ele>318.0</ele><time>2026-04-18T14:17:52.537Z</time></trkpt><trkpt lat="46.0359551" lon="11.9560188"><ele>319.0</ele><time>2026-04-18T14:17:54.538Z</time></trkpt><trkpt lat="46.0359207" lon="11.95585"><ele>320.0</ele><time>2026-04-18T14:17:56.536Z</time></trkpt><trkpt lat="46.035887" lon="11.9556812"><ele>321.0</ele><time>2026-04-18T14:17:58.537Z</time></trkpt><trkpt lat="46.0358441" lon="11.955509"><ele>321.0</ele><time>2026-04-18T14:18:00.538Z</time></trkpt><trkpt lat="46.0358184" lon="11.9554209"><ele>321.0</ele><time>2026-04-18T14:18:01.538Z</time></trkpt><trkpt lat="46.0357908" lon="11.9553361"><ele>321.0</ele><time>2026-04-18T14:18:02.537Z</time></trkpt><trkpt lat="46.0357371" lon="11.9551789"><ele>321.0</ele><time>2026-04-18T14:18:04.537Z</time></trkpt><trkpt lat="46.0357028" lon="11.9550206"><ele>321.0</ele><time>2026-04-18T14:18:06.537Z</time></trkpt><trkpt lat="46.0356778" lon="11.9548488"><ele>319.2857142857143</ele><time>2026-04-18T14:18:08.539Z</time></trkpt><trkpt lat="46.0356611" lon="11.9547597"><ele>317.57142857142856</ele><time>2026-04-18T14:18:09.538Z</time></trkpt><trkpt lat="46.0356418" lon="11.954671"><ele>315.8571428571429</ele><time>2026-04-18T14:18:10.536Z</time></trkpt><trkpt lat="46.0356206" lon="11.9545829"><ele>314.1428571428571</ele><time>2026-04-18T14:18:11.537Z</time></trkpt><trkpt lat="46.0355976" lon="11.9544921"><ele>312.42857142857144</ele><time>2026-04-18T14:18:12.539Z</time></trkpt><trkpt lat="46.0355751" lon="11.9544018"><ele>310.7142857142857</ele><time>2026-04-18T14:18:13.537Z</time></trkpt><trkpt lat="46.0355551" lon="11.9543075"><ele>309.0</ele><time>2026-04-18T14:18:14.536Z</time></trkpt><trkpt lat="46.0355358" lon="11.9542164"><ele>308.8333333333333</ele><time>2026-04-18T14:18:15.536Z</time></trkpt><trkpt lat="46.0355161" lon="11.9541289"><ele>308.6666666666667</ele><time>2026-04-18T14:18:16.538Z</time></trkpt><trkpt lat="46.035445" lon="11.9539887"><ele>308.5</ele><time>2026-04-18T14:18:18.538Z</time></trkpt><trkpt lat="46.0353502" lon="11.9538721"><ele>308.33333333333337</ele><time>2026-04-18T14:18:20.54Z</time></trkpt><trkpt lat="46.0353039" lon="11.9538101"><ele>308.1666666666667</ele><time>2026-04-18T14:18:21.538Z</time></trkpt><trkpt lat="46.035261" lon="11.9537383"><ele>308.0</ele><time>2026-04-18T14:18:22.537Z</time></trkpt><trkpt lat="46.0352205" lon="11.9536571"><ele>308.0</ele><time>2026-04-18T14:18:23.537Z</time></trkpt><trkpt lat="46.0351901" lon="11.953573"><ele>308.0</ele><time>2026-04-18T14:18:24.536Z</time></trkpt><trkpt lat="46.0351492" lon="11.9534083"><ele>308.0</ele><time>2026-04-18T14:18:26.538Z</time></trkpt><trkpt lat="46.0351207" lon="11.9532514"><ele>308.0</ele><time>2026-04-18T14:18:28.539Z</time></trkpt><trkpt lat="46.0350976" lon="11.9531063"><ele>308.0</ele><time>2026-04-18T14:18:30.536Z</time></trkpt><trkpt lat="46.0350749" lon="11.952966"><ele>308.0</ele><time>2026-04-18T14:18:32.538Z</time></trkpt><trkpt lat="46.0350514" lon="11.95282"><ele>308.0</ele><time>2026-04-18T14:18:34.538Z</time></trkpt><trkpt lat="46.0350275" lon="11.9526828"><ele>308.0</ele><time>2026-04-18T14:18:36.536Z</time></trkpt><trkpt lat="46.0350015" lon="11.9525524"><ele>308.0</ele><time>2026-04-18T14:18:38.536Z</time></trkpt><trkpt lat="46.0349786" lon="11.9524208"><ele>308.0</ele><time>2026-04-18T14:18:40.539Z</time></trkpt><trkpt lat="46.0349552" lon="11.9522911"><ele>308.2</ele><time>2026-04-18T14:18:42.538Z</time></trkpt><trkpt lat="46.0349313" lon="11.9521636"><ele>308.4</ele><time>2026-04-18T14:18:44.536Z</time></trkpt><trkpt lat="46.0349077" lon="11.9520362"><ele>308.59999999999997</ele><time>2026-04-18T14:18:46.537Z</time></trkpt><trkpt lat="46.0348839" lon="11.9519104"><ele>308.8</ele><time>2026-04-18T14:18:48.538Z</time></trkpt><trkpt lat="46.0348581" lon="11.9517801"><ele>309.0</ele><time>2026-04-18T14:18:50.537Z</time></trkpt><trkpt lat="46.0348327" lon="11.9516493"><ele>309.0</ele><time>2026-04-18T14:18:52.538Z</time></trkpt><trkpt lat="46.0348073" lon="11.9515201"><ele>309.0</ele><time>2026-04-18T14:18:54.539Z</time></trkpt><trkpt lat="46.034781" lon="11.951395"><ele>309.0</ele><time>2026-04-18T14:18:56.538Z</time></trkpt><trkpt lat="46.0347604" lon="11.9512749"><ele>309.0</ele><time>2026-04-18T14:18:58.535Z</time></trkpt><trkpt lat="46.0347418" lon="11.9511493"><ele>309.0</ele><time>2026-04-18T14:19:00.537Z</time></trkpt><trkpt lat="46.0347149" lon="11.9510236"><ele>309.0</ele><time>2026-04-18T14:19:02.536Z</time></trkpt><trkpt lat="46.0346912" lon="11.9508903"><ele>309.0</ele><time>2026-04-18T14:19:04.539Z</time></trkpt><trkpt lat="46.0346656" lon="11.9507566"><ele>309.0</ele><time>2026-04-18T14:19:06.535Z</time></trkpt><trkpt lat="46.0346382" lon="11.9506265"><ele>309.0</ele><time>2026-04-18T14:19:08.539Z</time></trkpt><trkpt lat="46.0346201" lon="11.9504933"><ele>309.0</ele><time>2026-04-18T14:19:10.537Z</time></trkpt><trkpt lat="46.0346021" lon="11.9503672"><ele>309.0</ele><time>2026-04-18T14:19:12.535Z</time></trkpt><trkpt lat="46.0345821" lon="11.9502445"><ele>309.0</ele><time>2026-04-18T14:19:14.535Z</time></trkpt><trkpt lat="46.0345551" lon="11.9501273"><ele>309.0</ele><time>2026-04-18T14:19:16.536Z</time></trkpt><trkpt lat="46.0345211" lon="11.9499861"><ele>309.0</ele><time>2026-04-18T14:19:18.536Z</time></trkpt><trkpt lat="46.0344912" lon="11.9498554"><ele>309.0</ele><time>2026-04-18T14:19:20.536Z</time></trkpt><trkpt lat="46.0344594" lon="11.9497141"><ele>309.0</ele><time>2026-04-18T14:19:22.535Z</time></trkpt><trkpt lat="46.0344327" lon="11.9495699"><ele>309.0</ele><time>2026-04-18T14:19:24.534Z</time></trkpt><trkpt lat="46.0344023" lon="11.9494245"><ele>309.0</ele><time>2026-04-18T14:19:26.538Z</time></trkpt><trkpt lat="46.0343808" lon="11.9492856"><ele>309.0</ele><time>2026-04-18T14:19:28.537Z</time></trkpt><trkpt lat="46.0343472" lon="11.9491413"><ele>309.0</ele><time>2026-04-18T14:19:30.537Z</time></trkpt><trkpt lat="46.0343137" lon="11.9489945"><ele>308.8</ele><time>2026-04-18T14:19:32.538Z</time></trkpt><trkpt lat="46.0342814" lon="11.9488436"><ele>308.59999999999997</ele><time>2026-04-18T14:19:34.538Z</time></trkpt><trkpt lat="46.0342585" lon="11.9486933"><ele>308.4</ele><time>2026-04-18T14:19:36.538Z</time></trkpt><trkpt lat="46.0342324" lon="11.948541"><ele>308.2</ele><time>2026-04-18T14:19:38.535Z</time></trkpt><trkpt lat="46.0342031" lon="11.9483875"><ele>308.0</ele><time>2026-04-18T14:19:40.538Z</time></trkpt><trkpt lat="46.0341721" lon="11.948229"><ele>307.8</ele><time>2026-04-18T14:19:42.536Z</time></trkpt><trkpt lat="46.0341409" lon="11.9480726"><ele>307.6</ele><time>2026-04-18T14:19:44.537Z</time></trkpt><trkpt lat="46.0341189" lon="11.947911"><ele>307.4</ele><time>2026-04-18T14:19:46.537Z</time></trkpt><trkpt lat="46.0340829" lon="11.9477545"><ele>307.2</ele><time>2026-04-18T14:19:48.538Z</time></trkpt><trkpt lat="46.033998" lon="11.9476644"><ele>307.0</ele><time>2026-04-18T14:19:50.537Z</time></trkpt><trkpt lat="46.0338933" lon="11.947673"><ele>307.8</ele><time>2026-04-18T14:19:52.538Z</time></trkpt><trkpt lat="46.0337877" lon="11.9476958"><ele>308.6</ele><time>2026-04-18T14:19:54.536Z</time></trkpt><trkpt lat="46.0336854" lon="11.9477259"><ele>309.40000000000003</ele><time>2026-04-18T14:19:56.537Z</time></trkpt><trkpt lat="46.0335904" lon="11.9477515"><ele>310.2</ele><time>2026-04-18T14:19:58.536Z</time></trkpt><trkpt lat="46.0334981" lon="11.9477944"><ele>311.0</ele><time>2026-04-18T14:20:00.536Z</time></trkpt><trkpt lat="46.033417" lon="11.947832"><ele>311.0</ele><time>2026-04-18T14:20:02.538Z</time></trkpt><trkpt lat="46.033344" lon="11.9478692"><ele>311.0</ele><time>2026-04-18T14:20:04.537Z</time></trkpt><trkpt lat="46.0332659" lon="11.947909"><ele>311.0</ele><time>2026-04-18T14:20:06.537Z</time></trkpt><trkpt lat="46.0331887" lon="11.9479393"><ele>311.0</ele><time>2026-04-18T14:20:08.535Z</time></trkpt><trkpt lat="46.0331137" lon="11.9479702"><ele>311.0</ele><time>2026-04-18T14:20:10.535Z</time></trkpt><trkpt lat="46.0330412" lon="11.9479952"><ele>311.0</ele><time>2026-04-18T14:20:12.535Z</time></trkpt><trkpt lat="46.0329737" lon="11.9479862"><ele>310.33333333333337</ele><time>2026-04-18T14:20:14.534Z</time></trkpt><trkpt lat="46.0328708" lon="11.9478582"><ele>309.6666666666667</ele><time>2026-04-18T14:20:18.534Z</time></trkpt><trkpt lat="46.0328289" lon="11.9477852"><ele>309.0</ele><time>2026-04-18T14:20:20.534Z</time></trkpt><trkpt lat="46.0328074" lon="11.9476889"><ele>308.3333333333333</ele><time>2026-04-18T14:20:22.534Z</time></trkpt><trkpt lat="46.0327939" lon="11.9475757"><ele>307.66666666666663</ele><time>2026-04-18T14:20:24.535Z</time></trkpt><trkpt lat="46.0327857" lon="11.9474848"><ele>307.0</ele><time>2026-04-18T14:20:27.534Z</time></trkpt><trkpt lat="46.0327683" lon="11.9473831"><ele>306.5</ele><time>2026-04-18T14:20:41.534Z</time></trkpt><trkpt lat="46.0327438" lon="11.9472703"><ele>306.0</ele><time>2026-04-18T14:20:44.534Z</time></trkpt><trkpt lat="46.0327348" lon="11.9471564"><ele>305.5</ele><time>2026-04-18T14:20:46.536Z</time></trkpt><trkpt lat="46.0327398" lon="11.9470306"><ele>305.0</ele><time>2026-04-18T14:20:48.534Z</time></trkpt><trkpt lat="46.0327472" lon="11.9468916"><ele>304.5</ele><time>2026-04-18T14:20:50.535Z</time></trkpt><trkpt lat="46.0327618" lon="11.9467505"><ele>304.0</ele><time>2026-04-18T14:20:52.533Z</time></trkpt><trkpt lat="46.0327775" lon="11.9466085"><ele>303.8</ele><time>2026-04-18T14:20:54.534Z</time></trkpt><trkpt lat="46.0328111" lon="11.9464566"><ele>303.59999999999997</ele><time>2026-04-18T14:20:56.534Z</time></trkpt><trkpt lat="46.0328596" lon="11.946315"><ele>303.4</ele><time>2026-04-18T14:20:58.535Z</time></trkpt><trkpt lat="46.0329101" lon="11.9461812"><ele>303.2</ele><time>2026-04-18T14:21:00.537Z</time></trkpt><trkpt lat="46.0329513" lon="11.9460463"><ele>303.0</ele><time>2026-04-18T14:21:02.534Z</time></trkpt><trkpt lat="46.0329872" lon="11.9459097"><ele>303.2</ele><time>2026-04-18T14:21:04.534Z</time></trkpt><trkpt lat="46.0330112" lon="11.9457717"><ele>303.4</ele><time>2026-04-18T14:21:06.534Z</time></trkpt><trkpt lat="46.033036" lon="11.9456382"><ele>303.59999999999997</ele><time>2026-04-18T14:21:08.535Z</time></trkpt><trkpt lat="46.0330432" lon="11.945509"><ele>303.8</ele><time>2026-04-18T14:21:10.534Z</time></trkpt><trkpt lat="46.033049" lon="11.945388"><ele>304.0</ele><time>2026-04-18T14:21:12.534Z</time></trkpt><trkpt lat="46.0330637" lon="11.9452649"><ele>304.0</ele><time>2026-04-18T14:21:14.534Z</time></trkpt><trkpt lat="46.0331079" lon="11.9451388"><ele>304.0</ele><time>2026-04-18T14:21:16.533Z</time></trkpt><trkpt lat="46.0331736" lon="11.9450251"><ele>304.0</ele><time>2026-04-18T14:21:18.535Z</time></trkpt><trkpt lat="46.0332474" lon="11.9449214"><ele>304.0</ele><time>2026-04-18T14:21:20.536Z</time></trkpt><trkpt lat="46.0333148" lon="11.9448217"><ele>304.0</ele><time>2026-04-18T14:21:22.534Z</time></trkpt><trkpt lat="46.0333693" lon="11.944692"><ele>303.8</ele><time>2026-04-18T14:21:24.534Z</time></trkpt><trkpt lat="46.0334156" lon="11.9445579"><ele>303.59999999999997</ele><time>2026-04-18T14:21:26.534Z</time></trkpt><trkpt lat="46.0334492" lon="11.9444188"><ele>303.4</ele><time>2026-04-18T14:21:28.534Z</time></trkpt><trkpt lat="46.0334762" lon="11.944292"><ele>303.2</ele><time>2026-04-18T14:21:30.534Z</time></trkpt><trkpt lat="46.0334917" lon="11.9441677"><ele>303.0</ele><time>2026-04-18T14:21:32.534Z</time></trkpt><trkpt lat="46.0335098" lon="11.9440595"><ele>303.0</ele><time>2026-04-18T14:21:34.534Z</time></trkpt><trkpt lat="46.0335291" lon="11.9439473"><ele>303.0</ele><time>2026-04-18T14:21:37.535Z</time></trkpt><trkpt lat="46.0335436" lon="11.9438544"><ele>303.0</ele><time>2026-04-18T14:22:30.534Z</time></trkpt><trkpt lat="46.0335598" lon="11.9437384"><ele>303.0</ele><time>2026-04-18T14:22:33.533Z</time></trkpt><trkpt lat="46.0335681" lon="11.9436049"><ele>303.0</ele><time>2026-04-18T14:22:36.534Z</time></trkpt><trkpt lat="46.0335728" lon="11.9435088"><ele>303.0</ele><time>2026-04-18T14:22:38.535Z</time></trkpt><trkpt lat="46.03358" lon="11.943415"><ele>302.8571428571429</ele><time>2026-04-18T14:22:40.536Z</time></trkpt><trkpt lat="46.0335896" lon="11.9433164"><ele>302.7142857142857</ele><time>2026-04-18T14:22:42.536Z</time></trkpt><trkpt lat="46.0336042" lon="11.9432169"><ele>302.57142857142856</ele><time>2026-04-18T14:22:44.535Z</time></trkpt><trkpt lat="46.033615" lon="11.9431149"><ele>302.42857142857144</ele><time>2026-04-18T14:22:46.534Z</time></trkpt><trkpt lat="46.0336318" lon="11.9430222"><ele>302.2857142857143</ele><time>2026-04-18T14:22:48.536Z</time></trkpt><trkpt lat="46.0336518" lon="11.9429258"><ele>302.14285714285717</ele><time>2026-04-18T14:22:50.536Z</time></trkpt><trkpt lat="46.0336737" lon="11.9428257"><ele>302.0</ele><time>2026-04-18T14:22:52.536Z</time></trkpt><trkpt lat="46.0336961" lon="11.9427276"><ele>302.00000000000006</ele><time>2026-04-18T14:22:54.536Z</time></trkpt><trkpt lat="46.0337198" lon="11.9426279"><ele>302.0</ele><time>2026-04-18T14:22:56.535Z</time></trkpt><trkpt lat="46.0337457" lon="11.9425281"><ele>302.0</ele><time>2026-04-18T14:22:58.537Z</time></trkpt><trkpt lat="46.0337764" lon="11.9424303"><ele>302.0</ele><time>2026-04-18T14:23:00.535Z</time></trkpt><trkpt lat="46.0338074" lon="11.9423298"><ele>302.0</ele><time>2026-04-18T14:23:02.534Z</time></trkpt><trkpt lat="46.0338397" lon="11.9422347"><ele>302.00000000000006</ele><time>2026-04-18T14:23:04.536Z</time></trkpt><trkpt lat="46.0338696" lon="11.9421397"><ele>302.0</ele><time>2026-04-18T14:23:06.536Z</time></trkpt><trkpt lat="46.0338938" lon="11.9420469"><ele>302.14285714285717</ele><time>2026-04-18T14:23:08.534Z</time></trkpt><trkpt lat="46.0339136" lon="11.9419537"><ele>302.2857142857143</ele><time>2026-04-18T14:23:10.536Z</time></trkpt><trkpt lat="46.0339301" lon="11.9418648"><ele>302.42857142857144</ele><time>2026-04-18T14:23:12.538Z</time></trkpt><trkpt lat="46.033946" lon="11.9417751"><ele>302.57142857142856</ele><time>2026-04-18T14:23:14.537Z</time></trkpt><trkpt lat="46.0339625" lon="11.9416718"><ele>302.7142857142857</ele><time>2026-04-18T14:23:16.537Z</time></trkpt><trkpt lat="46.033995" lon="11.9415613"><ele>302.8571428571429</ele><time>2026-04-18T14:23:18.536Z</time></trkpt><trkpt lat="46.0340627" lon="11.9414798"><ele>303.0</ele><time>2026-04-18T14:23:20.538Z</time></trkpt><trkpt lat="46.0341334" lon="11.9414112"><ele>303.6666666666667</ele><time>2026-04-18T14:23:22.535Z</time></trkpt><trkpt lat="46.0342006" lon="11.9413374"><ele>304.3333333333333</ele><time>2026-04-18T14:23:24.534Z</time></trkpt><trkpt lat="46.034265" lon="11.941267"><ele>305.0</ele><time>2026-04-18T14:23:26.537Z</time></trkpt><trkpt lat="46.0343248" lon="11.941194"><ele>305.66666666666663</ele><time>2026-04-18T14:23:28.537Z</time></trkpt><trkpt lat="46.0343857" lon="11.9411221"><ele>306.3333333333333</ele><time>2026-04-18T14:23:30.536Z</time></trkpt><trkpt lat="46.0344441" lon="11.9410493"><ele>307.0</ele><time>2026-04-18T14:23:32.537Z</time></trkpt><trkpt lat="46.0345002" lon="11.9409835"><ele>307.0</ele><time>2026-04-18T14:23:34.536Z</time></trkpt><trkpt lat="46.0345591" lon="11.940911"><ele>307.0</ele><time>2026-04-18T14:23:36.535Z</time></trkpt><trkpt lat="46.0346134" lon="11.9408317"><ele>307.0</ele><time>2026-04-18T14:23:38.537Z</time></trkpt><trkpt lat="46.0346619" lon="11.9407464"><ele>307.0</ele><time>2026-04-18T14:23:40.538Z</time></trkpt><trkpt lat="46.0347128" lon="11.9406598"><ele>307.0</ele><time>2026-04-18T14:23:42.537Z</time></trkpt><trkpt lat="46.0347667" lon="11.940559"><ele>307.0</ele><time>2026-04-18T14:23:44.538Z</time></trkpt><trkpt lat="46.0348227" lon="11.9404544"><ele>306.66666666666663</ele><time>2026-04-18T14:23:46.537Z</time></trkpt><trkpt lat="46.0348738" lon="11.9403524"><ele>306.3333333333333</ele><time>2026-04-18T14:23:48.537Z</time></trkpt><trkpt lat="46.0349182" lon="11.9402461"><ele>306.0</ele><time>2026-04-18T14:23:50.537Z</time></trkpt><trkpt lat="46.0349607" lon="11.9401394"><ele>305.6666666666667</ele><time>2026-04-18T14:23:52.537Z</time></trkpt><trkpt lat="46.035001" lon="11.9400376"><ele>305.33333333333337</ele><time>2026-04-18T14:23:54.537Z</time></trkpt><trkpt lat="46.0350372" lon="11.939939"><ele>305.0</ele><time>2026-04-18T14:23:56.54Z</time></trkpt><trkpt lat="46.0350705" lon="11.9398473"><ele>305.83333333333337</ele><time>2026-04-18T14:23:58.536Z</time></trkpt><trkpt lat="46.0351004" lon="11.9397641"><ele>306.6666666666667</ele><time>2026-04-18T14:24:00.538Z</time></trkpt><trkpt lat="46.0351331" lon="11.939678"><ele>307.5</ele><time>2026-04-18T14:24:02.537Z</time></trkpt><trkpt lat="46.0351586" lon="11.9395924"><ele>308.3333333333333</ele><time>2026-04-18T14:24:04.538Z</time></trkpt><trkpt lat="46.035196" lon="11.9394687"><ele>309.16666666666663</ele><time>2026-04-18T14:24:07.537Z</time></trkpt><trkpt lat="46.03523" lon="11.9393433"><ele>310.0</ele><time>2026-04-18T14:24:10.536Z</time></trkpt><trkpt lat="46.0352586" lon="11.9392284"><ele>310.5</ele><time>2026-04-18T14:24:13.537Z</time></trkpt><trkpt lat="46.0353035" lon="11.9391285"><ele>311.0</ele><time>2026-04-18T14:24:16.536Z</time></trkpt><trkpt lat="46.0353463" lon="11.9390411"><ele>311.5</ele><time>2026-04-18T14:24:19.536Z</time></trkpt><trkpt lat="46.0353351" lon="11.9389313"><ele>312.0</ele><time>2026-04-18T14:24:22.536Z</time></trkpt><trkpt lat="46.0352789" lon="11.9388248"><ele>312.5</ele><time>2026-04-18T14:24:25.538Z</time></trkpt><trkpt lat="46.0352297" lon="11.9387518"><ele>313.0</ele><time>2026-04-18T14:24:27.537Z</time></trkpt><trkpt lat="46.035175" lon="11.9386641"><ele>313.0</ele><time>2026-04-18T14:24:30.537Z</time></trkpt><trkpt lat="46.0351279" lon="11.9385692"><ele>313.0</ele><time>2026-04-18T14:24:33.537Z</time></trkpt><trkpt lat="46.0350719" lon="11.9384768"><ele>313.0</ele><time>2026-04-18T14:24:36.536Z</time></trkpt><trkpt lat="46.0350158" lon="11.9383653"><ele>313.0</ele><time>2026-04-18T14:24:39.536Z</time></trkpt><trkpt lat="46.034977" lon="11.9382838"><ele>313.0</ele><time>2026-04-18T14:24:41.536Z</time></trkpt><trkpt lat="46.0349413" lon="11.9382"><ele>313.0</ele><time>2026-04-18T14:24:43.537Z</time></trkpt><trkpt lat="46.0349155" lon="11.9381087"><ele>311.8333333333333</ele><time>2026-04-18T14:24:45.537Z</time></trkpt><trkpt lat="46.0348942" lon="11.9380101"><ele>310.66666666666663</ele><time>2026-04-18T14:24:47.537Z</time></trkpt><trkpt lat="46.0348758" lon="11.9379103"><ele>309.5</ele><time>2026-04-18T14:24:49.538Z</time></trkpt><trkpt lat="46.0348569" lon="11.9378084"><ele>308.3333333333333</ele><time>2026-04-18T14:24:51.537Z</time></trkpt><trkpt lat="46.0348401" lon="11.9377025"><ele>307.1666666666667</ele><time>2026-04-18T14:24:53.537Z</time></trkpt><trkpt lat="46.0348231" lon="11.9375814"><ele>306.0</ele><time>2026-04-18T14:24:55.539Z</time></trkpt><trkpt lat="46.0348077" lon="11.9374525"><ele>306.0</ele><time>2026-04-18T14:24:57.538Z</time></trkpt><trkpt lat="46.0347853" lon="11.937319"><ele>306.0</ele><time>2026-04-18T14:24:59.537Z</time></trkpt><trkpt lat="46.0347617" lon="11.9371653"><ele>306.0</ele><time>2026-04-18T14:25:01.537Z</time></trkpt><trkpt lat="46.0347399" lon="11.9369925"><ele>306.0</ele><time>2026-04-18T14:25:03.537Z</time></trkpt><trkpt lat="46.0347117" lon="11.9368242"><ele>306.0</ele><time>2026-04-18T14:25:05.536Z</time></trkpt><trkpt lat="46.0346721" lon="11.9366513"><ele>305.85714285714283</ele><time>2026-04-18T14:25:07.538Z</time></trkpt><trkpt lat="46.0346502" lon="11.9365635"><ele>305.7142857142857</ele><time>2026-04-18T14:25:08.536Z</time></trkpt><trkpt lat="46.0346268" lon="11.9364775"><ele>305.57142857142856</ele><time>2026-04-18T14:25:09.536Z</time></trkpt><trkpt lat="46.0346002" lon="11.9363902"><ele>305.42857142857144</ele><time>2026-04-18T14:25:10.535Z</time></trkpt><trkpt lat="46.0345714" lon="11.9362994"><ele>305.2857142857143</ele><time>2026-04-18T14:25:11.536Z</time></trkpt><trkpt lat="46.0345435" lon="11.9362106"><ele>305.14285714285717</ele><time>2026-04-18T14:25:12.536Z</time></trkpt><trkpt lat="46.0345134" lon="11.9361205"><ele>305.0</ele><time>2026-04-18T14:25:13.539Z</time></trkpt><trkpt lat="46.0344812" lon="11.9360295"><ele>305.0</ele><time>2026-04-18T14:25:14.537Z</time></trkpt><trkpt lat="46.034444" lon="11.9359358"><ele>305.0</ele><time>2026-04-18T14:25:15.536Z</time></trkpt><trkpt lat="46.0344069" lon="11.9358424"><ele>305.0</ele><time>2026-04-18T14:25:16.536Z</time></trkpt><trkpt lat="46.0343703" lon="11.9357455"><ele>305.0</ele><time>2026-04-18T14:25:17.536Z</time></trkpt><trkpt lat="46.0343339" lon="11.9356506"><ele>305.0</ele><time>2026-04-18T14:25:18.536Z</time></trkpt><trkpt lat="46.0342987" lon="11.935554"><ele>305.0</ele><time>2026-04-18T14:25:19.536Z</time></trkpt><trkpt lat="46.0342669" lon="11.935457"><ele>305.1666666666667</ele><time>2026-04-18T14:25:20.539Z</time></trkpt><trkpt lat="46.0342377" lon="11.9353615"><ele>305.33333333333337</ele><time>2026-04-18T14:25:21.538Z</time></trkpt><trkpt lat="46.0342113" lon="11.9352692"><ele>305.5</ele><time>2026-04-18T14:25:22.536Z</time></trkpt><trkpt lat="46.0341866" lon="11.9351814"><ele>305.6666666666667</ele><time>2026-04-18T14:25:23.539Z</time></trkpt><trkpt lat="46.034164" lon="11.935096"><ele>305.8333333333333</ele><time>2026-04-18T14:25:24.537Z</time></trkpt><trkpt lat="46.0341362" lon="11.9349388"><ele>306.0</ele><time>2026-04-18T14:25:26.537Z</time></trkpt><trkpt lat="46.0341208" lon="11.9347978"><ele>305.1428571428571</ele><time>2026-04-18T14:25:28.538Z</time></trkpt><trkpt lat="46.0341177" lon="11.9346833"><ele>304.2857142857143</ele><time>2026-04-18T14:25:30.537Z</time></trkpt><trkpt lat="46.034129" lon="11.9345893"><ele>303.42857142857144</ele><time>2026-04-18T14:25:32.539Z</time></trkpt><trkpt lat="46.0341253" lon="11.9344927"><ele>302.57142857142856</ele><time>2026-04-18T14:25:34.537Z</time></trkpt><trkpt lat="46.0341143" lon="11.9344008"><ele>301.7142857142857</ele><time>2026-04-18T14:25:36.538Z</time></trkpt><trkpt lat="46.0340952" lon="11.9343062"><ele>300.85714285714283</ele><time>2026-04-18T14:25:38.535Z</time></trkpt><trkpt lat="46.0340595" lon="11.9342086"><ele>300.0</ele><time>2026-04-18T14:25:40.538Z</time></trkpt><trkpt lat="46.0340239" lon="11.9341063"><ele>300.0</ele><time>2026-04-18T14:25:42.536Z</time></trkpt><trkpt lat="46.0339826" lon="11.934002"><ele>300.0</ele><time>2026-04-18T14:25:44.537Z</time></trkpt><trkpt lat="46.0339393" lon="11.9339009"><ele>300.0</ele><time>2026-04-18T14:25:46.537Z</time></trkpt><trkpt lat="46.033903" lon="11.9337951"><ele>300.0</ele><time>2026-04-18T14:25:48.536Z</time></trkpt><trkpt lat="46.0338613" lon="11.9336974"><ele>300.0</ele><time>2026-04-18T14:25:50.537Z</time></trkpt><trkpt lat="46.0338341" lon="11.9336009"><ele>300.0</ele><time>2026-04-18T14:25:52.538Z</time></trkpt><trkpt lat="46.0338166" lon="11.9335037"><ele>300.3333333333333</ele><time>2026-04-18T14:25:54.537Z</time></trkpt><trkpt lat="46.0337984" lon="11.9333721"><ele>300.6666666666667</ele><time>2026-04-18T14:25:57.535Z</time></trkpt><trkpt lat="46.0337859" lon="11.9332468"><ele>301.0</ele><time>2026-04-18T14:26:00.536Z</time></trkpt><trkpt lat="46.0337606" lon="11.9331581"><ele>301.33333333333337</ele><time>2026-04-18T14:26:02.538Z</time></trkpt><trkpt lat="46.0337163" lon="11.9330488"><ele>301.6666666666667</ele><time>2026-04-18T14:26:05.537Z</time></trkpt><trkpt lat="46.0336804" lon="11.9329681"><ele>302.0</ele><time>2026-04-18T14:26:07.536Z</time></trkpt><trkpt lat="46.0336279" lon="11.9328686"><ele>302.0</ele><time>2026-04-18T14:26:09.538Z</time></trkpt><trkpt lat="46.0335496" lon="11.9327483"><ele>302.0</ele><time>2026-04-18T14:26:11.537Z</time></trkpt><trkpt lat="46.0335053" lon="11.932675"><ele>302.0</ele><time>2026-04-18T14:26:12.538Z</time></trkpt><trkpt lat="46.0334609" lon="11.9325953"><ele>302.0</ele><time>2026-04-18T14:26:13.537Z</time></trkpt><trkpt lat="46.0334232" lon="11.9325186"><ele>302.0</ele><time>2026-04-18T14:26:14.537Z</time></trkpt><trkpt lat="46.033384" lon="11.9324433"><ele>302.0</ele><time>2026-04-18T14:26:15.536Z</time></trkpt><trkpt lat="46.0333495" lon="11.9323619"><ele>300.5</ele><time>2026-04-18T14:26:16.537Z</time></trkpt><trkpt lat="46.0332939" lon="11.9322059"><ele>299.0</ele><time>2026-04-18T14:26:18.538Z</time></trkpt><trkpt lat="46.0332473" lon="11.9320474"><ele>297.5</ele><time>2026-04-18T14:26:20.536Z</time></trkpt><trkpt lat="46.0331915" lon="11.9319023"><ele>296.0</ele><time>2026-04-18T14:26:22.536Z</time></trkpt><trkpt lat="46.0331207" lon="11.9317623"><ele>296.0</ele><time>2026-04-18T14:26:24.538Z</time></trkpt><trkpt lat="46.0330705" lon="11.9316203"><ele>296.0</ele><time>2026-04-18T14:26:26.537Z</time></trkpt><trkpt lat="46.0330266" lon="11.9314609"><ele>296.0</ele><time>2026-04-18T14:26:28.536Z</time></trkpt><trkpt lat="46.0330028" lon="11.931315"><ele>296.0</ele><time>2026-04-18T14:26:30.537Z</time></trkpt><trkpt lat="46.0329792" lon="11.9311617"><ele>296.0</ele><time>2026-04-18T14:26:32.537Z</time></trkpt><trkpt lat="46.0329334" lon="11.9309955"><ele>296.6</ele><time>2026-04-18T14:26:34.537Z</time></trkpt><trkpt lat="46.0328862" lon="11.9308338"><ele>297.20000000000005</ele><time>2026-04-18T14:26:36.538Z</time></trkpt><trkpt lat="46.0328463" lon="11.9306772"><ele>297.79999999999995</ele><time>2026-04-18T14:26:38.537Z</time></trkpt><trkpt lat="46.0327978" lon="11.9305068"><ele>298.4</ele><time>2026-04-18T14:26:40.537Z</time></trkpt><trkpt lat="46.0327729" lon="11.9304222"><ele>299.0</ele><time>2026-04-18T14:26:41.535Z</time></trkpt><trkpt lat="46.0327265" lon="11.9302645"><ele>299.0</ele><time>2026-04-18T14:26:43.536Z</time></trkpt><trkpt lat="46.0326761" lon="11.9301144"><ele>299.0</ele><time>2026-04-18T14:26:45.537Z</time></trkpt><trkpt lat="46.0326276" lon="11.929958"><ele>299.0</ele><time>2026-04-18T14:26:47.537Z</time></trkpt><trkpt lat="46.0325699" lon="11.9298171"><ele>299.0</ele><time>2026-04-18T14:26:49.536Z</time></trkpt><trkpt lat="46.0324932" lon="11.9296916"><ele>296.75</ele><time>2026-04-18T14:26:51.536Z</time></trkpt><trkpt lat="46.032418" lon="11.9295536"><ele>294.5</ele><time>2026-04-18T14:26:53.537Z</time></trkpt><trkpt lat="46.0323598" lon="11.9293948"><ele>292.25</ele><time>2026-04-18T14:26:55.537Z</time></trkpt><trkpt lat="46.0323184" lon="11.9292209"><ele>290.0</ele><time>2026-04-18T14:26:57.537Z</time></trkpt><trkpt lat="46.0322787" lon="11.9290616"><ele>290.0</ele><time>2026-04-18T14:26:59.536Z</time></trkpt><trkpt lat="46.0322249" lon="11.9289177"><ele>290.0</ele><time>2026-04-18T14:27:01.537Z</time></trkpt><trkpt lat="46.0321652" lon="11.9287809"><ele>290.0</ele><time>2026-04-18T14:27:03.538Z</time></trkpt><trkpt lat="46.0321183" lon="11.9286288"><ele>290.0</ele><time>2026-04-18T14:27:05.537Z</time></trkpt><trkpt lat="46.0320746" lon="11.9284677"><ele>289.75</ele><time>2026-04-18T14:27:07.538Z</time></trkpt><trkpt lat="46.0320244" lon="11.9283063"><ele>289.5</ele><time>2026-04-18T14:27:09.537Z</time></trkpt><trkpt lat="46.0319757" lon="11.9281469"><ele>289.25</ele><time>2026-04-18T14:27:11.537Z</time></trkpt><trkpt lat="46.0319388" lon="11.9279926"><ele>289.0</ele><time>2026-04-18T14:27:13.538Z</time></trkpt><trkpt lat="46.0318932" lon="11.9278465"><ele>289.0</ele><time>2026-04-18T14:27:15.537Z</time></trkpt><trkpt lat="46.0318408" lon="11.9276986"><ele>289.0</ele><time>2026-04-18T14:27:17.538Z</time></trkpt><trkpt lat="46.0317893" lon="11.9275567"><ele>289.0</ele><time>2026-04-18T14:27:19.539Z</time></trkpt><trkpt lat="46.0317271" lon="11.9274284"><ele>289.0</ele><time>2026-04-18T14:27:21.539Z</time></trkpt><trkpt lat="46.031668" lon="11.9273005"><ele>289.0</ele><time>2026-04-18T14:27:23.536Z</time></trkpt><trkpt lat="46.0316156" lon="11.9271733"><ele>288.3333333333333</ele><time>2026-04-18T14:27:25.538Z</time></trkpt><trkpt lat="46.0315793" lon="11.9270441"><ele>287.66666666666663</ele><time>2026-04-18T14:27:27.54Z</time></trkpt><trkpt lat="46.0315478" lon="11.9269262"><ele>287.0</ele><time>2026-04-18T14:27:29.538Z</time></trkpt><trkpt lat="46.0315229" lon="11.9268159"><ele>286.3333333333333</ele><time>2026-04-18T14:27:31.543Z</time></trkpt><trkpt lat="46.0314867" lon="11.9266912"><ele>285.6666666666667</ele><time>2026-04-18T14:27:33.537Z</time></trkpt><trkpt lat="46.0314697" lon="11.9265747"><ele>285.0</ele><time>2026-04-18T14:27:35.537Z</time></trkpt><trkpt lat="46.0314512" lon="11.926464"><ele>285.0</ele><time>2026-04-18T14:27:37.536Z</time></trkpt><trkpt lat="46.0314153" lon="11.9263349"><ele>285.0</ele><time>2026-04-18T14:27:39.537Z</time></trkpt><trkpt lat="46.031392" lon="11.9262214"><ele>285.0</ele><time>2026-04-18T14:27:41.536Z</time></trkpt><trkpt lat="46.0313705" lon="11.9261203"><ele>285.0</ele><time>2026-04-18T14:27:43.537Z</time></trkpt><trkpt lat="46.0313408" lon="11.9260199"><ele>285.0</ele><time>2026-04-18T14:27:45.536Z</time></trkpt><trkpt lat="46.031311" lon="11.9259033"><ele>285.0</ele><time>2026-04-18T14:27:47.537Z</time></trkpt><trkpt lat="46.0312741" lon="11.9257848"><ele>284.8333333333333</ele><time>2026-04-18T14:27:49.536Z</time></trkpt><trkpt lat="46.0312427" lon="11.9256711"><ele>284.6666666666667</ele><time>2026-04-18T14:27:51.539Z</time></trkpt><trkpt lat="46.0312159" lon="11.9255493"><ele>284.5</ele><time>2026-04-18T14:27:53.537Z</time></trkpt><trkpt lat="46.0311836" lon="11.925429"><ele>284.33333333333337</ele><time>2026-04-18T14:27:55.539Z</time></trkpt><trkpt lat="46.0311631" lon="11.925313"><ele>284.1666666666667</ele><time>2026-04-18T14:27:57.537Z</time></trkpt><trkpt lat="46.0311493" lon="11.9252129"><ele>284.0</ele><time>2026-04-18T14:27:59.539Z</time></trkpt><trkpt lat="46.0311291" lon="11.9251023"><ele>283.6666666666667</ele><time>2026-04-18T14:28:01.536Z</time></trkpt><trkpt lat="46.0311026" lon="11.9249893"><ele>283.33333333333337</ele><time>2026-04-18T14:28:03.536Z</time></trkpt><trkpt lat="46.0310628" lon="11.9248652"><ele>283.0</ele><time>2026-04-18T14:28:05.537Z</time></trkpt><trkpt lat="46.0310527" lon="11.9247502"><ele>282.6666666666667</ele><time>2026-04-18T14:28:07.535Z</time></trkpt><trkpt lat="46.0310911" lon="11.924675"><ele>282.3333333333333</ele><time>2026-04-18T14:28:09.537Z</time></trkpt><trkpt lat="46.0311758" lon="11.9246218"><ele>282.0</ele><time>2026-04-18T14:28:12.533Z</time></trkpt><trkpt lat="46.0312421" lon="11.9245807"><ele>282.0</ele><time>2026-04-18T14:28:14.537Z</time></trkpt><trkpt lat="46.0313041" lon="11.9245452"><ele>282.0</ele><time>2026-04-18T14:28:16.538Z</time></trkpt><trkpt lat="46.0313682" lon="11.924507"><ele>282.0</ele><time>2026-04-18T14:28:18.537Z</time></trkpt><trkpt lat="46.0314383" lon="11.924473"><ele>282.0</ele><time>2026-04-18T14:28:20.537Z</time></trkpt><trkpt lat="46.0315162" lon="11.9244449"><ele>282.0</ele><time>2026-04-18T14:28:22.535Z</time></trkpt><trkpt lat="46.0315965" lon="11.9244086"><ele>282.0</ele><time>2026-04-18T14:28:24.537Z</time></trkpt><trkpt lat="46.031676" lon="11.9243772"><ele>282.3333333333333</ele><time>2026-04-18T14:28:26.536Z</time></trkpt><trkpt lat="46.0317562" lon="11.924346"><ele>282.6666666666667</ele><time>2026-04-18T14:28:28.536Z</time></trkpt><trkpt lat="46.0318352" lon="11.9243126"><ele>283.0</ele><time>2026-04-18T14:28:30.534Z</time></trkpt><trkpt lat="46.0319076" lon="11.9242854"><ele>283.33333333333337</ele><time>2026-04-18T14:28:32.539Z</time></trkpt><trkpt lat="46.031975" lon="11.9242552"><ele>283.6666666666667</ele><time>2026-04-18T14:28:34.537Z</time></trkpt><trkpt lat="46.0320313" lon="11.9242079"><ele>284.0</ele><time>2026-04-18T14:28:36.537Z</time></trkpt><trkpt lat="46.0320475" lon="11.9240785"><ele>284.0</ele><time>2026-04-18T14:28:39.536Z</time></trkpt><trkpt lat="46.0320196" lon="11.9239875"><ele>284.0</ele><time>2026-04-18T14:28:41.536Z</time></trkpt><trkpt lat="46.0319826" lon="11.9238996"><ele>284.0</ele><time>2026-04-18T14:28:43.539Z</time></trkpt><trkpt lat="46.0319483" lon="11.9238154"><ele>284.0</ele><time>2026-04-18T14:28:45.538Z</time></trkpt><trkpt lat="46.0319122" lon="11.9237291"><ele>284.0</ele><time>2026-04-18T14:28:47.536Z</time></trkpt><trkpt lat="46.0318763" lon="11.9236362"><ele>284.0</ele><time>2026-04-18T14:28:49.537Z</time></trkpt><trkpt lat="46.0318419" lon="11.9235489"><ele>284.0</ele><time>2026-04-18T14:28:51.537Z</time></trkpt><trkpt lat="46.0318039" lon="11.9234602"><ele>284.2</ele><time>2026-04-18T14:28:53.537Z</time></trkpt><trkpt lat="46.0317605" lon="11.9233613"><ele>284.4</ele><time>2026-04-18T14:28:55.535Z</time></trkpt><trkpt lat="46.0317128" lon="11.9232449"><ele>284.6</ele><time>2026-04-18T14:28:57.537Z</time></trkpt><trkpt lat="46.0316599" lon="11.9231166"><ele>284.8</ele><time>2026-04-18T14:28:59.538Z</time></trkpt><trkpt lat="46.0316086" lon="11.9229865"><ele>285.0</ele><time>2026-04-18T14:29:01.539Z</time></trkpt><trkpt lat="46.0315668" lon="11.9228571"><ele>284.8</ele><time>2026-04-18T14:29:03.538Z</time></trkpt><trkpt lat="46.0315363" lon="11.9227277"><ele>284.6</ele><time>2026-04-18T14:29:05.537Z</time></trkpt><trkpt lat="46.031515" lon="11.922593"><ele>284.4</ele><time>2026-04-18T14:29:07.537Z</time></trkpt><trkpt lat="46.031499" lon="11.9224562"><ele>284.2</ele><time>2026-04-18T14:29:09.537Z</time></trkpt><trkpt lat="46.0314889" lon="11.9223177"><ele>284.0</ele><time>2026-04-18T14:29:11.537Z</time></trkpt><trkpt lat="46.0314953" lon="11.9221987"><ele>284.0</ele><time>2026-04-18T14:29:13.538Z</time></trkpt><trkpt lat="46.0315511" lon="11.9221363"><ele>284.0</ele><time>2026-04-18T14:29:15.537Z</time></trkpt><trkpt lat="46.0316355" lon="11.9221384"><ele>284.0</ele><time>2026-04-18T14:29:18.537Z</time></trkpt><trkpt lat="46.0317036" lon="11.9221204"><ele>284.0</ele><time>2026-04-18T14:29:21.537Z</time></trkpt><trkpt lat="46.0317654" lon="11.922078"><ele>284.0</ele><time>2026-04-18T14:29:24.537Z</time></trkpt><trkpt lat="46.0317954" lon="11.9219775"><ele>284.0</ele><time>2026-04-18T14:29:27.536Z</time></trkpt><trkpt lat="46.0318162" lon="11.9218518"><ele>284.57142857142856</ele><time>2026-04-18T14:29:30.537Z</time></trkpt><trkpt lat="46.0318202" lon="11.921757"><ele>285.1428571428571</ele><time>2026-04-18T14:29:32.539Z</time></trkpt><trkpt lat="46.0318242" lon="11.9216627"><ele>285.7142857142857</ele><time>2026-04-18T14:29:34.536Z</time></trkpt><trkpt lat="46.0318133" lon="11.9215639"><ele>286.2857142857143</ele><time>2026-04-18T14:29:36.536Z</time></trkpt><trkpt lat="46.0317974" lon="11.9214703"><ele>286.8571428571429</ele><time>2026-04-18T14:29:38.537Z</time></trkpt><trkpt lat="46.0317783" lon="11.9213781"><ele>287.42857142857144</ele><time>2026-04-18T14:29:40.536Z</time></trkpt><trkpt lat="46.031757" lon="11.921288"><ele>288.0</ele><time>2026-04-18T14:29:42.538Z</time></trkpt><trkpt lat="46.0317349" lon="11.9211917"><ele>288.00000000000006</ele><time>2026-04-18T14:29:44.537Z</time></trkpt><trkpt lat="46.0317164" lon="11.9210943"><ele>288.0</ele><time>2026-04-18T14:29:46.537Z</time></trkpt><trkpt lat="46.0316984" lon="11.9210001"><ele>288.0</ele><time>2026-04-18T14:29:48.538Z</time></trkpt><trkpt lat="46.0316841" lon="11.9209102"><ele>288.0</ele><time>2026-04-18T14:29:50.537Z</time></trkpt><trkpt lat="46.0316717" lon="11.9208143"><ele>288.0</ele><time>2026-04-18T14:29:52.535Z</time></trkpt><trkpt lat="46.0316506" lon="11.9207122"><ele>288.00000000000006</ele><time>2026-04-18T14:29:54.536Z</time></trkpt><trkpt lat="46.0316212" lon="11.9206298"><ele>288.0</ele><time>2026-04-18T14:29:56.535Z</time></trkpt><trkpt lat="46.031598" lon="11.9205443"><ele>287.1666666666667</ele><time>2026-04-18T14:29:58.537Z</time></trkpt><trkpt lat="46.0315643" lon="11.9204549"><ele>286.3333333333333</ele><time>2026-04-18T14:30:00.537Z</time></trkpt><trkpt lat="46.0315292" lon="11.9203616"><ele>285.5</ele><time>2026-04-18T14:30:02.537Z</time></trkpt><trkpt lat="46.0314928" lon="11.9202677"><ele>284.66666666666663</ele><time>2026-04-18T14:30:04.536Z</time></trkpt><trkpt lat="46.0314535" lon="11.9201676"><ele>283.8333333333333</ele><time>2026-04-18T14:30:06.536Z</time></trkpt><trkpt lat="46.0314183" lon="11.9200644"><ele>283.0</ele><time>2026-04-18T14:30:08.537Z</time></trkpt><trkpt lat="46.0313785" lon="11.919957"><ele>283.0</ele><time>2026-04-18T14:30:10.538Z</time></trkpt><trkpt lat="46.0313402" lon="11.9198581"><ele>283.0</ele><time>2026-04-18T14:30:12.537Z</time></trkpt><trkpt lat="46.031295" lon="11.9197591"><ele>283.0</ele><time>2026-04-18T14:30:14.534Z</time></trkpt><trkpt lat="46.0312309" lon="11.9196577"><ele>283.0</ele><time>2026-04-18T14:30:16.536Z</time></trkpt><trkpt lat="46.0311721" lon="11.9195554"><ele>283.0</ele><time>2026-04-18T14:30:18.535Z</time></trkpt><trkpt lat="46.031116" lon="11.9194459"><ele>283.0</ele><time>2026-04-18T14:30:20.535Z</time></trkpt><trkpt lat="46.0310654" lon="11.9193449"><ele>283.0</ele><time>2026-04-18T14:30:22.534Z</time></trkpt><trkpt lat="46.0310229" lon="11.9192696"><ele>283.0</ele><time>2026-04-18T14:30:24.534Z</time></trkpt><trkpt lat="46.0309726" lon="11.9191505"><ele>283.0</ele><time>2026-04-18T14:30:27.535Z</time></trkpt><trkpt lat="46.0309423" lon="11.9190497"><ele>283.0</ele><time>2026-04-18T14:30:29.535Z</time></trkpt><trkpt lat="46.0309081" lon="11.9189306"><ele>283.0</ele><time>2026-04-18T14:30:31.535Z</time></trkpt><trkpt lat="46.0308727" lon="11.9188197"><ele>283.0</ele><time>2026-04-18T14:30:33.535Z</time></trkpt><trkpt lat="46.0308484" lon="11.9187232"><ele>283.0</ele><time>2026-04-18T14:30:35.535Z</time></trkpt><trkpt lat="46.0308104" lon="11.9186121"><ele>283.0</ele><time>2026-04-18T14:30:38.535Z</time></trkpt><trkpt lat="46.0307685" lon="11.9185067"><ele>283.0</ele><time>2026-04-18T14:30:41.534Z</time></trkpt><trkpt lat="46.030736" lon="11.9184285"><ele>283.0</ele><time>2026-04-18T14:30:43.534Z</time></trkpt><trkpt lat="46.0306912" lon="11.9183137"><ele>283.0</ele><time>2026-04-18T14:30:46.534Z</time></trkpt><trkpt lat="46.0306592" lon="11.918219"><ele>283.0</ele><time>2026-04-18T14:30:49.534Z</time></trkpt><trkpt lat="46.0306284" lon="11.9181181"><ele>283.66666666666663</ele><time>2026-04-18T14:30:52.535Z</time></trkpt><trkpt lat="46.0305983" lon="11.9180105"><ele>284.3333333333333</ele><time>2026-04-18T14:30:55.534Z</time></trkpt><trkpt lat="46.0305685" lon="11.9179277"><ele>285.0</ele><time>2026-04-18T14:30:58.534Z</time></trkpt><trkpt lat="46.0305337" lon="11.9178225"><ele>285.6666666666667</ele><time>2026-04-18T14:31:02.535Z</time></trkpt><trkpt lat="46.0304889" lon="11.9177301"><ele>286.33333333333337</ele><time>2026-04-18T14:31:06.535Z</time></trkpt><trkpt lat="46.0304511" lon="11.9176412"><ele>287.0</ele><time>2026-04-18T14:31:09.534Z</time></trkpt><trkpt lat="46.0304061" lon="11.9175306"><ele>287.2857142857143</ele><time>2026-04-18T14:31:12.533Z</time></trkpt><trkpt lat="46.0303731" lon="11.9174501"><ele>287.57142857142856</ele><time>2026-04-18T14:31:14.535Z</time></trkpt><trkpt lat="46.03034" lon="11.9173722"><ele>287.8571428571429</ele><time>2026-04-18T14:31:16.535Z</time></trkpt><trkpt lat="46.0303097" lon="11.9172904"><ele>288.1428571428571</ele><time>2026-04-18T14:31:18.535Z</time></trkpt><trkpt lat="46.0302789" lon="11.9172079"><ele>288.42857142857144</ele><time>2026-04-18T14:31:20.535Z</time></trkpt><trkpt lat="46.0302291" lon="11.9170935"><ele>288.7142857142857</ele><time>2026-04-18T14:31:23.535Z</time></trkpt><trkpt lat="46.0301811" lon="11.9169782"><ele>289.0</ele><time>2026-04-18T14:31:26.535Z</time></trkpt><trkpt lat="46.0301496" lon="11.9168898"><ele>289.0</ele><time>2026-04-18T14:31:28.533Z</time></trkpt><trkpt lat="46.0301157" lon="11.9168024"><ele>289.0</ele><time>2026-04-18T14:31:30.534Z</time></trkpt><trkpt lat="46.0300833" lon="11.9167196"><ele>289.0</ele><time>2026-04-18T14:31:32.535Z</time></trkpt><trkpt lat="46.0300443" lon="11.9166121"><ele>289.0</ele><time>2026-04-18T14:31:35.536Z</time></trkpt><trkpt lat="46.0300068" lon="11.9164968"><ele>289.0</ele><time>2026-04-18T14:31:38.535Z</time></trkpt><trkpt lat="46.0299794" lon="11.9164083"><ele>289.0</ele><time>2026-04-18T14:31:40.534Z</time></trkpt><trkpt lat="46.0299419" lon="11.9163155"><ele>288.8333333333333</ele><time>2026-04-18T14:31:42.534Z</time></trkpt><trkpt lat="46.0299057" lon="11.9162167"><ele>288.66666666666663</ele><time>2026-04-18T14:31:44.536Z</time></trkpt><trkpt lat="46.0298711" lon="11.9161213"><ele>288.5</ele><time>2026-04-18T14:31:46.535Z</time></trkpt><trkpt lat="46.0298357" lon="11.9160251"><ele>288.3333333333333</ele><time>2026-04-18T14:31:48.534Z</time></trkpt><trkpt lat="46.0298017" lon="11.9159363"><ele>288.1666666666667</ele><time>2026-04-18T14:31:50.534Z</time></trkpt><trkpt lat="46.0297639" lon="11.9158423"><ele>288.0</ele><time>2026-04-18T14:31:52.534Z</time></trkpt><trkpt lat="46.0297286" lon="11.9157427"><ele>288.0</ele><time>2026-04-18T14:31:54.533Z</time></trkpt><trkpt lat="46.0296945" lon="11.9156403"><ele>288.0</ele><time>2026-04-18T14:31:56.535Z</time></trkpt><trkpt lat="46.0296586" lon="11.9155354"><ele>288.0</ele><time>2026-04-18T14:31:58.534Z</time></trkpt><trkpt lat="46.0296248" lon="11.9154354"><ele>288.0</ele><time>2026-04-18T14:32:00.536Z</time></trkpt><trkpt lat="46.0296148" lon="11.9153404"><ele>288.0</ele><time>2026-04-18T14:32:02.533Z</time></trkpt><trkpt lat="46.029596" lon="11.9152507"><ele>288.0</ele><time>2026-04-18T14:32:04.534Z</time></trkpt><trkpt lat="46.0295751" lon="11.9151358"><ele>288.3333333333333</ele><time>2026-04-18T14:32:07.538Z</time></trkpt><trkpt lat="46.0295473" lon="11.915049"><ele>288.6666666666667</ele><time>2026-04-18T14:32:09.534Z</time></trkpt><trkpt lat="46.029517" lon="11.9149641"><ele>289.0</ele><time>2026-04-18T14:32:11.535Z</time></trkpt><trkpt lat="46.029476" lon="11.9148726"><ele>289.33333333333337</ele><time>2026-04-18T14:32:13.537Z</time></trkpt><trkpt lat="46.0294265" lon="11.9147746"><ele>289.6666666666667</ele><time>2026-04-18T14:32:15.535Z</time></trkpt><trkpt lat="46.029368" lon="11.9146809"><ele>290.0</ele><time>2026-04-18T14:32:17.535Z</time></trkpt><trkpt lat="46.0293143" lon="11.9145895"><ele>290.0</ele><time>2026-04-18T14:32:19.534Z</time></trkpt><trkpt lat="46.0292665" lon="11.9144999"><ele>290.0</ele><time>2026-04-18T14:32:21.535Z</time></trkpt><trkpt lat="46.0292186" lon="11.914414"><ele>290.0</ele><time>2026-04-18T14:32:23.534Z</time></trkpt><trkpt lat="46.0291684" lon="11.9143545"><ele>290.0</ele><time>2026-04-18T14:32:25.536Z</time></trkpt><trkpt lat="46.0290793" lon="11.914315"><ele>290.0</ele><time>2026-04-18T14:32:28.535Z</time></trkpt><trkpt lat="46.0290149" lon="11.9143309"><ele>290.0</ele><time>2026-04-18T14:32:30.536Z</time></trkpt><trkpt lat="46.0289565" lon="11.9143703"><ele>290.0</ele><time>2026-04-18T14:32:32.534Z</time></trkpt><trkpt lat="46.0288952" lon="11.9144227"><ele>289.8571428571429</ele><time>2026-04-18T14:32:34.534Z</time></trkpt><trkpt lat="46.0288348" lon="11.914474"><ele>289.7142857142857</ele><time>2026-04-18T14:32:36.535Z</time></trkpt><trkpt lat="46.0287738" lon="11.9145249"><ele>289.57142857142856</ele><time>2026-04-18T14:32:38.535Z</time></trkpt><trkpt lat="46.0287122" lon="11.9145665"><ele>289.42857142857144</ele><time>2026-04-18T14:32:40.535Z</time></trkpt><trkpt lat="46.0286446" lon="11.914603"><ele>289.2857142857143</ele><time>2026-04-18T14:32:42.535Z</time></trkpt><trkpt lat="46.0285731" lon="11.9146569"><ele>289.14285714285717</ele><time>2026-04-18T14:32:44.535Z</time></trkpt><trkpt lat="46.0284997" lon="11.9146935"><ele>289.0</ele><time>2026-04-18T14:32:46.535Z</time></trkpt><trkpt lat="46.0284284" lon="11.914717"><ele>289.0</ele><time>2026-04-18T14:32:48.535Z</time></trkpt><trkpt lat="46.0283577" lon="11.9147283"><ele>289.0</ele><time>2026-04-18T14:32:50.536Z</time></trkpt><trkpt lat="46.0282794" lon="11.9147291"><ele>289.0</ele><time>2026-04-18T14:32:52.535Z</time></trkpt><trkpt lat="46.0281989" lon="11.9147297"><ele>289.0</ele><time>2026-04-18T14:32:54.535Z</time></trkpt><trkpt lat="46.0281178" lon="11.9147305"><ele>289.0</ele><time>2026-04-18T14:32:56.535Z</time></trkpt><trkpt lat="46.0280321" lon="11.914732"><ele>289.0</ele><time>2026-04-18T14:32:58.536Z</time></trkpt><trkpt lat="46.0279457" lon="11.9147418"><ele>289.0</ele><time>2026-04-18T14:33:00.536Z</time></trkpt><trkpt lat="46.027858" lon="11.9147483"><ele>289.0</ele><time>2026-04-18T14:33:02.536Z</time></trkpt><trkpt lat="46.0277711" lon="11.9147516"><ele>289.0</ele><time>2026-04-18T14:33:04.536Z</time></trkpt><trkpt lat="46.0276837" lon="11.9147479"><ele>289.0</ele><time>2026-04-18T14:33:06.537Z</time></trkpt><trkpt lat="46.0275986" lon="11.9147479"><ele>289.0</ele><time>2026-04-18T14:33:08.537Z</time></trkpt><trkpt lat="46.0275131" lon="11.9147498"><ele>289.0</ele><time>2026-04-18T14:33:10.535Z</time></trkpt><trkpt lat="46.0274318" lon="11.9147499"><ele>288.5</ele><time>2026-04-18T14:33:12.534Z</time></trkpt><trkpt lat="46.0273514" lon="11.9147446"><ele>288.0</ele><time>2026-04-18T14:33:14.534Z</time></trkpt><trkpt lat="46.0272716" lon="11.9147526"><ele>287.5</ele><time>2026-04-18T14:33:16.535Z</time></trkpt><trkpt lat="46.0271938" lon="11.914769"><ele>287.0</ele><time>2026-04-18T14:33:18.536Z</time></trkpt><trkpt lat="46.0271228" lon="11.914721"><ele>286.5</ele><time>2026-04-18T14:33:20.534Z</time></trkpt><trkpt lat="46.0271073" lon="11.9146042"><ele>286.0</ele><time>2026-04-18T14:33:22.533Z</time></trkpt><trkpt lat="46.0270964" lon="11.9144808"><ele>286.0</ele><time>2026-04-18T14:33:24.535Z</time></trkpt><trkpt lat="46.0270809" lon="11.9143481"><ele>286.0</ele><time>2026-04-18T14:33:26.535Z</time></trkpt><trkpt lat="46.0270608" lon="11.9142095"><ele>286.0</ele><time>2026-04-18T14:33:28.534Z</time></trkpt><trkpt lat="46.0270498" lon="11.9140778"><ele>286.0</ele><time>2026-04-18T14:33:30.534Z</time></trkpt><trkpt lat="46.0270379" lon="11.9139519"><ele>286.0</ele><time>2026-04-18T14:33:32.535Z</time></trkpt><trkpt lat="46.0270295" lon="11.9138257"><ele>286.0</ele><time>2026-04-18T14:33:34.534Z</time></trkpt><trkpt lat="46.0270129" lon="11.9137044"><ele>286.0</ele><time>2026-04-18T14:33:36.535Z</time></trkpt><trkpt lat="46.0270041" lon="11.9135992"><ele>286.0</ele><time>2026-04-18T14:33:38.537Z</time></trkpt><trkpt lat="46.0269939" lon="11.9134984"><ele>286.0</ele><time>2026-04-18T14:33:40.535Z</time></trkpt><trkpt lat="46.0269835" lon="11.9133989"><ele>286.0</ele><time>2026-04-18T14:33:42.534Z</time></trkpt><trkpt lat="46.0269706" lon="11.913309"><ele>286.0</ele><time>2026-04-18T14:33:44.535Z</time></trkpt><trkpt lat="46.0269529" lon="11.91318"><ele>286.0</ele><time>2026-04-18T14:33:47.535Z</time></trkpt><trkpt lat="46.026948" lon="11.9130592"><ele>286.0</ele><time>2026-04-18T14:33:50.535Z</time></trkpt><trkpt lat="46.0269408" lon="11.9129487"><ele>286.0</ele><time>2026-04-18T14:33:53.533Z</time></trkpt><trkpt lat="46.0269384" lon="11.9128375"><ele>286.0</ele><time>2026-04-18T14:33:56.535Z</time></trkpt><trkpt lat="46.0269453" lon="11.9127196"><ele>286.0</ele><time>2026-04-18T14:33:59.535Z</time></trkpt><trkpt lat="46.0270195" lon="11.912656"><ele>286.0</ele><time>2026-04-18T14:34:02.536Z</time></trkpt><trkpt lat="46.0271057" lon="11.9126371"><ele>285.99999999999994</ele><time>2026-04-18T14:34:05.535Z</time></trkpt><trkpt lat="46.0271937" lon="11.9126243"><ele>286.0</ele><time>2026-04-18T14:34:08.534Z</time></trkpt><trkpt lat="46.0272575" lon="11.9126183"><ele>286.0</ele><time>2026-04-18T14:34:10.535Z</time></trkpt><trkpt lat="46.0273356" lon="11.9126044"><ele>286.0</ele><time>2026-04-18T14:34:13.535Z</time></trkpt><trkpt lat="46.0273977" lon="11.9126194"><ele>286.0</ele><time>2026-04-18T14:34:16.534Z</time></trkpt><trkpt lat="46.0274105" lon="11.9127199"><ele>285.99999999999994</ele><time>2026-04-18T14:34:19.535Z</time></trkpt><trkpt lat="46.0274142" lon="11.9128262"><ele>286.0</ele><time>2026-04-18T14:34:22.535Z</time></trkpt><trkpt lat="46.0274093" lon="11.9129273"><ele>286.0</ele><time>2026-04-18T14:34:25.533Z</time></trkpt></trkseg></trk></gpx>